<?xml version='1.0' encoding='UTF-8'?><gpx version="1.1" creator="JPX - https://github.com/jenetics/jpx" xmlns="http://www.topografix.com/GPX/1/1"><trk><trkseg><trkpt lat="45.50924240150071" lon="11.467396561067055"><ele>43.0</ele><time>2026-03-29T05:39:11.01Z</time></trkpt><trkpt lat="45.50901504237718" lon="11.467402009304116"><ele>43.0</ele><time>2026-03-29T05:39:12.015Z</time></trkpt><trkpt lat="45.508823515889965" lon="11.467319950472067"><ele>43.0</ele><time>2026-03-29T05:39:26.997Z</time></trkpt><trkpt lat="45.508532328573786" lon="11.467297319333504"><ele>42.0</ele><time>2026-03-29T05:39:27.998Z</time></trkpt><trkpt lat="45.50803352151606" lon="11.46725163796122"><ele>42.0</ele><time>2026-03-29T05:39:31.998Z</time></trkpt><trkpt lat="45.50796059895847" lon="11.467236718173575"><ele>42.0</ele><time>2026-03-29T05:39:43.999Z</time></trkpt><trkpt lat="45.50777349065356" lon="11.467282980268623"><ele>42.0</ele><time>2026-03-29T05:39:45.999Z</time></trkpt><trkpt lat="45.50767861838576" lon="11.467238059809869"><ele>42.0</ele><time>2026-03-29T05:40:14.999Z</time></trkpt><trkpt lat="45.50767051025104" lon="11.467130051680947"><ele>42.0</ele><time>2026-03-29T05:40:16.999Z</time></trkpt><trkpt lat="45.50760684646062" lon="11.466997213521681"><ele>42.0</ele><time>2026-03-29T05:40:21.999Z</time></trkpt><trkpt lat="45.507522929932506" lon="11.467009631233267"><ele>42.0</ele><time>2026-03-29T05:40:23.999Z</time></trkpt><trkpt lat="45.507448826090304" lon="11.467014048986405"><ele>42.0</ele><time>2026-03-29T05:40:25.999Z</time></trkpt><trkpt lat="45.507418736818416" lon="11.467128375507366"><ele>42.0</ele><time>2026-03-29T05:40:27.999Z</time></trkpt><trkpt lat="45.50743653219118" lon="11.467280764485267"><ele>42.0</ele><time>2026-03-29T05:40:29.999Z</time></trkpt><trkpt lat="45.507454388995974" lon="11.467443051322839"><ele>42.0</ele><time>2026-03-29T05:40:31.998Z</time></trkpt><trkpt lat="45.50747038870696" lon="11.46759783033656"><ele>42.0</ele><time>2026-03-29T05:40:33.998Z</time></trkpt><trkpt lat="45.50748750139792" lon="11.467735187933618"><ele>42.0</ele><time>2026-03-29T05:40:35.998Z</time></trkpt><trkpt lat="45.50750497464993" lon="11.467860843362809"><ele>42.0</ele><time>2026-03-29T05:40:37.998Z</time></trkpt><trkpt lat="45.50750245883717" lon="11.468000441515379"><ele>42.0</ele><time>2026-03-29T05:40:39.998Z</time></trkpt><trkpt lat="45.5074987557541" lon="11.46811484190798"><ele>42.166666666666664</ele><time>2026-03-29T05:40:41.998Z</time></trkpt><trkpt lat="45.507376628032695" lon="11.468128775018641"><ele>42.333333333333336</ele><time>2026-03-29T05:40:43.998Z</time></trkpt><trkpt lat="45.50730064048348" lon="11.468229398439263"><ele>42.5</ele><time>2026-03-29T05:40:45.998Z</time></trkpt><trkpt lat="45.507242399263085" lon="11.46829971906383"><ele>42.66666666666667</ele><time>2026-03-29T05:40:47.998Z</time></trkpt><trkpt lat="45.50728121738881" lon="11.468383695366532"><ele>42.833333333333336</ele><time>2026-03-29T05:41:13.997Z</time></trkpt><trkpt lat="45.50727948594185" lon="11.468477068153346"><ele>43.0</ele><time>2026-03-29T05:41:16.997Z</time></trkpt><trkpt lat="45.50731540108393" lon="11.468593431832462"><ele>43.0</ele><time>2026-03-29T05:41:19Z</time></trkpt><trkpt lat="45.50736368743603" lon="11.468720972677959"><ele>43.0</ele><time>2026-03-29T05:41:21Z</time></trkpt><trkpt lat="45.507416265354806" lon="11.468867943381984"><ele>43.0</ele><time>2026-03-29T05:41:23Z</time></trkpt><trkpt lat="45.507473147853354" lon="11.469021487173942"><ele>43.0</ele><time>2026-03-29T05:41:25Z</time></trkpt><trkpt lat="45.507539740450746" lon="11.469170204489172"><ele>43.0</ele><time>2026-03-29T05:41:27Z</time></trkpt><trkpt lat="45.507630574170676" lon="11.46929723199681"><ele>43.0</ele><time>2026-03-29T05:41:29Z</time></trkpt><trkpt lat="45.50767708008796" lon="11.469361140177732"><ele>43.0</ele><time>2026-03-29T05:41:30Z</time></trkpt><trkpt lat="45.507730841639706" lon="11.469424288660951"><ele>43.0</ele><time>2026-03-29T05:41:31Z</time></trkpt><trkpt lat="45.50781407392036" lon="11.469547418494223"><ele>43.0</ele><time>2026-03-29T05:41:33Z</time></trkpt><trkpt lat="45.50784815090795" lon="11.469631250629668"><ele>43.0</ele><time>2026-03-29T05:41:34Z</time></trkpt><trkpt lat="45.50789555753706" lon="11.46969915247399"><ele>43.5</ele><time>2026-03-29T05:41:35Z</time></trkpt><trkpt lat="45.50794266618345" lon="11.469764198693392"><ele>44.0</ele><time>2026-03-29T05:41:36Z</time></trkpt><trkpt lat="45.50803740024083" lon="11.469886441336188"><ele>44.5</ele><time>2026-03-29T05:41:38Z</time></trkpt><trkpt lat="45.508085079797134" lon="11.469947965942385"><ele>45.0</ele><time>2026-03-29T05:41:39Z</time></trkpt><trkpt lat="45.50813438988223" lon="11.470009452975116"><ele>45.5</ele><time>2026-03-29T05:41:40Z</time></trkpt><trkpt lat="45.5081843390625" lon="11.470068631385677"><ele>46.0</ele><time>2026-03-29T05:41:41Z</time></trkpt><trkpt lat="45.50823124960465" lon="11.470147555833435"><ele>46.0</ele><time>2026-03-29T05:41:43Z</time></trkpt><trkpt lat="45.508208665777154" lon="11.470305470866803"><ele>46.0</ele><time>2026-03-29T05:41:45Z</time></trkpt><trkpt lat="45.508243802799" lon="11.470454310095318"><ele>46.0</ele><time>2026-03-29T05:41:47Z</time></trkpt><trkpt lat="45.50825545537049" lon="11.470596375160945"><ele>46.0</ele><time>2026-03-29T05:41:49Z</time></trkpt><trkpt lat="45.50829573359221" lon="11.470738877267218"><ele>46.0</ele><time>2026-03-29T05:41:51Z</time></trkpt><trkpt lat="45.5083512918593" lon="11.470883296001455"><ele>46.0</ele><time>2026-03-29T05:41:52.999Z</time></trkpt><trkpt lat="45.508417773487544" lon="11.471021259073261"><ele>46.0</ele><time>2026-03-29T05:41:54.999Z</time></trkpt><trkpt lat="45.50847945915749" lon="11.471167970777408"><ele>46.0</ele><time>2026-03-29T05:41:56.999Z</time></trkpt><trkpt lat="45.5085138631161" lon="11.471243270759757"><ele>46.0</ele><time>2026-03-29T05:41:57.999Z</time></trkpt><trkpt lat="45.508549352346485" lon="11.47131790614968"><ele>46.0</ele><time>2026-03-29T05:41:58.999Z</time></trkpt><trkpt lat="45.50858181199435" lon="11.47140172693115"><ele>46.0</ele><time>2026-03-29T05:41:59.999Z</time></trkpt><trkpt lat="45.50859998285528" lon="11.471490371565416"><ele>46.0</ele><time>2026-03-29T05:42:00.999Z</time></trkpt><trkpt lat="45.50865730553837" lon="11.471643653971121"><ele>46.0</ele><time>2026-03-29T05:42:02.999Z</time></trkpt><trkpt lat="45.50863670937579" lon="11.471808954599577"><ele>46.0</ele><time>2026-03-29T05:42:04.999Z</time></trkpt><trkpt lat="45.50861945982217" lon="11.471964279158145"><ele>46.0</ele><time>2026-03-29T05:42:06.999Z</time></trkpt><trkpt lat="45.50858951789691" lon="11.472047269247211"><ele>46.0</ele><time>2026-03-29T05:42:07.999Z</time></trkpt><trkpt lat="45.50854552138671" lon="11.472119249362063"><ele>45.16666666666667</ele><time>2026-03-29T05:42:08.999Z</time></trkpt><trkpt lat="45.50849092557964" lon="11.472171785891343"><ele>44.333333333333336</ele><time>2026-03-29T05:42:09.999Z</time></trkpt><trkpt lat="45.50838756700735" lon="11.472267313182973"><ele>43.5</ele><time>2026-03-29T05:42:11.999Z</time></trkpt><trkpt lat="45.50833225217839" lon="11.472317303284886"><ele>42.666666666666664</ele><time>2026-03-29T05:42:12.999Z</time></trkpt><trkpt lat="45.508270897251464" lon="11.472374211164947"><ele>41.83333333333333</ele><time>2026-03-29T05:42:13.999Z</time></trkpt><trkpt lat="45.508218432890914" lon="11.472433823454988"><ele>41.0</ele><time>2026-03-29T05:42:14.999Z</time></trkpt><trkpt lat="45.50816735252164" lon="11.472496823628196"><ele>41.0</ele><time>2026-03-29T05:42:15.999Z</time></trkpt><trkpt lat="45.508120635602126" lon="11.472558225111062"><ele>41.0</ele><time>2026-03-29T05:42:16.999Z</time></trkpt><trkpt lat="45.50806687519558" lon="11.472615979324287"><ele>41.0</ele><time>2026-03-29T05:42:17.999Z</time></trkpt><trkpt lat="45.50801069015183" lon="11.472676977312465"><ele>41.0</ele><time>2026-03-29T05:42:18.999Z</time></trkpt><trkpt lat="45.50795916720617" lon="11.472738778026768"><ele>41.0</ele><time>2026-03-29T05:42:19.999Z</time></trkpt><trkpt lat="45.507864531382346" lon="11.472844002497224"><ele>41.0</ele><time>2026-03-29T05:42:21.999Z</time></trkpt><trkpt lat="45.50778741673066" lon="11.472967906324413"><ele>40.83333333333333</ele><time>2026-03-29T05:42:24.019Z</time></trkpt><trkpt lat="45.50772072674815" lon="11.473032146310349"><ele>40.666666666666664</ele><time>2026-03-29T05:42:25.02Z</time></trkpt><trkpt lat="45.50765502812481" lon="11.473065876461972"><ele>40.5</ele><time>2026-03-29T05:42:26.999Z</time></trkpt><trkpt lat="45.50759922927181" lon="11.473118458772557"><ele>40.333333333333336</ele><time>2026-03-29T05:42:27.999Z</time></trkpt><trkpt lat="45.50755583847334" lon="11.473266362433524"><ele>40.16666666666667</ele><time>2026-03-29T05:42:29.998Z</time></trkpt><trkpt lat="45.5076033928946" lon="11.473353681193382"><ele>40.0</ele><time>2026-03-29T05:42:30.998Z</time></trkpt><trkpt lat="45.507686738926004" lon="11.473486138239238"><ele>40.0</ele><time>2026-03-29T05:42:32.998Z</time></trkpt><trkpt lat="45.50773204058275" lon="11.47355387204666"><ele>40.0</ele><time>2026-03-29T05:42:33.998Z</time></trkpt><trkpt lat="45.50778593780019" lon="11.473715029152585"><ele>40.0</ele><time>2026-03-29T05:42:35.998Z</time></trkpt><trkpt lat="45.50782612533486" lon="11.473796956122033"><ele>40.0</ele><time>2026-03-29T05:42:36.998Z</time></trkpt><trkpt lat="45.50785834975944" lon="11.47388413277431"><ele>40.0</ele><time>2026-03-29T05:42:37.998Z</time></trkpt><trkpt lat="45.507892254640325" lon="11.473971906099484"><ele>40.0</ele><time>2026-03-29T05:42:38.998Z</time></trkpt><trkpt lat="45.507925558794575" lon="11.474052650110927"><ele>39.714285714285715</ele><time>2026-03-29T05:42:39.998Z</time></trkpt><trkpt lat="45.50796042375063" lon="11.47413339591964"><ele>39.42857142857143</ele><time>2026-03-29T05:42:40.998Z</time></trkpt><trkpt lat="45.50800075687487" lon="11.474226863119194"><ele>39.14285714285714</ele><time>2026-03-29T05:42:41.998Z</time></trkpt><trkpt lat="45.508032640836454" lon="11.474316057592608"><ele>38.85714285714286</ele><time>2026-03-29T05:42:42.998Z</time></trkpt><trkpt lat="45.50806373269475" lon="11.474405137677532"><ele>38.57142857142858</ele><time>2026-03-29T05:42:43.998Z</time></trkpt><trkpt lat="45.50809940625233" lon="11.474489230263053"><ele>38.285714285714285</ele><time>2026-03-29T05:42:44.998Z</time></trkpt><trkpt lat="45.50813017542043" lon="11.474575828475094"><ele>38.0</ele><time>2026-03-29T05:42:45.998Z</time></trkpt><trkpt lat="45.508163360831844" lon="11.47466258260506"><ele>38.0</ele><time>2026-03-29T05:42:46.998Z</time></trkpt><trkpt lat="45.50819529850729" lon="11.474751310657147"><ele>38.0</ele><time>2026-03-29T05:42:47.998Z</time></trkpt><trkpt lat="45.50822813680732" lon="11.474835828385494"><ele>38.0</ele><time>2026-03-29T05:42:48.998Z</time></trkpt><trkpt lat="45.508254913715525" lon="11.474922463068363"><ele>38.0</ele><time>2026-03-29T05:42:49.998Z</time></trkpt><trkpt lat="45.508289874637924" lon="11.475009287454599"><ele>38.0</ele><time>2026-03-29T05:42:50.998Z</time></trkpt><trkpt lat="45.50832496747151" lon="11.475097418760177"><ele>38.0</ele><time>2026-03-29T05:42:51.998Z</time></trkpt><trkpt lat="45.50835577042115" lon="11.475184535826841"><ele>38.0</ele><time>2026-03-29T05:42:52.998Z</time></trkpt><trkpt lat="45.508386626005844" lon="11.475268407672964"><ele>38.0</ele><time>2026-03-29T05:42:53.998Z</time></trkpt><trkpt lat="45.50842070105738" lon="11.475349532613588"><ele>38.0</ele><time>2026-03-29T05:42:54.998Z</time></trkpt><trkpt lat="45.50848259186553" lon="11.47550029552583"><ele>38.0</ele><time>2026-03-29T05:42:56.998Z</time></trkpt><trkpt lat="45.50853808554365" lon="11.475640678376408"><ele>38.0</ele><time>2026-03-29T05:42:58.998Z</time></trkpt><trkpt lat="45.508587673735114" lon="11.475768850913255"><ele>38.0</ele><time>2026-03-29T05:43:00.998Z</time></trkpt><trkpt lat="45.50863943456406" lon="11.475916716751968"><ele>38.0</ele><time>2026-03-29T05:43:02.998Z</time></trkpt><trkpt lat="45.50869513977424" lon="11.476059007275406"><ele>38.0</ele><time>2026-03-29T05:43:04.998Z</time></trkpt><trkpt lat="45.50872758942027" lon="11.4761388845074"><ele>38.0</ele><time>2026-03-29T05:43:05.998Z</time></trkpt><trkpt lat="45.50875799682543" lon="11.476218991939673"><ele>38.0</ele><time>2026-03-29T05:43:06.998Z</time></trkpt><trkpt lat="45.508817048638896" lon="11.476376316236635"><ele>38.0</ele><time>2026-03-29T05:43:08.997Z</time></trkpt><trkpt lat="45.50884611662461" lon="11.476457944975323"><ele>38.0</ele><time>2026-03-29T05:43:09.997Z</time></trkpt><trkpt lat="45.508899889012476" lon="11.476600950739021"><ele>38.0</ele><time>2026-03-29T05:43:11.997Z</time></trkpt><trkpt lat="45.50895151923665" lon="11.47673957545451"><ele>38.0</ele><time>2026-03-29T05:43:13.997Z</time></trkpt><trkpt lat="45.50900691646533" lon="11.476896530368073"><ele>38.0</ele><time>2026-03-29T05:43:15.997Z</time></trkpt><trkpt lat="45.509037892274044" lon="11.476977654712368"><ele>38.0</ele><time>2026-03-29T05:43:16.997Z</time></trkpt><trkpt lat="45.509066098335445" lon="11.477058826202775"><ele>38.0</ele><time>2026-03-29T05:43:17.997Z</time></trkpt><trkpt lat="45.50910245096461" lon="11.4771478619716"><ele>38.0</ele><time>2026-03-29T05:43:18.997Z</time></trkpt><trkpt lat="45.50915895346097" lon="11.477309850368153"><ele>37.857142857142854</ele><time>2026-03-29T05:43:20.997Z</time></trkpt><trkpt lat="45.50918567109687" lon="11.477393974397955"><ele>37.714285714285715</ele><time>2026-03-29T05:43:21.997Z</time></trkpt><trkpt lat="45.50922114946822" lon="11.477479670872144"><ele>37.57142857142857</ele><time>2026-03-29T05:43:22.997Z</time></trkpt><trkpt lat="45.509252232664615" lon="11.477563638827961"><ele>37.42857142857143</ele><time>2026-03-29T05:43:24Z</time></trkpt><trkpt lat="45.50928344950949" lon="11.477649799407901"><ele>37.285714285714285</ele><time>2026-03-29T05:43:25Z</time></trkpt><trkpt lat="45.509313578316366" lon="11.477732851913885"><ele>37.142857142857146</ele><time>2026-03-29T05:43:26Z</time></trkpt><trkpt lat="45.50933822523565" lon="11.477818689839088"><ele>37.0</ele><time>2026-03-29T05:43:27Z</time></trkpt><trkpt lat="45.50936573496933" lon="11.477904066139798"><ele>37.0</ele><time>2026-03-29T05:43:28Z</time></trkpt><trkpt lat="45.50939051370248" lon="11.47798953269583"><ele>37.0</ele><time>2026-03-29T05:43:29Z</time></trkpt><trkpt lat="45.50943338722099" lon="11.47814704379556"><ele>37.0</ele><time>2026-03-29T05:43:31Z</time></trkpt><trkpt lat="45.50946832743977" lon="11.478294118426248"><ele>37.0</ele><time>2026-03-29T05:43:33Z</time></trkpt><trkpt lat="45.50949251136413" lon="11.478454872788394"><ele>37.0</ele><time>2026-03-29T05:43:35Z</time></trkpt><trkpt lat="45.50950694852651" lon="11.478619300446477"><ele>37.0</ele><time>2026-03-29T05:43:37Z</time></trkpt><trkpt lat="45.5095088518151" lon="11.478776952635714"><ele>37.0</ele><time>2026-03-29T05:43:39Z</time></trkpt><trkpt lat="45.50950620989872" lon="11.478934446042173"><ele>37.0</ele><time>2026-03-29T05:43:41Z</time></trkpt><trkpt lat="45.50949721096109" lon="11.479097788047632"><ele>37.0</ele><time>2026-03-29T05:43:43Z</time></trkpt><trkpt lat="45.509477485644744" lon="11.479265328470511"><ele>37.0</ele><time>2026-03-29T05:43:45Z</time></trkpt><trkpt lat="45.509447928028706" lon="11.479437881037443"><ele>37.0</ele><time>2026-03-29T05:43:47Z</time></trkpt><trkpt lat="45.5094308005715" lon="11.479524621298339"><ele>37.0</ele><time>2026-03-29T05:43:48Z</time></trkpt><trkpt lat="45.509411170504336" lon="11.479613890797186"><ele>37.0</ele><time>2026-03-29T05:43:49Z</time></trkpt><trkpt lat="45.50936254904603" lon="11.479786732752165"><ele>37.0</ele><time>2026-03-29T05:43:51Z</time></trkpt><trkpt lat="45.50933485234286" lon="11.479877612647421"><ele>37.333333333333336</ele><time>2026-03-29T05:43:52Z</time></trkpt><trkpt lat="45.50928880980429" lon="11.480044469904655"><ele>37.66666666666667</ele><time>2026-03-29T05:43:54Z</time></trkpt><trkpt lat="45.50926213407346" lon="11.480130408338868"><ele>38.0</ele><time>2026-03-29T05:43:55Z</time></trkpt><trkpt lat="45.50923789968576" lon="11.480218896284557"><ele>38.333333333333336</ele><time>2026-03-29T05:43:56Z</time></trkpt><trkpt lat="45.5092151407611" lon="11.480304225715011"><ele>38.666666666666664</ele><time>2026-03-29T05:43:57Z</time></trkpt><trkpt lat="45.509194150492775" lon="11.480394297443635"><ele>39.0</ele><time>2026-03-29T05:43:58Z</time></trkpt><trkpt lat="45.50917549969104" lon="11.48048551661217"><ele>39.0</ele><time>2026-03-29T05:43:59Z</time></trkpt><trkpt lat="45.50915942898504" lon="11.480577900429076"><ele>39.0</ele><time>2026-03-29T05:43:59.999Z</time></trkpt><trkpt lat="45.50913327746664" lon="11.48075968354364"><ele>39.0</ele><time>2026-03-29T05:44:01.999Z</time></trkpt><trkpt lat="45.50912540505321" lon="11.480856968976974"><ele>39.0</ele><time>2026-03-29T05:44:02.999Z</time></trkpt><trkpt lat="45.50912325948661" lon="11.480950123267176"><ele>39.0</ele><time>2026-03-29T05:44:03.999Z</time></trkpt><trkpt lat="45.509125718114845" lon="11.481047775949142"><ele>39.0</ele><time>2026-03-29T05:44:04.999Z</time></trkpt><trkpt lat="45.50913220009157" lon="11.481147320728796"><ele>39.0</ele><time>2026-03-29T05:44:05.999Z</time></trkpt><trkpt lat="45.509143249758246" lon="11.481244358909498"><ele>39.0</ele><time>2026-03-29T05:44:06.999Z</time></trkpt><trkpt lat="45.50915906082877" lon="11.481340988663883"><ele>39.0</ele><time>2026-03-29T05:44:07.999Z</time></trkpt><trkpt lat="45.509176431018346" lon="11.481439364118136"><ele>39.0</ele><time>2026-03-29T05:44:08.999Z</time></trkpt><trkpt lat="45.50919162656767" lon="11.481537188799754"><ele>39.0</ele><time>2026-03-29T05:44:09.999Z</time></trkpt><trkpt lat="45.50920761937153" lon="11.481636442996704"><ele>39.0</ele><time>2026-03-29T05:44:10.999Z</time></trkpt><trkpt lat="45.50922390695761" lon="11.481735645176675"><ele>39.0</ele><time>2026-03-29T05:44:11.999Z</time></trkpt><trkpt lat="45.50923944812039" lon="11.481832917712632"><ele>38.85714285714286</ele><time>2026-03-29T05:44:12.999Z</time></trkpt><trkpt lat="45.5092544169345" lon="11.48192931372775"><ele>38.71428571428571</ele><time>2026-03-29T05:44:13.999Z</time></trkpt><trkpt lat="45.50926559579109" lon="11.482026599570405"><ele>38.57142857142857</ele><time>2026-03-29T05:44:14.999Z</time></trkpt><trkpt lat="45.50926923443333" lon="11.48212620878295"><ele>38.42857142857143</ele><time>2026-03-29T05:44:15.999Z</time></trkpt><trkpt lat="45.509262472250974" lon="11.482224891643973"><ele>38.28571428571429</ele><time>2026-03-29T05:44:16.999Z</time></trkpt><trkpt lat="45.509242782588196" lon="11.482318336430348"><ele>38.14285714285714</ele><time>2026-03-29T05:44:17.999Z</time></trkpt><trkpt lat="45.509211298822116" lon="11.48240577149737"><ele>38.0</ele><time>2026-03-29T05:44:18.999Z</time></trkpt><trkpt lat="45.509170223471564" lon="11.482479863617115"><ele>37.666666666666664</ele><time>2026-03-29T05:44:19.999Z</time></trkpt><trkpt lat="45.50908417198297" lon="11.482594294744056"><ele>37.33333333333333</ele><time>2026-03-29T05:44:21.999Z</time></trkpt><trkpt lat="45.50898798344819" lon="11.482700115483158"><ele>37.0</ele><time>2026-03-29T05:44:23.999Z</time></trkpt><trkpt lat="45.508937964147286" lon="11.482761763107563"><ele>36.666666666666664</ele><time>2026-03-29T05:44:24.999Z</time></trkpt><trkpt lat="45.508887694976444" lon="11.482823463476372"><ele>36.333333333333336</ele><time>2026-03-29T05:44:25.999Z</time></trkpt><trkpt lat="45.50883652062741" lon="11.48289112867831"><ele>36.0</ele><time>2026-03-29T05:44:26.999Z</time></trkpt><trkpt lat="45.508785047572125" lon="11.482957250840906"><ele>35.2</ele><time>2026-03-29T05:44:27.999Z</time></trkpt><trkpt lat="45.5087341742647" lon="11.483022951238814"><ele>34.400000000000006</ele><time>2026-03-29T05:44:28.999Z</time></trkpt><trkpt lat="45.508685365881085" lon="11.483083355484213"><ele>33.6</ele><time>2026-03-29T05:44:29.999Z</time></trkpt><trkpt lat="45.508592895181465" lon="11.483192830152596"><ele>32.800000000000004</ele><time>2026-03-29T05:44:31.999Z</time></trkpt><trkpt lat="45.50849973081868" lon="11.48327722065298"><ele>32.0</ele><time>2026-03-29T05:44:33.999Z</time></trkpt><trkpt lat="45.50839884776909" lon="11.48334599806934"><ele>31.999999999999996</ele><time>2026-03-29T05:44:35.999Z</time></trkpt><trkpt lat="45.50828595997207" lon="11.483422342102394"><ele>32.0</ele><time>2026-03-29T05:44:37.998Z</time></trkpt><trkpt lat="45.508229478829826" lon="11.483462401464754"><ele>32.0</ele><time>2026-03-29T05:44:38.998Z</time></trkpt><trkpt lat="45.50817363078261" lon="11.483504272174818"><ele>32.0</ele><time>2026-03-29T05:44:39.998Z</time></trkpt><trkpt lat="45.508057112685655" lon="11.483578520806963"><ele>31.999999999999996</ele><time>2026-03-29T05:44:41.998Z</time></trkpt><trkpt lat="45.507997539119756" lon="11.483619601796896"><ele>32.0</ele><time>2026-03-29T05:44:42.998Z</time></trkpt><trkpt lat="45.50793761043838" lon="11.48365697372589"><ele>32.33333333333333</ele><time>2026-03-29T05:44:43.998Z</time></trkpt><trkpt lat="45.507878689983734" lon="11.483696362286793"><ele>32.666666666666664</ele><time>2026-03-29T05:44:44.998Z</time></trkpt><trkpt lat="45.507817344915765" lon="11.483734617703865"><ele>33.0</ele><time>2026-03-29T05:44:45.998Z</time></trkpt><trkpt lat="45.50770245614659" lon="11.483809191211872"><ele>33.333333333333336</ele><time>2026-03-29T05:44:47.998Z</time></trkpt><trkpt lat="45.50764295310969" lon="11.483849761263933"><ele>33.66666666666667</ele><time>2026-03-29T05:44:48.998Z</time></trkpt><trkpt lat="45.50758290983354" lon="11.483890837786282"><ele>34.0</ele><time>2026-03-29T05:44:49.998Z</time></trkpt><trkpt lat="45.50752580374457" lon="11.483928716963558"><ele>33.99999999999999</ele><time>2026-03-29T05:44:50.998Z</time></trkpt><trkpt lat="45.507465655526936" lon="11.483966411715178"><ele>34.0</ele><time>2026-03-29T05:44:51.998Z</time></trkpt><trkpt lat="45.50740641289474" lon="11.48400635777019"><ele>34.0</ele><time>2026-03-29T05:44:52.998Z</time></trkpt><trkpt lat="45.50734581252544" lon="11.48404681838041"><ele>34.0</ele><time>2026-03-29T05:44:53.998Z</time></trkpt><trkpt lat="45.50728508244732" lon="11.484090279352829"><ele>34.0</ele><time>2026-03-29T05:44:54.998Z</time></trkpt><trkpt lat="45.50722219277419" lon="11.484133772956648"><ele>33.99999999999999</ele><time>2026-03-29T05:44:55.998Z</time></trkpt><trkpt lat="45.50715926048321" lon="11.484174957740969"><ele>34.0</ele><time>2026-03-29T05:44:56.998Z</time></trkpt><trkpt lat="45.507095847397174" lon="11.484214278096717"><ele>33.833333333333336</ele><time>2026-03-29T05:44:57.998Z</time></trkpt><trkpt lat="45.50703607411552" lon="11.4842526309757"><ele>33.66666666666667</ele><time>2026-03-29T05:44:58.998Z</time></trkpt><trkpt lat="45.5069756740577" lon="11.484287775067427"><ele>33.5</ele><time>2026-03-29T05:44:59.998Z</time></trkpt><trkpt lat="45.50687655721011" lon="11.484362160651704"><ele>33.333333333333336</ele><time>2026-03-29T05:45:01.998Z</time></trkpt><trkpt lat="45.50678669222036" lon="11.484421074666509"><ele>33.166666666666664</ele><time>2026-03-29T05:45:03.998Z</time></trkpt><trkpt lat="45.506693285182195" lon="11.484472027975476"><ele>33.0</ele><time>2026-03-29T05:45:05.998Z</time></trkpt><trkpt lat="45.506592629371724" lon="11.484544526599185"><ele>33.0</ele><time>2026-03-29T05:45:07.998Z</time></trkpt><trkpt lat="45.506486737175315" lon="11.484604736451844"><ele>33.0</ele><time>2026-03-29T05:45:09.998Z</time></trkpt><trkpt lat="45.50637858867647" lon="11.484660936271197"><ele>33.0</ele><time>2026-03-29T05:45:11.998Z</time></trkpt><trkpt lat="45.50628393327367" lon="11.484744319260093"><ele>33.0</ele><time>2026-03-29T05:45:13.998Z</time></trkpt><trkpt lat="45.50624546650313" lon="11.484865624012722"><ele>33.0</ele><time>2026-03-29T05:45:15.998Z</time></trkpt><trkpt lat="45.50627210754353" lon="11.485010256340477"><ele>33.0</ele><time>2026-03-29T05:45:17.997Z</time></trkpt><trkpt lat="45.50636098521121" lon="11.485135691010885"><ele>33.0</ele><time>2026-03-29T05:45:19.997Z</time></trkpt><trkpt lat="45.506406691291886" lon="11.48519818678201"><ele>33.0</ele><time>2026-03-29T05:45:20.997Z</time></trkpt><trkpt lat="45.506486104608015" lon="11.485330812187021"><ele>33.0</ele><time>2026-03-29T05:45:22.997Z</time></trkpt><trkpt lat="45.50655587331416" lon="11.485455029717508"><ele>33.0</ele><time>2026-03-29T05:45:24.997Z</time></trkpt><trkpt lat="45.50662509931242" lon="11.4855922742738"><ele>33.6</ele><time>2026-03-29T05:45:26.997Z</time></trkpt><trkpt lat="45.50668698286221" lon="11.485745000724608"><ele>34.199999999999996</ele><time>2026-03-29T05:45:28.997Z</time></trkpt><trkpt lat="45.50674373944599" lon="11.485904680864637"><ele>34.8</ele><time>2026-03-29T05:45:31Z</time></trkpt><trkpt lat="45.50677994137064" lon="11.486078484729171"><ele>35.4</ele><time>2026-03-29T05:45:33Z</time></trkpt><trkpt lat="45.50678467092325" lon="11.486169644958581"><ele>36.0</ele><time>2026-03-29T05:45:34Z</time></trkpt><trkpt lat="45.50678781551333" lon="11.48634650896295"><ele>37.333333333333336</ele><time>2026-03-29T05:45:36Z</time></trkpt><trkpt lat="45.506798399555024" lon="11.48652693358316"><ele>38.666666666666664</ele><time>2026-03-29T05:45:38Z</time></trkpt><trkpt lat="45.50680571269618" lon="11.48661843213735"><ele>40.0</ele><time>2026-03-29T05:45:39Z</time></trkpt><trkpt lat="45.506814097884124" lon="11.486708352345035"><ele>41.33333333333333</ele><time>2026-03-29T05:45:40Z</time></trkpt><trkpt lat="45.506824473869315" lon="11.48680391332387"><ele>42.666666666666664</ele><time>2026-03-29T05:45:41Z</time></trkpt><trkpt lat="45.5068392061874" lon="11.48689815276526"><ele>44.0</ele><time>2026-03-29T05:45:42Z</time></trkpt><trkpt lat="45.50686282080001" lon="11.486988754881393"><ele>44.0</ele><time>2026-03-29T05:45:43Z</time></trkpt><trkpt lat="45.50689262280102" lon="11.487074715684939"><ele>44.0</ele><time>2026-03-29T05:45:44Z</time></trkpt><trkpt lat="45.50692974445107" lon="11.487157168101948"><ele>44.0</ele><time>2026-03-29T05:45:45Z</time></trkpt><trkpt lat="45.5069677444175" lon="11.48723521632749"><ele>44.0</ele><time>2026-03-29T05:45:46Z</time></trkpt><trkpt lat="45.50704016103611" lon="11.487367316780356"><ele>44.0</ele><time>2026-03-29T05:45:48Z</time></trkpt><trkpt lat="45.507108477462474" lon="11.487483345545206"><ele>44.0</ele><time>2026-03-29T05:45:50Z</time></trkpt><trkpt lat="45.50717973904059" lon="11.487611960795943"><ele>43.0</ele><time>2026-03-29T05:45:52Z</time></trkpt><trkpt lat="45.50722327190866" lon="11.487679408433785"><ele>42.0</ele><time>2026-03-29T05:45:53Z</time></trkpt><trkpt lat="45.50730289900885" lon="11.487826722444854"><ele>41.0</ele><time>2026-03-29T05:45:55Z</time></trkpt><trkpt lat="45.507347851496995" lon="11.48789391680439"><ele>40.0</ele><time>2026-03-29T05:45:56Z</time></trkpt><trkpt lat="45.50739071608326" lon="11.487965448652407"><ele>39.0</ele><time>2026-03-29T05:45:57Z</time></trkpt><trkpt lat="45.5074693119391" lon="11.488101074165941"><ele>38.0</ele><time>2026-03-29T05:45:59Z</time></trkpt><trkpt lat="45.507539899197795" lon="11.488212607140179"><ele>40.166666666666664</ele><time>2026-03-29T05:46:01Z</time></trkpt><trkpt lat="45.507613949098456" lon="11.488333090562136"><ele>42.33333333333333</ele><time>2026-03-29T05:46:02.999Z</time></trkpt><trkpt lat="45.50769636102581" lon="11.488473153535855"><ele>44.5</ele><time>2026-03-29T05:46:04.999Z</time></trkpt><trkpt lat="45.507738536523135" lon="11.488544032846237"><ele>46.666666666666664</ele><time>2026-03-29T05:46:05.999Z</time></trkpt><trkpt lat="45.50778282346079" lon="11.488614275814074"><ele>48.833333333333336</ele><time>2026-03-29T05:46:06.999Z</time></trkpt><trkpt lat="45.507827070106316" lon="11.488686156394682"><ele>51.0</ele><time>2026-03-29T05:46:07.999Z</time></trkpt><trkpt lat="45.507870334930296" lon="11.488760882804764"><ele>50.333333333333336</ele><time>2026-03-29T05:46:08.999Z</time></trkpt><trkpt lat="45.507913095060985" lon="11.488835908087518"><ele>49.666666666666664</ele><time>2026-03-29T05:46:09.999Z</time></trkpt><trkpt lat="45.50795671768638" lon="11.488907528931383"><ele>49.0</ele><time>2026-03-29T05:46:10.999Z</time></trkpt><trkpt lat="45.50800119064825" lon="11.488979586010748"><ele>48.33333333333333</ele><time>2026-03-29T05:46:11.999Z</time></trkpt><trkpt lat="45.508043031622044" lon="11.489048035670304"><ele>47.666666666666664</ele><time>2026-03-29T05:46:12.999Z</time></trkpt><trkpt lat="45.50811894429968" lon="11.489170512851127"><ele>47.0</ele><time>2026-03-29T05:46:14.999Z</time></trkpt><trkpt lat="45.50818986515852" lon="11.489280084768897"><ele>47.0</ele><time>2026-03-29T05:46:16.999Z</time></trkpt><trkpt lat="45.50825351450451" lon="11.489382372636108"><ele>47.0</ele><time>2026-03-29T05:46:18.999Z</time></trkpt><trkpt lat="45.50832806481578" lon="11.489461751061773"><ele>47.0</ele><time>2026-03-29T05:46:20.999Z</time></trkpt><trkpt lat="45.50840299824631" lon="11.489562062333052"><ele>47.0</ele><time>2026-03-29T05:46:22.999Z</time></trkpt><trkpt lat="45.50848425191847" lon="11.48965805850951"><ele>47.0</ele><time>2026-03-29T05:46:24.999Z</time></trkpt><trkpt lat="45.508555473540184" lon="11.48974510565023"><ele>45.666666666666664</ele><time>2026-03-29T05:46:26.999Z</time></trkpt><trkpt lat="45.508607886936474" lon="11.489803091532762"><ele>44.33333333333333</ele><time>2026-03-29T05:46:28.999Z</time></trkpt><trkpt lat="45.508678719287964" lon="11.489886232246198"><ele>43.0</ele><time>2026-03-29T05:47:55Z</time></trkpt><trkpt lat="45.50874710857121" lon="11.489978222742387"><ele>41.666666666666664</ele><time>2026-03-29T05:47:57Z</time></trkpt><trkpt lat="45.50883109895087" lon="11.490080129425486"><ele>40.333333333333336</ele><time>2026-03-29T05:47:59Z</time></trkpt><trkpt lat="45.50887973396843" lon="11.490140064215977"><ele>39.0</ele><time>2026-03-29T05:48:00Z</time></trkpt><trkpt lat="45.50892786455368" lon="11.490201429972036"><ele>39.0</ele><time>2026-03-29T05:48:01Z</time></trkpt><trkpt lat="45.508974683974444" lon="11.490263215758887"><ele>39.0</ele><time>2026-03-29T05:48:02Z</time></trkpt><trkpt lat="45.509022488472816" lon="11.490324087335884"><ele>39.0</ele><time>2026-03-29T05:48:03Z</time></trkpt><trkpt lat="45.509071093527176" lon="11.490390187018134"><ele>39.0</ele><time>2026-03-29T05:48:04Z</time></trkpt><trkpt lat="45.509118297407824" lon="11.490458107831248"><ele>39.0</ele><time>2026-03-29T05:48:05Z</time></trkpt><trkpt lat="45.50916393052524" lon="11.49053110873924"><ele>39.0</ele><time>2026-03-29T05:48:06Z</time></trkpt><trkpt lat="45.50920930706309" lon="11.490603517768246"><ele>39.0</ele><time>2026-03-29T05:48:07Z</time></trkpt><trkpt lat="45.50925214005303" lon="11.490677766557656"><ele>41.0</ele><time>2026-03-29T05:48:08Z</time></trkpt><trkpt lat="45.509294454955494" lon="11.490748662578396"><ele>43.0</ele><time>2026-03-29T05:48:09Z</time></trkpt><trkpt lat="45.50934274153898" lon="11.4908201317308"><ele>45.0</ele><time>2026-03-29T05:48:09.999Z</time></trkpt><trkpt lat="45.509386369064785" lon="11.490892394746627"><ele>47.0</ele><time>2026-03-29T05:48:10.999Z</time></trkpt><trkpt lat="45.50943226771469" lon="11.490968329754907"><ele>49.0</ele><time>2026-03-29T05:48:11.999Z</time></trkpt><trkpt lat="45.50947795842836" lon="11.491039097376099"><ele>51.0</ele><time>2026-03-29T05:48:12.999Z</time></trkpt><trkpt lat="45.50952465334055" lon="11.491105686225625"><ele>53.0</ele><time>2026-03-29T05:48:13.999Z</time></trkpt><trkpt lat="45.50957031047252" lon="11.491169512629483"><ele>52.4</ele><time>2026-03-29T05:48:14.999Z</time></trkpt><trkpt lat="45.50961670268955" lon="11.491230767383385"><ele>51.8</ele><time>2026-03-29T05:48:15.999Z</time></trkpt><trkpt lat="45.50971342533548" lon="11.491334624823958"><ele>51.2</ele><time>2026-03-29T05:48:17.999Z</time></trkpt><trkpt lat="45.50982116204352" lon="11.491436702567599"><ele>50.6</ele><time>2026-03-29T05:48:19.999Z</time></trkpt><trkpt lat="45.5098790238129" lon="11.49149014470111"><ele>50.0</ele><time>2026-03-29T05:48:20.999Z</time></trkpt><trkpt lat="45.509935370475844" lon="11.491544629362831"><ele>50.00000000000001</ele><time>2026-03-29T05:48:21.999Z</time></trkpt><trkpt lat="45.509994021061665" lon="11.491591357347339"><ele>50.0</ele><time>2026-03-29T05:48:22.999Z</time></trkpt><trkpt lat="45.51005517940044" lon="11.491644289291285"><ele>50.0</ele><time>2026-03-29T05:48:23.999Z</time></trkpt><trkpt lat="45.5101136778383" lon="11.491695685276557"><ele>50.0</ele><time>2026-03-29T05:48:24.999Z</time></trkpt><trkpt lat="45.51017323136422" lon="11.491746091028887"><ele>50.0</ele><time>2026-03-29T05:48:25.999Z</time></trkpt><trkpt lat="45.51023381620359" lon="11.491799327923045"><ele>50.00000000000001</ele><time>2026-03-29T05:48:26.999Z</time></trkpt><trkpt lat="45.510291656709995" lon="11.491850723340589"><ele>50.0</ele><time>2026-03-29T05:48:27.999Z</time></trkpt><trkpt lat="45.5103482994499" lon="11.491900353723189"><ele>50.00000000000001</ele><time>2026-03-29T05:48:28.999Z</time></trkpt><trkpt lat="45.510405026620155" lon="11.491950366889803"><ele>50.0</ele><time>2026-03-29T05:48:29.999Z</time></trkpt><trkpt lat="45.51046275479404" lon="11.492003208806572"><ele>50.0</ele><time>2026-03-29T05:48:30.999Z</time></trkpt><trkpt lat="45.51052087309331" lon="11.492055247418307"><ele>50.0</ele><time>2026-03-29T05:48:31.999Z</time></trkpt><trkpt lat="45.5105760593652" lon="11.492108780709074"><ele>50.0</ele><time>2026-03-29T05:48:32.999Z</time></trkpt><trkpt lat="45.51063163578025" lon="11.492161718921396"><ele>50.00000000000001</ele><time>2026-03-29T05:48:33.999Z</time></trkpt><trkpt lat="45.51068623555688" lon="11.492213734161005"><ele>50.0</ele><time>2026-03-29T05:48:34.999Z</time></trkpt><trkpt lat="45.51074226663316" lon="11.492267617775878"><ele>49.42857142857143</ele><time>2026-03-29T05:48:35.999Z</time></trkpt><trkpt lat="45.51080085759556" lon="11.49232072486129"><ele>48.85714285714286</ele><time>2026-03-29T05:48:36.999Z</time></trkpt><trkpt lat="45.510855813839754" lon="11.492379824547639"><ele>48.28571428571429</ele><time>2026-03-29T05:48:37.999Z</time></trkpt><trkpt lat="45.510909554538244" lon="11.492439406649474"><ele>47.714285714285715</ele><time>2026-03-29T05:48:38.999Z</time></trkpt><trkpt lat="45.51096378428402" lon="11.49250137359717"><ele>47.14285714285714</ele><time>2026-03-29T05:48:39.999Z</time></trkpt><trkpt lat="45.51101650907696" lon="11.492561599908962"><ele>46.57142857142858</ele><time>2026-03-29T05:48:40.999Z</time></trkpt><trkpt lat="45.51107078755067" lon="11.492623695130677"><ele>46.0</ele><time>2026-03-29T05:48:41.999Z</time></trkpt><trkpt lat="45.51112095716873" lon="11.492689884354528"><ele>46.0</ele><time>2026-03-29T05:48:42.999Z</time></trkpt><trkpt lat="45.511161935149566" lon="11.492762894727171"><ele>46.0</ele><time>2026-03-29T05:48:43.999Z</time></trkpt><trkpt lat="45.51123150714161" lon="11.492906500371053"><ele>46.0</ele><time>2026-03-29T05:48:45.999Z</time></trkpt><trkpt lat="45.51127772097006" lon="11.493043239557448"><ele>46.0</ele><time>2026-03-29T05:48:47.999Z</time></trkpt><trkpt lat="45.511319473041254" lon="11.493197025668934"><ele>46.0</ele><time>2026-03-29T05:48:49.998Z</time></trkpt><trkpt lat="45.511344147457955" lon="11.49327983719733"><ele>45.5</ele><time>2026-03-29T05:48:50.998Z</time></trkpt><trkpt lat="45.51138813837326" lon="11.493444934064064"><ele>45.0</ele><time>2026-03-29T05:48:52.998Z</time></trkpt><trkpt lat="45.511433314198804" lon="11.493614134840762"><ele>44.5</ele><time>2026-03-29T05:48:54.998Z</time></trkpt><trkpt lat="45.51145704083972" lon="11.49370222418897"><ele>44.0</ele><time>2026-03-29T05:48:55.998Z</time></trkpt><trkpt lat="45.51147847468387" lon="11.493789641567362"><ele>43.5</ele><time>2026-03-29T05:48:56.998Z</time></trkpt><trkpt lat="45.51150841256694" lon="11.493876239277416"><ele>43.0</ele><time>2026-03-29T05:48:57.998Z</time></trkpt><trkpt lat="45.511533001231115" lon="11.49396000571799"><ele>43.0</ele><time>2026-03-29T05:48:58.998Z</time></trkpt><trkpt lat="45.511585529501986" lon="11.494111532582073"><ele>43.0</ele><time>2026-03-29T05:49:00.998Z</time></trkpt><trkpt lat="45.51163365482247" lon="11.494249777174565"><ele>43.0</ele><time>2026-03-29T05:49:02.998Z</time></trkpt><trkpt lat="45.51168762093253" lon="11.494376303657992"><ele>43.0</ele><time>2026-03-29T05:49:04.998Z</time></trkpt><trkpt lat="45.511751964437394" lon="11.494505230402131"><ele>43.0</ele><time>2026-03-29T05:49:06.998Z</time></trkpt><trkpt lat="45.511822975934464" lon="11.494642019272423"><ele>42.42857142857143</ele><time>2026-03-29T05:49:08.998Z</time></trkpt><trkpt lat="45.51186264206539" lon="11.494711813256435"><ele>41.85714285714286</ele><time>2026-03-29T05:49:09.998Z</time></trkpt><trkpt lat="45.51193403252098" lon="11.494852477394122"><ele>41.28571428571429</ele><time>2026-03-29T05:49:11.998Z</time></trkpt><trkpt lat="45.5119699081609" lon="11.494927529176994"><ele>40.714285714285715</ele><time>2026-03-29T05:49:12.998Z</time></trkpt><trkpt lat="45.512004502663196" lon="11.495005584841053"><ele>40.14285714285714</ele><time>2026-03-29T05:49:13.998Z</time></trkpt><trkpt lat="45.51203849568398" lon="11.495083374968454"><ele>39.57142857142858</ele><time>2026-03-29T05:49:14.998Z</time></trkpt><trkpt lat="45.51207613542501" lon="11.495162098543345"><ele>39.0</ele><time>2026-03-29T05:49:15.998Z</time></trkpt><trkpt lat="45.51211431402184" lon="11.495244113064466"><ele>39.0</ele><time>2026-03-29T05:49:16.998Z</time></trkpt><trkpt lat="45.512149013121984" lon="11.49532691629369"><ele>39.0</ele><time>2026-03-29T05:49:17.998Z</time></trkpt><trkpt lat="45.51217891454489" lon="11.495413087792288"><ele>39.0</ele><time>2026-03-29T05:49:18.998Z</time></trkpt><trkpt lat="45.51221570675707" lon="11.495498941109439"><ele>39.0</ele><time>2026-03-29T05:49:19.998Z</time></trkpt><trkpt lat="45.51225187378489" lon="11.495584506708818"><ele>39.0</ele><time>2026-03-29T05:49:20.998Z</time></trkpt><trkpt lat="45.51228206586386" lon="11.495672048383561"><ele>39.0</ele><time>2026-03-29T05:49:21.998Z</time></trkpt><trkpt lat="45.51230423879466" lon="11.495760865149013"><ele>39.0</ele><time>2026-03-29T05:49:22.998Z</time></trkpt><trkpt lat="45.51233499814181" lon="11.495853445131855"><ele>39.333333333333336</ele><time>2026-03-29T05:49:23.998Z</time></trkpt><trkpt lat="45.51236210667945" lon="11.495946930202237"><ele>39.666666666666664</ele><time>2026-03-29T05:49:24.998Z</time></trkpt><trkpt lat="45.512377319916666" lon="11.496038167872502"><ele>40.0</ele><time>2026-03-29T05:49:25.998Z</time></trkpt><trkpt lat="45.51238601116829" lon="11.496127580282304"><ele>40.33333333333333</ele><time>2026-03-29T05:49:26.997Z</time></trkpt><trkpt lat="45.512382125150985" lon="11.496301340431655"><ele>40.666666666666664</ele><time>2026-03-29T05:49:28.997Z</time></trkpt><trkpt lat="45.51234718548297" lon="11.496470811564741"><ele>41.0</ele><time>2026-03-29T05:49:30.997Z</time></trkpt><trkpt lat="45.51232007183117" lon="11.496553746488285"><ele>41.14285714285714</ele><time>2026-03-29T05:49:31.997Z</time></trkpt><trkpt lat="45.51228787559272" lon="11.496633578572826"><ele>41.285714285714285</ele><time>2026-03-29T05:49:32.997Z</time></trkpt><trkpt lat="45.51224738269409" lon="11.496709999554588"><ele>41.42857142857143</ele><time>2026-03-29T05:49:33.997Z</time></trkpt><trkpt lat="45.512205471263826" lon="11.496782958016883"><ele>41.57142857142857</ele><time>2026-03-29T05:49:34.997Z</time></trkpt><trkpt lat="45.51215853295844" lon="11.496857889994162"><ele>41.714285714285715</ele><time>2026-03-29T05:49:35.997Z</time></trkpt><trkpt lat="45.5121120469645" lon="11.496934556431825"><ele>41.857142857142854</ele><time>2026-03-29T05:49:36.997Z</time></trkpt><trkpt lat="45.51206981595708" lon="11.497021557208697"><ele>42.0</ele><time>2026-03-29T05:49:37.997Z</time></trkpt><trkpt lat="45.512028713080916" lon="11.497099023824244"><ele>44.75</ele><time>2026-03-29T05:49:38.997Z</time></trkpt><trkpt lat="45.51195302238835" lon="11.49723601753012"><ele>47.5</ele><time>2026-03-29T05:49:40.997Z</time></trkpt><trkpt lat="45.51187910053272" lon="11.497361975638597"><ele>50.25</ele><time>2026-03-29T05:49:43Z</time></trkpt><trkpt lat="45.5118090805698" lon="11.497490092849496"><ele>53.0</ele><time>2026-03-29T05:49:45Z</time></trkpt><trkpt lat="45.5117332877153" lon="11.49761242527156"><ele>53.0</ele><time>2026-03-29T05:49:47Z</time></trkpt><trkpt lat="45.51166559991028" lon="11.497742047196386"><ele>53.0</ele><time>2026-03-29T05:49:49Z</time></trkpt><trkpt lat="45.51160728295513" lon="11.497867171733414"><ele>53.0</ele><time>2026-03-29T05:49:51Z</time></trkpt><trkpt lat="45.511559015653845" lon="11.497989257699178"><ele>53.0</ele><time>2026-03-29T05:49:53Z</time></trkpt><trkpt lat="45.51152170990122" lon="11.498097601652995"><ele>53.0</ele><time>2026-03-29T05:49:55Z</time></trkpt><trkpt lat="45.51150655246243" lon="11.498229476625683"><ele>50.599999999999994</ele><time>2026-03-29T05:49:57Z</time></trkpt><trkpt lat="45.51151384400752" lon="11.498388679043616"><ele>48.199999999999996</ele><time>2026-03-29T05:49:59Z</time></trkpt><trkpt lat="45.51153605274494" lon="11.498543851929702"><ele>45.8</ele><time>2026-03-29T05:50:01Z</time></trkpt><trkpt lat="45.51156791562438" lon="11.498679367430155"><ele>43.4</ele><time>2026-03-29T05:50:03Z</time></trkpt><trkpt lat="45.511606135333565" lon="11.498800749196732"><ele>41.0</ele><time>2026-03-29T05:50:05Z</time></trkpt><trkpt lat="45.5116405682057" lon="11.498929248474797"><ele>40.599999999999994</ele><time>2026-03-29T05:50:07Z</time></trkpt><trkpt lat="45.511682857965326" lon="11.49906869818351"><ele>40.199999999999996</ele><time>2026-03-29T05:50:09Z</time></trkpt><trkpt lat="45.51172688953827" lon="11.499212206373649"><ele>39.8</ele><time>2026-03-29T05:50:11Z</time></trkpt><trkpt lat="45.51176289489893" lon="11.499364011902708"><ele>39.4</ele><time>2026-03-29T05:50:13Z</time></trkpt><trkpt lat="45.51178809114371" lon="11.499525727808678"><ele>39.0</ele><time>2026-03-29T05:50:14.999Z</time></trkpt><trkpt lat="45.511807368662666" lon="11.499679531729694"><ele>40.0</ele><time>2026-03-29T05:50:16.999Z</time></trkpt><trkpt lat="45.51182518749336" lon="11.499818455510903"><ele>41.0</ele><time>2026-03-29T05:50:18.999Z</time></trkpt><trkpt lat="45.51184747329821" lon="11.499965592179855"><ele>42.0</ele><time>2026-03-29T05:50:20.999Z</time></trkpt><trkpt lat="45.51186565814477" lon="11.500131078762442"><ele>43.0</ele><time>2026-03-29T05:50:22.999Z</time></trkpt><trkpt lat="45.51189085257586" lon="11.500306911661776"><ele>44.0</ele><time>2026-03-29T05:50:24.999Z</time></trkpt><trkpt lat="45.51189963979929" lon="11.50039746686609"><ele>44.83333333333333</ele><time>2026-03-29T05:50:25.999Z</time></trkpt><trkpt lat="45.51191015448552" lon="11.500492756976202"><ele>45.666666666666664</ele><time>2026-03-29T05:50:26.999Z</time></trkpt><trkpt lat="45.51191821980597" lon="11.500589323367592"><ele>46.5</ele><time>2026-03-29T05:50:27.999Z</time></trkpt><trkpt lat="45.51192682901526" lon="11.50068524253615"><ele>47.33333333333333</ele><time>2026-03-29T05:50:28.999Z</time></trkpt><trkpt lat="45.51194296854498" lon="11.500857009108755"><ele>48.166666666666664</ele><time>2026-03-29T05:50:30.999Z</time></trkpt><trkpt lat="45.5119435621792" lon="11.501021016206268"><ele>49.0</ele><time>2026-03-29T05:50:32.999Z</time></trkpt><trkpt lat="45.5119509634684" lon="11.501169531926761"><ele>49.5</ele><time>2026-03-29T05:50:34.999Z</time></trkpt><trkpt lat="45.51195047210985" lon="11.501324567368865"><ele>50.0</ele><time>2026-03-29T05:50:36.999Z</time></trkpt><trkpt lat="45.51196050577951" lon="11.501489642379587"><ele>50.5</ele><time>2026-03-29T05:50:38.999Z</time></trkpt><trkpt lat="45.51198244798129" lon="11.501655218029715"><ele>51.0</ele><time>2026-03-29T05:50:40.999Z</time></trkpt><trkpt lat="45.51202437893643" lon="11.501819763851389"><ele>46.8</ele><time>2026-03-29T05:50:42.999Z</time></trkpt><trkpt lat="45.512076856121" lon="11.501977851354777"><ele>42.599999999999994</ele><time>2026-03-29T05:50:44.999Z</time></trkpt><trkpt lat="45.512134687695486" lon="11.502112615851987"><ele>38.4</ele><time>2026-03-29T05:50:46.999Z</time></trkpt><trkpt lat="45.51219730682493" lon="11.502226225325336"><ele>34.2</ele><time>2026-03-29T05:50:48.999Z</time></trkpt><trkpt lat="45.5122434625671" lon="11.502348952626926"><ele>30.0</ele><time>2026-03-29T05:50:50.999Z</time></trkpt><trkpt lat="45.51230626910647" lon="11.50247456750515"><ele>30.0</ele><time>2026-03-29T05:50:52.998Z</time></trkpt><trkpt lat="45.5123665581041" lon="11.502607347390713"><ele>30.0</ele><time>2026-03-29T05:50:54.998Z</time></trkpt><trkpt lat="45.51241728818527" lon="11.502745469522457"><ele>30.0</ele><time>2026-03-29T05:50:56.998Z</time></trkpt><trkpt lat="45.512462228004864" lon="11.502873186819462"><ele>30.0</ele><time>2026-03-29T05:50:58.998Z</time></trkpt><trkpt lat="45.51250756672543" lon="11.50298750306507"><ele>30.0</ele><time>2026-03-29T05:51:00.998Z</time></trkpt><trkpt lat="45.512546862131416" lon="11.503131543063859"><ele>34.5</ele><time>2026-03-29T05:51:02.998Z</time></trkpt><trkpt lat="45.51259779754203" lon="11.503267394296067"><ele>39.0</ele><time>2026-03-29T05:51:04.998Z</time></trkpt><trkpt lat="45.512654519840574" lon="11.503408890162774"><ele>43.5</ele><time>2026-03-29T05:51:06.998Z</time></trkpt><trkpt lat="45.512715409061066" lon="11.503543105416568"><ele>48.0</ele><time>2026-03-29T05:51:08.998Z</time></trkpt><trkpt lat="45.51278088988859" lon="11.503678987922344"><ele>50.8</ele><time>2026-03-29T05:51:10.998Z</time></trkpt><trkpt lat="45.51281713776961" lon="11.503754027323556"><ele>53.599999999999994</ele><time>2026-03-29T05:51:11.998Z</time></trkpt><trkpt lat="45.51289372328977" lon="11.503898491229357"><ele>56.400000000000006</ele><time>2026-03-29T05:51:13.998Z</time></trkpt><trkpt lat="45.51296700822887" lon="11.504025075734107"><ele>59.2</ele><time>2026-03-29T05:51:15.998Z</time></trkpt><trkpt lat="45.51303227356923" lon="11.504128603043386"><ele>62.0</ele><time>2026-03-29T05:51:17.998Z</time></trkpt><trkpt lat="45.51310050738033" lon="11.504235316792032"><ele>57.4</ele><time>2026-03-29T05:51:19.998Z</time></trkpt><trkpt lat="45.51316600693976" lon="11.504334126693019"><ele>52.800000000000004</ele><time>2026-03-29T05:51:21.998Z</time></trkpt><trkpt lat="45.51323624835894" lon="11.504445896083135"><ele>48.2</ele><time>2026-03-29T05:51:23.998Z</time></trkpt><trkpt lat="45.51329445386287" lon="11.504557309632926"><ele>43.6</ele><time>2026-03-29T05:51:25.998Z</time></trkpt><trkpt lat="45.51334299356388" lon="11.504682813972394"><ele>39.0</ele><time>2026-03-29T05:51:27.998Z</time></trkpt><trkpt lat="45.5133708923945" lon="11.504800858615583"><ele>39.0</ele><time>2026-03-29T05:51:29.997Z</time></trkpt><trkpt lat="45.513399055258205" lon="11.504933394378217"><ele>39.0</ele><time>2026-03-29T05:51:31.997Z</time></trkpt><trkpt lat="45.513444976057336" lon="11.50506398159408"><ele>39.0</ele><time>2026-03-29T05:51:33.997Z</time></trkpt><trkpt lat="45.51344726695164" lon="11.505214524059902"><ele>39.0</ele><time>2026-03-29T05:51:35.997Z</time></trkpt><trkpt lat="45.5134829616403" lon="11.5053555457564"><ele>39.0</ele><time>2026-03-29T05:51:37.997Z</time></trkpt><trkpt lat="45.513506962638886" lon="11.50549354132325"><ele>38.8</ele><time>2026-03-29T05:51:39.997Z</time></trkpt><trkpt lat="45.51351515399558" lon="11.505647807916628"><ele>38.599999999999994</ele><time>2026-03-29T05:51:41.997Z</time></trkpt><trkpt lat="45.51354820863927" lon="11.505795595503228"><ele>38.4</ele><time>2026-03-29T05:51:43.997Z</time></trkpt><trkpt lat="45.513569340583366" lon="11.505946453326269"><ele>38.199999999999996</ele><time>2026-03-29T05:51:45.997Z</time></trkpt><trkpt lat="45.51358512937981" lon="11.506085737949688"><ele>38.0</ele><time>2026-03-29T05:51:48Z</time></trkpt><trkpt lat="45.51360229314256" lon="11.506226059786771"><ele>36.6</ele><time>2026-03-29T05:51:50Z</time></trkpt><trkpt lat="45.513624326771925" lon="11.506383910625308"><ele>35.199999999999996</ele><time>2026-03-29T05:51:52Z</time></trkpt><trkpt lat="45.51364831131801" lon="11.506542977492604"><ele>33.8</ele><time>2026-03-29T05:51:54Z</time></trkpt><trkpt lat="45.513667105437435" lon="11.506690395139877"><ele>32.4</ele><time>2026-03-29T05:51:56Z</time></trkpt><trkpt lat="45.51368938970661" lon="11.506822909996576"><ele>31.0</ele><time>2026-03-29T05:51:58Z</time></trkpt><trkpt lat="45.513558154172244" lon="11.506900681053326"><ele>31.0</ele><time>2026-03-29T05:52:01Z</time></trkpt><trkpt lat="45.513472132892815" lon="11.50695771784625"><ele>31.0</ele><time>2026-03-29T05:52:03Z</time></trkpt><trkpt lat="45.51338325270475" lon="11.50699322378395"><ele>31.0</ele><time>2026-03-29T05:52:05Z</time></trkpt><trkpt lat="45.513281270046676" lon="11.507015660349245"><ele>31.0</ele><time>2026-03-29T05:52:07Z</time></trkpt><trkpt lat="45.51318587165469" lon="11.50701831779686"><ele>31.0</ele><time>2026-03-29T05:52:09Z</time></trkpt><trkpt lat="45.513089514534336" lon="11.506986921357134"><ele>31.0</ele><time>2026-03-29T05:52:11Z</time></trkpt><trkpt lat="45.51299986928025" lon="11.506929419806344"><ele>31.0</ele><time>2026-03-29T05:52:13Z</time></trkpt><trkpt lat="45.51291080653039" lon="11.506858461748692"><ele>31.0</ele><time>2026-03-29T05:52:15Z</time></trkpt><trkpt lat="45.5128250408796" lon="11.506786146703112"><ele>31.0</ele><time>2026-03-29T05:52:17Z</time></trkpt><trkpt lat="45.5127495368623" lon="11.50671762144163"><ele>31.0</ele><time>2026-03-29T05:52:18.999Z</time></trkpt><trkpt lat="45.512652143396956" lon="11.506672113739885"><ele>31.500000000000004</ele><time>2026-03-29T05:52:20.999Z</time></trkpt><trkpt lat="45.512553666519096" lon="11.506617946122041"><ele>32.0</ele><time>2026-03-29T05:52:22.999Z</time></trkpt><trkpt lat="45.5124875322761" lon="11.50653394159945"><ele>32.5</ele><time>2026-03-29T05:52:24.999Z</time></trkpt><trkpt lat="45.51240028282292" lon="11.506474861339768"><ele>33.0</ele><time>2026-03-29T05:52:26.999Z</time></trkpt><trkpt lat="45.51232339444078" lon="11.506424752214626"><ele>33.5</ele><time>2026-03-29T05:52:28.999Z</time></trkpt><trkpt lat="45.512260331387544" lon="11.506384771791186"><ele>34.0</ele><time>2026-03-29T05:52:30.999Z</time></trkpt><trkpt lat="45.51219972396362" lon="11.506346348158793"><ele>33.99999999999999</ele><time>2026-03-29T05:52:32.999Z</time></trkpt><trkpt lat="45.5121366296228" lon="11.506306347893185"><ele>34.0</ele><time>2026-03-29T05:52:34.999Z</time></trkpt><trkpt lat="45.51207627129308" lon="11.506269172524675"><ele>34.0</ele><time>2026-03-29T05:52:36.999Z</time></trkpt><trkpt lat="45.512002302421415" lon="11.50624567669967"><ele>34.0</ele><time>2026-03-29T05:52:38.999Z</time></trkpt><trkpt lat="45.51194284487775" lon="11.506195242361134"><ele>34.0</ele><time>2026-03-29T05:52:40.999Z</time></trkpt><trkpt lat="45.51187286364696" lon="11.506151742709463"><ele>33.99999999999999</ele><time>2026-03-29T05:52:42.999Z</time></trkpt><trkpt lat="45.5118017084114" lon="11.506095836786407"><ele>34.0</ele><time>2026-03-29T05:52:44.999Z</time></trkpt><trkpt lat="45.51172543634661" lon="11.506065218625757"><ele>33.8</ele><time>2026-03-29T05:52:46.999Z</time></trkpt><trkpt lat="45.511651064513245" lon="11.506028319043342"><ele>33.599999999999994</ele><time>2026-03-29T05:52:48.999Z</time></trkpt><trkpt lat="45.511588498612184" lon="11.505994222171605"><ele>33.4</ele><time>2026-03-29T05:52:50.999Z</time></trkpt><trkpt lat="45.51152998883663" lon="11.506132586191137"><ele>33.199999999999996</ele><time>2026-03-29T05:52:52.999Z</time></trkpt><trkpt lat="45.51150353733792" lon="11.506262359195723"><ele>33.0</ele><time>2026-03-29T05:52:54.999Z</time></trkpt><trkpt lat="45.511461470404384" lon="11.506387806728204"><ele>33.0</ele><time>2026-03-29T05:52:56.998Z</time></trkpt><trkpt lat="45.51142421990325" lon="11.506517140268885"><ele>33.0</ele><time>2026-03-29T05:52:58.998Z</time></trkpt><trkpt lat="45.511393405298904" lon="11.506651776920757"><ele>33.0</ele><time>2026-03-29T05:53:00.998Z</time></trkpt><trkpt lat="45.51135694702117" lon="11.50678217010513"><ele>33.0</ele><time>2026-03-29T05:53:02.998Z</time></trkpt><trkpt lat="45.51131866388095" lon="11.506904308498486"><ele>33.0</ele><time>2026-03-29T05:53:04.998Z</time></trkpt><trkpt lat="45.51127568382757" lon="11.506997828010883"><ele>33.199999999999996</ele><time>2026-03-29T05:53:06.998Z</time></trkpt><trkpt lat="45.51123964882874" lon="11.507074974270745"><ele>33.4</ele><time>2026-03-29T05:53:09.998Z</time></trkpt><trkpt lat="45.51113321438235" lon="11.507025772744953"><ele>33.599999999999994</ele><time>2026-03-29T05:53:10.998Z</time></trkpt><trkpt lat="45.511041962750944" lon="11.50697213924214"><ele>33.8</ele><time>2026-03-29T05:53:12.998Z</time></trkpt><trkpt lat="45.51094948801548" lon="11.506933710231857"><ele>34.0</ele><time>2026-03-29T05:53:14.998Z</time></trkpt><trkpt lat="45.51085824110376" lon="11.50689427359762"><ele>34.0</ele><time>2026-03-29T05:53:16.998Z</time></trkpt><trkpt lat="45.51076310921158" lon="11.506848105343698"><ele>34.0</ele><time>2026-03-29T05:53:18.998Z</time></trkpt><trkpt lat="45.51068204233116" lon="11.506808762951023"><ele>34.0</ele><time>2026-03-29T05:53:20.998Z</time></trkpt><trkpt lat="45.510605669294044" lon="11.506771698977932"><ele>34.0</ele><time>2026-03-29T05:53:22.998Z</time></trkpt><trkpt lat="45.51051664390384" lon="11.506729377624106"><ele>34.0</ele><time>2026-03-29T05:53:25.998Z</time></trkpt><trkpt lat="45.510453480075775" lon="11.50669907794731"><ele>34.0</ele><time>2026-03-29T05:53:27.998Z</time></trkpt><trkpt lat="45.51038381786246" lon="11.506666794400621"><ele>34.333333333333336</ele><time>2026-03-29T05:53:29.998Z</time></trkpt><trkpt lat="45.51031272419717" lon="11.506633955490685"><ele>34.66666666666667</ele><time>2026-03-29T05:53:31.998Z</time></trkpt><trkpt lat="45.51023626174379" lon="11.50660135581345"><ele>35.0</ele><time>2026-03-29T05:53:33.998Z</time></trkpt><trkpt lat="45.5101473716666" lon="11.5065656116553"><ele>35.333333333333336</ele><time>2026-03-29T05:53:35.997Z</time></trkpt><trkpt lat="45.510058328515974" lon="11.50653177955776"><ele>35.666666666666664</ele><time>2026-03-29T05:53:37.997Z</time></trkpt><trkpt lat="45.50996828909668" lon="11.506498938558446"><ele>36.0</ele><time>2026-03-29T05:53:39.997Z</time></trkpt><trkpt lat="45.509886098846856" lon="11.506469355256366"><ele>36.0</ele><time>2026-03-29T05:53:41.997Z</time></trkpt><trkpt lat="45.50980196455015" lon="11.506655160671405"><ele>36.0</ele><time>2026-03-29T05:53:44.997Z</time></trkpt><trkpt lat="45.50980280662591" lon="11.506769376582122"><ele>36.0</ele><time>2026-03-29T05:53:46.997Z</time></trkpt><trkpt lat="45.50985538513934" lon="11.506845527327751"><ele>36.0</ele><time>2026-03-29T05:53:48.997Z</time></trkpt><trkpt lat="45.509639054128684" lon="11.506796429254917"><ele>35.833333333333336</ele><time>2026-03-29T05:53:51.997Z</time></trkpt><trkpt lat="45.50955303793822" lon="11.506782482228525"><ele>35.666666666666664</ele><time>2026-03-29T05:53:54Z</time></trkpt><trkpt lat="45.50947844856854" lon="11.506766976617826"><ele>35.5</ele><time>2026-03-29T05:53:56Z</time></trkpt><trkpt lat="45.50941473239129" lon="11.506758449217832"><ele>35.33333333333333</ele><time>2026-03-29T05:53:58Z</time></trkpt><trkpt lat="45.50933310945244" lon="11.50674813452863"><ele>35.166666666666664</ele><time>2026-03-29T05:54:01Z</time></trkpt><trkpt lat="45.50926693760388" lon="11.506838916960213"><ele>35.0</ele><time>2026-03-29T05:54:04Z</time></trkpt><trkpt lat="45.50922974442159" lon="11.506928851106478"><ele>35.0</ele><time>2026-03-29T05:54:06Z</time></trkpt><trkpt lat="45.50915609920963" lon="11.506987256327054"><ele>35.0</ele><time>2026-03-29T05:54:08Z</time></trkpt><trkpt lat="45.509102499559354" lon="11.507099479910242"><ele>35.0</ele><time>2026-03-29T05:54:10Z</time></trkpt><trkpt lat="45.50902561121608" lon="11.50704245328324"><ele>35.0</ele><time>2026-03-29T05:54:11Z</time></trkpt><trkpt lat="45.50895304933776" lon="11.507103777669004"><ele>35.0</ele><time>2026-03-29T05:54:13Z</time></trkpt><trkpt lat="45.50885418682643" lon="11.507194591476866"><ele>34.83333333333333</ele><time>2026-03-29T05:54:16Z</time></trkpt><trkpt lat="45.50882517687104" lon="11.507309631901673"><ele>34.666666666666664</ele><time>2026-03-29T05:54:18Z</time></trkpt><trkpt lat="45.50875737420337" lon="11.507388753726369"><ele>34.5</ele><time>2026-03-29T05:54:23Z</time></trkpt><trkpt lat="45.508781769230986" lon="11.50730462195674"><ele>34.333333333333336</ele><time>2026-03-29T06:07:51.998Z</time></trkpt><trkpt lat="45.508695517212864" lon="11.507236977595118"><ele>34.16666666666667</ele><time>2026-03-29T06:07:54.998Z</time></trkpt><trkpt lat="45.50875273290175" lon="11.507289630237752"><ele>34.0</ele><time>2026-03-29T06:13:13Z</time></trkpt><trkpt lat="45.508863525480066" lon="11.507245279150862"><ele>34.0</ele><time>2026-03-29T06:13:21.999Z</time></trkpt><trkpt lat="45.50890822765711" lon="11.507145859719495"><ele>34.0</ele><time>2026-03-29T06:13:23.999Z</time></trkpt><trkpt lat="45.50898204320495" lon="11.50710145513616"><ele>34.0</ele><time>2026-03-29T06:13:25.999Z</time></trkpt><trkpt lat="45.509072504847595" lon="11.507125253650013"><ele>34.0</ele><time>2026-03-29T06:13:28.999Z</time></trkpt><trkpt lat="45.509137317055256" lon="11.507038932099915"><ele>34.0</ele><time>2026-03-29T06:13:31.999Z</time></trkpt><trkpt lat="45.50916147780882" lon="11.506924440750264"><ele>34.0</ele><time>2026-03-29T06:13:34.999Z</time></trkpt><trkpt lat="45.509224562858336" lon="11.506869203102074"><ele>34.14285714285714</ele><time>2026-03-29T06:13:36.999Z</time></trkpt><trkpt lat="45.50927769802213" lon="11.50681530404302"><ele>34.285714285714285</ele><time>2026-03-29T06:13:38.999Z</time></trkpt><trkpt lat="45.50931687963113" lon="11.506717567522255"><ele>34.42857142857143</ele><time>2026-03-29T06:13:41.999Z</time></trkpt><trkpt lat="45.50938444537689" lon="11.506719321861569"><ele>34.57142857142857</ele><time>2026-03-29T06:13:43.999Z</time></trkpt><trkpt lat="45.509454979651174" lon="11.506750550177141"><ele>34.714285714285715</ele><time>2026-03-29T06:13:45.999Z</time></trkpt><trkpt lat="45.50952822055819" lon="11.506769922251292"><ele>34.857142857142854</ele><time>2026-03-29T06:13:47.999Z</time></trkpt><trkpt lat="45.50959850132426" lon="11.506773477997994"><ele>35.0</ele><time>2026-03-29T06:13:49.999Z</time></trkpt><trkpt lat="45.509664523314164" lon="11.506788334284305"><ele>35.166666666666664</ele><time>2026-03-29T06:13:51.999Z</time></trkpt><trkpt lat="45.5097419744125" lon="11.506794281573185"><ele>35.33333333333333</ele><time>2026-03-29T06:13:54.999Z</time></trkpt><trkpt lat="45.50985623547003" lon="11.506798164500788"><ele>35.5</ele><time>2026-03-29T06:13:59.999Z</time></trkpt><trkpt lat="45.50992070322124" lon="11.506826119525936"><ele>35.666666666666664</ele><time>2026-03-29T06:14:01.998Z</time></trkpt><trkpt lat="45.50998454721138" lon="11.506873985760551"><ele>35.833333333333336</ele><time>2026-03-29T06:14:03.998Z</time></trkpt><trkpt lat="45.510054513470905" lon="11.506907902369244"><ele>36.0</ele><time>2026-03-29T06:14:05.998Z</time></trkpt><trkpt lat="45.51012152818465" lon="11.506915342656898"><ele>36.0</ele><time>2026-03-29T06:14:07.998Z</time></trkpt><trkpt lat="45.51020642611928" lon="11.50693036715471"><ele>36.0</ele><time>2026-03-29T06:14:10.998Z</time></trkpt><trkpt lat="45.51028445898424" lon="11.50693938683704"><ele>36.0</ele><time>2026-03-29T06:14:12.998Z</time></trkpt><trkpt lat="45.51035329739249" lon="11.506957417627177"><ele>36.0</ele><time>2026-03-29T06:14:14.998Z</time></trkpt><trkpt lat="45.5104162920276" lon="11.50695723261176"><ele>36.0</ele><time>2026-03-29T06:14:16.998Z</time></trkpt><trkpt lat="45.51049374344635" lon="11.506968287627377"><ele>36.0</ele><time>2026-03-29T06:14:18.998Z</time></trkpt><trkpt lat="45.51057577891524" lon="11.506994098748958"><ele>35.666666666666664</ele><time>2026-03-29T06:14:20.998Z</time></trkpt><trkpt lat="45.5106413082473" lon="11.507025486226953"><ele>35.333333333333336</ele><time>2026-03-29T06:14:22.998Z</time></trkpt><trkpt lat="45.510714558280924" lon="11.507049882570078"><ele>35.0</ele><time>2026-03-29T06:14:24.998Z</time></trkpt><trkpt lat="45.5107695692132" lon="11.507148503336337"><ele>34.66666666666667</ele><time>2026-03-29T06:14:26.998Z</time></trkpt><trkpt lat="45.510837292722115" lon="11.507177648417692"><ele>34.333333333333336</ele><time>2026-03-29T06:14:28.998Z</time></trkpt><trkpt lat="45.510924552094714" lon="11.507150606070736"><ele>34.0</ele><time>2026-03-29T06:14:30.998Z</time></trkpt><trkpt lat="45.510992713693476" lon="11.50718031250974"><ele>33.99999999999999</ele><time>2026-03-29T06:14:32.998Z</time></trkpt><trkpt lat="45.51105711731445" lon="11.507213287398791"><ele>34.0</ele><time>2026-03-29T06:14:34.998Z</time></trkpt><trkpt lat="45.51113159956341" lon="11.507245803449111"><ele>34.0</ele><time>2026-03-29T06:14:36.998Z</time></trkpt><trkpt lat="45.51119647658685" lon="11.507285567253788"><ele>34.0</ele><time>2026-03-29T06:14:38.998Z</time></trkpt><trkpt lat="45.51125694300426" lon="11.507313088808868"><ele>34.0</ele><time>2026-03-29T06:14:40.998Z</time></trkpt><trkpt lat="45.51132351085817" lon="11.507329629339974"><ele>33.99999999999999</ele><time>2026-03-29T06:14:42.997Z</time></trkpt><trkpt lat="45.51140078166936" lon="11.507371813981747"><ele>34.0</ele><time>2026-03-29T06:14:44.997Z</time></trkpt><trkpt lat="45.511443108928525" lon="11.50729587408239"><ele>34.0</ele><time>2026-03-29T06:14:45.997Z</time></trkpt><trkpt lat="45.51151597900185" lon="11.50728164498021"><ele>34.0</ele><time>2026-03-29T06:14:47.997Z</time></trkpt><trkpt lat="45.51159190017511" lon="11.507314480111578"><ele>34.0</ele><time>2026-03-29T06:14:49.997Z</time></trkpt><trkpt lat="45.51166365204772" lon="11.507364883996578"><ele>34.0</ele><time>2026-03-29T06:14:51.997Z</time></trkpt><trkpt lat="45.51173292339345" lon="11.50740688486855"><ele>34.0</ele><time>2026-03-29T06:14:54Z</time></trkpt><trkpt lat="45.511810070444" lon="11.507451749052334"><ele>34.0</ele><time>2026-03-29T06:14:56Z</time></trkpt><trkpt lat="45.51188061924299" lon="11.507495472646129"><ele>34.0</ele><time>2026-03-29T06:14:58Z</time></trkpt><trkpt lat="45.511953451257654" lon="11.50754279558733"><ele>34.0</ele><time>2026-03-29T06:15:00Z</time></trkpt><trkpt lat="45.51202792145569" lon="11.507586959128773"><ele>34.0</ele><time>2026-03-29T06:15:02Z</time></trkpt><trkpt lat="45.51209668054779" lon="11.507639749413284"><ele>34.0</ele><time>2026-03-29T06:15:04Z</time></trkpt><trkpt lat="45.512169119762" lon="11.507690479103914"><ele>34.0</ele><time>2026-03-29T06:15:06Z</time></trkpt><trkpt lat="45.512247382041686" lon="11.507742963441576"><ele>34.0</ele><time>2026-03-29T06:15:08Z</time></trkpt><trkpt lat="45.51231998308658" lon="11.507789279377814"><ele>33.833333333333336</ele><time>2026-03-29T06:15:10Z</time></trkpt><trkpt lat="45.51239054713414" lon="11.5078354841459"><ele>33.66666666666667</ele><time>2026-03-29T06:15:12Z</time></trkpt><trkpt lat="45.51246453128933" lon="11.507886500697703"><ele>33.5</ele><time>2026-03-29T06:15:14Z</time></trkpt><trkpt lat="45.512536240647165" lon="11.507936057964537"><ele>33.333333333333336</ele><time>2026-03-29T06:15:16Z</time></trkpt><trkpt lat="45.51260899537288" lon="11.507985965191809"><ele>33.166666666666664</ele><time>2026-03-29T06:15:18Z</time></trkpt><trkpt lat="45.51267321367448" lon="11.50803119672191"><ele>33.0</ele><time>2026-03-29T06:15:20Z</time></trkpt><trkpt lat="45.51274736505583" lon="11.50808034267371"><ele>33.0</ele><time>2026-03-29T06:15:22Z</time></trkpt><trkpt lat="45.512817155103576" lon="11.50814771212527"><ele>33.0</ele><time>2026-03-29T06:15:23.999Z</time></trkpt><trkpt lat="45.51288608337062" lon="11.508200755961528"><ele>33.0</ele><time>2026-03-29T06:15:25.999Z</time></trkpt><trkpt lat="45.5129602874962" lon="11.508255625979375"><ele>33.0</ele><time>2026-03-29T06:15:27.999Z</time></trkpt><trkpt lat="45.51303259574736" lon="11.508312703423192"><ele>33.0</ele><time>2026-03-29T06:15:29.999Z</time></trkpt><trkpt lat="45.513109264467296" lon="11.5083686082036"><ele>33.0</ele><time>2026-03-29T06:15:31.999Z</time></trkpt><trkpt lat="45.51317571469035" lon="11.508417304258415"><ele>33.0</ele><time>2026-03-29T06:15:33.999Z</time></trkpt><trkpt lat="45.51325102556338" lon="11.508470961954506"><ele>33.0</ele><time>2026-03-29T06:15:35.999Z</time></trkpt><trkpt lat="45.513322296148324" lon="11.508525263157129"><ele>33.0</ele><time>2026-03-29T06:15:37.999Z</time></trkpt><trkpt lat="45.51339284211052" lon="11.508565900837967"><ele>33.0</ele><time>2026-03-29T06:15:39.999Z</time></trkpt><trkpt lat="45.51345643368813" lon="11.508612422774071"><ele>33.0</ele><time>2026-03-29T06:15:41.999Z</time></trkpt><trkpt lat="45.513517926064814" lon="11.508654850426195"><ele>33.0</ele><time>2026-03-29T06:15:43.999Z</time></trkpt><trkpt lat="45.5136028134617" lon="11.508711628584267"><ele>33.0</ele><time>2026-03-29T06:15:46.999Z</time></trkpt><trkpt lat="45.513663189130476" lon="11.508739183168615"><ele>33.0</ele><time>2026-03-29T06:15:48.999Z</time></trkpt><trkpt lat="45.51374433010669" lon="11.508787643602755"><ele>33.0</ele><time>2026-03-29T06:15:51.999Z</time></trkpt><trkpt lat="45.51382451797593" lon="11.508843614188539"><ele>33.0</ele><time>2026-03-29T06:15:54.999Z</time></trkpt><trkpt lat="45.51390869266836" lon="11.5089059449815"><ele>33.0</ele><time>2026-03-29T06:15:57.999Z</time></trkpt><trkpt lat="45.51399680112734" lon="11.50896512267163"><ele>33.0</ele><time>2026-03-29T06:16:00.999Z</time></trkpt><trkpt lat="45.51406634267781" lon="11.509013193562659"><ele>33.0</ele><time>2026-03-29T06:16:02.999Z</time></trkpt><trkpt lat="45.514133637429204" lon="11.509060147769146"><ele>33.0</ele><time>2026-03-29T06:16:04.998Z</time></trkpt><trkpt lat="45.51420037165391" lon="11.509099134402469"><ele>33.0</ele><time>2026-03-29T06:16:06.998Z</time></trkpt><trkpt lat="45.514258492843474" lon="11.509134636914567"><ele>33.0</ele><time>2026-03-29T06:16:08.998Z</time></trkpt><trkpt lat="45.51432521065595" lon="11.509181475737556"><ele>33.0</ele><time>2026-03-29T06:16:10.998Z</time></trkpt><trkpt lat="45.51439219349037" lon="11.5092207025041"><ele>33.0</ele><time>2026-03-29T06:16:12.998Z</time></trkpt><trkpt lat="45.514461189015016" lon="11.509267086813955"><ele>33.0</ele><time>2026-03-29T06:16:14.998Z</time></trkpt><trkpt lat="45.51452224031272" lon="11.509317107065941"><ele>32.857142857142854</ele><time>2026-03-29T06:16:16.998Z</time></trkpt><trkpt lat="45.514586456622" lon="11.509365072455195"><ele>32.714285714285715</ele><time>2026-03-29T06:16:18.998Z</time></trkpt><trkpt lat="45.51465612869697" lon="11.50941711975165"><ele>32.57142857142857</ele><time>2026-03-29T06:16:20.998Z</time></trkpt><trkpt lat="45.51471806983316" lon="11.509465670828792"><ele>32.42857142857143</ele><time>2026-03-29T06:16:22.998Z</time></trkpt><trkpt lat="45.51478415824359" lon="11.50950315838288"><ele>32.285714285714285</ele><time>2026-03-29T06:16:24.998Z</time></trkpt><trkpt lat="45.51484887654002" lon="11.509550896862349"><ele>32.14285714285714</ele><time>2026-03-29T06:16:26.998Z</time></trkpt><trkpt lat="45.51491317097888" lon="11.509601354111277"><ele>32.0</ele><time>2026-03-29T06:16:28.998Z</time></trkpt><trkpt lat="45.51497735941523" lon="11.50964952353619"><ele>31.999999999999996</ele><time>2026-03-29T06:16:30.998Z</time></trkpt><trkpt lat="45.515043006030474" lon="11.509689073508847"><ele>32.0</ele><time>2026-03-29T06:16:32.998Z</time></trkpt><trkpt lat="45.51510035052047" lon="11.509727711948168"><ele>32.0</ele><time>2026-03-29T06:16:34.998Z</time></trkpt><trkpt lat="45.515136523504424" lon="11.509806407078182"><ele>32.0</ele><time>2026-03-29T06:16:36.998Z</time></trkpt><trkpt lat="45.51510097485756" lon="11.509913501131548"><ele>31.999999999999996</ele><time>2026-03-29T06:16:38.998Z</time></trkpt><trkpt lat="45.51504149935196" lon="11.510011972157697"><ele>32.0</ele><time>2026-03-29T06:16:40.998Z</time></trkpt><trkpt lat="45.51498898550807" lon="11.510113198113578"><ele>31.999999999999996</ele><time>2026-03-29T06:16:42.998Z</time></trkpt><trkpt lat="45.514940454040065" lon="11.510213835456605"><ele>32.0</ele><time>2026-03-29T06:16:44.998Z</time></trkpt><trkpt lat="45.51489555665615" lon="11.510310866515557"><ele>32.0</ele><time>2026-03-29T06:16:46.997Z</time></trkpt><trkpt lat="45.51485005276549" lon="11.510403843058716"><ele>32.0</ele><time>2026-03-29T06:16:48.997Z</time></trkpt><trkpt lat="45.514801034944576" lon="11.510494866791156"><ele>31.999999999999996</ele><time>2026-03-29T06:16:50.997Z</time></trkpt><trkpt lat="45.514758073909476" lon="11.510574004523487"><ele>32.0</ele><time>2026-03-29T06:16:52.997Z</time></trkpt><trkpt lat="45.51471300376845" lon="11.510674700771247"><ele>31.666666666666664</ele><time>2026-03-29T06:16:54.997Z</time></trkpt><trkpt lat="45.51466632055162" lon="11.510760096194407"><ele>31.333333333333332</ele><time>2026-03-29T06:16:56.997Z</time></trkpt><trkpt lat="45.51462554415667" lon="11.510841711127224"><ele>31.0</ele><time>2026-03-29T06:16:58.997Z</time></trkpt><trkpt lat="45.514576304977346" lon="11.51092789172346"><ele>30.666666666666664</ele><time>2026-03-29T06:17:01Z</time></trkpt><trkpt lat="45.51453323030628" lon="11.511020008466131"><ele>30.333333333333332</ele><time>2026-03-29T06:17:03Z</time></trkpt><trkpt lat="45.51448696434588" lon="11.511103299086345"><ele>30.0</ele><time>2026-03-29T06:17:05Z</time></trkpt><trkpt lat="45.5144386740667" lon="11.51118752529438"><ele>30.0</ele><time>2026-03-29T06:17:07Z</time></trkpt><trkpt lat="45.514395159172366" lon="11.51126581192636"><ele>30.0</ele><time>2026-03-29T06:17:09Z</time></trkpt><trkpt lat="45.514357844282614" lon="11.51136030835304"><ele>30.0</ele><time>2026-03-29T06:17:11Z</time></trkpt><trkpt lat="45.51430969855979" lon="11.511445613436484"><ele>30.0</ele><time>2026-03-29T06:17:13Z</time></trkpt><trkpt lat="45.51426402156257" lon="11.511535942457925"><ele>30.0</ele><time>2026-03-29T06:17:15Z</time></trkpt><trkpt lat="45.5142172913253" lon="11.511624995592319"><ele>30.0</ele><time>2026-03-29T06:17:17Z</time></trkpt><trkpt lat="45.51417267034545" lon="11.511720856015959"><ele>30.0</ele><time>2026-03-29T06:17:19Z</time></trkpt><trkpt lat="45.51413333089536" lon="11.511823610727689"><ele>30.0</ele><time>2026-03-29T06:17:21Z</time></trkpt><trkpt lat="45.51410135031438" lon="11.51192753564214"><ele>30.0</ele><time>2026-03-29T06:17:23Z</time></trkpt><trkpt lat="45.51408833121338" lon="11.51203479043505"><ele>30.0</ele><time>2026-03-29T06:17:25Z</time></trkpt><trkpt lat="45.514087285268985" lon="11.51214963866612"><ele>30.0</ele><time>2026-03-29T06:17:27Z</time></trkpt><trkpt lat="45.51410461651064" lon="11.512265209845383"><ele>30.0</ele><time>2026-03-29T06:17:29Z</time></trkpt><trkpt lat="45.5141328471889" lon="11.512363178327423"><ele>29.833333333333332</ele><time>2026-03-29T06:17:31Z</time></trkpt><trkpt lat="45.51416482936301" lon="11.512468262385282"><ele>29.666666666666664</ele><time>2026-03-29T06:17:33Z</time></trkpt><trkpt lat="45.514194368704814" lon="11.512564643752281"><ele>29.5</ele><time>2026-03-29T06:17:34.999Z</time></trkpt><trkpt lat="45.514226150199676" lon="11.512661688669576"><ele>29.333333333333332</ele><time>2026-03-29T06:17:36.999Z</time></trkpt><trkpt lat="45.514255715690105" lon="11.512759349209828"><ele>29.166666666666664</ele><time>2026-03-29T06:17:38.999Z</time></trkpt><trkpt lat="45.51428174652132" lon="11.51286351781994"><ele>29.0</ele><time>2026-03-29T06:17:40.999Z</time></trkpt><trkpt lat="45.51430274006322" lon="11.512965031806374"><ele>28.833333333333332</ele><time>2026-03-29T06:17:42.999Z</time></trkpt><trkpt lat="45.51432905382889" lon="11.513069568414785"><ele>28.666666666666664</ele><time>2026-03-29T06:17:44.999Z</time></trkpt><trkpt lat="45.51435639957236" lon="11.513171343321394"><ele>28.5</ele><time>2026-03-29T06:17:46.999Z</time></trkpt><trkpt lat="45.51438013844903" lon="11.513277837471351"><ele>28.333333333333336</ele><time>2026-03-29T06:17:48.999Z</time></trkpt><trkpt lat="45.51440443149527" lon="11.513378889843857"><ele>28.166666666666668</ele><time>2026-03-29T06:17:50.999Z</time></trkpt><trkpt lat="45.51443277784573" lon="11.51348096365499"><ele>28.0</ele><time>2026-03-29T06:17:52.999Z</time></trkpt><trkpt lat="45.51445789063679" lon="11.51358586671803"><ele>28.0</ele><time>2026-03-29T06:17:54.999Z</time></trkpt><trkpt lat="45.51448471354135" lon="11.513687481133964"><ele>28.0</ele><time>2026-03-29T06:17:56.999Z</time></trkpt><trkpt lat="45.51451001897204" lon="11.513789151019287"><ele>28.0</ele><time>2026-03-29T06:17:58.999Z</time></trkpt><trkpt lat="45.514535858088976" lon="11.513886980402123"><ele>28.0</ele><time>2026-03-29T06:18:00.999Z</time></trkpt><trkpt lat="45.51456437306578" lon="11.513984796002676"><ele>28.0</ele><time>2026-03-29T06:18:02.999Z</time></trkpt><trkpt lat="45.51459180539651" lon="11.51407862345101"><ele>28.0</ele><time>2026-03-29T06:18:04.999Z</time></trkpt><trkpt lat="45.51462044839851" lon="11.514168964639353"><ele>28.0</ele><time>2026-03-29T06:18:06.999Z</time></trkpt><trkpt lat="45.51464415115032" lon="11.514256249252114"><ele>28.0</ele><time>2026-03-29T06:18:08.999Z</time></trkpt><trkpt lat="45.514668887827895" lon="11.514340288084755"><ele>28.0</ele><time>2026-03-29T06:18:10.999Z</time></trkpt><trkpt lat="45.51469392119508" lon="11.514426991937883"><ele>28.0</ele><time>2026-03-29T06:18:12.999Z</time></trkpt><trkpt lat="45.514725055919975" lon="11.514529692569527"><ele>28.0</ele><time>2026-03-29T06:18:14.999Z</time></trkpt><trkpt lat="45.51475426052252" lon="11.514630735822712"><ele>28.0</ele><time>2026-03-29T06:18:16.998Z</time></trkpt><trkpt lat="45.51478599493062" lon="11.514730157307035"><ele>28.0</ele><time>2026-03-29T06:18:18.998Z</time></trkpt><trkpt lat="45.51481904003021" lon="11.514835752131997"><ele>28.0</ele><time>2026-03-29T06:18:20.998Z</time></trkpt><trkpt lat="45.514850524285805" lon="11.51493838735316"><ele>28.0</ele><time>2026-03-29T06:18:22.998Z</time></trkpt><trkpt lat="45.51488023660064" lon="11.515037182610065"><ele>28.0</ele><time>2026-03-29T06:18:24.998Z</time></trkpt><trkpt lat="45.51491259501848" lon="11.515134896588288"><ele>28.0</ele><time>2026-03-29T06:18:26.998Z</time></trkpt><trkpt lat="45.51494641314154" lon="11.51522728434087"><ele>28.0</ele><time>2026-03-29T06:18:28.998Z</time></trkpt><trkpt lat="45.51497756073215" lon="11.515313713424892"><ele>28.0</ele><time>2026-03-29T06:18:30.998Z</time></trkpt><trkpt lat="45.51500886725864" lon="11.51539597213075"><ele>28.0</ele><time>2026-03-29T06:18:32.998Z</time></trkpt><trkpt lat="45.515062078795445" lon="11.515500359002491"><ele>28.0</ele><time>2026-03-29T06:18:35.998Z</time></trkpt><trkpt lat="45.51510425446644" lon="11.515595905273962"><ele>28.714285714285715</ele><time>2026-03-29T06:18:38.998Z</time></trkpt><trkpt lat="45.51515475380874" lon="11.515685907964986"><ele>29.42857142857143</ele><time>2026-03-29T06:18:41.998Z</time></trkpt><trkpt lat="45.51519868014854" lon="11.515769825937925"><ele>30.142857142857142</ele><time>2026-03-29T06:18:44.998Z</time></trkpt><trkpt lat="45.515241640741465" lon="11.515848835457247"><ele>30.857142857142858</ele><time>2026-03-29T06:18:47.998Z</time></trkpt><trkpt lat="45.51527285072108" lon="11.515934076079516"><ele>31.571428571428573</ele><time>2026-03-29T06:18:50.998Z</time></trkpt><trkpt lat="45.51521660791413" lon="11.51598485673525"><ele>32.285714285714285</ele><time>2026-03-29T06:18:51.998Z</time></trkpt><trkpt lat="45.51515477366312" lon="11.516005522809571"><ele>33.0</ele><time>2026-03-29T06:18:54.998Z</time></trkpt><trkpt lat="45.51507618548119" lon="11.516028367633126"><ele>33.0</ele><time>2026-03-29T06:18:58.997Z</time></trkpt><trkpt lat="45.51500312426332" lon="11.516071006642436"><ele>33.0</ele><time>2026-03-29T06:19:03.997Z</time></trkpt><trkpt lat="45.51492639406155" lon="11.516079414692538"><ele>33.0</ele><time>2026-03-29T06:19:09Z</time></trkpt><trkpt lat="45.51487103593373" lon="11.516124429276354"><ele>33.0</ele><time>2026-03-29T06:19:12Z</time></trkpt><trkpt lat="45.51480476143271" lon="11.51618958587962"><ele>33.0</ele><time>2026-03-29T06:19:16Z</time></trkpt><trkpt lat="45.514753446589374" lon="11.51624724835702"><ele>33.0</ele><time>2026-03-29T06:19:19Z</time></trkpt><trkpt lat="45.51470130208958" lon="11.51630456980522"><ele>33.0</ele><time>2026-03-29T06:19:22Z</time></trkpt><trkpt lat="45.514650749123405" lon="11.516361182558327"><ele>34.0</ele><time>2026-03-29T06:19:25Z</time></trkpt><trkpt lat="45.51459249601792" lon="11.516425796824288"><ele>35.0</ele><time>2026-03-29T06:19:28Z</time></trkpt><trkpt lat="45.514539276149264" lon="11.516493103514334"><ele>36.0</ele><time>2026-03-29T06:19:31Z</time></trkpt><trkpt lat="45.51447990433198" lon="11.516544014995432"><ele>37.0</ele><time>2026-03-29T06:19:34Z</time></trkpt><trkpt lat="45.51442117164669" lon="11.516586086600048"><ele>38.0</ele><time>2026-03-29T06:19:37Z</time></trkpt><trkpt lat="45.51436189777357" lon="11.516623894981656"><ele>39.0</ele><time>2026-03-29T06:19:39.999Z</time></trkpt><trkpt lat="45.51429698353888" lon="11.516673118450218"><ele>40.0</ele><time>2026-03-29T06:19:42.999Z</time></trkpt><trkpt lat="45.51423859818063" lon="11.51671607035764"><ele>40.0</ele><time>2026-03-29T06:19:45.999Z</time></trkpt><trkpt lat="45.514167206338776" lon="11.516769378707194"><ele>40.0</ele><time>2026-03-29T06:19:49.999Z</time></trkpt><trkpt lat="45.51409979822762" lon="11.516825242738983"><ele>40.0</ele><time>2026-03-29T06:19:53.999Z</time></trkpt><trkpt lat="45.51403712860032" lon="11.516879537994532"><ele>40.0</ele><time>2026-03-29T06:19:57.999Z</time></trkpt><trkpt lat="45.51397929465086" lon="11.516938742981564"><ele>40.0</ele><time>2026-03-29T06:20:01.999Z</time></trkpt><trkpt lat="45.5139227670781" lon="11.517002558477323"><ele>40.0</ele><time>2026-03-29T06:20:05.999Z</time></trkpt><trkpt lat="45.51386847822242" lon="11.517063932489139"><ele>40.0</ele><time>2026-03-29T06:20:09.999Z</time></trkpt><trkpt lat="45.51381847087851" lon="11.517132936709821"><ele>41.0</ele><time>2026-03-29T06:20:13.999Z</time></trkpt><trkpt lat="45.51376179181329" lon="11.517201694079347"><ele>42.0</ele><time>2026-03-29T06:20:17.999Z</time></trkpt><trkpt lat="45.513712574319065" lon="11.51728014724874"><ele>43.0</ele><time>2026-03-29T06:20:21.998Z</time></trkpt><trkpt lat="45.513667671928346" lon="11.517364711676564"><ele>44.0</ele><time>2026-03-29T06:20:25.998Z</time></trkpt><trkpt lat="45.51363532620434" lon="11.5174555865671"><ele>45.0</ele><time>2026-03-29T06:20:29.998Z</time></trkpt><trkpt lat="45.51360344335952" lon="11.51754448177701"><ele>46.0</ele><time>2026-03-29T06:20:33.998Z</time></trkpt><trkpt lat="45.51356078376652" lon="11.517638199745468"><ele>47.0</ele><time>2026-03-29T06:20:37.998Z</time></trkpt><trkpt lat="45.51352184388703" lon="11.517736120739274"><ele>48.0</ele><time>2026-03-29T06:20:41.998Z</time></trkpt><trkpt lat="45.51348830449034" lon="11.517838720714503"><ele>49.0</ele><time>2026-03-29T06:20:45.998Z</time></trkpt><trkpt lat="45.51344584104046" lon="11.51793260565156"><ele>50.0</ele><time>2026-03-29T06:20:49.998Z</time></trkpt><trkpt lat="45.51339918401065" lon="11.518008513769217"><ele>51.0</ele><time>2026-03-29T06:20:53.998Z</time></trkpt><trkpt lat="45.51333045179855" lon="11.517988188370625"><ele>52.0</ele><time>2026-03-29T06:20:57.998Z</time></trkpt><trkpt lat="45.51329590484055" lon="11.517900070145606"><ele>53.0</ele><time>2026-03-29T06:21:01.997Z</time></trkpt><trkpt lat="45.513269292398206" lon="11.517802617195347"><ele>54.0</ele><time>2026-03-29T06:21:05.997Z</time></trkpt><trkpt lat="45.513227610273134" lon="11.517721049171605"><ele>54.0</ele><time>2026-03-29T06:21:09.997Z</time></trkpt><trkpt lat="45.51316840765253" lon="11.517660121679098"><ele>54.0</ele><time>2026-03-29T06:21:14Z</time></trkpt><trkpt lat="45.51309894822683" lon="11.517618452465973"><ele>54.0</ele><time>2026-03-29T06:21:18Z</time></trkpt><trkpt lat="45.513030570180035" lon="11.517598391768244"><ele>54.0</ele><time>2026-03-29T06:21:22Z</time></trkpt><trkpt lat="45.51294909657997" lon="11.517615512101333"><ele>54.0</ele><time>2026-03-29T06:21:27Z</time></trkpt><trkpt lat="45.512883942087115" lon="11.51763818865255"><ele>54.0</ele><time>2026-03-29T06:21:31Z</time></trkpt><trkpt lat="45.512820089944256" lon="11.517673301891966"><ele>54.0</ele><time>2026-03-29T06:21:35Z</time></trkpt><trkpt lat="45.512746067850394" lon="11.517712982171389"><ele>54.285714285714285</ele><time>2026-03-29T06:21:40Z</time></trkpt><trkpt lat="45.5126809212592" lon="11.517749394882584"><ele>54.57142857142857</ele><time>2026-03-29T06:21:44Z</time></trkpt><trkpt lat="45.51261921263559" lon="11.517780829783302"><ele>54.85714285714286</ele><time>2026-03-29T06:21:47.999Z</time></trkpt><trkpt lat="45.51256109899018" lon="11.517815935749582"><ele>55.14285714285714</ele><time>2026-03-29T06:21:51.999Z</time></trkpt><trkpt lat="45.51250096669602" lon="11.517851361871662"><ele>55.42857142857143</ele><time>2026-03-29T06:21:55.999Z</time></trkpt><trkpt lat="45.51244079744927" lon="11.517895688332977"><ele>55.714285714285715</ele><time>2026-03-29T06:21:59.999Z</time></trkpt><trkpt lat="45.51238194055509" lon="11.517930317869716"><ele>56.0</ele><time>2026-03-29T06:22:03.999Z</time></trkpt><trkpt lat="45.51231719322944" lon="11.517992477730825"><ele>58.714285714285715</ele><time>2026-03-29T06:22:08.999Z</time></trkpt><trkpt lat="45.51224813586554" lon="11.518041158510073"><ele>61.42857142857143</ele><time>2026-03-29T06:22:13.999Z</time></trkpt><trkpt lat="45.512177291350916" lon="11.518082294272048"><ele>64.14285714285714</ele><time>2026-03-29T06:22:17.999Z</time></trkpt><trkpt lat="45.51211141130776" lon="11.518128950686558"><ele>66.85714285714286</ele><time>2026-03-29T06:22:21.999Z</time></trkpt><trkpt lat="45.51204205117437" lon="11.518169200820633"><ele>69.57142857142857</ele><time>2026-03-29T06:22:25.999Z</time></trkpt><trkpt lat="45.5119748783069" lon="11.518181235896451"><ele>72.28571428571428</ele><time>2026-03-29T06:22:29.998Z</time></trkpt><trkpt lat="45.511905534831364" lon="11.518203046404862"><ele>75.0</ele><time>2026-03-29T06:22:33.998Z</time></trkpt><trkpt lat="45.51184300005473" lon="11.51825609066367"><ele>74.99999999999999</ele><time>2026-03-29T06:22:37.998Z</time></trkpt><trkpt lat="45.51178318675734" lon="11.518324672568589"><ele>75.0</ele><time>2026-03-29T06:22:41.998Z</time></trkpt><trkpt lat="45.51173806227388" lon="11.5183987901197"><ele>75.0</ele><time>2026-03-29T06:22:44.998Z</time></trkpt><trkpt lat="45.51170090203313" lon="11.518502933434673"><ele>75.0</ele><time>2026-03-29T06:22:48.998Z</time></trkpt><trkpt lat="45.51167977033525" lon="11.518609024107695"><ele>75.0</ele><time>2026-03-29T06:22:52.998Z</time></trkpt><trkpt lat="45.51166151524373" lon="11.518720889420386"><ele>74.99999999999999</ele><time>2026-03-29T06:22:56.998Z</time></trkpt><trkpt lat="45.51165323749524" lon="11.518810020754499"><ele>75.0</ele><time>2026-03-29T06:22:59.998Z</time></trkpt><trkpt lat="45.51166938101027" lon="11.518906446480841"><ele>76.28571428571428</ele><time>2026-03-29T06:23:03.998Z</time></trkpt><trkpt lat="45.51166627812799" lon="11.519000226781694"><ele>77.57142857142857</ele><time>2026-03-29T06:23:07.998Z</time></trkpt><trkpt lat="45.511669350688436" lon="11.519111346505056"><ele>78.85714285714286</ele><time>2026-03-29T06:23:11.997Z</time></trkpt><trkpt lat="45.511682649893366" lon="11.519227360749488"><ele>80.14285714285714</ele><time>2026-03-29T06:23:15.997Z</time></trkpt><trkpt lat="45.511686749886" lon="11.519335665081327"><ele>81.42857142857143</ele><time>2026-03-29T06:23:19Z</time></trkpt><trkpt lat="45.51169071305528" lon="11.519431156393415"><ele>82.71428571428571</ele><time>2026-03-29T06:23:21Z</time></trkpt><trkpt lat="45.511692292412235" lon="11.519524343163278"><ele>84.0</ele><time>2026-03-29T06:23:23Z</time></trkpt><trkpt lat="45.51170092602322" lon="11.519648813791628"><ele>84.71428571428571</ele><time>2026-03-29T06:23:26Z</time></trkpt><trkpt lat="45.51171061232863" lon="11.51975322502749"><ele>85.42857142857143</ele><time>2026-03-29T06:23:29Z</time></trkpt><trkpt lat="45.51171923626891" lon="11.519847604415517"><ele>86.14285714285714</ele><time>2026-03-29T06:23:33Z</time></trkpt><trkpt lat="45.51170810991044" lon="11.519950059255596"><ele>86.85714285714286</ele><time>2026-03-29T06:23:37Z</time></trkpt><trkpt lat="45.511714713288576" lon="11.52006602352912"><ele>87.57142857142857</ele><time>2026-03-29T06:23:41Z</time></trkpt><trkpt lat="45.51171169215636" lon="11.520171885193195"><ele>88.28571428571428</ele><time>2026-03-29T06:23:45Z</time></trkpt><trkpt lat="45.5117235512164" lon="11.5202681998798"><ele>89.0</ele><time>2026-03-29T06:23:49Z</time></trkpt><trkpt lat="45.51171911074171" lon="11.52035941371378"><ele>89.14285714285714</ele><time>2026-03-29T06:23:51.999Z</time></trkpt><trkpt lat="45.51172595465328" lon="11.5204581255824"><ele>89.28571428571428</ele><time>2026-03-29T06:23:54.999Z</time></trkpt><trkpt lat="45.51173535983859" lon="11.520556100038892"><ele>89.42857142857142</ele><time>2026-03-29T06:23:57.999Z</time></trkpt><trkpt lat="45.51173913382796" lon="11.520652627740013"><ele>89.57142857142857</ele><time>2026-03-29T06:24:00.999Z</time></trkpt><trkpt lat="45.511741009737904" lon="11.520755858425147"><ele>89.71428571428572</ele><time>2026-03-29T06:24:03.999Z</time></trkpt><trkpt lat="45.51174085794739" lon="11.520857598280266"><ele>89.85714285714285</ele><time>2026-03-29T06:24:06.999Z</time></trkpt><trkpt lat="45.51174055225031" lon="11.520956950237341"><ele>90.0</ele><time>2026-03-29T06:24:09.999Z</time></trkpt><trkpt lat="45.51174247730522" lon="11.521077690618728"><ele>90.0</ele><time>2026-03-29T06:24:12.999Z</time></trkpt><trkpt lat="45.511730375999925" lon="11.521195107408598"><ele>90.0</ele><time>2026-03-29T06:24:16.999Z</time></trkpt><trkpt lat="45.51173132952992" lon="11.521286654152437"><ele>90.0</ele><time>2026-03-29T06:24:18.999Z</time></trkpt><trkpt lat="45.51172900907537" lon="11.521394747907463"><ele>90.0</ele><time>2026-03-29T06:24:20.999Z</time></trkpt><trkpt lat="45.51173915291011" lon="11.521512843888324"><ele>90.0</ele><time>2026-03-29T06:24:22.999Z</time></trkpt><trkpt lat="45.51174331596299" lon="11.521620878664828"><ele>90.0</ele><time>2026-03-29T06:24:24.999Z</time></trkpt><trkpt lat="45.511734791630495" lon="11.521759718105045"><ele>90.71428571428571</ele><time>2026-03-29T06:24:27.999Z</time></trkpt><trkpt lat="45.5117298215775" lon="11.521859798569347"><ele>91.42857142857143</ele><time>2026-03-29T06:24:29.999Z</time></trkpt><trkpt lat="45.51172744080586" lon="11.52195414713246"><ele>92.14285714285714</ele><time>2026-03-29T06:24:31.998Z</time></trkpt><trkpt lat="45.5117271443246" lon="11.522045452325848"><ele>92.85714285714286</ele><time>2026-03-29T06:24:33.998Z</time></trkpt><trkpt lat="45.5117235925432" lon="11.522136744309236"><ele>93.57142857142858</ele><time>2026-03-29T06:24:35.998Z</time></trkpt><trkpt lat="45.51171336633188" lon="11.522250471527096"><ele>94.28571428571429</ele><time>2026-03-29T06:24:38.998Z</time></trkpt><trkpt lat="45.51171573299193" lon="11.522350677415641"><ele>95.0</ele><time>2026-03-29T06:24:40.998Z</time></trkpt><trkpt lat="45.5117162733844" lon="11.522444631721497"><ele>95.14285714285714</ele><time>2026-03-29T06:24:42.998Z</time></trkpt><trkpt lat="45.51170663934792" lon="11.522533539955829"><ele>95.28571428571429</ele><time>2026-03-29T06:24:44.998Z</time></trkpt><trkpt lat="45.511701050968426" lon="11.522663623926455"><ele>95.42857142857142</ele><time>2026-03-29T06:24:47.998Z</time></trkpt><trkpt lat="45.51167373940725" lon="11.522789346445773"><ele>95.57142857142857</ele><time>2026-03-29T06:24:50.998Z</time></trkpt><trkpt lat="45.51165530174462" lon="11.52288006712681"><ele>95.71428571428571</ele><time>2026-03-29T06:24:52.998Z</time></trkpt><trkpt lat="45.51163826761605" lon="11.522971269505076"><ele>95.85714285714285</ele><time>2026-03-29T06:24:54.998Z</time></trkpt><trkpt lat="45.51162159921495" lon="11.523065197181664"><ele>96.0</ele><time>2026-03-29T06:24:56.998Z</time></trkpt><trkpt lat="45.51160999715577" lon="11.523164873955233"><ele>96.14285714285714</ele><time>2026-03-29T06:24:58.998Z</time></trkpt><trkpt lat="45.51160006266016" lon="11.52326707913805"><ele>96.28571428571428</ele><time>2026-03-29T06:25:00.998Z</time></trkpt><trkpt lat="45.51159638961651" lon="11.523372361218717"><ele>96.42857142857142</ele><time>2026-03-29T06:25:02.998Z</time></trkpt><trkpt lat="45.51158823752816" lon="11.5234710240628"><ele>96.57142857142857</ele><time>2026-03-29T06:25:04.998Z</time></trkpt><trkpt lat="45.51158415149431" lon="11.523569875949702"><ele>96.71428571428572</ele><time>2026-03-29T06:25:06.998Z</time></trkpt><trkpt lat="45.511586824762816" lon="11.52367920449074"><ele>96.85714285714285</ele><time>2026-03-29T06:25:09.998Z</time></trkpt><trkpt lat="45.511573574057614" lon="11.523780875234694"><ele>97.0</ele><time>2026-03-29T06:25:12.998Z</time></trkpt><trkpt lat="45.51156664140593" lon="11.523876795398639"><ele>97.50000000000001</ele><time>2026-03-29T06:25:15.997Z</time></trkpt><trkpt lat="45.51156158730504" lon="11.52397534613815"><ele>98.0</ele><time>2026-03-29T06:25:18.997Z</time></trkpt><trkpt lat="45.51155796294367" lon="11.524089144647562"><ele>98.5</ele><time>2026-03-29T06:25:21.997Z</time></trkpt><trkpt lat="45.511555575684156" lon="11.52420206086987"><ele>99.0</ele><time>2026-03-29T06:25:25Z</time></trkpt><trkpt lat="45.51155601231002" lon="11.52432614643788"><ele>99.50000000000001</ele><time>2026-03-29T06:25:28Z</time></trkpt><trkpt lat="45.51155022102773" lon="11.524438328628946"><ele>100.0</ele><time>2026-03-29T06:25:31Z</time></trkpt><trkpt lat="45.51154344787176" lon="11.52455795024219"><ele>100.50000000000001</ele><time>2026-03-29T06:25:34Z</time></trkpt><trkpt lat="45.511536275102664" lon="11.524673540222159"><ele>101.0</ele><time>2026-03-29T06:25:37Z</time></trkpt><trkpt lat="45.51152809922088" lon="11.524778038926955"><ele>101.5</ele><time>2026-03-29T06:25:40Z</time></trkpt><trkpt lat="45.51151141314815" lon="11.524884741833459"><ele>102.0</ele><time>2026-03-29T06:25:43Z</time></trkpt><trkpt lat="45.51149010339545" lon="11.524986911844847"><ele>102.50000000000001</ele><time>2026-03-29T06:25:46Z</time></trkpt><trkpt lat="45.51146660735761" lon="11.525091052737299"><ele>103.0</ele><time>2026-03-29T06:25:49Z</time></trkpt><trkpt lat="45.51144544206735" lon="11.525185557490872"><ele>102.99999999999999</ele><time>2026-03-29T06:25:52Z</time></trkpt><trkpt lat="45.51143110572915" lon="11.525290670013678"><ele>103.0</ele><time>2026-03-29T06:25:55Z</time></trkpt><trkpt lat="45.51141491170556" lon="11.525377691039004"><ele>103.0</ele><time>2026-03-29T06:25:58.999Z</time></trkpt><trkpt lat="45.51139227560257" lon="11.52547902142136"><ele>103.0</ele><time>2026-03-29T06:26:01.999Z</time></trkpt><trkpt lat="45.511386527245996" lon="11.525570333291917"><ele>103.0</ele><time>2026-03-29T06:26:03.999Z</time></trkpt><trkpt lat="45.51137438525143" lon="11.525684537009498"><ele>102.99999999999999</ele><time>2026-03-29T06:26:06.999Z</time></trkpt><trkpt lat="45.51136853456319" lon="11.525789386912875"><ele>103.0</ele><time>2026-03-29T06:26:09.999Z</time></trkpt><trkpt lat="45.511364074346396" lon="11.52590308398317"><ele>103.71428571428571</ele><time>2026-03-29T06:26:12.999Z</time></trkpt><trkpt lat="45.51136236368678" lon="11.526015187090628"><ele>104.42857142857143</ele><time>2026-03-29T06:26:15.999Z</time></trkpt><trkpt lat="45.51136337114035" lon="11.526125417551143"><ele>105.14285714285714</ele><time>2026-03-29T06:26:18.999Z</time></trkpt><trkpt lat="45.51136331450944" lon="11.52622381902886"><ele>105.85714285714286</ele><time>2026-03-29T06:26:21.999Z</time></trkpt><trkpt lat="45.51136594638966" lon="11.526331368692192"><ele>106.57142857142857</ele><time>2026-03-29T06:26:24.999Z</time></trkpt><trkpt lat="45.51137166241663" lon="11.526438436923108"><ele>107.28571428571428</ele><time>2026-03-29T06:26:27.999Z</time></trkpt><trkpt lat="45.51137979441148" lon="11.526538677291486"><ele>108.0</ele><time>2026-03-29T06:26:30.999Z</time></trkpt><trkpt lat="45.51138116873556" lon="11.526635348437539"><ele>108.42857142857143</ele><time>2026-03-29T06:26:33.999Z</time></trkpt><trkpt lat="45.51138294834364" lon="11.526743974183688"><ele>108.85714285714286</ele><time>2026-03-29T06:26:36.999Z</time></trkpt><trkpt lat="45.5113860463581" lon="11.526845746205382"><ele>109.28571428571428</ele><time>2026-03-29T06:26:39.998Z</time></trkpt><trkpt lat="45.51139082862915" lon="11.526935657771233"><ele>109.71428571428572</ele><time>2026-03-29T06:26:42.998Z</time></trkpt><trkpt lat="45.511394847064565" lon="11.527047771425416"><ele>110.14285714285715</ele><time>2026-03-29T06:26:45.998Z</time></trkpt><trkpt lat="45.51139456858612" lon="11.527160486889578"><ele>110.57142857142857</ele><time>2026-03-29T06:26:48.998Z</time></trkpt><trkpt lat="45.51140011542453" lon="11.527271209502125"><ele>111.0</ele><time>2026-03-29T06:26:51.998Z</time></trkpt><trkpt lat="45.511401099556885" lon="11.527382543347974"><ele>111.16666666666667</ele><time>2026-03-29T06:26:54.998Z</time></trkpt><trkpt lat="45.51140608751839" lon="11.527493701313828"><ele>111.33333333333334</ele><time>2026-03-29T06:26:57.998Z</time></trkpt><trkpt lat="45.51141325385139" lon="11.527595727402801"><ele>111.5</ele><time>2026-03-29T06:27:00.998Z</time></trkpt><trkpt lat="45.511421273646796" lon="11.527708072132603"><ele>111.66666666666667</ele><time>2026-03-29T06:27:03.998Z</time></trkpt><trkpt lat="45.511427918619006" lon="11.52781772682009"><ele>111.83333333333334</ele><time>2026-03-29T06:27:06.998Z</time></trkpt><trkpt lat="45.51143186558209" lon="11.527935086672176"><ele>112.0</ele><time>2026-03-29T06:27:10.998Z</time></trkpt><trkpt lat="45.511426644174385" lon="11.528034132430646"><ele>112.28571428571428</ele><time>2026-03-29T06:27:13.998Z</time></trkpt><trkpt lat="45.51142400893252" lon="11.528137123520082"><ele>112.57142857142857</ele><time>2026-03-29T06:27:16.998Z</time></trkpt><trkpt lat="45.51142186597637" lon="11.528254747582737"><ele>112.85714285714286</ele><time>2026-03-29T06:27:21.997Z</time></trkpt><trkpt lat="45.511424057309064" lon="11.528355853849032"><ele>113.14285714285714</ele><time>2026-03-29T06:27:25.997Z</time></trkpt><trkpt lat="45.51141911579934" lon="11.528449105584812"><ele>113.42857142857142</ele><time>2026-03-29T06:27:30Z</time></trkpt><trkpt lat="45.51141928720784" lon="11.528541816013124"><ele>113.71428571428571</ele><time>2026-03-29T06:27:34Z</time></trkpt><trkpt lat="45.51141420032655" lon="11.528633971150645"><ele>114.0</ele><time>2026-03-29T06:28:02Z</time></trkpt><trkpt lat="45.5114138823182" lon="11.528738542734619"><ele>114.5</ele><time>2026-03-29T06:28:04.999Z</time></trkpt><trkpt lat="45.51141591557086" lon="11.528855928065987"><ele>115.0</ele><time>2026-03-29T06:28:08.999Z</time></trkpt><trkpt lat="45.5114310914253" lon="11.528971875828722"><ele>115.5</ele><time>2026-03-29T06:28:12.999Z</time></trkpt><trkpt lat="45.51140817415345" lon="11.52909843122275"><ele>116.0</ele><time>2026-03-29T06:28:15.999Z</time></trkpt><trkpt lat="45.511385583457304" lon="11.529182983073285"><ele>116.5</ele><time>2026-03-29T06:28:17.999Z</time></trkpt><trkpt lat="45.51135215898043" lon="11.529263607102504"><ele>117.0</ele><time>2026-03-29T06:28:19.999Z</time></trkpt><trkpt lat="45.511300632379346" lon="11.529376053796886"><ele>117.0</ele><time>2026-03-29T06:28:22.999Z</time></trkpt><trkpt lat="45.5112671776354" lon="11.529454611946662"><ele>117.00000000000001</ele><time>2026-03-29T06:28:24.999Z</time></trkpt><trkpt lat="45.51122439507591" lon="11.529539194397774"><ele>117.0</ele><time>2026-03-29T06:28:26.999Z</time></trkpt><trkpt lat="45.511185729768265" lon="11.52962189660188"><ele>117.0</ele><time>2026-03-29T06:28:28.999Z</time></trkpt><trkpt lat="45.511141954063284" lon="11.529725488814954"><ele>117.00000000000001</ele><time>2026-03-29T06:28:31.999Z</time></trkpt><trkpt lat="45.51110597523401" lon="11.529803119435"><ele>117.0</ele><time>2026-03-29T06:28:33.999Z</time></trkpt><trkpt lat="45.51107449446721" lon="11.529881501472353"><ele>117.0</ele><time>2026-03-29T06:28:35.999Z</time></trkpt><trkpt lat="45.5110457431464" lon="11.529974757082128"><ele>117.0</ele><time>2026-03-29T06:28:38.999Z</time></trkpt><trkpt lat="45.511006915326895" lon="11.530081717589217"><ele>117.00000000000001</ele><time>2026-03-29T06:28:41.999Z</time></trkpt><trkpt lat="45.51097695759919" lon="11.530188316625058"><ele>117.0</ele><time>2026-03-29T06:28:44.999Z</time></trkpt><trkpt lat="45.51094833720416" lon="11.530298766681534"><ele>117.0</ele><time>2026-03-29T06:28:47.998Z</time></trkpt><trkpt lat="45.510931134965716" lon="11.530388818399457"><ele>117.00000000000001</ele><time>2026-03-29T06:28:49.998Z</time></trkpt><trkpt lat="45.51091412449444" lon="11.530482846968946"><ele>117.0</ele><time>2026-03-29T06:28:51.998Z</time></trkpt><trkpt lat="45.51089297962884" lon="11.530575041937047"><ele>117.0</ele><time>2026-03-29T06:28:53.998Z</time></trkpt><trkpt lat="45.510874141152286" lon="11.530671658361872"><ele>117.8</ele><time>2026-03-29T06:28:55.998Z</time></trkpt><trkpt lat="45.51085842752108" lon="11.530782716669716"><ele>118.6</ele><time>2026-03-29T06:28:57.998Z</time></trkpt><trkpt lat="45.51082924031092" lon="11.530899100241355"><ele>119.39999999999999</ele><time>2026-03-29T06:28:59.998Z</time></trkpt><trkpt lat="45.510787076820016" lon="11.531029578615374"><ele>120.19999999999999</ele><time>2026-03-29T06:29:01.998Z</time></trkpt><trkpt lat="45.51071436407068" lon="11.531139284217844"><ele>121.0</ele><time>2026-03-29T06:29:03.998Z</time></trkpt><trkpt lat="45.51060690099954" lon="11.531192189631541"><ele>122.19999999999999</ele><time>2026-03-29T06:29:05.998Z</time></trkpt><trkpt lat="45.51051248217417" lon="11.531235177211865"><ele>123.39999999999999</ele><time>2026-03-29T06:29:07.998Z</time></trkpt><trkpt lat="45.51042154036356" lon="11.531280494534068"><ele>124.6</ele><time>2026-03-29T06:29:09.998Z</time></trkpt><trkpt lat="45.510336832270326" lon="11.531324476033404"><ele>125.8</ele><time>2026-03-29T06:29:11.998Z</time></trkpt><trkpt lat="45.5102639725335" lon="11.531391954346352"><ele>127.0</ele><time>2026-03-29T06:29:13.998Z</time></trkpt><trkpt lat="45.51017797870728" lon="11.53145066345388"><ele>124.0</ele><time>2026-03-29T06:29:15.998Z</time></trkpt><trkpt lat="45.51008311907159" lon="11.53150931462289"><ele>120.99999999999999</ele><time>2026-03-29T06:29:17.998Z</time></trkpt><trkpt lat="45.510007319049116" lon="11.5315895413578"><ele>117.99999999999999</ele><time>2026-03-29T06:29:19.998Z</time></trkpt><trkpt lat="45.50993166834852" lon="11.531676924897374"><ele>115.0</ele><time>2026-03-29T06:29:21.998Z</time></trkpt><trkpt lat="45.50986381356887" lon="11.531778253738965"><ele>112.0</ele><time>2026-03-29T06:29:23.998Z</time></trkpt><trkpt lat="45.509801601176065" lon="11.531880170743255"><ele>112.0</ele><time>2026-03-29T06:29:25.998Z</time></trkpt><trkpt lat="45.50974386744332" lon="11.531987036968316"><ele>111.99999999999999</ele><time>2026-03-29T06:29:27.998Z</time></trkpt><trkpt lat="45.509686114215214" lon="11.532107080924735"><ele>111.99999999999999</ele><time>2026-03-29T06:29:29.997Z</time></trkpt><trkpt lat="45.50963578395198" lon="11.532216102081954"><ele>112.0</ele><time>2026-03-29T06:29:31.997Z</time></trkpt><trkpt lat="45.50961022791101" lon="11.532335836330951"><ele>112.0</ele><time>2026-03-29T06:29:33.997Z</time></trkpt><trkpt lat="45.509564171345026" lon="11.53243682898492"><ele>111.50000000000001</ele><time>2026-03-29T06:29:36Z</time></trkpt><trkpt lat="45.5095023598125" lon="11.532535363551867"><ele>111.0</ele><time>2026-03-29T06:29:38Z</time></trkpt><trkpt lat="45.50944715203616" lon="11.532619979363307"><ele>110.5</ele><time>2026-03-29T06:29:40Z</time></trkpt><trkpt lat="45.50938183026879" lon="11.53268454229922"><ele>110.0</ele><time>2026-03-29T06:29:42Z</time></trkpt><trkpt lat="45.50931244273091" lon="11.532737817844179"><ele>109.50000000000001</ele><time>2026-03-29T06:29:44Z</time></trkpt><trkpt lat="45.5092562391242" lon="11.532798455525736"><ele>109.0</ele><time>2026-03-29T06:29:46Z</time></trkpt><trkpt lat="45.509192825000234" lon="11.532844823769082"><ele>111.83333333333334</ele><time>2026-03-29T06:29:48Z</time></trkpt><trkpt lat="45.50913423879403" lon="11.532901272265615"><ele>114.66666666666667</ele><time>2026-03-29T06:29:50Z</time></trkpt><trkpt lat="45.50906929613466" lon="11.532966815771298"><ele>117.5</ele><time>2026-03-29T06:29:52Z</time></trkpt><trkpt lat="45.50899254324529" lon="11.533021811009908"><ele>120.33333333333334</ele><time>2026-03-29T06:29:54Z</time></trkpt><trkpt lat="45.508922358075196" lon="11.533087127237275"><ele>123.16666666666667</ele><time>2026-03-29T06:29:56Z</time></trkpt><trkpt lat="45.50886234596328" lon="11.533162932340016"><ele>126.0</ele><time>2026-03-29T06:29:58Z</time></trkpt><trkpt lat="45.50879279455756" lon="11.533225390449607"><ele>123.33333333333333</ele><time>2026-03-29T06:30:00Z</time></trkpt><trkpt lat="45.50873125141859" lon="11.533290431178223"><ele>120.66666666666666</ele><time>2026-03-29T06:30:02Z</time></trkpt><trkpt lat="45.508661944541565" lon="11.533355509637845"><ele>118.0</ele><time>2026-03-29T06:30:04Z</time></trkpt><trkpt lat="45.50858942956313" lon="11.533431330023294"><ele>115.33333333333333</ele><time>2026-03-29T06:30:06Z</time></trkpt><trkpt lat="45.50851478121285" lon="11.533504433914677"><ele>112.66666666666666</ele><time>2026-03-29T06:30:08Z</time></trkpt><trkpt lat="45.50842959240285" lon="11.533586114886724"><ele>110.0</ele><time>2026-03-29T06:30:09.999Z</time></trkpt><trkpt lat="45.50835657163738" lon="11.53366801220068"><ele>112.16666666666666</ele><time>2026-03-29T06:30:11.999Z</time></trkpt><trkpt lat="45.5082714585648" lon="11.53372928196321"><ele>114.33333333333333</ele><time>2026-03-29T06:30:13.999Z</time></trkpt><trkpt lat="45.50820324501133" lon="11.533801755818809"><ele>116.5</ele><time>2026-03-29T06:30:15.999Z</time></trkpt><trkpt lat="45.50813617903295" lon="11.53386572249278"><ele>118.66666666666666</ele><time>2026-03-29T06:30:17.999Z</time></trkpt><trkpt lat="45.508059992095106" lon="11.533939891130466"><ele>120.83333333333333</ele><time>2026-03-29T06:30:19.999Z</time></trkpt><trkpt lat="45.507986047612775" lon="11.5340107106578"><ele>123.0</ele><time>2026-03-29T06:30:21.999Z</time></trkpt><trkpt lat="45.50791490163189" lon="11.534076840702674"><ele>120.66666666666667</ele><time>2026-03-29T06:30:23.999Z</time></trkpt><trkpt lat="45.507842519168875" lon="11.534141911221848"><ele>118.33333333333334</ele><time>2026-03-29T06:30:25.999Z</time></trkpt><trkpt lat="45.50777512707941" lon="11.534209128667332"><ele>116.0</ele><time>2026-03-29T06:30:27.999Z</time></trkpt><trkpt lat="45.50771162897425" lon="11.534275152032237"><ele>113.66666666666667</ele><time>2026-03-29T06:30:29.999Z</time></trkpt><trkpt lat="45.50765088960747" lon="11.534335228280728"><ele>111.33333333333334</ele><time>2026-03-29T06:30:31.999Z</time></trkpt><trkpt lat="45.507590378734776" lon="11.53438726800219"><ele>109.0</ele><time>2026-03-29T06:30:33.999Z</time></trkpt><trkpt lat="45.50753429498842" lon="11.53444097935797"><ele>109.00000000000001</ele><time>2026-03-29T06:30:35.999Z</time></trkpt><trkpt lat="45.50747769441891" lon="11.534499514629838"><ele>109.0</ele><time>2026-03-29T06:30:37.999Z</time></trkpt><trkpt lat="45.50742507066424" lon="11.53456086866625"><ele>109.0</ele><time>2026-03-29T06:30:39.999Z</time></trkpt><trkpt lat="45.507369179923316" lon="11.534623122107245"><ele>109.0</ele><time>2026-03-29T06:30:41.999Z</time></trkpt><trkpt lat="45.50728806854943" lon="11.534657012636213"><ele>109.00000000000001</ele><time>2026-03-29T06:30:43.999Z</time></trkpt><trkpt lat="45.507196711878144" lon="11.534673204065562"><ele>109.0</ele><time>2026-03-29T06:30:45.999Z</time></trkpt><trkpt lat="45.50711022412083" lon="11.534686081505415"><ele>108.66666666666667</ele><time>2026-03-29T06:30:47.999Z</time></trkpt><trkpt lat="45.507028529949814" lon="11.534694123630299"><ele>108.33333333333334</ele><time>2026-03-29T06:30:49.999Z</time></trkpt><trkpt lat="45.50695273327532" lon="11.53470447042382"><ele>108.0</ele><time>2026-03-29T06:30:51.998Z</time></trkpt><trkpt lat="45.5068761293327" lon="11.534707677682235"><ele>107.66666666666666</ele><time>2026-03-29T06:30:53.998Z</time></trkpt><trkpt lat="45.50679783164981" lon="11.53471601115672"><ele>107.33333333333333</ele><time>2026-03-29T06:30:55.998Z</time></trkpt><trkpt lat="45.50671818775322" lon="11.534723622857614"><ele>107.0</ele><time>2026-03-29T06:30:57.998Z</time></trkpt><trkpt lat="45.506637105596745" lon="11.534725242798807"><ele>106.99999999999999</ele><time>2026-03-29T06:30:59.998Z</time></trkpt><trkpt lat="45.50655481563586" lon="11.53472382690453"><ele>107.0</ele><time>2026-03-29T06:31:01.998Z</time></trkpt><trkpt lat="45.50647997117533" lon="11.534723931159922"><ele>107.0</ele><time>2026-03-29T06:31:03.998Z</time></trkpt><trkpt lat="45.5064057771973" lon="11.534723593307575"><ele>107.0</ele><time>2026-03-29T06:31:05.998Z</time></trkpt><trkpt lat="45.50633159388096" lon="11.534721398337616"><ele>106.99999999999999</ele><time>2026-03-29T06:31:07.998Z</time></trkpt><trkpt lat="45.506257806287984" lon="11.534715991881637"><ele>107.0</ele><time>2026-03-29T06:31:09.998Z</time></trkpt><trkpt lat="45.50618743393006" lon="11.534705136234486"><ele>107.85714285714286</ele><time>2026-03-29T06:31:11.998Z</time></trkpt><trkpt lat="45.50611579355152" lon="11.534699099518546"><ele>108.71428571428572</ele><time>2026-03-29T06:31:13.998Z</time></trkpt><trkpt lat="45.50604701040588" lon="11.534695314898745"><ele>109.57142857142858</ele><time>2026-03-29T06:31:15.998Z</time></trkpt><trkpt lat="45.505975080181166" lon="11.534692351654444"><ele>110.42857142857143</ele><time>2026-03-29T06:31:17.998Z</time></trkpt><trkpt lat="45.50590402377289" lon="11.534688078131458"><ele>111.28571428571428</ele><time>2026-03-29T06:31:19.998Z</time></trkpt><trkpt lat="45.505834812517016" lon="11.5346840557541"><ele>112.14285714285715</ele><time>2026-03-29T06:31:21.998Z</time></trkpt><trkpt lat="45.50576436836146" lon="11.534678139939066"><ele>113.0</ele><time>2026-03-29T06:31:23.998Z</time></trkpt><trkpt lat="45.5056954007236" lon="11.534673457760388"><ele>112.99999999999999</ele><time>2026-03-29T06:31:25.998Z</time></trkpt><trkpt lat="45.50563138929918" lon="11.534668863202823"><ele>113.0</ele><time>2026-03-29T06:31:27.998Z</time></trkpt><trkpt lat="45.50553886346841" lon="11.534659187313288"><ele>113.0</ele><time>2026-03-29T06:31:30.998Z</time></trkpt><trkpt lat="45.50544334344346" lon="11.534653683183116"><ele>113.0</ele><time>2026-03-29T06:31:33.997Z</time></trkpt><trkpt lat="45.50537890934607" lon="11.534647019849812"><ele>112.99999999999999</ele><time>2026-03-29T06:31:35.997Z</time></trkpt><trkpt lat="45.50529077797109" lon="11.5346407699945"><ele>113.0</ele><time>2026-03-29T06:31:38.997Z</time></trkpt><trkpt lat="45.50519961795237" lon="11.534634174323415"><ele>114.16666666666666</ele><time>2026-03-29T06:31:42Z</time></trkpt><trkpt lat="45.505109338502244" lon="11.534627686688264"><ele>115.33333333333333</ele><time>2026-03-29T06:31:45Z</time></trkpt><trkpt lat="45.50504644863821" lon="11.534620201384504"><ele>116.5</ele><time>2026-03-29T06:31:47Z</time></trkpt><trkpt lat="45.504983063540024" lon="11.534616282099295"><ele>117.66666666666666</ele><time>2026-03-29T06:31:49Z</time></trkpt><trkpt lat="45.504920329880456" lon="11.534608545400804"><ele>118.83333333333333</ele><time>2026-03-29T06:31:51Z</time></trkpt><trkpt lat="45.504824166847165" lon="11.534601224023593"><ele>120.0</ele><time>2026-03-29T06:31:54Z</time></trkpt><trkpt lat="45.50473276366479" lon="11.534591971121392"><ele>120.0</ele><time>2026-03-29T06:31:57Z</time></trkpt><trkpt lat="45.50464785091169" lon="11.534585952506633"><ele>120.0</ele><time>2026-03-29T06:32:00Z</time></trkpt><trkpt lat="45.5045597118132" lon="11.534590933219814"><ele>120.0</ele><time>2026-03-29T06:32:03Z</time></trkpt><trkpt lat="45.504471979284155" lon="11.534573720100163"><ele>120.0</ele><time>2026-03-29T06:32:06Z</time></trkpt><trkpt lat="45.50440177343693" lon="11.534573289232469"><ele>120.0</ele><time>2026-03-29T06:32:08Z</time></trkpt><trkpt lat="45.50432714169208" lon="11.534572719496825"><ele>120.0</ele><time>2026-03-29T06:32:10Z</time></trkpt><trkpt lat="45.50426404454353" lon="11.534592080657971"><ele>120.83333333333333</ele><time>2026-03-29T06:32:12Z</time></trkpt><trkpt lat="45.50417008305334" lon="11.53462529393276"><ele>121.66666666666666</ele><time>2026-03-29T06:32:15Z</time></trkpt><trkpt lat="45.50410503795626" lon="11.534659979943932"><ele>122.5</ele><time>2026-03-29T06:32:16.999Z</time></trkpt><trkpt lat="45.50402615197558" lon="11.534713881040531"><ele>123.33333333333333</ele><time>2026-03-29T06:32:19.999Z</time></trkpt><trkpt lat="45.50395527062289" lon="11.53478645442427"><ele>124.16666666666666</ele><time>2026-03-29T06:32:22.999Z</time></trkpt><trkpt lat="45.503882491519796" lon="11.534857347641697"><ele>125.0</ele><time>2026-03-29T06:32:25.999Z</time></trkpt><trkpt lat="45.503805831061804" lon="11.534933531675112"><ele>124.99999999999999</ele><time>2026-03-29T06:32:28.999Z</time></trkpt><trkpt lat="45.50373909901961" lon="11.535023638788804"><ele>125.0</ele><time>2026-03-29T06:32:31.999Z</time></trkpt><trkpt lat="45.503662313040614" lon="11.535101047912352"><ele>125.0</ele><time>2026-03-29T06:32:34.999Z</time></trkpt><trkpt lat="45.50362055302279" lon="11.53517090949088"><ele>125.0</ele><time>2026-03-29T06:32:36.999Z</time></trkpt><trkpt lat="45.50356892227655" lon="11.53522504681401"><ele>124.99999999999999</ele><time>2026-03-29T06:32:38.999Z</time></trkpt><trkpt lat="45.503499844356156" lon="11.53529996484339"><ele>125.0</ele><time>2026-03-29T06:32:41.999Z</time></trkpt><trkpt lat="45.50341275848314" lon="11.535351014033008"><ele>124.99999999999999</ele><time>2026-03-29T06:32:44.999Z</time></trkpt><trkpt lat="45.50332908231931" lon="11.535386589625942"><ele>125.0</ele><time>2026-03-29T06:32:47.999Z</time></trkpt><trkpt lat="45.50324019084326" lon="11.535417791645294"><ele>125.0</ele><time>2026-03-29T06:32:50.999Z</time></trkpt><trkpt lat="45.50315301641129" lon="11.535435557252182"><ele>125.0</ele><time>2026-03-29T06:32:53.999Z</time></trkpt><trkpt lat="45.503063405114204" lon="11.535441367195348"><ele>124.99999999999999</ele><time>2026-03-29T06:32:56.999Z</time></trkpt><trkpt lat="45.5029840009887" lon="11.535481773351528"><ele>125.0</ele><time>2026-03-29T06:32:59.998Z</time></trkpt><trkpt lat="45.502899905223934" lon="11.535492411993316"><ele>126.66666666666666</ele><time>2026-03-29T06:33:02.998Z</time></trkpt><trkpt lat="45.50281408612791" lon="11.535505156496512"><ele>128.33333333333331</ele><time>2026-03-29T06:33:06.998Z</time></trkpt><trkpt lat="45.50273831353021" lon="11.535512886756125"><ele>130.0</ele><time>2026-03-29T06:33:08.998Z</time></trkpt><trkpt lat="45.5026746802169" lon="11.53551057932533"><ele>131.66666666666666</ele><time>2026-03-29T06:33:10.998Z</time></trkpt><trkpt lat="45.502605907292754" lon="11.5354961714197"><ele>133.33333333333334</ele><time>2026-03-29T06:33:12.998Z</time></trkpt><trkpt lat="45.502519369310505" lon="11.53550186294316"><ele>135.0</ele><time>2026-03-29T06:33:15.998Z</time></trkpt><trkpt lat="45.50243713023269" lon="11.535504970830779"><ele>135.0</ele><time>2026-03-29T06:33:18.998Z</time></trkpt><trkpt lat="45.502347843768256" lon="11.535509667198165"><ele>135.0</ele><time>2026-03-29T06:33:21.998Z</time></trkpt><trkpt lat="45.50227073453156" lon="11.535506367143608"><ele>135.0</ele><time>2026-03-29T06:33:24.998Z</time></trkpt><trkpt lat="45.502188347406396" lon="11.53549610411963"><ele>135.0</ele><time>2026-03-29T06:33:27.998Z</time></trkpt><trkpt lat="45.502120732058856" lon="11.535491209121306"><ele>135.0</ele><time>2026-03-29T06:33:29.998Z</time></trkpt><trkpt lat="45.50203895976792" lon="11.535488077838206"><ele>135.0</ele><time>2026-03-29T06:33:31.998Z</time></trkpt><trkpt lat="45.501958050224765" lon="11.535484231813308"><ele>134.4</ele><time>2026-03-29T06:33:33.998Z</time></trkpt><trkpt lat="45.50188102674157" lon="11.535479776752158"><ele>133.8</ele><time>2026-03-29T06:33:35.998Z</time></trkpt><trkpt lat="45.501787118704684" lon="11.535479750620576"><ele>133.2</ele><time>2026-03-29T06:33:37.998Z</time></trkpt><trkpt lat="45.501690025751934" lon="11.535468014685407"><ele>132.6</ele><time>2026-03-29T06:33:39.997Z</time></trkpt><trkpt lat="45.50160040962526" lon="11.535462672213846"><ele>132.0</ele><time>2026-03-29T06:33:41.997Z</time></trkpt><trkpt lat="45.50150299410066" lon="11.535458137554818"><ele>132.0</ele><time>2026-03-29T06:33:43.997Z</time></trkpt><trkpt lat="45.50140437500384" lon="11.535461649251843"><ele>132.0</ele><time>2026-03-29T06:33:45.997Z</time></trkpt><trkpt lat="45.50130084419156" lon="11.53546947691867"><ele>132.0</ele><time>2026-03-29T06:33:48Z</time></trkpt><trkpt lat="45.50120137929435" lon="11.53547703063188"><ele>132.0</ele><time>2026-03-29T06:33:50Z</time></trkpt><trkpt lat="45.50109458298674" lon="11.535487066976932"><ele>132.0</ele><time>2026-03-29T06:33:52Z</time></trkpt><trkpt lat="45.50100558281527" lon="11.535491554503468"><ele>131.5</ele><time>2026-03-29T06:33:54Z</time></trkpt><trkpt lat="45.5009170092621" lon="11.535502428160546"><ele>131.0</ele><time>2026-03-29T06:33:56Z</time></trkpt><trkpt lat="45.50083396018042" lon="11.535486730067957"><ele>130.5</ele><time>2026-03-29T06:33:58Z</time></trkpt><trkpt lat="45.50075762941597" lon="11.535504328115953"><ele>130.0</ele><time>2026-03-29T06:34:00Z</time></trkpt><trkpt lat="45.500675424455174" lon="11.535474996739035"><ele>129.5</ele><time>2026-03-29T06:34:02Z</time></trkpt><trkpt lat="45.50060505487465" lon="11.535464108577763"><ele>129.0</ele><time>2026-03-29T06:34:04Z</time></trkpt><trkpt lat="45.50048916861186" lon="11.535501403591073"><ele>129.0</ele><time>2026-03-29T06:34:07Z</time></trkpt><trkpt lat="45.50043765392012" lon="11.535625637473473"><ele>129.0</ele><time>2026-03-29T06:34:09Z</time></trkpt><trkpt lat="45.50036873085263" lon="11.535671913372372"><ele>129.0</ele><time>2026-03-29T06:34:11Z</time></trkpt><trkpt lat="45.50030050363784" lon="11.535665454641451"><ele>129.0</ele><time>2026-03-29T06:34:14Z</time></trkpt><trkpt lat="45.500325743897996" lon="11.535830831598629"><ele>129.0</ele><time>2026-03-29T06:34:15Z</time></trkpt><trkpt lat="45.500296149769554" lon="11.535946045634082"><ele>128.83333333333334</ele><time>2026-03-29T06:34:18Z</time></trkpt><trkpt lat="45.50026688118074" lon="11.536049621215684"><ele>128.66666666666666</ele><time>2026-03-29T06:34:21Z</time></trkpt><trkpt lat="45.50022727482017" lon="11.536181403762468"><ele>128.5</ele><time>2026-03-29T06:34:23.999Z</time></trkpt><trkpt lat="45.500202991976586" lon="11.5362883377744"><ele>128.33333333333331</ele><time>2026-03-29T06:34:25.999Z</time></trkpt><trkpt lat="45.50020410288955" lon="11.536381325506367"><ele>128.16666666666666</ele><time>2026-03-29T06:34:27.999Z</time></trkpt><trkpt lat="45.50023824545873" lon="11.536467590303078"><ele>128.0</ele><time>2026-03-29T06:34:29.999Z</time></trkpt><trkpt lat="45.50029967269377" lon="11.536587559293356"><ele>125.99999999999999</ele><time>2026-03-29T06:34:31.999Z</time></trkpt><trkpt lat="45.500352815749665" lon="11.53668896558038"><ele>124.0</ele><time>2026-03-29T06:34:33.999Z</time></trkpt><trkpt lat="45.50032345122095" lon="11.536809826311313"><ele>122.0</ele><time>2026-03-29T06:34:36.999Z</time></trkpt><trkpt lat="45.50024703711752" lon="11.536811700795518"><ele>120.0</ele><time>2026-03-29T06:34:38.999Z</time></trkpt><trkpt lat="45.50015102945526" lon="11.536799683564922"><ele>117.99999999999999</ele><time>2026-03-29T06:34:40.999Z</time></trkpt><trkpt lat="45.5000870407723" lon="11.536811196244226"><ele>116.0</ele><time>2026-03-29T06:34:41.999Z</time></trkpt><trkpt lat="45.50000072085117" lon="11.536802546036249"><ele>115.99999999999999</ele><time>2026-03-29T06:34:43.999Z</time></trkpt><trkpt lat="45.49990609165716" lon="11.536773778356869"><ele>116.0</ele><time>2026-03-29T06:34:45.999Z</time></trkpt><trkpt lat="45.49981639602808" lon="11.53677976561208"><ele>116.0</ele><time>2026-03-29T06:34:47.999Z</time></trkpt><trkpt lat="45.4997315035328" lon="11.53676448928367"><ele>116.0</ele><time>2026-03-29T06:34:49.999Z</time></trkpt><trkpt lat="45.499638721063846" lon="11.536740279694754"><ele>115.99999999999999</ele><time>2026-03-29T06:34:51.999Z</time></trkpt><trkpt lat="45.49956147673095" lon="11.536761302937547"><ele>116.0</ele><time>2026-03-29T06:34:53.999Z</time></trkpt><trkpt lat="45.49951362001291" lon="11.53682567262754"><ele>117.16666666666666</ele><time>2026-03-29T06:34:55.999Z</time></trkpt><trkpt lat="45.49944603351088" lon="11.53687558016247"><ele>118.33333333333333</ele><time>2026-03-29T06:34:57.999Z</time></trkpt><trkpt lat="45.49938695470512" lon="11.536953674761584"><ele>119.5</ele><time>2026-03-29T06:34:59.999Z</time></trkpt><trkpt lat="45.49933768922506" lon="11.53702184509025"><ele>120.66666666666666</ele><time>2026-03-29T06:35:01.999Z</time></trkpt><trkpt lat="45.49928625112846" lon="11.53708899800485"><ele>121.83333333333333</ele><time>2026-03-29T06:35:03.998Z</time></trkpt><trkpt lat="45.49922014211619" lon="11.537167538313994"><ele>123.0</ele><time>2026-03-29T06:35:05.998Z</time></trkpt><trkpt lat="45.49913625807433" lon="11.537260367404464"><ele>120.66666666666667</ele><time>2026-03-29T06:35:07.998Z</time></trkpt><trkpt lat="45.49902527231642" lon="11.537321505085428"><ele>118.33333333333334</ele><time>2026-03-29T06:35:09.998Z</time></trkpt><trkpt lat="45.49893502389993" lon="11.537420705975956"><ele>116.0</ele><time>2026-03-29T06:35:11.998Z</time></trkpt><trkpt lat="45.49888955609112" lon="11.537486900533901"><ele>113.66666666666667</ele><time>2026-03-29T06:35:13.998Z</time></trkpt><trkpt lat="45.498910249524386" lon="11.537599644840563"><ele>111.33333333333334</ele><time>2026-03-29T06:35:15.998Z</time></trkpt><trkpt lat="45.49893755805323" lon="11.537685320886572"><ele>109.0</ele><time>2026-03-29T06:35:17.998Z</time></trkpt><trkpt lat="45.49897229973214" lon="11.537764848123267"><ele>109.00000000000001</ele><time>2026-03-29T06:35:19.998Z</time></trkpt><trkpt lat="45.49901990237302" lon="11.537851221083667"><ele>109.0</ele><time>2026-03-29T06:35:21.998Z</time></trkpt><trkpt lat="45.499054470509755" lon="11.537981294206899"><ele>109.0</ele><time>2026-03-29T06:35:24.998Z</time></trkpt><trkpt lat="45.49905251437198" lon="11.538097487675454"><ele>109.0</ele><time>2026-03-29T06:35:26.998Z</time></trkpt><trkpt lat="45.499036106948054" lon="11.538222142050982"><ele>109.00000000000001</ele><time>2026-03-29T06:35:28.998Z</time></trkpt><trkpt lat="45.4989999102486" lon="11.538342444260032"><ele>109.0</ele><time>2026-03-29T06:35:30.998Z</time></trkpt><trkpt lat="45.49895581642763" lon="11.538453595320378"><ele>109.4</ele><time>2026-03-29T06:35:32.998Z</time></trkpt><trkpt lat="45.49891216426481" lon="11.538584244400775"><ele>109.80000000000001</ele><time>2026-03-29T06:35:34.998Z</time></trkpt><trkpt lat="45.49884791810734" lon="11.538689230792736"><ele>110.19999999999999</ele><time>2026-03-29T06:35:36.998Z</time></trkpt><trkpt lat="45.49878669720798" lon="11.538796444020463"><ele>110.6</ele><time>2026-03-29T06:35:38.998Z</time></trkpt><trkpt lat="45.49872391051786" lon="11.538892281306696"><ele>111.0</ele><time>2026-03-29T06:35:40.998Z</time></trkpt><trkpt lat="45.49866028186939" lon="11.539009924957018"><ele>111.0</ele><time>2026-03-29T06:35:42.998Z</time></trkpt><trkpt lat="45.49857961915675" lon="11.539089590230411"><ele>111.0</ele><time>2026-03-29T06:35:44.997Z</time></trkpt><trkpt lat="45.4984955205775" lon="11.539194266132963"><ele>111.0</ele><time>2026-03-29T06:35:46.997Z</time></trkpt><trkpt lat="45.49843859915839" lon="11.539254902170999"><ele>111.0</ele><time>2026-03-29T06:35:47.997Z</time></trkpt><trkpt lat="45.4983844701542" lon="11.539314691220378"><ele>111.0</ele><time>2026-03-29T06:35:48.997Z</time></trkpt><trkpt lat="45.49832528290422" lon="11.539365783659974"><ele>111.0</ele><time>2026-03-29T06:35:49.997Z</time></trkpt><trkpt lat="45.49828846520046" lon="11.53943943871922"><ele>111.0</ele><time>2026-03-29T06:35:50.997Z</time></trkpt><trkpt lat="45.498200258089696" lon="11.539537419684828"><ele>111.0</ele><time>2026-03-29T06:35:52.997Z</time></trkpt><trkpt lat="45.498161225448236" lon="11.539644903336493"><ele>111.0</ele><time>2026-03-29T06:35:55Z</time></trkpt><trkpt lat="45.49818122963944" lon="11.53979148106101"><ele>111.0</ele><time>2026-03-29T06:35:57Z</time></trkpt><trkpt lat="45.49818921554919" lon="11.539894157018805"><ele>111.0</ele><time>2026-03-29T06:35:59Z</time></trkpt><trkpt lat="45.49819680582938" lon="11.539991746467242"><ele>111.0</ele><time>2026-03-29T06:36:01Z</time></trkpt><trkpt lat="45.49820531461139" lon="11.540101144958978"><ele>110.71428571428571</ele><time>2026-03-29T06:36:03Z</time></trkpt><trkpt lat="45.498212875357865" lon="11.540198362748308"><ele>110.42857142857143</ele><time>2026-03-29T06:36:05Z</time></trkpt><trkpt lat="45.498223186191105" lon="11.54030603339639"><ele>110.14285714285714</ele><time>2026-03-29T06:36:07Z</time></trkpt><trkpt lat="45.49823741492841" lon="11.540420912553639"><ele>109.85714285714286</ele><time>2026-03-29T06:36:09Z</time></trkpt><trkpt lat="45.49825154672392" lon="11.540518906200637"><ele>109.57142857142858</ele><time>2026-03-29T06:36:11Z</time></trkpt><trkpt lat="45.498266128978386" lon="11.540616379524923"><ele>109.28571428571429</ele><time>2026-03-29T06:36:13Z</time></trkpt><trkpt lat="45.498283179407125" lon="11.540717894004374"><ele>109.0</ele><time>2026-03-29T06:36:15Z</time></trkpt><trkpt lat="45.49830378205608" lon="11.540815330675716"><ele>109.00000000000001</ele><time>2026-03-29T06:36:17Z</time></trkpt><trkpt lat="45.49834295882978" lon="11.54089595719911"><ele>109.0</ele><time>2026-03-29T06:36:19Z</time></trkpt><trkpt lat="45.498358203833256" lon="11.540987800719655"><ele>109.0</ele><time>2026-03-29T06:36:21Z</time></trkpt><trkpt lat="45.49837294350896" lon="11.541101089173983"><ele>109.0</ele><time>2026-03-29T06:36:24Z</time></trkpt><trkpt lat="45.49841926075826" lon="11.54120742965578"><ele>109.00000000000001</ele><time>2026-03-29T06:36:27Z</time></trkpt><trkpt lat="45.49842968348334" lon="11.541320447539688"><ele>109.0</ele><time>2026-03-29T06:36:29.999Z</time></trkpt><trkpt lat="45.498463624313516" lon="11.541424015564392"><ele>109.50000000000001</ele><time>2026-03-29T06:36:32.999Z</time></trkpt><trkpt lat="45.49842331954669" lon="11.541502974988488"><ele>110.0</ele><time>2026-03-29T06:36:34.999Z</time></trkpt><trkpt lat="45.49835423318775" lon="11.541558053623863"><ele>110.5</ele><time>2026-03-29T06:36:37.999Z</time></trkpt><trkpt lat="45.49829640787629" lon="11.541625550923737"><ele>111.0</ele><time>2026-03-29T06:36:40.999Z</time></trkpt><trkpt lat="45.498229125956996" lon="11.541692016911522"><ele>111.50000000000001</ele><time>2026-03-29T06:36:43.999Z</time></trkpt><trkpt lat="45.498172572917916" lon="11.541755429741816"><ele>112.0</ele><time>2026-03-29T06:36:47.999Z</time></trkpt><trkpt lat="45.4980911720279" lon="11.541808938157452"><ele>112.00000000000001</ele><time>2026-03-29T06:36:50.999Z</time></trkpt><trkpt lat="45.498031714324185" lon="11.541874722425257"><ele>112.0</ele><time>2026-03-29T06:36:52.999Z</time></trkpt><trkpt lat="45.497964864853564" lon="11.541965319159212"><ele>112.0</ele><time>2026-03-29T06:36:54.999Z</time></trkpt><trkpt lat="45.497898769455055" lon="11.542056341784688"><ele>112.0</ele><time>2026-03-29T06:36:56.999Z</time></trkpt><trkpt lat="45.497837447024516" lon="11.54214079114123"><ele>112.00000000000001</ele><time>2026-03-29T06:36:58.999Z</time></trkpt><trkpt lat="45.49777618737709" lon="11.542232307188183"><ele>112.0</ele><time>2026-03-29T06:37:00.999Z</time></trkpt><trkpt lat="45.49772645415016" lon="11.542339225429796"><ele>112.16666666666667</ele><time>2026-03-29T06:37:02.999Z</time></trkpt><trkpt lat="45.49766958879689" lon="11.542411144949112"><ele>112.33333333333334</ele><time>2026-03-29T06:37:05.999Z</time></trkpt><trkpt lat="45.497610281101174" lon="11.542445421892625"><ele>112.5</ele><time>2026-03-29T06:37:08.999Z</time></trkpt><trkpt lat="45.49760023100045" lon="11.542546210523064"><ele>112.66666666666666</ele><time>2026-03-29T06:37:10.998Z</time></trkpt><trkpt lat="45.497567343044814" lon="11.542645487063265"><ele>112.83333333333333</ele><time>2026-03-29T06:37:12.998Z</time></trkpt><trkpt lat="45.497507474150886" lon="11.542782039648406"><ele>113.0</ele><time>2026-03-29T06:37:14.998Z</time></trkpt><trkpt lat="45.497443747745805" lon="11.542917010490186"><ele>111.33333333333333</ele><time>2026-03-29T06:37:16.998Z</time></trkpt><trkpt lat="45.49737718168225" lon="11.543066758074737"><ele>109.66666666666666</ele><time>2026-03-29T06:37:18.998Z</time></trkpt><trkpt lat="45.49733246749319" lon="11.543138146704806"><ele>108.0</ele><time>2026-03-29T06:37:19.998Z</time></trkpt><trkpt lat="45.49728868817019" lon="11.543210976688126"><ele>106.33333333333334</ele><time>2026-03-29T06:37:20.998Z</time></trkpt><trkpt lat="45.49724435874566" lon="11.543276094287586"><ele>104.66666666666667</ele><time>2026-03-29T06:37:21.998Z</time></trkpt><trkpt lat="45.497193356474924" lon="11.543339009424688"><ele>103.0</ele><time>2026-03-29T06:37:22.998Z</time></trkpt><trkpt lat="45.49714275311631" lon="11.543400559686628"><ele>102.99999999999999</ele><time>2026-03-29T06:37:23.998Z</time></trkpt><trkpt lat="45.497086378873014" lon="11.54346101666966"><ele>103.0</ele><time>2026-03-29T06:37:24.998Z</time></trkpt><trkpt lat="45.497028186905844" lon="11.54351980623527"><ele>103.0</ele><time>2026-03-29T06:37:25.998Z</time></trkpt><trkpt lat="45.496968976285665" lon="11.543574450313134"><ele>103.0</ele><time>2026-03-29T06:37:26.998Z</time></trkpt><trkpt lat="45.496912174089495" lon="11.543624730314669"><ele>103.0</ele><time>2026-03-29T06:37:27.998Z</time></trkpt><trkpt lat="45.49685482233038" lon="11.543675853143545"><ele>102.99999999999999</ele><time>2026-03-29T06:37:28.998Z</time></trkpt><trkpt lat="45.49680356907257" lon="11.543731697985324"><ele>103.0</ele><time>2026-03-29T06:37:29.998Z</time></trkpt><trkpt lat="45.49672443970779" lon="11.543864286240057"><ele>101.42857142857142</ele><time>2026-03-29T06:37:31.998Z</time></trkpt><trkpt lat="45.49670262338716" lon="11.543955711546966"><ele>99.85714285714286</ele><time>2026-03-29T06:37:32.998Z</time></trkpt><trkpt lat="45.49669851350188" lon="11.544052814307797"><ele>98.28571428571428</ele><time>2026-03-29T06:37:33.998Z</time></trkpt><trkpt lat="45.496704038070675" lon="11.544163071812193"><ele>96.71428571428571</ele><time>2026-03-29T06:37:34.998Z</time></trkpt><trkpt lat="45.49672018622054" lon="11.544273081328024"><ele>95.14285714285714</ele><time>2026-03-29T06:37:35.998Z</time></trkpt><trkpt lat="45.496736915766526" lon="11.544378916122573"><ele>93.57142857142857</ele><time>2026-03-29T06:37:36.998Z</time></trkpt><trkpt lat="45.496756204911286" lon="11.544484146932993"><ele>92.0</ele><time>2026-03-29T06:37:37.998Z</time></trkpt><trkpt lat="45.49677386541983" lon="11.544578814716992"><ele>90.42857142857143</ele><time>2026-03-29T06:37:38.998Z</time></trkpt><trkpt lat="45.49679699897806" lon="11.544671221847878"><ele>88.85714285714285</ele><time>2026-03-29T06:37:39.998Z</time></trkpt><trkpt lat="45.49683457419126" lon="11.544752051794545"><ele>87.28571428571428</ele><time>2026-03-29T06:37:40.998Z</time></trkpt><trkpt lat="45.49688083096115" lon="11.544821879513695"><ele>85.71428571428572</ele><time>2026-03-29T06:37:41.998Z</time></trkpt><trkpt lat="45.49693470096729" lon="11.544880552423306"><ele>84.14285714285714</ele><time>2026-03-29T06:37:42.998Z</time></trkpt><trkpt lat="45.49700016090536" lon="11.544923568520563"><ele>82.57142857142857</ele><time>2026-03-29T06:37:43.998Z</time></trkpt><trkpt lat="45.49705404542886" lon="11.544971719128373"><ele>81.0</ele><time>2026-03-29T06:37:44.998Z</time></trkpt><trkpt lat="45.49710185199502" lon="11.545031678970277"><ele>80.8</ele><time>2026-03-29T06:37:45.998Z</time></trkpt><trkpt lat="45.49715183402082" lon="11.545097628749037"><ele>80.6</ele><time>2026-03-29T06:37:46.998Z</time></trkpt><trkpt lat="45.49721572529841" lon="11.54525231158468"><ele>80.4</ele><time>2026-03-29T06:37:48.998Z</time></trkpt><trkpt lat="45.49723346328182" lon="11.54534195941037"><ele>80.2</ele><time>2026-03-29T06:37:49.998Z</time></trkpt><trkpt lat="45.49724823309684" lon="11.545508816397914"><ele>80.0</ele><time>2026-03-29T06:37:51.997Z</time></trkpt><trkpt lat="45.49723804312218" lon="11.545646396241448"><ele>78.66666666666667</ele><time>2026-03-29T06:37:53.997Z</time></trkpt><trkpt lat="45.49722147124239" lon="11.545739271421409"><ele>77.33333333333334</ele><time>2026-03-29T06:37:55.997Z</time></trkpt><trkpt lat="45.497201321721036" lon="11.545825333178303"><ele>76.0</ele><time>2026-03-29T06:37:57.997Z</time></trkpt><trkpt lat="45.49714746826398" lon="11.545894392322893"><ele>74.66666666666667</ele><time>2026-03-29T06:38:07Z</time></trkpt><trkpt lat="45.49711683822502" lon="11.545995940340806"><ele>73.33333333333333</ele><time>2026-03-29T06:38:11Z</time></trkpt><trkpt lat="45.49706245113493" lon="11.546106144305988"><ele>72.0</ele><time>2026-03-29T06:38:15Z</time></trkpt><trkpt lat="45.497020453740035" lon="11.546194767482541"><ele>71.42857142857143</ele><time>2026-03-29T06:38:18Z</time></trkpt><trkpt lat="45.49698110131384" lon="11.546285927588489"><ele>70.85714285714286</ele><time>2026-03-29T06:38:20Z</time></trkpt><trkpt lat="45.496947480384414" lon="11.546369779540942"><ele>70.28571428571428</ele><time>2026-03-29T06:38:22Z</time></trkpt><trkpt lat="45.49690555076513" lon="11.546482183581436"><ele>69.71428571428572</ele><time>2026-03-29T06:38:24Z</time></trkpt><trkpt lat="45.49687398421216" lon="11.546576142278685"><ele>69.14285714285714</ele><time>2026-03-29T06:38:27Z</time></trkpt><trkpt lat="45.49684660151153" lon="11.546659524497276"><ele>68.57142857142857</ele><time>2026-03-29T06:38:29Z</time></trkpt><trkpt lat="45.49681589672143" lon="11.546756516734677"><ele>68.0</ele><time>2026-03-29T06:38:31Z</time></trkpt><trkpt lat="45.496781975936244" lon="11.546863667794712"><ele>68.0</ele><time>2026-03-29T06:38:33Z</time></trkpt><trkpt lat="45.496745464694555" lon="11.546982367201688"><ele>68.0</ele><time>2026-03-29T06:38:35Z</time></trkpt><trkpt lat="45.496706192754935" lon="11.547110320511052"><ele>68.0</ele><time>2026-03-29T06:38:36.999Z</time></trkpt><trkpt lat="45.49666666753367" lon="11.547239035553375"><ele>68.0</ele><time>2026-03-29T06:38:38.999Z</time></trkpt><trkpt lat="45.49662604809518" lon="11.5473712526948"><ele>68.0</ele><time>2026-03-29T06:38:40.999Z</time></trkpt><trkpt lat="45.49658263859579" lon="11.547512552326321"><ele>69.8</ele><time>2026-03-29T06:38:42.999Z</time></trkpt><trkpt lat="45.49655157886294" lon="11.547613652534721"><ele>71.6</ele><time>2026-03-29T06:38:44.999Z</time></trkpt><trkpt lat="45.49651052529865" lon="11.547745347647757"><ele>73.4</ele><time>2026-03-29T06:38:46.999Z</time></trkpt><trkpt lat="45.496472201808665" lon="11.547866800004595"><ele>75.2</ele><time>2026-03-29T06:38:48.999Z</time></trkpt><trkpt lat="45.49643052131488" lon="11.547998891160454"><ele>77.0</ele><time>2026-03-29T06:38:50.999Z</time></trkpt><trkpt lat="45.496391441309164" lon="11.548118275839578"><ele>78.4</ele><time>2026-03-29T06:38:52.999Z</time></trkpt><trkpt lat="45.49635749567698" lon="11.548220266575075"><ele>79.80000000000001</ele><time>2026-03-29T06:38:54.999Z</time></trkpt><trkpt lat="45.49629358012214" lon="11.548407216008655"><ele>81.2</ele><time>2026-03-29T06:38:58.999Z</time></trkpt><trkpt lat="45.49624903833449" lon="11.548534898615644"><ele>82.60000000000001</ele><time>2026-03-29T06:39:00.999Z</time></trkpt><trkpt lat="45.496212031321804" lon="11.548646167869292"><ele>84.0</ele><time>2026-03-29T06:39:02.999Z</time></trkpt><trkpt lat="45.496173851493815" lon="11.548782785473625"><ele>83.5</ele><time>2026-03-29T06:39:04.999Z</time></trkpt><trkpt lat="45.49616471149885" lon="11.548890293575003"><ele>83.0</ele><time>2026-03-29T06:39:08.999Z</time></trkpt><trkpt lat="45.4961691094423" lon="11.548989983740258"><ele>82.5</ele><time>2026-03-29T06:39:11.999Z</time></trkpt><trkpt lat="45.49619071421086" lon="11.549079540815704"><ele>82.0</ele><time>2026-03-29T06:39:14.999Z</time></trkpt><trkpt lat="45.496226758657315" lon="11.549194964930477"><ele>81.5</ele><time>2026-03-29T06:39:17.998Z</time></trkpt><trkpt lat="45.49625704903938" lon="11.549309707484927"><ele>81.0</ele><time>2026-03-29T06:39:19.998Z</time></trkpt><trkpt lat="45.49633405791765" lon="11.549341250898744"><ele>81.0</ele><time>2026-03-29T06:39:26.998Z</time></trkpt><trkpt lat="45.49637990479648" lon="11.54943772600822"><ele>81.0</ele><time>2026-03-29T06:39:31.998Z</time></trkpt><trkpt lat="45.496419072766045" lon="11.549530747354018"><ele>81.0</ele><time>2026-03-29T06:39:37.998Z</time></trkpt><trkpt lat="45.49646333836739" lon="11.54964245982565"><ele>81.0</ele><time>2026-03-29T06:39:39.998Z</time></trkpt><trkpt lat="45.49650184174412" lon="11.549745367924013"><ele>81.0</ele><time>2026-03-29T06:39:42.998Z</time></trkpt><trkpt lat="45.49653458525222" lon="11.549832881266218"><ele>81.0</ele><time>2026-03-29T06:39:45.998Z</time></trkpt><trkpt lat="45.496567997187135" lon="11.549920673386238"><ele>79.0</ele><time>2026-03-29T06:39:50.998Z</time></trkpt><trkpt lat="45.49660177940315" lon="11.549998145212484"><ele>77.0</ele><time>2026-03-29T06:39:54.998Z</time></trkpt><trkpt lat="45.49665188415399" lon="11.550101608299698"><ele>75.0</ele><time>2026-03-29T06:39:58.998Z</time></trkpt><trkpt lat="45.49670872670267" lon="11.55019787139171"><ele>73.0</ele><time>2026-03-29T06:40:02.997Z</time></trkpt><trkpt lat="45.49676564563678" lon="11.55027035188163"><ele>71.0</ele><time>2026-03-29T06:40:08Z</time></trkpt><trkpt lat="45.496822091566024" lon="11.550319206846519"><ele>69.0</ele><time>2026-03-29T06:40:10Z</time></trkpt><trkpt lat="45.49688016285283" lon="11.550369468961561"><ele>65.0</ele><time>2026-03-29T06:40:12Z</time></trkpt><trkpt lat="45.49693451736567" lon="11.550416513452475"><ele>61.0</ele><time>2026-03-29T06:40:14Z</time></trkpt><trkpt lat="45.4971703429139" lon="11.551094899190705"><ele>51.0</ele><time>2026-03-29T06:40:15Z</time></trkpt><trkpt lat="45.496712086886944" lon="11.551018775126424"><ele>51.0</ele><time>2026-03-29T06:40:17Z</time></trkpt><trkpt lat="45.496669065763236" lon="11.551113457380257"><ele>51.0</ele><time>2026-03-29T06:40:20Z</time></trkpt><trkpt lat="45.496630340785885" lon="11.551196336509904"><ele>51.0</ele><time>2026-03-29T06:40:23Z</time></trkpt><trkpt lat="45.496601454781235" lon="11.551296489955632"><ele>51.0</ele><time>2026-03-29T06:40:31Z</time></trkpt><trkpt lat="45.4965686283609" lon="11.551387631769941"><ele>51.0</ele><time>2026-03-29T06:40:55.999Z</time></trkpt><trkpt lat="45.496537003856425" lon="11.55146601278536"><ele>51.0</ele><time>2026-03-29T06:41:03.999Z</time></trkpt><trkpt lat="45.4965107418151" lon="11.551556512995422"><ele>51.0</ele><time>2026-03-29T06:41:16.999Z</time></trkpt><trkpt lat="45.496472922268744" lon="11.551641971461148"><ele>49.0</ele><time>2026-03-29T06:41:59.998Z</time></trkpt><trkpt lat="45.49643456022376" lon="11.551713263198943"><ele>47.0</ele><time>2026-03-29T06:42:04.998Z</time></trkpt><trkpt lat="45.49642180537539" lon="11.551833194474495"><ele>45.0</ele><time>2026-03-29T06:42:08.997Z</time></trkpt><trkpt lat="45.496380220797725" lon="11.551927332646041"><ele>43.0</ele><time>2026-03-29T06:42:13Z</time></trkpt><trkpt lat="45.49630645591731" lon="11.551978468922876"><ele>41.0</ele><time>2026-03-29T06:42:15Z</time></trkpt><trkpt lat="45.49626276345383" lon="11.552052277149922"><ele>39.0</ele><time>2026-03-29T06:42:17Z</time></trkpt><trkpt lat="45.49620639505139" lon="11.552154574692779"><ele>36.4</ele><time>2026-03-29T06:42:19Z</time></trkpt><trkpt lat="45.49613029943504" lon="11.55227144874825"><ele>33.8</ele><time>2026-03-29T06:42:21Z</time></trkpt><trkpt lat="45.49606566383391" lon="11.5524032834853"><ele>31.200000000000003</ele><time>2026-03-29T06:42:23Z</time></trkpt><trkpt lat="45.49599680875096" lon="11.552523191069723"><ele>28.6</ele><time>2026-03-29T06:42:25Z</time></trkpt><trkpt lat="45.49591913007035" lon="11.55261419927588"><ele>26.0</ele><time>2026-03-29T06:42:27Z</time></trkpt><trkpt lat="45.495869998807024" lon="11.552691161171627"><ele>25.999999999999996</ele><time>2026-03-29T06:42:29Z</time></trkpt><trkpt lat="45.495816858874804" lon="11.552779007559836"><ele>26.0</ele><time>2026-03-29T06:42:31Z</time></trkpt><trkpt lat="45.495786344845754" lon="11.55290411631751"><ele>26.0</ele><time>2026-03-29T06:42:33Z</time></trkpt><trkpt lat="45.49572571472396" lon="11.553012629278244"><ele>26.0</ele><time>2026-03-29T06:42:35Z</time></trkpt><trkpt lat="45.495668554659936" lon="11.553096433223633"><ele>25.999999999999996</ele><time>2026-03-29T06:42:37Z</time></trkpt><trkpt lat="45.49562360434099" lon="11.553166936941981"><ele>26.0</ele><time>2026-03-29T06:42:39Z</time></trkpt><trkpt lat="45.49557377487348" lon="11.553266896425553"><ele>25.999999999999996</ele><time>2026-03-29T06:42:41Z</time></trkpt><trkpt lat="45.49552265460128" lon="11.553357573390764"><ele>26.0</ele><time>2026-03-29T06:42:43Z</time></trkpt><trkpt lat="45.49546805343777" lon="11.553460454723483"><ele>26.0</ele><time>2026-03-29T06:42:45Z</time></trkpt><trkpt lat="45.49541172953388" lon="11.553564953650628"><ele>26.0</ele><time>2026-03-29T06:42:46.999Z</time></trkpt><trkpt lat="45.4953551380708" lon="11.553666467902378"><ele>25.999999999999996</ele><time>2026-03-29T06:42:48.999Z</time></trkpt><trkpt lat="45.49530159702409" lon="11.553762572437597"><ele>26.0</ele><time>2026-03-29T06:42:50.999Z</time></trkpt><trkpt lat="45.49524352558312" lon="11.553870441820065"><ele>26.166666666666664</ele><time>2026-03-29T06:42:52.999Z</time></trkpt><trkpt lat="45.495193423505846" lon="11.553976274499275"><ele>26.333333333333332</ele><time>2026-03-29T06:42:54.999Z</time></trkpt><trkpt lat="45.49514506407624" lon="11.554064699636296"><ele>26.5</ele><time>2026-03-29T06:42:56.999Z</time></trkpt><trkpt lat="45.49510680365561" lon="11.554144645250558"><ele>26.666666666666664</ele><time>2026-03-29T06:42:58.999Z</time></trkpt><trkpt lat="45.49505939101083" lon="11.554231809688577"><ele>26.833333333333332</ele><time>2026-03-29T06:43:00.999Z</time></trkpt><trkpt lat="45.49501484727421" lon="11.554319541816227"><ele>27.0</ele><time>2026-03-29T06:43:02.999Z</time></trkpt><trkpt lat="45.494953931382085" lon="11.554409525169907"><ele>27.0</ele><time>2026-03-29T06:43:04.999Z</time></trkpt><trkpt lat="45.494888774945395" lon="11.554525617662142"><ele>27.0</ele><time>2026-03-29T06:43:06.999Z</time></trkpt><trkpt lat="45.494860229471094" lon="11.554662076060856"><ele>27.0</ele><time>2026-03-29T06:43:08.999Z</time></trkpt><trkpt lat="45.49481796022825" lon="11.554748313342099"><ele>27.0</ele><time>2026-03-29T06:43:10.999Z</time></trkpt><trkpt lat="45.49477708939981" lon="11.554831696668666"><ele>27.0</ele><time>2026-03-29T06:43:12.999Z</time></trkpt><trkpt lat="45.494718547763206" lon="11.554891929410608"><ele>27.0</ele><time>2026-03-29T06:43:14.999Z</time></trkpt><trkpt lat="45.49461595017288" lon="11.554877970526103"><ele>28.5</ele><time>2026-03-29T06:43:17.999Z</time></trkpt><trkpt lat="45.49454075223786" lon="11.554823682660745"><ele>30.0</ele><time>2026-03-29T06:43:19.999Z</time></trkpt><trkpt lat="45.49447460367206" lon="11.554760908646934"><ele>31.5</ele><time>2026-03-29T06:43:21.999Z</time></trkpt><trkpt lat="45.49440511357684" lon="11.554732188823824"><ele>33.0</ele><time>2026-03-29T06:43:23.999Z</time></trkpt><trkpt lat="45.49433636372286" lon="11.554692513892054"><ele>34.5</ele><time>2026-03-29T06:43:25.999Z</time></trkpt><trkpt lat="45.49426822079239" lon="11.554636911934047"><ele>36.0</ele><time>2026-03-29T06:43:27.998Z</time></trkpt><trkpt lat="45.494185984695726" lon="11.554620603582483"><ele>36.0</ele><time>2026-03-29T06:43:29.998Z</time></trkpt><trkpt lat="45.49410499935053" lon="11.554586431273346"><ele>36.0</ele><time>2026-03-29T06:43:31.998Z</time></trkpt><trkpt lat="45.49401886368556" lon="11.554552934442617"><ele>36.0</ele><time>2026-03-29T06:43:33.998Z</time></trkpt><trkpt lat="45.49392559918537" lon="11.554519718935724"><ele>36.0</ele><time>2026-03-29T06:43:35.998Z</time></trkpt><trkpt lat="45.49384298274659" lon="11.554469999034794"><ele>36.0</ele><time>2026-03-29T06:43:37.998Z</time></trkpt><trkpt lat="45.49375996040922" lon="11.55444289491608"><ele>36.0</ele><time>2026-03-29T06:43:39.998Z</time></trkpt><trkpt lat="45.49367621397356" lon="11.55441122750303"><ele>34.833333333333336</ele><time>2026-03-29T06:43:41.998Z</time></trkpt><trkpt lat="45.49358754506023" lon="11.554382423147182"><ele>33.666666666666664</ele><time>2026-03-29T06:43:43.998Z</time></trkpt><trkpt lat="45.49350403168743" lon="11.554362860546998"><ele>32.5</ele><time>2026-03-29T06:43:45.998Z</time></trkpt><trkpt lat="45.493420170053284" lon="11.554324819285172"><ele>31.333333333333332</ele><time>2026-03-29T06:43:47.998Z</time></trkpt><trkpt lat="45.49333251970193" lon="11.554289590607224"><ele>30.166666666666664</ele><time>2026-03-29T06:43:49.998Z</time></trkpt><trkpt lat="45.493253020632906" lon="11.5542640156919"><ele>29.0</ele><time>2026-03-29T06:43:51.998Z</time></trkpt><trkpt lat="45.49317112126644" lon="11.554261443001595"><ele>28.999999999999996</ele><time>2026-03-29T06:43:53.998Z</time></trkpt><trkpt lat="45.493086404082376" lon="11.554227673625995"><ele>29.0</ele><time>2026-03-29T06:43:55.998Z</time></trkpt><trkpt lat="45.49300301558496" lon="11.554194433925154"><ele>29.0</ele><time>2026-03-29T06:43:57.998Z</time></trkpt><trkpt lat="45.49293097139696" lon="11.554150292910357"><ele>29.0</ele><time>2026-03-29T06:43:59.998Z</time></trkpt><trkpt lat="45.49285050367204" lon="11.554120370545744"><ele>28.999999999999996</ele><time>2026-03-29T06:44:01.998Z</time></trkpt><trkpt lat="45.492767952894575" lon="11.554085135718381"><ele>29.0</ele><time>2026-03-29T06:44:03.998Z</time></trkpt><trkpt lat="45.492691401435664" lon="11.554060380846513"><ele>29.166666666666664</ele><time>2026-03-29T06:44:05.998Z</time></trkpt><trkpt lat="45.492605558557045" lon="11.554062764774757"><ele>29.333333333333332</ele><time>2026-03-29T06:44:07.998Z</time></trkpt><trkpt lat="45.492524705269894" lon="11.554038400642472"><ele>29.5</ele><time>2026-03-29T06:44:09.997Z</time></trkpt><trkpt lat="45.49243935771167" lon="11.554031154479638"><ele>29.666666666666664</ele><time>2026-03-29T06:44:11.997Z</time></trkpt><trkpt lat="45.492361400198064" lon="11.554026221968243"><ele>29.833333333333332</ele><time>2026-03-29T06:44:13.997Z</time></trkpt><trkpt lat="45.49227165659859" lon="11.554025460936387"><ele>30.0</ele><time>2026-03-29T06:44:15.997Z</time></trkpt><trkpt lat="45.49218216191547" lon="11.554021902712796"><ele>30.0</ele><time>2026-03-29T06:44:18Z</time></trkpt><trkpt lat="45.492101671342674" lon="11.55401800452411"><ele>30.0</ele><time>2026-03-29T06:44:20Z</time></trkpt><trkpt lat="45.49201310889671" lon="11.55402198176149"><ele>30.0</ele><time>2026-03-29T06:44:22Z</time></trkpt><trkpt lat="45.49192265155775" lon="11.554018127291064"><ele>30.0</ele><time>2026-03-29T06:44:24Z</time></trkpt><trkpt lat="45.49184288609809" lon="11.554021864825998"><ele>30.0</ele><time>2026-03-29T06:44:26Z</time></trkpt><trkpt lat="45.49176286130599" lon="11.554023120294003"><ele>30.0</ele><time>2026-03-29T06:44:28Z</time></trkpt><trkpt lat="45.49167606040562" lon="11.554027107138415"><ele>30.333333333333332</ele><time>2026-03-29T06:44:30Z</time></trkpt><trkpt lat="45.491600014060545" lon="11.554030987848998"><ele>30.666666666666664</ele><time>2026-03-29T06:44:32Z</time></trkpt><trkpt lat="45.4915147536268" lon="11.55403606393647"><ele>31.0</ele><time>2026-03-29T06:44:34Z</time></trkpt><trkpt lat="45.49143335760404" lon="11.554043441432404"><ele>31.333333333333332</ele><time>2026-03-29T06:44:36Z</time></trkpt><trkpt lat="45.491349222175906" lon="11.554046518025336"><ele>31.666666666666664</ele><time>2026-03-29T06:44:38Z</time></trkpt><trkpt lat="45.491264329010725" lon="11.55405745325388"><ele>32.0</ele><time>2026-03-29T06:44:40Z</time></trkpt><trkpt lat="45.49117948480757" lon="11.55406248219357"><ele>32.33333333333333</ele><time>2026-03-29T06:44:42Z</time></trkpt><trkpt lat="45.49109794532932" lon="11.554071422833513"><ele>32.666666666666664</ele><time>2026-03-29T06:44:44Z</time></trkpt><trkpt lat="45.49101418982708" lon="11.554081935357386"><ele>33.0</ele><time>2026-03-29T06:44:46Z</time></trkpt><trkpt lat="45.49093570497964" lon="11.55409218648097"><ele>33.333333333333336</ele><time>2026-03-29T06:44:48Z</time></trkpt><trkpt lat="45.490854883503836" lon="11.554092621098054"><ele>33.66666666666667</ele><time>2026-03-29T06:44:50Z</time></trkpt><trkpt lat="45.490767909874016" lon="11.554105218129683"><ele>34.0</ele><time>2026-03-29T06:44:51.999Z</time></trkpt><trkpt lat="45.490685166809655" lon="11.55412205978606"><ele>34.0</ele><time>2026-03-29T06:44:53.999Z</time></trkpt><trkpt lat="45.49060500563502" lon="11.554121286626676"><ele>34.0</ele><time>2026-03-29T06:44:55.999Z</time></trkpt><trkpt lat="45.49051553632575" lon="11.554130067658736"><ele>34.0</ele><time>2026-03-29T06:44:57.999Z</time></trkpt><trkpt lat="45.4904331543933" lon="11.554142254692058"><ele>34.0</ele><time>2026-03-29T06:44:59.999Z</time></trkpt><trkpt lat="45.49035213882333" lon="11.554149899605777"><ele>34.0</ele><time>2026-03-29T06:45:01.999Z</time></trkpt><trkpt lat="45.49026255731335" lon="11.554161052439849"><ele>34.0</ele><time>2026-03-29T06:45:03.999Z</time></trkpt><trkpt lat="45.490185967813765" lon="11.554198121346857"><ele>33.833333333333336</ele><time>2026-03-29T06:45:05.999Z</time></trkpt><trkpt lat="45.4901076405306" lon="11.554222790507591"><ele>33.66666666666667</ele><time>2026-03-29T06:45:07.999Z</time></trkpt><trkpt lat="45.49003052043664" lon="11.554253190243319"><ele>33.5</ele><time>2026-03-29T06:45:09.999Z</time></trkpt><trkpt lat="45.489947919242304" lon="11.554290653869513"><ele>33.333333333333336</ele><time>2026-03-29T06:45:11.999Z</time></trkpt><trkpt lat="45.48987251322278" lon="11.554305829926447"><ele>33.166666666666664</ele><time>2026-03-29T06:45:13.999Z</time></trkpt><trkpt lat="45.489803564709554" lon="11.55436397968058"><ele>33.0</ele><time>2026-03-29T06:45:15.999Z</time></trkpt><trkpt lat="45.48972239799884" lon="11.554401999441124"><ele>33.0</ele><time>2026-03-29T06:45:17.999Z</time></trkpt><trkpt lat="45.48964307070293" lon="11.554447832516646"><ele>33.0</ele><time>2026-03-29T06:45:19.999Z</time></trkpt><trkpt lat="45.48956829972837" lon="11.554495503280332"><ele>33.0</ele><time>2026-03-29T06:45:21.999Z</time></trkpt><trkpt lat="45.48949434575468" lon="11.554548775597919"><ele>33.0</ele><time>2026-03-29T06:45:23.999Z</time></trkpt><trkpt lat="45.489421039425665" lon="11.554604993784366"><ele>33.0</ele><time>2026-03-29T06:45:25.999Z</time></trkpt><trkpt lat="45.489353207173245" lon="11.554660582687372"><ele>33.0</ele><time>2026-03-29T06:45:27.999Z</time></trkpt><trkpt lat="45.48929831279602" lon="11.554715375954485"><ele>34.166666666666664</ele><time>2026-03-29T06:45:29.999Z</time></trkpt><trkpt lat="45.48922773965082" lon="11.55477896804705"><ele>35.333333333333336</ele><time>2026-03-29T06:45:31.999Z</time></trkpt><trkpt lat="45.48915473549676" lon="11.55483810079544"><ele>36.5</ele><time>2026-03-29T06:45:33.998Z</time></trkpt><trkpt lat="45.489079391001084" lon="11.554897073822906"><ele>37.66666666666667</ele><time>2026-03-29T06:45:35.998Z</time></trkpt><trkpt lat="45.48900711018708" lon="11.554962577447629"><ele>38.833333333333336</ele><time>2026-03-29T06:45:37.998Z</time></trkpt><trkpt lat="45.48893379752991" lon="11.555019727790802"><ele>40.0</ele><time>2026-03-29T06:45:39.998Z</time></trkpt><trkpt lat="45.488860585856564" lon="11.55507739385169"><ele>40.0</ele><time>2026-03-29T06:45:41.998Z</time></trkpt><trkpt lat="45.48878841120641" lon="11.555130148874593"><ele>40.0</ele><time>2026-03-29T06:45:43.998Z</time></trkpt><trkpt lat="45.488713056501965" lon="11.55518277243553"><ele>40.0</ele><time>2026-03-29T06:45:45.998Z</time></trkpt><trkpt lat="45.48863274914884" lon="11.555225374803182"><ele>40.0</ele><time>2026-03-29T06:45:47.998Z</time></trkpt><trkpt lat="45.48856140190914" lon="11.555261288266887"><ele>40.0</ele><time>2026-03-29T06:45:49.998Z</time></trkpt><trkpt lat="45.48849158406527" lon="11.55529642219212"><ele>40.0</ele><time>2026-03-29T06:45:51.998Z</time></trkpt><trkpt lat="45.488426647014784" lon="11.5553297405398"><ele>40.5</ele><time>2026-03-29T06:45:53.998Z</time></trkpt><trkpt lat="45.48835215200085" lon="11.555370161971853"><ele>41.0</ele><time>2026-03-29T06:45:57.998Z</time></trkpt><trkpt lat="45.48829870574339" lon="11.55543753830569"><ele>41.5</ele><time>2026-03-29T06:46:03.998Z</time></trkpt><trkpt lat="45.48823558451348" lon="11.555471884851992"><ele>42.0</ele><time>2026-03-29T06:46:05.998Z</time></trkpt><trkpt lat="45.4881631881557" lon="11.555511278273604"><ele>42.5</ele><time>2026-03-29T06:46:07.998Z</time></trkpt><trkpt lat="45.488082589070096" lon="11.555555135180267"><ele>43.0</ele><time>2026-03-29T06:46:09.998Z</time></trkpt><trkpt lat="45.48799760612367" lon="11.555601377531168"><ele>41.333333333333336</ele><time>2026-03-29T06:46:11.998Z</time></trkpt><trkpt lat="45.48792130425007" lon="11.555642896167752"><ele>39.66666666666667</ele><time>2026-03-29T06:46:13.997Z</time></trkpt><trkpt lat="45.487834083495876" lon="11.555689398643674"><ele>38.0</ele><time>2026-03-29T06:46:15.997Z</time></trkpt><trkpt lat="45.48775909984644" lon="11.555726910819681"><ele>36.333333333333336</ele><time>2026-03-29T06:46:17.997Z</time></trkpt><trkpt lat="45.487682356587264" lon="11.555761535741713"><ele>34.666666666666664</ele><time>2026-03-29T06:46:19.997Z</time></trkpt><trkpt lat="45.48760528472129" lon="11.555788059345936"><ele>33.0</ele><time>2026-03-29T06:46:21.997Z</time></trkpt><trkpt lat="45.48753155499169" lon="11.55581051705639"><ele>33.0</ele><time>2026-03-29T06:46:24Z</time></trkpt><trkpt lat="45.48745786046731" lon="11.555832440895864"><ele>33.0</ele><time>2026-03-29T06:46:26Z</time></trkpt><trkpt lat="45.48738494333593" lon="11.555858130434315"><ele>33.0</ele><time>2026-03-29T06:46:28Z</time></trkpt><trkpt lat="45.48729965525109" lon="11.55589674115673"><ele>33.0</ele><time>2026-03-29T06:46:30Z</time></trkpt><trkpt lat="45.48721752013192" lon="11.55594883666721"><ele>33.0</ele><time>2026-03-29T06:46:32Z</time></trkpt><trkpt lat="45.487142291976994" lon="11.556011805737082"><ele>33.0</ele><time>2026-03-29T06:46:34Z</time></trkpt><trkpt lat="45.48706697583307" lon="11.556086295788829"><ele>33.0</ele><time>2026-03-29T06:46:36Z</time></trkpt><trkpt lat="45.48700158809775" lon="11.556159808661613"><ele>33.0</ele><time>2026-03-29T06:46:38Z</time></trkpt><trkpt lat="45.48693283028938" lon="11.556243606259395"><ele>33.0</ele><time>2026-03-29T06:46:40Z</time></trkpt><trkpt lat="45.48686922879178" lon="11.556326940958243"><ele>33.0</ele><time>2026-03-29T06:46:42Z</time></trkpt><trkpt lat="45.48680342740914" lon="11.55641790696332"><ele>33.0</ele><time>2026-03-29T06:46:44Z</time></trkpt><trkpt lat="45.48673495725513" lon="11.556513286884874"><ele>33.0</ele><time>2026-03-29T06:46:46Z</time></trkpt><trkpt lat="45.486665579570754" lon="11.556606936724563"><ele>33.0</ele><time>2026-03-29T06:46:48Z</time></trkpt><trkpt lat="45.486604331013886" lon="11.556685911800866"><ele>33.0</ele><time>2026-03-29T06:46:50Z</time></trkpt><trkpt lat="45.48654403294107" lon="11.5567623156488"><ele>33.0</ele><time>2026-03-29T06:46:52Z</time></trkpt><trkpt lat="45.4864748590952" lon="11.55684669950136"><ele>33.0</ele><time>2026-03-29T06:46:54Z</time></trkpt><trkpt lat="45.486401207243944" lon="11.556931920208443"><ele>33.0</ele><time>2026-03-29T06:46:56Z</time></trkpt><trkpt lat="45.4863273799123" lon="11.557015616790798"><ele>33.0</ele><time>2026-03-29T06:46:57.999Z</time></trkpt><trkpt lat="45.486252349389" lon="11.557093542993728"><ele>31.799999999999997</ele><time>2026-03-29T06:46:59.999Z</time></trkpt><trkpt lat="45.48617047041407" lon="11.557166541401875"><ele>30.599999999999998</ele><time>2026-03-29T06:47:01.999Z</time></trkpt><trkpt lat="45.4860916003512" lon="11.55722457325068"><ele>29.400000000000002</ele><time>2026-03-29T06:47:03.999Z</time></trkpt><trkpt lat="45.48600456939927" lon="11.557278520833826"><ele>28.200000000000003</ele><time>2026-03-29T06:47:05.999Z</time></trkpt><trkpt lat="45.48590769364374" lon="11.557324449608767"><ele>27.0</ele><time>2026-03-29T06:47:07.999Z</time></trkpt><trkpt lat="45.48582648019778" lon="11.557348054236849"><ele>27.0</ele><time>2026-03-29T06:47:09.999Z</time></trkpt><trkpt lat="45.48574073758847" lon="11.557365873642034"><ele>27.000000000000004</ele><time>2026-03-29T06:47:11.999Z</time></trkpt><trkpt lat="45.48564899595947" lon="11.557385447368608"><ele>27.000000000000004</ele><time>2026-03-29T06:47:13.999Z</time></trkpt><trkpt lat="45.48555963224415" lon="11.55740541159015"><ele>27.0</ele><time>2026-03-29T06:47:15.999Z</time></trkpt><trkpt lat="45.48546569305427" lon="11.55742620189554"><ele>27.0</ele><time>2026-03-29T06:47:17.999Z</time></trkpt><trkpt lat="45.48537625258436" lon="11.5574456221956"><ele>26.5</ele><time>2026-03-29T06:47:19.999Z</time></trkpt><trkpt lat="45.48529505335712" lon="11.557463253055175"><ele>26.0</ele><time>2026-03-29T06:47:21.999Z</time></trkpt><trkpt lat="45.48520899768765" lon="11.557481938384418"><ele>25.5</ele><time>2026-03-29T06:47:23.999Z</time></trkpt><trkpt lat="45.485132723350134" lon="11.557498222241165"><ele>25.0</ele><time>2026-03-29T06:47:25.999Z</time></trkpt><trkpt lat="45.48505151609486" lon="11.55751511342926"><ele>24.5</ele><time>2026-03-29T06:47:27.999Z</time></trkpt><trkpt lat="45.484968633448325" lon="11.557532353198939"><ele>24.0</ele><time>2026-03-29T06:47:29.999Z</time></trkpt><trkpt lat="45.4848898727172" lon="11.557548735576042"><ele>24.0</ele><time>2026-03-29T06:47:31.999Z</time></trkpt><trkpt lat="45.48481238387344" lon="11.557564853352511"><ele>24.0</ele><time>2026-03-29T06:47:33.999Z</time></trkpt><trkpt lat="45.4847293290842" lon="11.557582128900147"><ele>24.0</ele><time>2026-03-29T06:47:35.999Z</time></trkpt><trkpt lat="45.484666184791905" lon="11.557595274352172"><ele>24.0</ele><time>2026-03-29T06:47:37.999Z</time></trkpt><trkpt lat="45.484576070521776" lon="11.557614162131372"><ele>24.0</ele><time>2026-03-29T06:47:40.998Z</time></trkpt><trkpt lat="45.48449591939198" lon="11.557630961645636"><ele>24.0</ele><time>2026-03-29T06:47:42.998Z</time></trkpt><trkpt lat="45.484417118668674" lon="11.557647478172813"><ele>24.0</ele><time>2026-03-29T06:47:44.998Z</time></trkpt><trkpt lat="45.48434449573945" lon="11.557662699806631"><ele>24.0</ele><time>2026-03-29T06:47:46.998Z</time></trkpt><trkpt lat="45.484271151502995" lon="11.557678072589512"><ele>24.0</ele><time>2026-03-29T06:47:48.998Z</time></trkpt><trkpt lat="45.48419159558207" lon="11.55769474742046"><ele>24.0</ele><time>2026-03-29T06:47:50.998Z</time></trkpt><trkpt lat="45.48412536394961" lon="11.557708621614841"><ele>24.0</ele><time>2026-03-29T06:47:52.998Z</time></trkpt><trkpt lat="45.48405178371533" lon="11.557724305260496"><ele>24.0</ele><time>2026-03-29T06:47:54.998Z</time></trkpt><trkpt lat="45.483969641065904" lon="11.557741814078728"><ele>24.0</ele><time>2026-03-29T06:47:56.998Z</time></trkpt><trkpt lat="45.48389491767079" lon="11.557757709977006"><ele>24.0</ele><time>2026-03-29T06:47:58.998Z</time></trkpt><trkpt lat="45.48382141647901" lon="11.557772031524456"><ele>24.0</ele><time>2026-03-29T06:48:00.998Z</time></trkpt><trkpt lat="45.48373318807367" lon="11.557789222643683"><ele>24.0</ele><time>2026-03-29T06:48:02.998Z</time></trkpt><trkpt lat="45.48365452387817" lon="11.557805199773163"><ele>24.0</ele><time>2026-03-29T06:48:04.998Z</time></trkpt><trkpt lat="45.48357625056354" lon="11.557822229733716"><ele>24.0</ele><time>2026-03-29T06:48:06.998Z</time></trkpt><trkpt lat="45.48349990118333" lon="11.557838841295085"><ele>23.833333333333332</ele><time>2026-03-29T06:48:08.998Z</time></trkpt><trkpt lat="45.48342870526229" lon="11.557854331500778"><ele>23.666666666666668</ele><time>2026-03-29T06:48:10.998Z</time></trkpt><trkpt lat="45.48334719344926" lon="11.557872295135041"><ele>23.5</ele><time>2026-03-29T06:48:12.998Z</time></trkpt><trkpt lat="45.48328077848844" lon="11.55788687292938"><ele>23.333333333333336</ele><time>2026-03-29T06:48:14.998Z</time></trkpt><trkpt lat="45.48319841633427" lon="11.55790469711756"><ele>23.166666666666668</ele><time>2026-03-29T06:48:16.998Z</time></trkpt><trkpt lat="45.48311705754377" lon="11.557923721041163"><ele>23.0</ele><time>2026-03-29T06:48:18.998Z</time></trkpt><trkpt lat="45.483041955168616" lon="11.557946296065703"><ele>23.0</ele><time>2026-03-29T06:48:20.997Z</time></trkpt><trkpt lat="45.482959336678995" lon="11.557976072741203"><ele>23.0</ele><time>2026-03-29T06:48:22.997Z</time></trkpt><trkpt lat="45.482870364701434" lon="11.558032206904405"><ele>23.0</ele><time>2026-03-29T06:48:24.997Z</time></trkpt><trkpt lat="45.48279236305735" lon="11.558096304210627"><ele>23.0</ele><time>2026-03-29T06:48:26.997Z</time></trkpt><trkpt lat="45.482714748154436" lon="11.558168630090975"><ele>23.0</ele><time>2026-03-29T06:48:28.997Z</time></trkpt><trkpt lat="45.48264605459661" lon="11.558232652818862"><ele>23.0</ele><time>2026-03-29T06:48:31Z</time></trkpt><trkpt lat="45.48257777597287" lon="11.558296290202607"><ele>23.0</ele><time>2026-03-29T06:48:33Z</time></trkpt><trkpt lat="45.48251345583251" lon="11.558356238126107"><ele>23.0</ele><time>2026-03-29T06:48:35Z</time></trkpt><trkpt lat="45.482445110688154" lon="11.55841993743162"><ele>23.0</ele><time>2026-03-29T06:48:37Z</time></trkpt><trkpt lat="45.48238036277442" lon="11.558480284078055"><ele>23.0</ele><time>2026-03-29T06:48:39Z</time></trkpt><trkpt lat="45.482318660201024" lon="11.558538247442522"><ele>23.0</ele><time>2026-03-29T06:48:41Z</time></trkpt><trkpt lat="45.482260924142025" lon="11.558592551064667"><ele>23.0</ele><time>2026-03-29T06:48:43Z</time></trkpt><trkpt lat="45.48220113999668" lon="11.55864878096628"><ele>23.0</ele><time>2026-03-29T06:48:45Z</time></trkpt><trkpt lat="45.48213974132857" lon="11.558706529383736"><ele>23.0</ele><time>2026-03-29T06:48:47Z</time></trkpt><trkpt lat="45.482074070743344" lon="11.558766921574584"><ele>23.0</ele><time>2026-03-29T06:48:49Z</time></trkpt><trkpt lat="45.48201019369959" lon="11.558824537747"><ele>23.0</ele><time>2026-03-29T06:48:51Z</time></trkpt><trkpt lat="45.48195260265676" lon="11.558876499529488"><ele>23.0</ele><time>2026-03-29T06:48:53Z</time></trkpt><trkpt lat="45.48189411548599" lon="11.558930053526426"><ele>23.0</ele><time>2026-03-29T06:48:55Z</time></trkpt><trkpt lat="45.48183720581613" lon="11.558982163149516"><ele>23.0</ele><time>2026-03-29T06:48:57Z</time></trkpt><trkpt lat="45.48177945714761" lon="11.559035040982147"><ele>23.28571428571429</ele><time>2026-03-29T06:48:59Z</time></trkpt><trkpt lat="45.48172013775393" lon="11.559089356978879"><ele>23.57142857142857</ele><time>2026-03-29T06:49:01Z</time></trkpt><trkpt lat="45.481660866062334" lon="11.559143629300332"><ele>23.857142857142858</ele><time>2026-03-29T06:49:03Z</time></trkpt><trkpt lat="45.481603025241434" lon="11.559196591534675"><ele>24.142857142857146</ele><time>2026-03-29T06:49:04.999Z</time></trkpt><trkpt lat="45.48154940022637" lon="11.559245693469666"><ele>24.42857142857143</ele><time>2026-03-29T06:49:06.999Z</time></trkpt><trkpt lat="45.4814966941947" lon="11.559314075765979"><ele>24.714285714285715</ele><time>2026-03-29T06:49:08.999Z</time></trkpt><trkpt lat="45.48143403579352" lon="11.559363490264852"><ele>25.0</ele><time>2026-03-29T06:49:10.999Z</time></trkpt><trkpt lat="45.481380487085175" lon="11.559412565806714"><ele>25.000000000000004</ele><time>2026-03-29T06:49:12.999Z</time></trkpt><trkpt lat="45.48131978704737" lon="11.559467934420455"><ele>25.0</ele><time>2026-03-29T06:49:14.999Z</time></trkpt><trkpt lat="45.4812594961753" lon="11.559523784982119"><ele>25.0</ele><time>2026-03-29T06:49:16.999Z</time></trkpt><trkpt lat="45.48120080163953" lon="11.55957477620469"><ele>25.0</ele><time>2026-03-29T06:49:18.999Z</time></trkpt><trkpt lat="45.48114527164376" lon="11.559627120975057"><ele>25.0</ele><time>2026-03-29T06:49:20.999Z</time></trkpt><trkpt lat="45.48108632119632" lon="11.55967674501839"><ele>25.000000000000004</ele><time>2026-03-29T06:49:22.999Z</time></trkpt><trkpt lat="45.48102918100491" lon="11.559729471007458"><ele>25.0</ele><time>2026-03-29T06:49:24.999Z</time></trkpt><trkpt lat="45.48096875631079" lon="11.55978820474285"><ele>25.571428571428573</ele><time>2026-03-29T06:49:26.999Z</time></trkpt><trkpt lat="45.480904329262614" lon="11.559843789634527"><ele>26.142857142857146</ele><time>2026-03-29T06:49:28.999Z</time></trkpt><trkpt lat="45.48084207887184" lon="11.559895141707733"><ele>26.714285714285715</ele><time>2026-03-29T06:49:30.999Z</time></trkpt><trkpt lat="45.480781902565745" lon="11.559953761183731"><ele>27.28571428571429</ele><time>2026-03-29T06:49:32.999Z</time></trkpt><trkpt lat="45.48072176522968" lon="11.560006359221735"><ele>27.857142857142858</ele><time>2026-03-29T06:49:34.999Z</time></trkpt><trkpt lat="45.480660467939465" lon="11.560059514720269"><ele>28.428571428571434</ele><time>2026-03-29T06:49:36.999Z</time></trkpt><trkpt lat="45.4806019950874" lon="11.560111915282727"><ele>29.000000000000004</ele><time>2026-03-29T06:49:38.999Z</time></trkpt><trkpt lat="45.48054272634286" lon="11.56014521713667"><ele>31.0</ele><time>2026-03-29T06:49:40.999Z</time></trkpt><trkpt lat="45.48042390465463" lon="11.559981593390608"><ele>33.0</ele><time>2026-03-29T06:49:45.998Z</time></trkpt><trkpt lat="45.480418465860176" lon="11.559843077979314"><ele>35.0</ele><time>2026-03-29T06:49:47.998Z</time></trkpt><trkpt lat="45.480411163980165" lon="11.559706428613838"><ele>37.0</ele><time>2026-03-29T06:49:49.998Z</time></trkpt><trkpt lat="45.4804082172795" lon="11.559560671538682"><ele>36.800000000000004</ele><time>2026-03-29T06:49:51.998Z</time></trkpt><trkpt lat="45.480406999356184" lon="11.559416719415736"><ele>36.6</ele><time>2026-03-29T06:49:53.998Z</time></trkpt><trkpt lat="45.480401507267004" lon="11.559278801090862"><ele>36.400000000000006</ele><time>2026-03-29T06:49:55.998Z</time></trkpt><trkpt lat="45.480401774211806" lon="11.559153196831485"><ele>36.2</ele><time>2026-03-29T06:49:57.998Z</time></trkpt><trkpt lat="45.48039794098707" lon="11.559018368843308"><ele>36.0</ele><time>2026-03-29T06:49:59.998Z</time></trkpt><trkpt lat="45.48039685770267" lon="11.55887881959874"><ele>36.0</ele><time>2026-03-29T06:50:01.998Z</time></trkpt><trkpt lat="45.4803987669785" lon="11.558740562597498"><ele>36.0</ele><time>2026-03-29T06:50:03.998Z</time></trkpt><trkpt lat="45.48040318516647" lon="11.558587520842233"><ele>36.0</ele><time>2026-03-29T06:50:05.998Z</time></trkpt><trkpt lat="45.48040875023137" lon="11.558445171380152"><ele>36.0</ele><time>2026-03-29T06:50:07.998Z</time></trkpt><trkpt lat="45.480413979183226" lon="11.558308402356133"><ele>36.0</ele><time>2026-03-29T06:50:09.998Z</time></trkpt><trkpt lat="45.48041880868875" lon="11.55817931226535"><ele>36.5</ele><time>2026-03-29T06:50:11.998Z</time></trkpt><trkpt lat="45.48042323191967" lon="11.558062419543857"><ele>37.0</ele><time>2026-03-29T06:50:13.998Z</time></trkpt><trkpt lat="45.48042999086145" lon="11.557950659819792"><ele>37.5</ele><time>2026-03-29T06:50:15.998Z</time></trkpt><trkpt lat="45.480439825549496" lon="11.55784552181555"><ele>38.0</ele><time>2026-03-29T06:50:17.998Z</time></trkpt><trkpt lat="45.48045345391013" lon="11.55773866615344"><ele>38.5</ele><time>2026-03-29T06:50:19.998Z</time></trkpt><trkpt lat="45.480476266629175" lon="11.557631702765168"><ele>39.0</ele><time>2026-03-29T06:50:21.998Z</time></trkpt><trkpt lat="45.48049855018969" lon="11.557516570103758"><ele>37.333333333333336</ele><time>2026-03-29T06:50:23.998Z</time></trkpt><trkpt lat="45.48051790799123" lon="11.557396035304372"><ele>35.666666666666664</ele><time>2026-03-29T06:50:25.998Z</time></trkpt><trkpt lat="45.480534460227794" lon="11.557282981691703"><ele>34.0</ele><time>2026-03-29T06:50:27.997Z</time></trkpt><trkpt lat="45.48053627427558" lon="11.557178884995952"><ele>32.33333333333333</ele><time>2026-03-29T06:50:29.997Z</time></trkpt><trkpt lat="45.480528944158195" lon="11.55707617374185"><ele>30.666666666666664</ele><time>2026-03-29T06:50:31.997Z</time></trkpt><trkpt lat="45.48052499072386" lon="11.556965584356767"><ele>29.0</ele><time>2026-03-29T06:50:33.997Z</time></trkpt><trkpt lat="45.480521866698794" lon="11.556855612932853"><ele>28.999999999999996</ele><time>2026-03-29T06:50:36Z</time></trkpt><trkpt lat="45.48051570828715" lon="11.556742709794266"><ele>29.0</ele><time>2026-03-29T06:50:38Z</time></trkpt><trkpt lat="45.48050908460229" lon="11.556631253208714"><ele>29.0</ele><time>2026-03-29T06:50:40Z</time></trkpt><trkpt lat="45.48050068765782" lon="11.55652046173204"><ele>29.0</ele><time>2026-03-29T06:50:42Z</time></trkpt><trkpt lat="45.4804927965678" lon="11.556412258055376"><ele>28.999999999999996</ele><time>2026-03-29T06:50:44Z</time></trkpt><trkpt lat="45.48047668406132" lon="11.556294545718712"><ele>29.0</ele><time>2026-03-29T06:50:46Z</time></trkpt><trkpt lat="45.48046147284456" lon="11.556190650177959"><ele>28.71428571428572</ele><time>2026-03-29T06:50:48Z</time></trkpt><trkpt lat="45.48044378052914" lon="11.556089578887846"><ele>28.42857142857143</ele><time>2026-03-29T06:50:50Z</time></trkpt><trkpt lat="45.48042837225783" lon="11.555982888971343"><ele>28.142857142857146</ele><time>2026-03-29T06:50:52Z</time></trkpt><trkpt lat="45.48041719063932" lon="11.555885154330584"><ele>27.85714285714286</ele><time>2026-03-29T06:50:54Z</time></trkpt><trkpt lat="45.480403683452664" lon="11.555784358344358"><ele>27.57142857142857</ele><time>2026-03-29T06:50:56Z</time></trkpt><trkpt lat="45.480387958122414" lon="11.555685603077116"><ele>27.285714285714285</ele><time>2026-03-29T06:50:58Z</time></trkpt><trkpt lat="45.48038951788983" lon="11.555586561237877"><ele>27.0</ele><time>2026-03-29T06:51:00Z</time></trkpt><trkpt lat="45.48036728748547" lon="11.555484595279049"><ele>30.333333333333332</ele><time>2026-03-29T06:51:04Z</time></trkpt><trkpt lat="45.48027026878032" lon="11.555392017322143"><ele>33.666666666666664</ele><time>2026-03-29T06:51:08.999Z</time></trkpt><trkpt lat="45.480203230769554" lon="11.55537013404445"><ele>37.0</ele><time>2026-03-29T06:51:12.999Z</time></trkpt><trkpt lat="45.48015209900683" lon="11.555299144100173"><ele>40.33333333333333</ele><time>2026-03-29T06:51:16.999Z</time></trkpt><trkpt lat="45.480157307382555" lon="11.555185198509335"><ele>43.666666666666664</ele><time>2026-03-29T06:51:21.999Z</time></trkpt><trkpt lat="45.48015390785984" lon="11.555095382256257"><ele>47.0</ele><time>2026-03-29T06:51:24.999Z</time></trkpt><trkpt lat="45.480153189340115" lon="11.555005195044902"><ele>47.42857142857143</ele><time>2026-03-29T06:51:27.999Z</time></trkpt><trkpt lat="45.480153438144306" lon="11.554902105751276"><ele>47.857142857142854</ele><time>2026-03-29T06:51:31.999Z</time></trkpt><trkpt lat="45.48015369894526" lon="11.554794045787741"><ele>48.28571428571429</ele><time>2026-03-29T06:51:35.999Z</time></trkpt><trkpt lat="45.480153951114744" lon="11.554689562083192"><ele>48.714285714285715</ele><time>2026-03-29T06:51:39.999Z</time></trkpt><trkpt lat="45.48014924641853" lon="11.55459562032565"><ele>49.142857142857146</ele><time>2026-03-29T06:51:43.999Z</time></trkpt><trkpt lat="45.4801386433936" lon="11.554498410799512"><ele>49.57142857142858</ele><time>2026-03-29T06:51:47.999Z</time></trkpt><trkpt lat="45.48011447727202" lon="11.554413007752178"><ele>50.0</ele><time>2026-03-29T06:51:50.998Z</time></trkpt><trkpt lat="45.48007523931096" lon="11.554330021353515"><ele>50.714285714285715</ele><time>2026-03-29T06:51:54.998Z</time></trkpt><trkpt lat="45.4800321634687" lon="11.55425483283424"><ele>51.42857142857143</ele><time>2026-03-29T06:51:58.998Z</time></trkpt><trkpt lat="45.47998734001984" lon="11.55418990003185"><ele>52.14285714285714</ele><time>2026-03-29T06:52:02.998Z</time></trkpt><trkpt lat="45.47992872013854" lon="11.554142968573231"><ele>52.85714285714286</ele><time>2026-03-29T06:52:07.998Z</time></trkpt><trkpt lat="45.47987494055455" lon="11.554080522715106"><ele>53.57142857142857</ele><time>2026-03-29T06:52:11.998Z</time></trkpt><trkpt lat="45.47981684003181" lon="11.553987120880224"><ele>54.285714285714285</ele><time>2026-03-29T06:52:15.998Z</time></trkpt><trkpt lat="45.479763035450986" lon="11.55392755922308"><ele>55.0</ele><time>2026-03-29T06:52:17.998Z</time></trkpt><trkpt lat="45.47968588212484" lon="11.553856195008693"><ele>54.99999999999999</ele><time>2026-03-29T06:52:20.998Z</time></trkpt><trkpt lat="45.47964453551416" lon="11.553784155920592"><ele>55.0</ele><time>2026-03-29T06:52:23.998Z</time></trkpt><trkpt lat="45.47959551926022" lon="11.553717003474889"><ele>55.0</ele><time>2026-03-29T06:52:27.998Z</time></trkpt><trkpt lat="45.479533359634154" lon="11.553651146672493"><ele>55.0</ele><time>2026-03-29T06:52:31.997Z</time></trkpt><trkpt lat="45.479483151599915" lon="11.553550028792761"><ele>55.0</ele><time>2026-03-29T06:52:34.997Z</time></trkpt><trkpt lat="45.47942716265834" lon="11.553473790764857"><ele>54.99999999999999</ele><time>2026-03-29T06:52:38.997Z</time></trkpt><trkpt lat="45.47936945367335" lon="11.553431671568363"><ele>55.0</ele><time>2026-03-29T06:52:42Z</time></trkpt><trkpt lat="45.47930454106493" lon="11.553366219081921"><ele>58.0</ele><time>2026-03-29T06:52:46Z</time></trkpt><trkpt lat="45.479241116446964" lon="11.553300020392545"><ele>61.0</ele><time>2026-03-29T06:52:50Z</time></trkpt><trkpt lat="45.47918396678553" lon="11.553223162926258"><ele>64.0</ele><time>2026-03-29T06:52:54Z</time></trkpt><trkpt lat="45.4791250770097" lon="11.553160863848126"><ele>67.0</ele><time>2026-03-29T06:52:58Z</time></trkpt><trkpt lat="45.47906794608508" lon="11.553100247588876"><ele>70.0</ele><time>2026-03-29T06:53:02Z</time></trkpt><trkpt lat="45.47901640491266" lon="11.553039042654396"><ele>73.0</ele><time>2026-03-29T06:53:06Z</time></trkpt><trkpt lat="45.478973568352515" lon="11.552967102746724"><ele>76.0</ele><time>2026-03-29T06:53:10Z</time></trkpt><trkpt lat="45.478982145290246" lon="11.552876265590676"><ele>76.57142857142857</ele><time>2026-03-29T06:53:14Z</time></trkpt><trkpt lat="45.47893887213816" lon="11.552782598684963"><ele>77.14285714285715</ele><time>2026-03-29T06:53:17.999Z</time></trkpt><trkpt lat="45.478864324175134" lon="11.552772496656997"><ele>77.71428571428572</ele><time>2026-03-29T06:53:19.999Z</time></trkpt><trkpt lat="45.47881691975562" lon="11.552710385762191"><ele>78.28571428571428</ele><time>2026-03-29T06:53:23.999Z</time></trkpt><trkpt lat="45.47875283840215" lon="11.552636282775769"><ele>78.85714285714286</ele><time>2026-03-29T06:53:28.999Z</time></trkpt><trkpt lat="45.478689124905216" lon="11.55260164583469"><ele>79.42857142857143</ele><time>2026-03-29T06:53:32.999Z</time></trkpt><trkpt lat="45.478616041836155" lon="11.552586443287273"><ele>80.0</ele><time>2026-03-29T06:53:37.999Z</time></trkpt><trkpt lat="45.47855295755539" lon="11.552591071877167"><ele>80.0</ele><time>2026-03-29T06:53:41.999Z</time></trkpt><trkpt lat="45.4784827953797" lon="11.552599929498276"><ele>80.0</ele><time>2026-03-29T06:53:46.999Z</time></trkpt><trkpt lat="45.47841220958817" lon="11.552575452771402"><ele>80.0</ele><time>2026-03-29T06:53:50.999Z</time></trkpt><trkpt lat="45.478343192168424" lon="11.552542931164647"><ele>80.0</ele><time>2026-03-29T06:53:54.999Z</time></trkpt><trkpt lat="45.47827150049226" lon="11.552515789325824"><ele>80.0</ele><time>2026-03-29T06:53:57.998Z</time></trkpt><trkpt lat="45.478206187994026" lon="11.552486641616479"><ele>80.0</ele><time>2026-03-29T06:54:00.998Z</time></trkpt><trkpt lat="45.47813237266311" lon="11.55251957811609"><ele>80.0</ele><time>2026-03-29T06:54:04.998Z</time></trkpt><trkpt lat="45.47815356962627" lon="11.552661721332292"><ele>80.0</ele><time>2026-03-29T06:54:07.998Z</time></trkpt><trkpt lat="45.47819260893568" lon="11.552775795517165"><ele>80.0</ele><time>2026-03-29T06:54:09.998Z</time></trkpt><trkpt lat="45.478249334126986" lon="11.552939248587581"><ele>80.0</ele><time>2026-03-29T06:54:11.998Z</time></trkpt><trkpt lat="45.47829033624446" lon="11.553109674386386"><ele>80.0</ele><time>2026-03-29T06:54:13.998Z</time></trkpt><trkpt lat="45.47830407616817" lon="11.553279710197682"><ele>79.83333333333334</ele><time>2026-03-29T06:54:15.998Z</time></trkpt><trkpt lat="45.478302575660685" lon="11.553406718020439"><ele>79.66666666666667</ele><time>2026-03-29T06:54:17.998Z</time></trkpt><trkpt lat="45.47829504054183" lon="11.553519691307876"><ele>79.5</ele><time>2026-03-29T06:54:19.998Z</time></trkpt><trkpt lat="45.478292867480484" lon="11.553642362495994"><ele>79.33333333333333</ele><time>2026-03-29T06:54:22.998Z</time></trkpt><trkpt lat="45.478297854907005" lon="11.553753709218928"><ele>79.16666666666666</ele><time>2026-03-29T06:54:25.998Z</time></trkpt><trkpt lat="45.47831341722265" lon="11.55385982881962"><ele>79.0</ele><time>2026-03-29T06:54:29.998Z</time></trkpt><trkpt lat="45.478345877392606" lon="11.55395966473554"><ele>80.00000000000001</ele><time>2026-03-29T06:54:33.998Z</time></trkpt><trkpt lat="45.47835306649942" lon="11.554051294773737"><ele>81.0</ele><time>2026-03-29T06:54:36.998Z</time></trkpt><trkpt lat="45.47837487723127" lon="11.554152237017798"><ele>82.0</ele><time>2026-03-29T06:54:40.997Z</time></trkpt><trkpt lat="45.47841140111798" lon="11.554253280940708"><ele>83.0</ele><time>2026-03-29T06:54:43.997Z</time></trkpt><trkpt lat="45.4784331446635" lon="11.55434437993493"><ele>84.0</ele><time>2026-03-29T06:54:46.997Z</time></trkpt><trkpt lat="45.47844731777675" lon="11.554455269279522"><ele>85.00000000000001</ele><time>2026-03-29T06:54:51Z</time></trkpt><trkpt lat="45.47847211939361" lon="11.554556949824576"><ele>86.0</ele><time>2026-03-29T06:54:55Z</time></trkpt><trkpt lat="45.47848920790303" lon="11.554652706643308"><ele>87.14285714285715</ele><time>2026-03-29T06:54:59Z</time></trkpt><trkpt lat="45.47850439119195" lon="11.554752860294261"><ele>88.28571428571429</ele><time>2026-03-29T06:55:03Z</time></trkpt><trkpt lat="45.47851362188848" lon="11.554868083759583"><ele>89.42857142857143</ele><time>2026-03-29T06:55:07Z</time></trkpt><trkpt lat="45.47853916708035" lon="11.55495718377022"><ele>90.57142857142858</ele><time>2026-03-29T06:55:11Z</time></trkpt><trkpt lat="45.47854270655958" lon="11.555059192789441"><ele>91.71428571428571</ele><time>2026-03-29T06:55:15Z</time></trkpt><trkpt lat="45.47854951953038" lon="11.555152511412379"><ele>92.85714285714286</ele><time>2026-03-29T06:55:18Z</time></trkpt><trkpt lat="45.47855252798053" lon="11.555257246947777"><ele>94.0</ele><time>2026-03-29T06:55:21.999Z</time></trkpt><trkpt lat="45.478573836599494" lon="11.555350298830021"><ele>95.14285714285714</ele><time>2026-03-29T06:55:25.999Z</time></trkpt><trkpt lat="45.478551791473315" lon="11.555443068664244"><ele>96.28571428571428</ele><time>2026-03-29T06:55:29.999Z</time></trkpt><trkpt lat="45.478526295720854" lon="11.555531254152553"><ele>97.42857142857143</ele><time>2026-03-29T06:55:33.999Z</time></trkpt><trkpt lat="45.478474440973464" lon="11.555584787480925"><ele>98.57142857142857</ele><time>2026-03-29T06:55:37.999Z</time></trkpt><trkpt lat="45.47839816318154" lon="11.555565902956754"><ele>99.71428571428572</ele><time>2026-03-29T06:55:41.999Z</time></trkpt><trkpt lat="45.47832199316911" lon="11.555546716483796"><ele>100.85714285714286</ele><time>2026-03-29T06:55:45.999Z</time></trkpt><trkpt lat="45.47825251504612" lon="11.555535763960952"><ele>102.0</ele><time>2026-03-29T06:55:49.999Z</time></trkpt><trkpt lat="45.47816759641382" lon="11.555497456199806"><ele>102.0</ele><time>2026-03-29T06:55:53.999Z</time></trkpt><trkpt lat="45.47809701735601" lon="11.555481110786376"><ele>102.0</ele><time>2026-03-29T06:55:56.999Z</time></trkpt><trkpt lat="45.47802438035565" lon="11.55547129948163"><ele>102.0</ele><time>2026-03-29T06:56:01.998Z</time></trkpt><trkpt lat="45.47794891589888" lon="11.555443300595593"><ele>102.0</ele><time>2026-03-29T06:56:06.998Z</time></trkpt><trkpt lat="45.47787086775524" lon="11.555424377837825"><ele>102.0</ele><time>2026-03-29T06:56:10.998Z</time></trkpt><trkpt lat="45.477809219819484" lon="11.555391636124211"><ele>102.0</ele><time>2026-03-29T06:56:13.998Z</time></trkpt><trkpt lat="45.477739492258124" lon="11.555420738292229"><ele>102.0</ele><time>2026-03-29T06:56:17.998Z</time></trkpt><trkpt lat="45.47775423533438" lon="11.55552150775243"><ele>105.14285714285714</ele><time>2026-03-29T06:56:21.998Z</time></trkpt><trkpt lat="45.47776715626876" lon="11.555626453320347"><ele>108.28571428571429</ele><time>2026-03-29T06:56:27.998Z</time></trkpt><trkpt lat="45.47779582212525" lon="11.555714898488935"><ele>111.42857142857143</ele><time>2026-03-29T06:56:32.998Z</time></trkpt><trkpt lat="45.477827763301256" lon="11.555806702177644"><ele>114.57142857142858</ele><time>2026-03-29T06:56:38.998Z</time></trkpt><trkpt lat="45.47785773247315" lon="11.555893679857505"><ele>117.71428571428572</ele><time>2026-03-29T06:56:43.997Z</time></trkpt><trkpt lat="45.47789023926262" lon="11.555984788252394"><ele>120.85714285714286</ele><time>2026-03-29T06:56:47.997Z</time></trkpt><trkpt lat="45.47790213277606" lon="11.556080938077965"><ele>124.0</ele><time>2026-03-29T06:56:52.997Z</time></trkpt><trkpt lat="45.47785313289141" lon="11.55617137829943"><ele>123.71428571428572</ele><time>2026-03-29T06:56:58Z</time></trkpt><trkpt lat="45.47781050028285" lon="11.556238018134287"><ele>123.42857142857144</ele><time>2026-03-29T06:57:02Z</time></trkpt><trkpt lat="45.477764808497334" lon="11.556306252967481"><ele>123.14285714285714</ele><time>2026-03-29T06:57:06Z</time></trkpt><trkpt lat="45.47771373635529" lon="11.556368220900108"><ele>122.85714285714286</ele><time>2026-03-29T06:57:10Z</time></trkpt><trkpt lat="45.477652306966654" lon="11.55644334944359"><ele>122.57142857142857</ele><time>2026-03-29T06:57:15Z</time></trkpt><trkpt lat="45.47758517239277" lon="11.556491858355196"><ele>122.28571428571428</ele><time>2026-03-29T06:57:19Z</time></trkpt><trkpt lat="45.47752836078837" lon="11.556533155280086"><ele>121.99999999999999</ele><time>2026-03-29T06:57:23Z</time></trkpt><trkpt lat="45.477456496876144" lon="11.556570755223262"><ele>121.99999999999999</ele><time>2026-03-29T06:57:26.999Z</time></trkpt><trkpt lat="45.47739185166448" lon="11.55660191333252"><ele>122.0</ele><time>2026-03-29T06:57:30.999Z</time></trkpt><trkpt lat="45.47732545426819" lon="11.556617276070869"><ele>121.99999999999999</ele><time>2026-03-29T06:57:34.999Z</time></trkpt><trkpt lat="45.47724427131444" lon="11.556631375208658"><ele>121.99999999999999</ele><time>2026-03-29T06:57:38.999Z</time></trkpt><trkpt lat="45.4771736808017" lon="11.556636119383908"><ele>122.0</ele><time>2026-03-29T06:57:42.999Z</time></trkpt><trkpt lat="45.47710564471148" lon="11.556603207613264"><ele>121.99999999999999</ele><time>2026-03-29T06:57:46.999Z</time></trkpt><trkpt lat="45.477035547076156" lon="11.556553482695643"><ele>121.99999999999999</ele><time>2026-03-29T06:57:49.999Z</time></trkpt><trkpt lat="45.47696300576808" lon="11.55651166687383"><ele>123.66666666666666</ele><time>2026-03-29T06:57:53.999Z</time></trkpt><trkpt lat="45.47688987471268" lon="11.556478846774736"><ele>125.33333333333333</ele><time>2026-03-29T06:57:56.999Z</time></trkpt><trkpt lat="45.47681023293064" lon="11.556481320101142"><ele>127.0</ele><time>2026-03-29T06:57:59.999Z</time></trkpt><trkpt lat="45.47675332549143" lon="11.556426980919642"><ele>128.66666666666666</ele><time>2026-03-29T07:04:17.999Z</time></trkpt><trkpt lat="45.47667751118551" lon="11.556444338649877"><ele>130.33333333333334</ele><time>2026-03-29T07:04:25.999Z</time></trkpt><trkpt lat="45.476576266003235" lon="11.556463629930626"><ele>132.0</ele><time>2026-03-29T07:04:28.998Z</time></trkpt><trkpt lat="45.4764789539006" lon="11.556479076920288"><ele>132.0</ele><time>2026-03-29T07:04:30.998Z</time></trkpt><trkpt lat="45.476400330871805" lon="11.55650295963645"><ele>132.0</ele><time>2026-03-29T07:04:32.998Z</time></trkpt><trkpt lat="45.47633359212635" lon="11.556517795379385"><ele>132.0</ele><time>2026-03-29T07:04:35.998Z</time></trkpt><trkpt lat="45.476258044455534" lon="11.556537642287184"><ele>132.0</ele><time>2026-03-29T07:04:38.998Z</time></trkpt><trkpt lat="45.47618058636759" lon="11.556565802087157"><ele>132.0</ele><time>2026-03-29T07:04:42.998Z</time></trkpt><trkpt lat="45.47609800380709" lon="11.556631125374611"><ele>132.0</ele><time>2026-03-29T07:04:45.998Z</time></trkpt><trkpt lat="45.47604224062034" lon="11.556675705638275"><ele>131.5</ele><time>2026-03-29T07:04:47.998Z</time></trkpt><trkpt lat="45.475961050966355" lon="11.556748016711687"><ele>131.0</ele><time>2026-03-29T07:04:50.998Z</time></trkpt><trkpt lat="45.47588937158935" lon="11.556811928777295"><ele>130.5</ele><time>2026-03-29T07:04:53.998Z</time></trkpt><trkpt lat="45.475809667324015" lon="11.55686345929538"><ele>130.0</ele><time>2026-03-29T07:04:56.998Z</time></trkpt><trkpt lat="45.47574987876249" lon="11.556913615788835"><ele>129.5</ele><time>2026-03-29T07:04:58.998Z</time></trkpt><trkpt lat="45.475683863134655" lon="11.556974116260442"><ele>129.0</ele><time>2026-03-29T07:05:00.998Z</time></trkpt><trkpt lat="45.47561253194556" lon="11.557002774615553"><ele>130.28571428571428</ele><time>2026-03-29T07:05:02.998Z</time></trkpt><trkpt lat="45.475538668039064" lon="11.557045805065474"><ele>131.57142857142856</ele><time>2026-03-29T07:05:04.998Z</time></trkpt><trkpt lat="45.47547844527697" lon="11.557084278700728"><ele>132.85714285714286</ele><time>2026-03-29T07:05:06.998Z</time></trkpt><trkpt lat="45.47541663646928" lon="11.557134256535626"><ele>134.14285714285714</ele><time>2026-03-29T07:05:09.997Z</time></trkpt><trkpt lat="45.475352318803374" lon="11.557150831645377"><ele>135.42857142857144</ele><time>2026-03-29T07:05:11.997Z</time></trkpt><trkpt lat="45.47531570999225" lon="11.557231544142246"><ele>136.71428571428572</ele><time>2026-03-29T07:05:14.997Z</time></trkpt><trkpt lat="45.475274288702636" lon="11.557327522703295"><ele>138.0</ele><time>2026-03-29T07:05:19Z</time></trkpt><trkpt lat="45.47522935486386" lon="11.557400185764925"><ele>138.5</ele><time>2026-03-29T07:05:24Z</time></trkpt><trkpt lat="45.475169667406014" lon="11.55746250556291"><ele>139.0</ele><time>2026-03-29T07:05:28Z</time></trkpt><trkpt lat="45.47512043738891" lon="11.557525132501844"><ele>139.5</ele><time>2026-03-29T07:05:32Z</time></trkpt><trkpt lat="45.475068290788485" lon="11.557599034290867"><ele>140.0</ele><time>2026-03-29T07:05:39Z</time></trkpt><trkpt lat="45.47502139098603" lon="11.557665500274538"><ele>140.5</ele><time>2026-03-29T07:05:45Z</time></trkpt><trkpt lat="45.474973491726985" lon="11.557733382674607"><ele>141.0</ele><time>2026-03-29T07:05:50Z</time></trkpt><trkpt lat="45.474811419142355" lon="11.557569915054914"><ele>141.0</ele><time>2026-03-29T07:05:51.999Z</time></trkpt><trkpt lat="45.47474706147177" lon="11.557606930140906"><ele>141.0</ele><time>2026-03-29T07:05:55.999Z</time></trkpt><trkpt lat="45.47468176213911" lon="11.557649166291142"><ele>141.0</ele><time>2026-03-29T07:05:59.999Z</time></trkpt><trkpt lat="45.47461555171889" lon="11.557691682732107"><ele>141.0</ele><time>2026-03-29T07:06:03.999Z</time></trkpt><trkpt lat="45.474541636805014" lon="11.557736570052265"><ele>141.0</ele><time>2026-03-29T07:06:08.999Z</time></trkpt><trkpt lat="45.474472426994375" lon="11.557786201728467"><ele>141.0</ele><time>2026-03-29T07:06:13.999Z</time></trkpt><trkpt lat="45.474403250695254" lon="11.557836850415406"><ele>141.0</ele><time>2026-03-29T07:06:17.999Z</time></trkpt><trkpt lat="45.474342774027185" lon="11.557882456561543"><ele>144.28571428571428</ele><time>2026-03-29T07:06:21.999Z</time></trkpt><trkpt lat="45.474286399295174" lon="11.557923178554653"><ele>147.57142857142856</ele><time>2026-03-29T07:06:24.999Z</time></trkpt><trkpt lat="45.47423084837121" lon="11.557968385925063"><ele>150.85714285714283</ele><time>2026-03-29T07:06:28.999Z</time></trkpt><trkpt lat="45.47417259931506" lon="11.558017987590766"><ele>154.14285714285714</ele><time>2026-03-29T07:06:32.998Z</time></trkpt><trkpt lat="45.47410359866241" lon="11.558054201245907"><ele>157.42857142857142</ele><time>2026-03-29T07:06:36.998Z</time></trkpt><trkpt lat="45.474051366646705" lon="11.558113745634762"><ele>160.7142857142857</ele><time>2026-03-29T07:06:39.998Z</time></trkpt><trkpt lat="45.474001221655676" lon="11.558192007406305"><ele>164.0</ele><time>2026-03-29T07:06:43.998Z</time></trkpt><trkpt lat="45.473943804571" lon="11.558273200845274"><ele>163.99999999999997</ele><time>2026-03-29T07:06:47.998Z</time></trkpt><trkpt lat="45.47392707834346" lon="11.558363790087311"><ele>164.0</ele><time>2026-03-29T07:06:50.998Z</time></trkpt><trkpt lat="45.47390909730367" lon="11.55847352356173"><ele>164.0</ele><time>2026-03-29T07:06:54.998Z</time></trkpt><trkpt lat="45.473863301659286" lon="11.5585510234642"><ele>164.0</ele><time>2026-03-29T07:06:58.998Z</time></trkpt><trkpt lat="45.47384025239687" lon="11.558651476879925"><ele>164.0</ele><time>2026-03-29T07:07:02.998Z</time></trkpt><trkpt lat="45.47382755937622" lon="11.558747616816264"><ele>163.99999999999997</ele><time>2026-03-29T07:07:06.998Z</time></trkpt><trkpt lat="45.47382081379101" lon="11.558856951304406"><ele>164.0</ele><time>2026-03-29T07:07:10.998Z</time></trkpt><trkpt lat="45.473807037748884" lon="11.558963270535394"><ele>165.66666666666666</ele><time>2026-03-29T07:07:13.998Z</time></trkpt><trkpt lat="45.47377405927767" lon="11.559045724176155"><ele>167.33333333333331</ele><time>2026-03-29T07:07:16.997Z</time></trkpt><trkpt lat="45.47370761019854" lon="11.559103409059118"><ele>169.0</ele><time>2026-03-29T07:07:20.997Z</time></trkpt><trkpt lat="45.47364121208674" lon="11.559047612904369"><ele>170.66666666666666</ele><time>2026-03-29T07:07:22.997Z</time></trkpt><trkpt lat="45.473543520959595" lon="11.558963771083377"><ele>172.33333333333334</ele><time>2026-03-29T07:07:25Z</time></trkpt><trkpt lat="45.47348164345447" lon="11.55893593436554"><ele>174.0</ele><time>2026-03-29T07:07:26Z</time></trkpt><trkpt lat="45.47342724209663" lon="11.55886210373209"><ele>170.42857142857142</ele><time>2026-03-29T07:07:27Z</time></trkpt><trkpt lat="45.47336224026979" lon="11.558824007764441"><ele>166.85714285714286</ele><time>2026-03-29T07:07:28Z</time></trkpt><trkpt lat="45.47329803578026" lon="11.558782886217307"><ele>163.28571428571428</ele><time>2026-03-29T07:07:29Z</time></trkpt><trkpt lat="45.473233368967875" lon="11.55874009250598"><ele>159.71428571428572</ele><time>2026-03-29T07:07:30Z</time></trkpt><trkpt lat="45.47317485184222" lon="11.558702567164659"><ele>156.14285714285714</ele><time>2026-03-29T07:07:31Z</time></trkpt><trkpt lat="45.47311636972404" lon="11.558669190732628"><ele>152.57142857142856</ele><time>2026-03-29T07:07:32Z</time></trkpt><trkpt lat="45.473032792912484" lon="11.558614871897651"><ele>149.0</ele><time>2026-03-29T07:07:34Z</time></trkpt><trkpt lat="45.47297785800558" lon="11.558541704243"><ele>149.16666666666666</ele><time>2026-03-29T07:07:37Z</time></trkpt><trkpt lat="45.47292304406346" lon="11.558423323687087"><ele>149.33333333333331</ele><time>2026-03-29T07:07:40Z</time></trkpt><trkpt lat="45.472909803451174" lon="11.558331925844136"><ele>149.5</ele><time>2026-03-29T07:07:43Z</time></trkpt><trkpt lat="45.472890308336815" lon="11.558214292542097"><ele>149.66666666666666</ele><time>2026-03-29T07:07:46Z</time></trkpt><trkpt lat="45.47287573579765" lon="11.558119080126156"><ele>149.83333333333334</ele><time>2026-03-29T07:07:48Z</time></trkpt><trkpt lat="45.47286115657554" lon="11.558023824128295"><ele>150.0</ele><time>2026-03-29T07:07:50Z</time></trkpt><trkpt lat="45.47283612857522" lon="11.55790492395425"><ele>149.99999999999997</ele><time>2026-03-29T07:07:53Z</time></trkpt><trkpt lat="45.472756852079826" lon="11.557918873022015"><ele>150.0</ele><time>2026-03-29T07:07:55Z</time></trkpt><trkpt lat="45.47268798766343" lon="11.55791653661402"><ele>150.0</ele><time>2026-03-29T07:07:58Z</time></trkpt><trkpt lat="45.47260916826386" lon="11.557932562132375"><ele>150.0</ele><time>2026-03-29T07:08:00.999Z</time></trkpt><trkpt lat="45.472540875151616" lon="11.557912414955991"><ele>150.0</ele><time>2026-03-29T07:08:03.999Z</time></trkpt><trkpt lat="45.47247045106483" lon="11.557884632592852"><ele>149.99999999999997</ele><time>2026-03-29T07:08:07.999Z</time></trkpt><trkpt lat="45.47239811825137" lon="11.557860939843675"><ele>150.0</ele><time>2026-03-29T07:08:11.999Z</time></trkpt><trkpt lat="45.47233165267465" lon="11.557837178264897"><ele>150.57142857142856</ele><time>2026-03-29T07:08:15.999Z</time></trkpt><trkpt lat="45.4722652287754" lon="11.557813198476081"><ele>151.14285714285714</ele><time>2026-03-29T07:08:19.999Z</time></trkpt><trkpt lat="45.47220273544431" lon="11.557771986479153"><ele>151.71428571428572</ele><time>2026-03-29T07:08:23.999Z</time></trkpt><trkpt lat="45.472156750102776" lon="11.557694665538776"><ele>152.28571428571428</ele><time>2026-03-29T07:08:27.999Z</time></trkpt><trkpt lat="45.47213307395901" lon="11.557590141199068"><ele>152.85714285714286</ele><time>2026-03-29T07:08:31.999Z</time></trkpt><trkpt lat="45.47211892487357" lon="11.557489538365251"><ele>153.42857142857142</ele><time>2026-03-29T07:08:35.999Z</time></trkpt><trkpt lat="45.47210802870095" lon="11.557380258592435"><ele>154.0</ele><time>2026-03-29T07:08:39.999Z</time></trkpt><trkpt lat="45.472089482483526" lon="11.557272606205736"><ele>156.71428571428572</ele><time>2026-03-29T07:08:43.998Z</time></trkpt><trkpt lat="45.47206223573753" lon="11.557162698119445"><ele>159.42857142857144</ele><time>2026-03-29T07:08:46.998Z</time></trkpt><trkpt lat="45.47200275080246" lon="11.557126502002482"><ele>162.14285714285714</ele><time>2026-03-29T07:08:49.998Z</time></trkpt><trkpt lat="45.471936380293606" lon="11.557112330822388"><ele>164.85714285714286</ele><time>2026-03-29T07:08:53.998Z</time></trkpt><trkpt lat="45.47187695938056" lon="11.557165356393606"><ele>167.57142857142858</ele><time>2026-03-29T07:08:56.998Z</time></trkpt><trkpt lat="45.47179805078546" lon="11.557129061457964"><ele>170.28571428571428</ele><time>2026-03-29T07:09:00.998Z</time></trkpt><trkpt lat="45.471717055944126" lon="11.557133903988243"><ele>173.0</ele><time>2026-03-29T07:09:04.998Z</time></trkpt><trkpt lat="45.471645374686204" lon="11.557129763236118"><ele>173.0</ele><time>2026-03-29T07:09:08.998Z</time></trkpt><trkpt lat="45.47158040504962" lon="11.557119856678172"><ele>173.0</ele><time>2026-03-29T07:09:12.998Z</time></trkpt><trkpt lat="45.47150942701014" lon="11.55717064284611"><ele>173.0</ele><time>2026-03-29T07:09:16.998Z</time></trkpt><trkpt lat="45.471426580159886" lon="11.557225104425632"><ele>173.0</ele><time>2026-03-29T07:09:19.998Z</time></trkpt><trkpt lat="45.471343791140306" lon="11.557295752171681"><ele>173.0</ele><time>2026-03-29T07:09:22.997Z</time></trkpt><trkpt lat="45.471306394946396" lon="11.557383867888559"><ele>173.0</ele><time>2026-03-29T07:09:24.997Z</time></trkpt><trkpt lat="45.47127602734257" lon="11.55747271533913"><ele>179.0</ele><time>2026-03-29T07:09:27.997Z</time></trkpt><trkpt lat="45.471244079667585" lon="11.5575936571704"><ele>185.0</ele><time>2026-03-29T07:09:31Z</time></trkpt><trkpt lat="45.47122636602049" lon="11.557714899309225"><ele>191.0</ele><time>2026-03-29T07:09:34Z</time></trkpt><trkpt lat="45.471218901703324" lon="11.55781261579992"><ele>197.0</ele><time>2026-03-29T07:09:36Z</time></trkpt><trkpt lat="45.47120737464379" lon="11.557903014805792"><ele>203.00000000000003</ele><time>2026-03-29T07:09:38Z</time></trkpt><trkpt lat="45.47121245464275" lon="11.558003547559444"><ele>209.0</ele><time>2026-03-29T07:09:41Z</time></trkpt><trkpt lat="45.47121800827442" lon="11.558105504958078"><ele>209.85714285714286</ele><time>2026-03-29T07:09:44Z</time></trkpt><trkpt lat="45.47122493623699" lon="11.558208402890857"><ele>210.71428571428572</ele><time>2026-03-29T07:09:48Z</time></trkpt><trkpt lat="45.471215226159075" lon="11.558326739450644"><ele>211.57142857142856</ele><time>2026-03-29T07:09:52Z</time></trkpt><trkpt lat="45.4711877795018" lon="11.558425634266289"><ele>212.42857142857144</ele><time>2026-03-29T07:09:55Z</time></trkpt><trkpt lat="45.47118416676618" lon="11.5585194832929"><ele>213.2857142857143</ele><time>2026-03-29T07:09:58Z</time></trkpt><trkpt lat="45.47117451725431" lon="11.558617317911928"><ele>214.14285714285714</ele><time>2026-03-29T07:10:01Z</time></trkpt><trkpt lat="45.471168953681925" lon="11.558727146237306"><ele>215.0</ele><time>2026-03-29T07:10:03.999Z</time></trkpt><trkpt lat="45.471160826357774" lon="11.558831870745546"><ele>215.42857142857142</ele><time>2026-03-29T07:10:07.999Z</time></trkpt><trkpt lat="45.471157970661615" lon="11.558925869696274"><ele>215.85714285714286</ele><time>2026-03-29T07:10:10.999Z</time></trkpt><trkpt lat="45.47116655721542" lon="11.559042584778503"><ele>216.28571428571428</ele><time>2026-03-29T07:10:14.999Z</time></trkpt><trkpt lat="45.47114509221115" lon="11.559139163782886"><ele>216.71428571428572</ele><time>2026-03-29T07:10:17.999Z</time></trkpt><trkpt lat="45.4711227580249" lon="11.559240462304826"><ele>217.14285714285717</ele><time>2026-03-29T07:10:20.999Z</time></trkpt><trkpt lat="45.47110768506171" lon="11.559352974143563"><ele>217.57142857142858</ele><time>2026-03-29T07:10:23.999Z</time></trkpt><trkpt lat="45.47109900004052" lon="11.559458030522782"><ele>218.0</ele><time>2026-03-29T07:10:27.999Z</time></trkpt><trkpt lat="45.47110884506542" lon="11.559574066782094"><ele>218.0</ele><time>2026-03-29T07:10:31.999Z</time></trkpt><trkpt lat="45.47111298050568" lon="11.559664862530749"><ele>218.0</ele><time>2026-03-29T07:10:34.999Z</time></trkpt><trkpt lat="45.471094592280565" lon="11.559756313960476"><ele>218.0</ele><time>2026-03-29T07:10:37.999Z</time></trkpt><trkpt lat="45.47109591069788" lon="11.559850029937559"><ele>218.0</ele><time>2026-03-29T07:10:40.999Z</time></trkpt><trkpt lat="45.47107501140998" lon="11.559965325867722"><ele>218.0</ele><time>2026-03-29T07:10:44.998Z</time></trkpt><trkpt lat="45.47107303194758" lon="11.560056449871038"><ele>218.0</ele><time>2026-03-29T07:10:47.998Z</time></trkpt><trkpt lat="45.47105355871508" lon="11.560153422514615"><ele>218.0</ele><time>2026-03-29T07:10:50.998Z</time></trkpt><trkpt lat="45.47101922519801" lon="11.560239173081298"><ele>218.0</ele><time>2026-03-29T07:10:53.998Z</time></trkpt><trkpt lat="45.47098238837381" lon="11.560318628238106"><ele>218.0</ele><time>2026-03-29T07:10:56.998Z</time></trkpt><trkpt lat="45.47094957718389" lon="11.560408706135942"><ele>218.0</ele><time>2026-03-29T07:10:59.998Z</time></trkpt><trkpt lat="45.47090535568505" lon="11.560489482429915"><ele>218.0</ele><time>2026-03-29T07:11:02.998Z</time></trkpt><trkpt lat="45.47086566744356" lon="11.560559408091526"><ele>218.0</ele><time>2026-03-29T07:11:04.998Z</time></trkpt><trkpt lat="45.470809905402284" lon="11.560615452237096"><ele>218.0</ele><time>2026-03-29T07:11:06.998Z</time></trkpt><trkpt lat="45.47074541912556" lon="11.560650587535175"><ele>218.0</ele><time>2026-03-29T07:11:08.998Z</time></trkpt><trkpt lat="45.47068852521759" lon="11.56069097893114"><ele>218.50000000000003</ele><time>2026-03-29T07:11:11.998Z</time></trkpt><trkpt lat="45.47061079638988" lon="11.560713587758327"><ele>219.0</ele><time>2026-03-29T07:11:15.998Z</time></trkpt><trkpt lat="45.47054775863108" lon="11.560754832757473"><ele>219.5</ele><time>2026-03-29T07:12:17.999Z</time></trkpt><trkpt lat="45.47045064123857" lon="11.560721910276367"><ele>220.0</ele><time>2026-03-29T07:12:21.999Z</time></trkpt><trkpt lat="45.470388254696005" lon="11.560700489265646"><ele>220.50000000000003</ele><time>2026-03-29T07:12:24.999Z</time></trkpt><trkpt lat="45.47031973214836" lon="11.560685823679599"><ele>221.0</ele><time>2026-03-29T07:12:28.999Z</time></trkpt><trkpt lat="45.470246412436296" lon="11.560668619406876"><ele>221.00000000000003</ele><time>2026-03-29T07:12:32.999Z</time></trkpt><trkpt lat="45.47017476901414" lon="11.56064341931425"><ele>221.0</ele><time>2026-03-29T07:12:36.999Z</time></trkpt><trkpt lat="45.47010641128971" lon="11.560637548826046"><ele>221.0</ele><time>2026-03-29T07:12:40.999Z</time></trkpt><trkpt lat="45.470032587563736" lon="11.560639071056189"><ele>221.0</ele><time>2026-03-29T07:12:44.999Z</time></trkpt><trkpt lat="45.4699666400224" lon="11.560674743969562"><ele>221.0</ele><time>2026-03-29T07:12:48.999Z</time></trkpt><trkpt lat="45.46989482283103" lon="11.56067223944152"><ele>221.00000000000003</ele><time>2026-03-29T07:12:53.998Z</time></trkpt><trkpt lat="45.46982464720182" lon="11.560679776609645"><ele>221.0</ele><time>2026-03-29T07:12:57.998Z</time></trkpt><trkpt lat="45.469753294938165" lon="11.56069542171433"><ele>221.00000000000003</ele><time>2026-03-29T07:13:01.998Z</time></trkpt><trkpt lat="45.46968291193999" lon="11.560724149720032"><ele>221.0</ele><time>2026-03-29T07:13:05.998Z</time></trkpt><trkpt lat="45.46961539448796" lon="11.560762193624846"><ele>221.0</ele><time>2026-03-29T07:13:09.998Z</time></trkpt><trkpt lat="45.46954477577362" lon="11.560810123985684"><ele>221.0</ele><time>2026-03-29T07:13:13.998Z</time></trkpt><trkpt lat="45.469471507377726" lon="11.560858732500632"><ele>221.00000000000003</ele><time>2026-03-29T07:13:17.998Z</time></trkpt><trkpt lat="45.469402031533775" lon="11.560924342127489"><ele>221.0</ele><time>2026-03-29T07:13:21.998Z</time></trkpt><trkpt lat="45.46934555608839" lon="11.560969120350213"><ele>222.14285714285717</ele><time>2026-03-29T07:13:24.998Z</time></trkpt><trkpt lat="45.46927607728331" lon="11.561028575194479"><ele>223.28571428571428</ele><time>2026-03-29T07:13:28.998Z</time></trkpt><trkpt lat="45.46922239981728" lon="11.561101952565435"><ele>224.42857142857144</ele><time>2026-03-29T07:13:32.997Z</time></trkpt><trkpt lat="45.46916189278266" lon="11.561147682043206"><ele>225.57142857142858</ele><time>2026-03-29T07:13:36.997Z</time></trkpt><trkpt lat="45.469097833385156" lon="11.561184669279823"><ele>226.71428571428572</ele><time>2026-03-29T07:13:42Z</time></trkpt><trkpt lat="45.46903617160211" lon="11.561210649886748"><ele>227.85714285714286</ele><time>2026-03-29T07:13:46Z</time></trkpt><trkpt lat="45.46897876650164" lon="11.561251174885331"><ele>229.0</ele><time>2026-03-29T07:13:50Z</time></trkpt><trkpt lat="45.468914685249224" lon="11.561277748764955"><ele>229.0</ele><time>2026-03-29T07:13:54Z</time></trkpt><trkpt lat="45.46884475658256" lon="11.561288082717756"><ele>229.0</ele><time>2026-03-29T07:13:58Z</time></trkpt><trkpt lat="45.46878088103501" lon="11.561270035162865"><ele>229.0</ele><time>2026-03-29T07:14:02Z</time></trkpt><trkpt lat="45.46871867877756" lon="11.561242072826477"><ele>229.0</ele><time>2026-03-29T07:14:06Z</time></trkpt><trkpt lat="45.468655022308745" lon="11.561188180131188"><ele>229.0</ele><time>2026-03-29T07:14:10Z</time></trkpt><trkpt lat="45.46860317719477" lon="11.561120300093373"><ele>229.0</ele><time>2026-03-29T07:14:14Z</time></trkpt><trkpt lat="45.46856235508626" lon="11.561035444619893"><ele>229.0</ele><time>2026-03-29T07:14:17.999Z</time></trkpt><trkpt lat="45.46851950715422" lon="11.560955332927314"><ele>230.16666666666666</ele><time>2026-03-29T07:14:21.999Z</time></trkpt><trkpt lat="45.46847317737503" lon="11.560891962337264"><ele>231.33333333333331</ele><time>2026-03-29T07:14:26.999Z</time></trkpt><trkpt lat="45.46840314438174" lon="11.560840300200137"><ele>232.5</ele><time>2026-03-29T07:14:50.999Z</time></trkpt><trkpt lat="45.46830975787323" lon="11.560778978706246"><ele>233.66666666666669</ele><time>2026-03-29T07:14:54.999Z</time></trkpt><trkpt lat="45.46822335437175" lon="11.560702023896024"><ele>234.83333333333334</ele><time>2026-03-29T07:14:56.998Z</time></trkpt><trkpt lat="45.468152166795925" lon="11.560648994098964"><ele>236.0</ele><time>2026-03-29T07:14:58.998Z</time></trkpt><trkpt lat="45.46807493866523" lon="11.56058905355669"><ele>236.0</ele><time>2026-03-29T07:15:00.998Z</time></trkpt><trkpt lat="45.46800313373176" lon="11.560536407818045"><ele>236.0</ele><time>2026-03-29T07:15:02.998Z</time></trkpt><trkpt lat="45.46793252046896" lon="11.560473609607978"><ele>236.0</ele><time>2026-03-29T07:15:04.998Z</time></trkpt><trkpt lat="45.46787281495985" lon="11.560415636096018"><ele>236.0</ele><time>2026-03-29T07:15:06.998Z</time></trkpt><trkpt lat="45.467813522042654" lon="11.56038025976052"><ele>236.0</ele><time>2026-03-29T07:15:09.998Z</time></trkpt><trkpt lat="45.4677506122783" lon="11.560351787760208"><ele>236.0</ele><time>2026-03-29T07:15:12.998Z</time></trkpt><trkpt lat="45.467688554734686" lon="11.560285315437424"><ele>236.0</ele><time>2026-03-29T07:15:16.998Z</time></trkpt><trkpt lat="45.46763548006618" lon="11.560225418963666"><ele>236.57142857142856</ele><time>2026-03-29T07:15:19.998Z</time></trkpt><trkpt lat="45.46758381760715" lon="11.560165881654926"><ele>237.14285714285717</ele><time>2026-03-29T07:15:22.998Z</time></trkpt><trkpt lat="45.467532275777835" lon="11.560109443733738"><ele>237.71428571428572</ele><time>2026-03-29T07:15:25.998Z</time></trkpt><trkpt lat="45.4674708965194" lon="11.560029889580248"><ele>238.28571428571428</ele><time>2026-03-29T07:15:29.998Z</time></trkpt><trkpt lat="45.46741721507843" lon="11.559973699086864"><ele>238.85714285714283</ele><time>2026-03-29T07:15:32.998Z</time></trkpt><trkpt lat="45.46734790251113" lon="11.559904664246123"><ele>239.42857142857144</ele><time>2026-03-29T07:15:36.997Z</time></trkpt><trkpt lat="45.467298292907344" lon="11.55984382240541"><ele>240.0</ele><time>2026-03-29T07:15:39.997Z</time></trkpt><trkpt lat="45.46724679247191" lon="11.559792023201817"><ele>240.0</ele><time>2026-03-29T07:15:42.997Z</time></trkpt><trkpt lat="45.46717869440613" lon="11.559742704311494"><ele>240.0</ele><time>2026-03-29T07:15:46.997Z</time></trkpt><trkpt lat="45.46711999270725" lon="11.559696582351897"><ele>240.0</ele><time>2026-03-29T07:15:50Z</time></trkpt><trkpt lat="45.46705020812747" lon="11.55964319612795"><ele>240.0</ele><time>2026-03-29T07:15:54Z</time></trkpt><trkpt lat="45.46698514856665" lon="11.559599288758472"><ele>240.0</ele><time>2026-03-29T07:15:58Z</time></trkpt><trkpt lat="45.466917327649305" lon="11.559541892107385"><ele>240.0</ele><time>2026-03-29T07:16:02Z</time></trkpt><trkpt lat="45.46685754934926" lon="11.559490297979064"><ele>240.0</ele><time>2026-03-29T07:16:06Z</time></trkpt><trkpt lat="45.46679127651751" lon="11.55943682294896"><ele>238.42857142857144</ele><time>2026-03-29T07:16:10Z</time></trkpt><trkpt lat="45.466725778046424" lon="11.559396692605214"><ele>236.85714285714283</ele><time>2026-03-29T07:16:14Z</time></trkpt><trkpt lat="45.46665474619496" lon="11.55937701648733"><ele>235.28571428571428</ele><time>2026-03-29T07:16:18Z</time></trkpt><trkpt lat="45.466583735282136" lon="11.559365205426982"><ele>233.71428571428572</ele><time>2026-03-29T07:16:22Z</time></trkpt><trkpt lat="45.466516083893104" lon="11.559397641986278"><ele>232.14285714285717</ele><time>2026-03-29T07:16:25.999Z</time></trkpt><trkpt lat="45.46645082456894" lon="11.559447432928085"><ele>230.57142857142856</ele><time>2026-03-29T07:16:29.999Z</time></trkpt><trkpt lat="45.46639290789426" lon="11.559494420925173"><ele>229.0</ele><time>2026-03-29T07:16:35.999Z</time></trkpt><trkpt lat="45.466330948957896" lon="11.559531938956939"><ele>233.33333333333331</ele><time>2026-03-29T07:16:39.999Z</time></trkpt><trkpt lat="45.466266327123826" lon="11.559606411611654"><ele>237.66666666666666</ele><time>2026-03-29T07:16:43.999Z</time></trkpt><trkpt lat="45.46619743450438" lon="11.559656160810187"><ele>242.0</ele><time>2026-03-29T07:16:46.999Z</time></trkpt><trkpt lat="45.466134455592965" lon="11.559710724487923"><ele>246.33333333333331</ele><time>2026-03-29T07:16:49.999Z</time></trkpt><trkpt lat="45.466068685773486" lon="11.559741514964784"><ele>250.66666666666666</ele><time>2026-03-29T07:16:52.999Z</time></trkpt><trkpt lat="45.466001031100355" lon="11.559787692576323"><ele>255.0</ele><time>2026-03-29T07:16:55.999Z</time></trkpt><trkpt lat="45.4659191665885" lon="11.559831738304956"><ele>255.0</ele><time>2026-03-29T07:16:58.999Z</time></trkpt><trkpt lat="45.4658508418156" lon="11.559871971796062"><ele>255.0</ele><time>2026-03-29T07:17:01.999Z</time></trkpt><trkpt lat="45.46577935367465" lon="11.559898196396576"><ele>255.0</ele><time>2026-03-29T07:17:04.998Z</time></trkpt><trkpt lat="45.465713493994485" lon="11.55993535126687"><ele>255.0</ele><time>2026-03-29T07:17:07.998Z</time></trkpt><trkpt lat="45.46563644291356" lon="11.559974565099877"><ele>255.0</ele><time>2026-03-29T07:17:10.998Z</time></trkpt><trkpt lat="45.465565088081306" lon="11.560018695893191"><ele>255.0</ele><time>2026-03-29T07:17:13.998Z</time></trkpt><trkpt lat="45.465495091240534" lon="11.560039821783322"><ele>255.2857142857143</ele><time>2026-03-29T07:17:16.998Z</time></trkpt><trkpt lat="45.46542309530855" lon="11.560061586499284"><ele>255.5714285714286</ele><time>2026-03-29T07:17:19.998Z</time></trkpt><trkpt lat="45.46535617542544" lon="11.56008878106246"><ele>255.85714285714286</ele><time>2026-03-29T07:17:22.998Z</time></trkpt><trkpt lat="45.465284741788366" lon="11.560109461046208"><ele>256.14285714285717</ele><time>2026-03-29T07:17:25.998Z</time></trkpt><trkpt lat="45.46522181133756" lon="11.560137498642577"><ele>256.42857142857144</ele><time>2026-03-29T07:17:28.998Z</time></trkpt><trkpt lat="45.46515970218019" lon="11.560180894784068"><ele>256.7142857142857</ele><time>2026-03-29T07:17:32.998Z</time></trkpt><trkpt lat="45.465064868192854" lon="11.560161270146681"><ele>257.0</ele><time>2026-03-29T07:17:36.998Z</time></trkpt><trkpt lat="45.464987007201316" lon="11.560122676093505"><ele>257.0</ele><time>2026-03-29T07:17:39.998Z</time></trkpt><trkpt lat="45.464922492550585" lon="11.560063726743191"><ele>257.0</ele><time>2026-03-29T07:17:42.998Z</time></trkpt><trkpt lat="45.46488948844587" lon="11.559965944721363"><ele>257.0</ele><time>2026-03-29T07:17:45.997Z</time></trkpt><trkpt lat="45.46490798722329" lon="11.55985538803245"><ele>257.0</ele><time>2026-03-29T07:17:47.997Z</time></trkpt><trkpt lat="45.46493638566277" lon="11.559764249463875"><ele>257.0</ele><time>2026-03-29T07:17:49.997Z</time></trkpt><trkpt lat="45.464938706836904" lon="11.559651103856773"><ele>257.0</ele><time>2026-03-29T07:17:51.997Z</time></trkpt><trkpt lat="45.46495944721618" lon="11.55954191116996"><ele>256.1666666666667</ele><time>2026-03-29T07:17:54Z</time></trkpt><trkpt lat="45.46499125826715" lon="11.559438888030863"><ele>255.33333333333334</ele><time>2026-03-29T07:17:56Z</time></trkpt><trkpt lat="45.46499015309089" lon="11.559310355715454"><ele>254.5</ele><time>2026-03-29T07:17:58Z</time></trkpt><trkpt lat="45.46500961991038" lon="11.559167253564906"><ele>253.66666666666669</ele><time>2026-03-29T07:18:00Z</time></trkpt><trkpt lat="45.46499764279698" lon="11.55905163661547"><ele>252.83333333333334</ele><time>2026-03-29T07:18:02Z</time></trkpt><trkpt lat="45.46498980378744" lon="11.558946958221929"><ele>252.0</ele><time>2026-03-29T07:18:04Z</time></trkpt><trkpt lat="45.46499023541851" lon="11.558811979898504"><ele>252.0</ele><time>2026-03-29T07:18:06Z</time></trkpt><trkpt lat="45.4649678058385" lon="11.558720267637321"><ele>252.0</ele><time>2026-03-29T07:18:08Z</time></trkpt><trkpt lat="45.46495683554337" lon="11.558625638448047"><ele>252.0</ele><time>2026-03-29T07:18:13Z</time></trkpt><trkpt lat="45.464911228183674" lon="11.558518755047386"><ele>252.0</ele><time>2026-03-29T07:18:17Z</time></trkpt><trkpt lat="45.4648864209291" lon="11.55842537824091"><ele>252.0</ele><time>2026-03-29T07:18:19Z</time></trkpt><trkpt lat="45.464850976101985" lon="11.558341843528128"><ele>252.0</ele><time>2026-03-29T07:18:22Z</time></trkpt><trkpt lat="45.46480236810524" lon="11.558249003642992"><ele>252.0</ele><time>2026-03-29T07:18:26Z</time></trkpt><trkpt lat="45.464766779259435" lon="11.558174931459845"><ele>251.42857142857144</ele><time>2026-03-29T07:18:28.999Z</time></trkpt><trkpt lat="45.46471220681906" lon="11.558094866755518"><ele>250.85714285714286</ele><time>2026-03-29T07:18:32.999Z</time></trkpt><trkpt lat="45.464670509575576" lon="11.558014086464839"><ele>250.28571428571428</ele><time>2026-03-29T07:18:36.999Z</time></trkpt><trkpt lat="45.464618693907" lon="11.557925312985596"><ele>249.71428571428572</ele><time>2026-03-29T07:18:40.999Z</time></trkpt><trkpt lat="45.464574036962496" lon="11.557859339172833"><ele>249.14285714285717</ele><time>2026-03-29T07:18:44.999Z</time></trkpt><trkpt lat="45.4645218327499" lon="11.557794808297272"><ele>248.57142857142858</ele><time>2026-03-29T07:18:48.999Z</time></trkpt><trkpt lat="45.46446803454747" lon="11.55773564280217"><ele>248.0</ele><time>2026-03-29T07:18:51.999Z</time></trkpt><trkpt lat="45.46441257606801" lon="11.557680244558751"><ele>250.71428571428572</ele><time>2026-03-29T07:18:55.999Z</time></trkpt><trkpt lat="45.46436308144101" lon="11.557620027575714"><ele>253.42857142857144</ele><time>2026-03-29T07:18:59.999Z</time></trkpt><trkpt lat="45.46431980683884" lon="11.557533753841533"><ele>256.14285714285717</ele><time>2026-03-29T07:19:04.999Z</time></trkpt><trkpt lat="45.46427916429023" lon="11.557459941636807"><ele>258.8571428571429</ele><time>2026-03-29T07:19:07.998Z</time></trkpt><trkpt lat="45.46423998659279" lon="11.55738335370533"><ele>261.57142857142856</ele><time>2026-03-29T07:19:10.998Z</time></trkpt><trkpt lat="45.46421036816353" lon="11.557299478865147"><ele>264.28571428571433</ele><time>2026-03-29T07:19:13.998Z</time></trkpt><trkpt lat="45.4641800650099" lon="11.557196594763552"><ele>267.0</ele><time>2026-03-29T07:19:16.998Z</time></trkpt><trkpt lat="45.46417730479895" lon="11.55708743892746"><ele>266.8571428571429</ele><time>2026-03-29T07:19:20.998Z</time></trkpt><trkpt lat="45.464195321355696" lon="11.556994179560302"><ele>266.7142857142857</ele><time>2026-03-29T07:19:24.998Z</time></trkpt><trkpt lat="45.464224628185036" lon="11.55689976438068"><ele>266.57142857142856</ele><time>2026-03-29T07:19:28.998Z</time></trkpt><trkpt lat="45.46425119893518" lon="11.556800304718353"><ele>266.42857142857144</ele><time>2026-03-29T07:19:32.998Z</time></trkpt><trkpt lat="45.4642739191619" lon="11.556692492975523"><ele>266.2857142857143</ele><time>2026-03-29T07:19:36.998Z</time></trkpt><trkpt lat="45.46427990097081" lon="11.556596608034646"><ele>266.14285714285717</ele><time>2026-03-29T07:19:39.998Z</time></trkpt><trkpt lat="45.46428926176913" lon="11.556499294787338"><ele>266.0</ele><time>2026-03-29T07:19:42.998Z</time></trkpt><trkpt lat="45.464300849079365" lon="11.556395746692724"><ele>266.0</ele><time>2026-03-29T07:19:45.998Z</time></trkpt><trkpt lat="45.46430727291459" lon="11.556294453994612"><ele>266.0</ele><time>2026-03-29T07:19:48.997Z</time></trkpt><trkpt lat="45.464335457613345" lon="11.556191935312718"><ele>266.0</ele><time>2026-03-29T07:19:52.997Z</time></trkpt><trkpt lat="45.464359495318966" lon="11.556083661068902"><ele>266.0</ele><time>2026-03-29T07:19:55.997Z</time></trkpt><trkpt lat="45.46438344935473" lon="11.555987699119134"><ele>266.0</ele><time>2026-03-29T07:20:00Z</time></trkpt><trkpt lat="45.46440304757107" lon="11.555861146269375"><ele>266.0</ele><time>2026-03-29T07:20:04Z</time></trkpt><trkpt lat="45.46446023216761" lon="11.555782380136412"><ele>266.1666666666667</ele><time>2026-03-29T07:20:07Z</time></trkpt><trkpt lat="45.46450290607916" lon="11.555697782949187"><ele>266.33333333333337</ele><time>2026-03-29T07:20:11Z</time></trkpt><trkpt lat="45.46453241658815" lon="11.555611661302057"><ele>266.5</ele><time>2026-03-29T07:20:15Z</time></trkpt><trkpt lat="45.46455592070956" lon="11.555500238893313"><ele>266.6666666666667</ele><time>2026-03-29T07:20:19Z</time></trkpt><trkpt lat="45.4645615214577" lon="11.55538914102592"><ele>266.8333333333333</ele><time>2026-03-29T07:20:24Z</time></trkpt><trkpt lat="45.46455638859315" lon="11.555282449453852"><ele>267.0</ele><time>2026-03-29T07:20:29Z</time></trkpt><trkpt lat="45.46454979856998" lon="11.55517652659248"><ele>266.0</ele><time>2026-03-29T07:20:32.999Z</time></trkpt><trkpt lat="45.464555529048525" lon="11.555076965218833"><ele>265.0</ele><time>2026-03-29T07:20:35.999Z</time></trkpt><trkpt lat="45.46455111289363" lon="11.554959121408332"><ele>264.0</ele><time>2026-03-29T07:20:37.999Z</time></trkpt><trkpt lat="45.46454064324248" lon="11.5548498763616"><ele>263.0</ele><time>2026-03-29T07:20:40.999Z</time></trkpt><trkpt lat="45.464507167160185" lon="11.554713235106469"><ele>262.0</ele><time>2026-03-29T07:20:42.999Z</time></trkpt><trkpt lat="45.464463180584865" lon="11.554648783002365"><ele>261.0</ele><time>2026-03-29T07:20:44.999Z</time></trkpt><trkpt lat="45.4644277208337" lon="11.554569430492323"><ele>258.0</ele><time>2026-03-29T07:20:46.999Z</time></trkpt><trkpt lat="45.46436816318753" lon="11.554474963378889"><ele>255.0</ele><time>2026-03-29T07:20:48.999Z</time></trkpt><trkpt lat="45.464307773364396" lon="11.554423291177962"><ele>252.0</ele><time>2026-03-29T07:20:52.999Z</time></trkpt><trkpt lat="45.46421639175496" lon="11.554397642953973"><ele>249.0</ele><time>2026-03-29T07:20:56.999Z</time></trkpt><trkpt lat="45.46414223405667" lon="11.554362736331308"><ele>246.0</ele><time>2026-03-29T07:20:59.999Z</time></trkpt><trkpt lat="45.46406662578324" lon="11.554334236563157"><ele>243.0</ele><time>2026-03-29T07:21:03.999Z</time></trkpt><trkpt lat="45.46400313660648" lon="11.554308306887938"><ele>243.0</ele><time>2026-03-29T07:21:07.999Z</time></trkpt><trkpt lat="45.46393381107317" lon="11.554287084073342"><ele>243.0</ele><time>2026-03-29T07:21:10.999Z</time></trkpt><trkpt lat="45.463872293347706" lon="11.554232597334419"><ele>243.0</ele><time>2026-03-29T07:21:12.999Z</time></trkpt><trkpt lat="45.46378200134669" lon="11.554214785288924"><ele>243.0</ele><time>2026-03-29T07:21:15.998Z</time></trkpt><trkpt lat="45.46371216048353" lon="11.554204886132146"><ele>243.0</ele><time>2026-03-29T07:21:17.998Z</time></trkpt><trkpt lat="45.46364876776014" lon="11.554196668109507"><ele>243.0</ele><time>2026-03-29T07:21:19.998Z</time></trkpt><trkpt lat="45.46356505952992" lon="11.554184931522038"><ele>243.0</ele><time>2026-03-29T07:21:22.998Z</time></trkpt><trkpt lat="45.46348616017263" lon="11.554181021034088"><ele>243.0</ele><time>2026-03-29T07:21:24.998Z</time></trkpt><trkpt lat="45.463388932852126" lon="11.554201657952545"><ele>243.0</ele><time>2026-03-29T07:21:26.998Z</time></trkpt><trkpt lat="45.46331704246199" lon="11.554220056987901"><ele>243.0</ele><time>2026-03-29T07:21:28.998Z</time></trkpt><trkpt lat="45.463210276273315" lon="11.554250393190646"><ele>243.0</ele><time>2026-03-29T07:21:30.998Z</time></trkpt><trkpt lat="45.46315419730873" lon="11.554311488153155"><ele>243.0</ele><time>2026-03-29T07:21:32.998Z</time></trkpt><trkpt lat="45.46309685938612" lon="11.554358034679824"><ele>243.0</ele><time>2026-03-29T07:21:34.998Z</time></trkpt><trkpt lat="45.46303173776498" lon="11.554422928099989"><ele>243.0</ele><time>2026-03-29T07:21:36.998Z</time></trkpt><trkpt lat="45.462948658590214" lon="11.554512656730488"><ele>243.0</ele><time>2026-03-29T07:21:39.998Z</time></trkpt><trkpt lat="45.46288659688381" lon="11.554620954544724"><ele>243.0</ele><time>2026-03-29T07:21:42.998Z</time></trkpt><trkpt lat="45.46282924215745" lon="11.554706099196745"><ele>243.0</ele><time>2026-03-29T07:21:44.998Z</time></trkpt><trkpt lat="45.46276426785887" lon="11.554820983260287"><ele>243.71428571428572</ele><time>2026-03-29T07:21:47.998Z</time></trkpt><trkpt lat="45.46270224413527" lon="11.554888182648291"><ele>244.42857142857144</ele><time>2026-03-29T07:21:49.998Z</time></trkpt><trkpt lat="45.46261846249183" lon="11.554933190166043"><ele>245.14285714285717</ele><time>2026-03-29T07:21:52.998Z</time></trkpt><trkpt lat="45.4625554180508" lon="11.55497824539644"><ele>245.85714285714286</ele><time>2026-03-29T07:21:55.997Z</time></trkpt><trkpt lat="45.46249016929121" lon="11.554984671202085"><ele>246.5714285714286</ele><time>2026-03-29T07:21:58.997Z</time></trkpt><trkpt lat="45.462420222744356" lon="11.555014450311855"><ele>247.2857142857143</ele><time>2026-03-29T07:22:01.997Z</time></trkpt><trkpt lat="45.462357874059585" lon="11.555038863501874"><ele>248.0</ele><time>2026-03-29T07:22:04.997Z</time></trkpt><trkpt lat="45.46227111132691" lon="11.55508321635985"><ele>248.0</ele><time>2026-03-29T07:22:08Z</time></trkpt><trkpt lat="45.46219304732651" lon="11.555129085186715"><ele>248.00000000000003</ele><time>2026-03-29T07:22:10Z</time></trkpt><trkpt lat="45.46212576498534" lon="11.555177671407407"><ele>248.0</ele><time>2026-03-29T07:22:15Z</time></trkpt><trkpt lat="45.46206211486392" lon="11.555168002779089"><ele>248.0</ele><time>2026-03-29T07:22:19Z</time></trkpt><trkpt lat="45.46203037016639" lon="11.55508778370283"><ele>248.00000000000003</ele><time>2026-03-29T07:22:23Z</time></trkpt><trkpt lat="45.46198408946156" lon="11.555011528801419"><ele>248.0</ele><time>2026-03-29T07:22:40.999Z</time></trkpt><trkpt lat="45.46192739391075" lon="11.554963499290205"><ele>248.0</ele><time>2026-03-29T07:23:03.999Z</time></trkpt><trkpt lat="45.46186226287989" lon="11.554932202260032"><ele>246.42857142857144</ele><time>2026-03-29T07:23:13.999Z</time></trkpt><trkpt lat="45.4617978675837" lon="11.554896328506938"><ele>244.8571428571429</ele><time>2026-03-29T07:23:27.998Z</time></trkpt><trkpt lat="45.46173363285758" lon="11.554881717279835"><ele>243.28571428571428</ele><time>2026-03-29T07:23:36.998Z</time></trkpt><trkpt lat="45.46167001175106" lon="11.554871499933585"><ele>241.71428571428572</ele><time>2026-03-29T07:23:44.998Z</time></trkpt><trkpt lat="45.46160683419455" lon="11.554886143291938"><ele>240.14285714285714</ele><time>2026-03-29T07:23:50.998Z</time></trkpt><trkpt lat="45.46153502672548" lon="11.554882284784066"><ele>238.57142857142856</ele><time>2026-03-29T07:24:10.997Z</time></trkpt><trkpt lat="45.461457898516244" lon="11.55490705657989"><ele>236.99999999999997</ele><time>2026-03-29T07:24:15Z</time></trkpt><trkpt lat="45.46136788188316" lon="11.554946804908596"><ele>236.99999999999997</ele><time>2026-03-29T07:24:18Z</time></trkpt><trkpt lat="45.46129717032156" lon="11.554969601510455"><ele>237.0</ele><time>2026-03-29T07:24:32Z</time></trkpt><trkpt lat="45.4612306731766" lon="11.554994046344808"><ele>236.99999999999997</ele><time>2026-03-29T07:24:37Z</time></trkpt><trkpt lat="45.461159853398684" lon="11.555019825132101"><ele>236.99999999999997</ele><time>2026-03-29T07:24:40Z</time></trkpt><trkpt lat="45.461071476853796" lon="11.55505828722507"><ele>237.0</ele><time>2026-03-29T07:24:43Z</time></trkpt><trkpt lat="45.46100904145007" lon="11.555097621400712"><ele>236.99999999999997</ele><time>2026-03-29T07:24:45Z</time></trkpt><trkpt lat="45.46094147770162" lon="11.555126414026793"><ele>236.99999999999997</ele><time>2026-03-29T07:24:46.999Z</time></trkpt><trkpt lat="45.46086404177226" lon="11.555168883872017"><ele>235.5</ele><time>2026-03-29T07:24:49.999Z</time></trkpt><trkpt lat="45.46078850738137" lon="11.555180224967923"><ele>234.0</ele><time>2026-03-29T07:24:51.999Z</time></trkpt><trkpt lat="45.460718817930164" lon="11.555208739300973"><ele>232.5</ele><time>2026-03-29T07:24:56.999Z</time></trkpt><trkpt lat="45.46066089847707" lon="11.555260212511955"><ele>231.0</ele><time>2026-03-29T07:25:00.999Z</time></trkpt><trkpt lat="45.46057737551988" lon="11.555304065156282"><ele>229.5</ele><time>2026-03-29T07:25:04.999Z</time></trkpt><trkpt lat="45.46051280915259" lon="11.5553595144863"><ele>228.0</ele><time>2026-03-29T07:25:08.999Z</time></trkpt><trkpt lat="45.46043391491098" lon="11.555418955287802"><ele>231.57142857142856</ele><time>2026-03-29T07:25:12.999Z</time></trkpt><trkpt lat="45.46035793958343" lon="11.555474390201761"><ele>235.1428571428571</ele><time>2026-03-29T07:25:17.999Z</time></trkpt><trkpt lat="45.46028618205869" lon="11.555518307414482"><ele>238.71428571428572</ele><time>2026-03-29T07:25:21.999Z</time></trkpt><trkpt lat="45.46022595471249" lon="11.555547288730732"><ele>242.28571428571428</ele><time>2026-03-29T07:25:24.999Z</time></trkpt><trkpt lat="45.46014878971573" lon="11.555560432551898"><ele>245.85714285714286</ele><time>2026-03-29T07:25:27.998Z</time></trkpt><trkpt lat="45.4600780488404" lon="11.555582096944047"><ele>249.42857142857144</ele><time>2026-03-29T07:25:30.998Z</time></trkpt><trkpt lat="45.46000915136554" lon="11.555612671197686"><ele>253.00000000000003</ele><time>2026-03-29T07:25:33.998Z</time></trkpt><trkpt lat="45.45994131873368" lon="11.555637989164966"><ele>253.00000000000003</ele><time>2026-03-29T07:25:37.998Z</time></trkpt><trkpt lat="45.45987573098529" lon="11.555647599735055"><ele>253.0</ele><time>2026-03-29T07:25:40.998Z</time></trkpt><trkpt lat="45.45979566126331" lon="11.555689638895696"><ele>253.00000000000003</ele><time>2026-03-29T07:25:44.998Z</time></trkpt><trkpt lat="45.45972639729916" lon="11.555729421780978"><ele>253.00000000000003</ele><time>2026-03-29T07:25:49.998Z</time></trkpt><trkpt lat="45.459665765264084" lon="11.555760314686777"><ele>253.0</ele><time>2026-03-29T07:25:53.998Z</time></trkpt><trkpt lat="45.459611268099884" lon="11.555710775559806"><ele>253.00000000000003</ele><time>2026-03-29T07:25:56.998Z</time></trkpt><trkpt lat="45.45963012199239" lon="11.555610805294279"><ele>253.00000000000003</ele><time>2026-03-29T07:26:00.998Z</time></trkpt><trkpt lat="45.45966662937962" lon="11.555528972833017"><ele>252.99999999999997</ele><time>2026-03-29T07:26:07.997Z</time></trkpt><trkpt lat="45.45971475182312" lon="11.555429107221208"><ele>253.0</ele><time>2026-03-29T07:26:15.997Z</time></trkpt><trkpt lat="45.45975969209659" lon="11.5553649294079"><ele>253.0</ele><time>2026-03-29T07:26:18Z</time></trkpt><trkpt lat="45.459795301969365" lon="11.55525844278919"><ele>253.0</ele><time>2026-03-29T07:26:21Z</time></trkpt><trkpt lat="45.459828596174056" lon="11.555154701919898"><ele>252.99999999999997</ele><time>2026-03-29T07:26:23Z</time></trkpt><trkpt lat="45.45988168428923" lon="11.555072751956256"><ele>253.0</ele><time>2026-03-29T07:26:25Z</time></trkpt><trkpt lat="45.459921127418475" lon="11.554975917785857"><ele>254.00000000000003</ele><time>2026-03-29T07:26:28Z</time></trkpt><trkpt lat="45.45984792676384" lon="11.554944462140185"><ele>255.0</ele><time>2026-03-29T07:26:31Z</time></trkpt><trkpt lat="45.459803978022144" lon="11.554876067393417"><ele>256.0</ele><time>2026-03-29T07:26:34Z</time></trkpt><trkpt lat="45.45974459629121" lon="11.55483140481607"><ele>257.0</ele><time>2026-03-29T07:26:36Z</time></trkpt><trkpt lat="45.45969094098072" lon="11.554748997409295"><ele>258.0</ele><time>2026-03-29T07:26:40Z</time></trkpt><trkpt lat="45.4596335167127" lon="11.55468097527852"><ele>259.00000000000006</ele><time>2026-03-29T07:26:44Z</time></trkpt><trkpt lat="45.45959686135767" lon="11.554596626910937"><ele>260.0</ele><time>2026-03-29T07:26:48Z</time></trkpt><trkpt lat="45.45956078732817" lon="11.554505092537575"><ele>260.0</ele><time>2026-03-29T07:26:52.999Z</time></trkpt><trkpt lat="45.459499671792024" lon="11.55447422314454"><ele>260.0</ele><time>2026-03-29T07:26:56.999Z</time></trkpt><trkpt lat="45.459442685824186" lon="11.554533837555516"><ele>260.0</ele><time>2026-03-29T07:27:02.999Z</time></trkpt><trkpt lat="45.45948314412883" lon="11.554634063434156"><ele>260.0</ele><time>2026-03-29T07:27:07.999Z</time></trkpt><trkpt lat="45.45952481020998" lon="11.55473473973969"><ele>260.0</ele><time>2026-03-29T07:27:12.999Z</time></trkpt><trkpt lat="45.45956503107565" lon="11.554820107080793"><ele>260.0</ele><time>2026-03-29T07:27:17.999Z</time></trkpt><trkpt lat="45.459609931873935" lon="11.554920318499454"><ele>260.00000000000006</ele><time>2026-03-29T07:27:22.999Z</time></trkpt><trkpt lat="45.45964378125572" lon="11.555010861834981"><ele>260.0</ele><time>2026-03-29T07:27:26.999Z</time></trkpt><trkpt lat="45.45966686211668" lon="11.555108432247112"><ele>260.0</ele><time>2026-03-29T07:27:30.998Z</time></trkpt><trkpt lat="45.45966425341639" lon="11.555205918310994"><ele>260.0</ele><time>2026-03-29T07:27:35.998Z</time></trkpt><trkpt lat="45.4596373560873" lon="11.555298437217017"><ele>260.0</ele><time>2026-03-29T07:27:38.998Z</time></trkpt><trkpt lat="45.45957873988176" lon="11.555358694884552"><ele>260.00000000000006</ele><time>2026-03-29T07:27:42.998Z</time></trkpt><trkpt lat="45.459516415616186" lon="11.555418363200182"><ele>260.0</ele><time>2026-03-29T07:27:46.998Z</time></trkpt><trkpt lat="45.459454677210815" lon="11.555478130937574"><ele>260.14285714285717</ele><time>2026-03-29T07:27:51.998Z</time></trkpt><trkpt lat="45.45939168956453" lon="11.555521753318743"><ele>260.2857142857143</ele><time>2026-03-29T07:27:55.998Z</time></trkpt><trkpt lat="45.45932811203991" lon="11.555583315026093"><ele>260.42857142857144</ele><time>2026-03-29T07:27:59.998Z</time></trkpt><trkpt lat="45.45926912405445" lon="11.555614961993788"><ele>260.57142857142856</ele><time>2026-03-29T07:28:02.998Z</time></trkpt><trkpt lat="45.45920525798025" lon="11.555681201403745"><ele>260.7142857142857</ele><time>2026-03-29T07:28:06.998Z</time></trkpt><trkpt lat="45.459142614128766" lon="11.555742619199213"><ele>260.8571428571429</ele><time>2026-03-29T07:28:10.997Z</time></trkpt><trkpt lat="45.459080034646114" lon="11.555802198000375"><ele>261.0</ele><time>2026-03-29T07:28:15.997Z</time></trkpt><trkpt lat="45.459017545372745" lon="11.555759022627552"><ele>261.0</ele><time>2026-03-29T07:28:19.997Z</time></trkpt><trkpt lat="45.45903280931765" lon="11.555651949247778"><ele>261.0</ele><time>2026-03-29T07:28:25Z</time></trkpt><trkpt lat="45.45908928784868" lon="11.555584669206041"><ele>261.0</ele><time>2026-03-29T07:28:29Z</time></trkpt><trkpt lat="45.45915632117626" lon="11.555524067917272"><ele>261.0</ele><time>2026-03-29T07:28:33Z</time></trkpt><trkpt lat="45.459214324044574" lon="11.555463792782588"><ele>261.0</ele><time>2026-03-29T07:28:37Z</time></trkpt><trkpt lat="45.45926473941827" lon="11.555392684078653"><ele>261.0</ele><time>2026-03-29T07:28:41Z</time></trkpt><trkpt lat="45.459302985156114" lon="11.555316441122415"><ele>261.0</ele><time>2026-03-29T07:28:45Z</time></trkpt><trkpt lat="45.4592747912735" lon="11.555233931994222"><ele>261.0</ele><time>2026-03-29T07:28:50Z</time></trkpt><trkpt lat="45.45919443900268" lon="11.555240511271734"><ele>261.0</ele><time>2026-03-29T07:28:54Z</time></trkpt><trkpt lat="45.459143461771326" lon="11.555326948552178"><ele>261.0</ele><time>2026-03-29T07:28:57.999Z</time></trkpt><trkpt lat="45.45908721252676" lon="11.555391344268504"><ele>261.0</ele><time>2026-03-29T07:29:01.999Z</time></trkpt><trkpt lat="45.45904141901353" lon="11.555467833418083"><ele>261.0</ele><time>2026-03-29T07:29:05.999Z</time></trkpt><trkpt lat="45.45898382638612" lon="11.555544388642922"><ele>261.0</ele><time>2026-03-29T07:29:09.999Z</time></trkpt><trkpt lat="45.458941883743165" lon="11.555624520466566"><ele>261.0</ele><time>2026-03-29T07:29:13.999Z</time></trkpt><trkpt lat="45.45889027836974" lon="11.555712129092159"><ele>261.0</ele><time>2026-03-29T07:29:17.999Z</time></trkpt><trkpt lat="45.45884779372247" lon="11.555807351291747"><ele>261.0</ele><time>2026-03-29T07:29:21.999Z</time></trkpt><trkpt lat="45.45881614059249" lon="11.555890920572258"><ele>261.0</ele><time>2026-03-29T07:29:24.999Z</time></trkpt><trkpt lat="45.45877527073953" lon="11.555985802623235"><ele>261.0</ele><time>2026-03-29T07:29:28.999Z</time></trkpt><trkpt lat="45.45873683808014" lon="11.556081181540462"><ele>261.0</ele><time>2026-03-29T07:29:32.999Z</time></trkpt><trkpt lat="45.45870974723014" lon="11.556175601074003"><ele>263.3333333333333</ele><time>2026-03-29T07:29:36.998Z</time></trkpt><trkpt lat="45.45868176595362" lon="11.556265546131504"><ele>265.6666666666667</ele><time>2026-03-29T07:29:40.998Z</time></trkpt><trkpt lat="45.45863665145941" lon="11.556349434661712"><ele>268.0</ele><time>2026-03-29T07:29:44.998Z</time></trkpt><trkpt lat="45.45855735769368" lon="11.556448187395683"><ele>270.33333333333337</ele><time>2026-03-29T07:29:48.998Z</time></trkpt><trkpt lat="45.45848866984681" lon="11.556490128436657"><ele>272.6666666666667</ele><time>2026-03-29T07:29:52.998Z</time></trkpt><trkpt lat="45.45842220132673" lon="11.556538426869212"><ele>275.0</ele><time>2026-03-29T07:29:56.998Z</time></trkpt><trkpt lat="45.45835518393822" lon="11.55659586413178"><ele>275.0</ele><time>2026-03-29T07:30:01.998Z</time></trkpt><trkpt lat="45.45828263152104" lon="11.55664891532414"><ele>275.0</ele><time>2026-03-29T07:30:05.998Z</time></trkpt><trkpt lat="45.45821636027622" lon="11.556691593047253"><ele>275.0</ele><time>2026-03-29T07:30:08.998Z</time></trkpt><trkpt lat="45.45813851294488" lon="11.556726015675942"><ele>275.0</ele><time>2026-03-29T07:30:12.998Z</time></trkpt><trkpt lat="45.45806719362596" lon="11.556766962797663"><ele>275.0</ele><time>2026-03-29T07:30:16.998Z</time></trkpt><trkpt lat="45.457996569590954" lon="11.556803646666065"><ele>275.0</ele><time>2026-03-29T07:30:20.997Z</time></trkpt><trkpt lat="45.45792657718515" lon="11.556847290501363"><ele>276.7142857142857</ele><time>2026-03-29T07:30:24.997Z</time></trkpt><trkpt lat="45.457855926701214" lon="11.556880910621082"><ele>278.42857142857144</ele><time>2026-03-29T07:30:28.997Z</time></trkpt><trkpt lat="45.45778758397241" lon="11.556921026425778"><ele>280.1428571428571</ele><time>2026-03-29T07:30:33Z</time></trkpt><trkpt lat="45.457713903843285" lon="11.556938449419942"><ele>281.8571428571429</ele><time>2026-03-29T07:30:37Z</time></trkpt><trkpt lat="45.45765212536281" lon="11.556909526517758"><ele>283.57142857142856</ele><time>2026-03-29T07:30:41Z</time></trkpt><trkpt lat="45.45762551673557" lon="11.556827695039187"><ele>285.2857142857143</ele><time>2026-03-29T07:30:45Z</time></trkpt><trkpt lat="45.45760489531309" lon="11.556719017568073"><ele>287.0</ele><time>2026-03-29T07:30:50Z</time></trkpt><trkpt lat="45.45758591837017" lon="11.556626459907328"><ele>287.0</ele><time>2026-03-29T07:30:54Z</time></trkpt><trkpt lat="45.45757819055819" lon="11.55650958872096"><ele>287.0</ele><time>2026-03-29T07:30:59Z</time></trkpt><trkpt lat="45.45757380008708" lon="11.556398022725151"><ele>287.0</ele><time>2026-03-29T07:31:03.999Z</time></trkpt><trkpt lat="45.45756915769905" lon="11.556298980940172"><ele>287.0</ele><time>2026-03-29T07:31:07.999Z</time></trkpt><trkpt lat="45.457564813486606" lon="11.556207459697841"><ele>287.0</ele><time>2026-03-29T07:31:11.999Z</time></trkpt><trkpt lat="45.457563702403874" lon="11.556097606205924"><ele>287.0</ele><time>2026-03-29T07:31:16.999Z</time></trkpt><trkpt lat="45.45755917212201" lon="11.55599396409094"><ele>287.0</ele><time>2026-03-29T07:31:20.999Z</time></trkpt><trkpt lat="45.45756109612612" lon="11.55588872903936"><ele>287.42857142857144</ele><time>2026-03-29T07:31:24.999Z</time></trkpt><trkpt lat="45.45755633762438" lon="11.555776219849077"><ele>287.8571428571429</ele><time>2026-03-29T07:31:28.999Z</time></trkpt><trkpt lat="45.457541845354235" lon="11.555687295935844"><ele>288.2857142857143</ele><time>2026-03-29T07:31:31.999Z</time></trkpt><trkpt lat="45.457483171438895" lon="11.555630174399884"><ele>288.7142857142857</ele><time>2026-03-29T07:31:36.999Z</time></trkpt><trkpt lat="45.457415062801054" lon="11.555650108801002"><ele>289.14285714285717</ele><time>2026-03-29T07:31:40.999Z</time></trkpt><trkpt lat="45.4573550339411" lon="11.55568658238252"><ele>289.57142857142856</ele><time>2026-03-29T07:31:44.998Z</time></trkpt><trkpt lat="45.457292271350084" lon="11.555701649867261"><ele>290.0</ele><time>2026-03-29T07:31:48.998Z</time></trkpt><trkpt lat="45.45722136901244" lon="11.555698836723487"><ele>290.0</ele><time>2026-03-29T07:31:52.998Z</time></trkpt><trkpt lat="45.45714678237455" lon="11.55566574534644"><ele>290.0</ele><time>2026-03-29T07:31:56.998Z</time></trkpt><trkpt lat="45.45707625111651" lon="11.555623143883734"><ele>290.0</ele><time>2026-03-29T07:32:00.998Z</time></trkpt><trkpt lat="45.45701423538665" lon="11.55559691542115"><ele>290.0</ele><time>2026-03-29T07:32:04.998Z</time></trkpt><trkpt lat="45.45694464490876" lon="11.555548449878266"><ele>290.0</ele><time>2026-03-29T07:32:08.998Z</time></trkpt><trkpt lat="45.456883551655345" lon="11.555501579137788"><ele>290.0</ele><time>2026-03-29T07:32:11.998Z</time></trkpt><trkpt lat="45.45679668324" lon="11.555450444110475"><ele>291.5</ele><time>2026-03-29T07:32:14.998Z</time></trkpt><trkpt lat="45.45671790154523" lon="11.555404421582509"><ele>293.0</ele><time>2026-03-29T07:32:16.998Z</time></trkpt><trkpt lat="45.45665920668424" lon="11.55536150715065"><ele>294.5</ele><time>2026-03-29T07:32:18.998Z</time></trkpt><trkpt lat="45.45658482601653" lon="11.555337544436435"><ele>296.0</ele><time>2026-03-29T07:32:22.997Z</time></trkpt><trkpt lat="45.45651842984141" lon="11.555316301353834"><ele>297.5</ele><time>2026-03-29T07:32:27.997Z</time></trkpt><trkpt lat="45.45642951451551" lon="11.555226573845859"><ele>299.0</ele><time>2026-03-29T07:32:49Z</time></trkpt><trkpt lat="45.456458067407645" lon="11.555142421920577"><ele>299.0</ele><time>2026-03-29T07:32:54Z</time></trkpt><trkpt lat="45.456464485841344" lon="11.555051051496676"><ele>299.0</ele><time>2026-03-29T07:32:57Z</time></trkpt><trkpt lat="45.45646565325506" lon="11.55495477044141"><ele>299.0</ele><time>2026-03-29T07:33:00Z</time></trkpt><trkpt lat="45.45646725771479" lon="11.554846558930889"><ele>299.0</ele><time>2026-03-29T07:33:06Z</time></trkpt><trkpt lat="45.456509788575566" lon="11.554762538957045"><ele>299.0</ele><time>2026-03-29T07:33:09.999Z</time></trkpt><trkpt lat="45.45657307361356" lon="11.554712032764522"><ele>299.0</ele><time>2026-03-29T07:33:11.999Z</time></trkpt><trkpt lat="45.456641142463205" lon="11.554647905308128"><ele>299.0</ele><time>2026-03-29T07:33:14.999Z</time></trkpt><trkpt lat="45.45667542283018" lon="11.554563820966823"><ele>297.1666666666667</ele><time>2026-03-29T07:33:16.999Z</time></trkpt><trkpt lat="45.45673005520608" lon="11.554464658461614"><ele>295.33333333333337</ele><time>2026-03-29T07:33:18.999Z</time></trkpt><trkpt lat="45.456786589988766" lon="11.554410009268347"><ele>293.5</ele><time>2026-03-29T07:33:20.999Z</time></trkpt><trkpt lat="45.45687799624973" lon="11.554379780490134"><ele>291.6666666666667</ele><time>2026-03-29T07:33:22.999Z</time></trkpt><trkpt lat="45.45694333264772" lon="11.554352114725617"><ele>289.8333333333333</ele><time>2026-03-29T07:33:24.999Z</time></trkpt><trkpt lat="45.45702298485129" lon="11.554299208546666"><ele>288.0</ele><time>2026-03-29T07:33:26.999Z</time></trkpt><trkpt lat="45.45703056934258" lon="11.554183856218751"><ele>288.0</ele><time>2026-03-29T07:33:28.999Z</time></trkpt><trkpt lat="45.45698589892866" lon="11.554054175642795"><ele>288.0</ele><time>2026-03-29T07:33:30.999Z</time></trkpt><trkpt lat="45.456951577447335" lon="11.55397158294219"><ele>288.0</ele><time>2026-03-29T07:33:32.999Z</time></trkpt><trkpt lat="45.45688395589098" lon="11.553887986729919"><ele>288.0</ele><time>2026-03-29T07:33:34.999Z</time></trkpt><trkpt lat="45.456776698290035" lon="11.553870951051854"><ele>288.0</ele><time>2026-03-29T07:33:36.999Z</time></trkpt><trkpt lat="45.45670332464287" lon="11.553867696372237"><ele>288.0</ele><time>2026-03-29T07:33:38.999Z</time></trkpt><trkpt lat="45.456636845909486" lon="11.55385545760677"><ele>288.00000000000006</ele><time>2026-03-29T07:33:42.999Z</time></trkpt><trkpt lat="45.4566029323171" lon="11.553775647141865"><ele>288.0</ele><time>2026-03-29T07:33:44.999Z</time></trkpt><trkpt lat="45.45658984210005" lon="11.553680789804226"><ele>288.0</ele><time>2026-03-29T07:33:47.998Z</time></trkpt><trkpt lat="45.45655500725055" lon="11.553585385131703"><ele>288.0</ele><time>2026-03-29T07:33:51.998Z</time></trkpt><trkpt lat="45.45651829868581" lon="11.55351091773614"><ele>288.0</ele><time>2026-03-29T07:33:54.998Z</time></trkpt><trkpt lat="45.45645221547887" lon="11.553428497095634"><ele>288.00000000000006</ele><time>2026-03-29T07:33:56.998Z</time></trkpt><trkpt lat="45.45639342460399" lon="11.55334999016453"><ele>288.0</ele><time>2026-03-29T07:33:58.998Z</time></trkpt><trkpt lat="45.456320322172225" lon="11.55327710506426"><ele>287.0</ele><time>2026-03-29T07:34:01.998Z</time></trkpt><trkpt lat="45.45625533133824" lon="11.553201757280561"><ele>286.0</ele><time>2026-03-29T07:34:04.998Z</time></trkpt><trkpt lat="45.45620085102641" lon="11.5531511653363"><ele>285.0</ele><time>2026-03-29T07:34:06.998Z</time></trkpt><trkpt lat="45.45615166908641" lon="11.553088887266584"><ele>284.0</ele><time>2026-03-29T07:34:08.998Z</time></trkpt><trkpt lat="45.456087755509245" lon="11.553018131608582"><ele>283.0</ele><time>2026-03-29T07:34:11.998Z</time></trkpt><trkpt lat="45.45599840795462" lon="11.552936546487944"><ele>282.0</ele><time>2026-03-29T07:34:13.998Z</time></trkpt><trkpt lat="45.45592563248632" lon="11.552875036046894"><ele>282.0</ele><time>2026-03-29T07:34:16.998Z</time></trkpt><trkpt lat="45.45585028743743" lon="11.552862506848657"><ele>282.0</ele><time>2026-03-29T07:34:20.998Z</time></trkpt><trkpt lat="45.455788754472565" lon="11.552883657392373"><ele>282.0</ele><time>2026-03-29T07:34:23.998Z</time></trkpt><trkpt lat="45.455688207787325" lon="11.552929621170945"><ele>282.0</ele><time>2026-03-29T07:34:26.998Z</time></trkpt><trkpt lat="45.455600848579074" lon="11.55294118770012"><ele>282.0</ele><time>2026-03-29T07:34:29.997Z</time></trkpt><trkpt lat="45.45553277579723" lon="11.552978981952805"><ele>282.0</ele><time>2026-03-29T07:34:31.997Z</time></trkpt><trkpt lat="45.45545137664631" lon="11.553049880260835"><ele>281.0</ele><time>2026-03-29T07:34:33.997Z</time></trkpt><trkpt lat="45.45537291370144" lon="11.553099020506483"><ele>280.0</ele><time>2026-03-29T07:34:35.997Z</time></trkpt><trkpt lat="45.45529091146898" lon="11.553156458375803"><ele>279.0</ele><time>2026-03-29T07:34:37.997Z</time></trkpt><trkpt lat="45.45522533837868" lon="11.55319611497199"><ele>278.0</ele><time>2026-03-29T07:34:40.997Z</time></trkpt><trkpt lat="45.45513665549859" lon="11.553219318441252"><ele>277.0</ele><time>2026-03-29T07:34:46Z</time></trkpt><trkpt lat="45.455062979827915" lon="11.553256318020653"><ele>276.0</ele><time>2026-03-29T07:34:50Z</time></trkpt><trkpt lat="45.454989595513446" lon="11.553310027730491"><ele>276.0</ele><time>2026-03-29T07:34:54Z</time></trkpt><trkpt lat="45.4549143505047" lon="11.553349229586729"><ele>276.0</ele><time>2026-03-29T07:34:57Z</time></trkpt><trkpt lat="45.45485490990668" lon="11.55337946728067"><ele>276.0</ele><time>2026-03-29T07:34:59Z</time></trkpt><trkpt lat="45.45476748378882" lon="11.553432296749383"><ele>276.0</ele><time>2026-03-29T07:35:02Z</time></trkpt><trkpt lat="45.454677776973526" lon="11.553455596177816"><ele>276.0</ele><time>2026-03-29T07:35:04Z</time></trkpt><trkpt lat="45.45459178762157" lon="11.553467472805368"><ele>276.0</ele><time>2026-03-29T07:35:06Z</time></trkpt><trkpt lat="45.45451049987809" lon="11.55351625568274"><ele>275.8333333333333</ele><time>2026-03-29T07:35:09Z</time></trkpt><trkpt lat="45.45441743043308" lon="11.55356245240759"><ele>275.6666666666667</ele><time>2026-03-29T07:35:12Z</time></trkpt><trkpt lat="45.45433676904111" lon="11.55357504371564"><ele>275.5</ele><time>2026-03-29T07:35:13.999Z</time></trkpt><trkpt lat="45.45424493025878" lon="11.553572246616294"><ele>275.33333333333337</ele><time>2026-03-29T07:35:16.999Z</time></trkpt><trkpt lat="45.454176910977786" lon="11.553592866368467"><ele>275.1666666666667</ele><time>2026-03-29T07:35:18.999Z</time></trkpt><trkpt lat="45.4540861259134" lon="11.553562990151178"><ele>275.0</ele><time>2026-03-29T07:35:20.999Z</time></trkpt><trkpt lat="45.454005983329466" lon="11.553558676449484"><ele>275.0</ele><time>2026-03-29T07:35:23.999Z</time></trkpt><trkpt lat="45.45392225714002" lon="11.553546657033534"><ele>275.0</ele><time>2026-03-29T07:35:26.999Z</time></trkpt><trkpt lat="45.453844509070095" lon="11.55349873673779"><ele>275.0</ele><time>2026-03-29T07:35:29.999Z</time></trkpt><trkpt lat="45.453776627484984" lon="11.553496556239217"><ele>275.0</ele><time>2026-03-29T07:35:32.999Z</time></trkpt><trkpt lat="45.4537125555703" lon="11.553478322746658"><ele>275.0</ele><time>2026-03-29T07:35:34.999Z</time></trkpt><trkpt lat="45.45365025351398" lon="11.553459570122962"><ele>275.0</ele><time>2026-03-29T07:35:36.999Z</time></trkpt><trkpt lat="45.45357234988365" lon="11.553458861325742"><ele>275.0</ele><time>2026-03-29T07:35:38.999Z</time></trkpt><trkpt lat="45.453495520639514" lon="11.553459746293795"><ele>276.57142857142856</ele><time>2026-03-29T07:35:41.999Z</time></trkpt><trkpt lat="45.45343133586488" lon="11.553448260550498"><ele>278.1428571428571</ele><time>2026-03-29T07:35:44.999Z</time></trkpt><trkpt lat="45.45335921525945" lon="11.553444530345292"><ele>279.71428571428567</ele><time>2026-03-29T07:35:47.999Z</time></trkpt><trkpt lat="45.45328382061873" lon="11.553452212811644"><ele>281.2857142857143</ele><time>2026-03-29T07:35:50.999Z</time></trkpt><trkpt lat="45.453204317242076" lon="11.553443216734623"><ele>282.85714285714283</ele><time>2026-03-29T07:35:53.998Z</time></trkpt><trkpt lat="45.453135771560355" lon="11.553449332026933"><ele>284.4285714285714</ele><time>2026-03-29T07:35:56.998Z</time></trkpt><trkpt lat="45.45305945416187" lon="11.553443000089823"><ele>286.0</ele><time>2026-03-29T07:35:59.998Z</time></trkpt><trkpt lat="45.452986335919604" lon="11.553448433887002"><ele>285.2857142857143</ele><time>2026-03-29T07:36:02.998Z</time></trkpt><trkpt lat="45.45290761439438" lon="11.553440895753369"><ele>284.57142857142856</ele><time>2026-03-29T07:36:05.998Z</time></trkpt><trkpt lat="45.452848741860485" lon="11.553476262241512"><ele>283.8571428571429</ele><time>2026-03-29T07:36:08.998Z</time></trkpt><trkpt lat="45.45280082218013" lon="11.553573095661605"><ele>283.1428571428571</ele><time>2026-03-29T07:37:03Z</time></trkpt><trkpt lat="45.45276678399242" lon="11.553677301350543"><ele>282.42857142857144</ele><time>2026-03-29T07:37:05Z</time></trkpt><trkpt lat="45.452733417325305" lon="11.553757414887054"><ele>281.7142857142857</ele><time>2026-03-29T07:37:07Z</time></trkpt><trkpt lat="45.452698440649726" lon="11.553846621265958"><ele>281.0</ele><time>2026-03-29T07:37:11Z</time></trkpt><trkpt lat="45.4526468663958" lon="11.553908297016529"><ele>283.42857142857144</ele><time>2026-03-29T07:37:15Z</time></trkpt><trkpt lat="45.452594988909674" lon="11.55400230693567"><ele>285.8571428571429</ele><time>2026-03-29T07:37:19Z</time></trkpt><trkpt lat="45.4525406871772" lon="11.554050631197809"><ele>288.2857142857143</ele><time>2026-03-29T07:37:22Z</time></trkpt><trkpt lat="45.45249062236041" lon="11.554122106378504"><ele>290.7142857142857</ele><time>2026-03-29T07:37:24.999Z</time></trkpt><trkpt lat="45.45243251268981" lon="11.554176949946775"><ele>293.1428571428571</ele><time>2026-03-29T07:37:27.999Z</time></trkpt><trkpt lat="45.45238133624605" lon="11.554258924654595"><ele>295.57142857142856</ele><time>2026-03-29T07:37:30.999Z</time></trkpt><trkpt lat="45.45233046388375" lon="11.554340392871216"><ele>298.0</ele><time>2026-03-29T07:37:34.999Z</time></trkpt><trkpt lat="45.45227352693853" lon="11.554404898788524"><ele>298.0</ele><time>2026-03-29T07:37:37.999Z</time></trkpt><trkpt lat="45.452211371739644" lon="11.554471820387224"><ele>298.0</ele><time>2026-03-29T07:37:41.999Z</time></trkpt><trkpt lat="45.45214853432823" lon="11.554527814560801"><ele>298.0</ele><time>2026-03-29T07:37:44.999Z</time></trkpt><trkpt lat="45.45208794456547" lon="11.554556446752725"><ele>298.0</ele><time>2026-03-29T07:37:47.999Z</time></trkpt><trkpt lat="45.452009417496996" lon="11.554593255101373"><ele>298.0</ele><time>2026-03-29T07:37:51.999Z</time></trkpt><trkpt lat="45.45192965873595" lon="11.554618751672447"><ele>298.0</ele><time>2026-03-29T07:37:55.999Z</time></trkpt><trkpt lat="45.45186298851398" lon="11.554655350205275"><ele>299.42857142857144</ele><time>2026-03-29T07:37:59.999Z</time></trkpt><trkpt lat="45.45178879500585" lon="11.55469382885603"><ele>300.85714285714283</ele><time>2026-03-29T07:38:03.998Z</time></trkpt><trkpt lat="45.451726788870204" lon="11.554722088186436"><ele>302.2857142857143</ele><time>2026-03-29T07:38:06.998Z</time></trkpt><trkpt lat="45.45165963069969" lon="11.55475073813213"><ele>303.7142857142857</ele><time>2026-03-29T07:38:10.998Z</time></trkpt><trkpt lat="45.45158973321827" lon="11.554772431316891"><ele>305.1428571428571</ele><time>2026-03-29T07:38:14.998Z</time></trkpt><trkpt lat="45.451518616322986" lon="11.554807417981639"><ele>306.57142857142856</ele><time>2026-03-29T07:38:18.998Z</time></trkpt><trkpt lat="45.45145399406211" lon="11.554829615035061"><ele>308.0</ele><time>2026-03-29T07:38:22.998Z</time></trkpt><trkpt lat="45.45137918298683" lon="11.554860916811043"><ele>308.0</ele><time>2026-03-29T07:38:27.998Z</time></trkpt><trkpt lat="45.45131054160343" lon="11.554877579559315"><ele>308.0</ele><time>2026-03-29T07:38:31.998Z</time></trkpt><trkpt lat="45.451246590319236" lon="11.554897651459086"><ele>308.0</ele><time>2026-03-29T07:38:35.998Z</time></trkpt><trkpt lat="45.45117735557597" lon="11.55491377217809"><ele>308.0</ele><time>2026-03-29T07:38:39.998Z</time></trkpt><trkpt lat="45.45110652333686" lon="11.554927933671284"><ele>308.0</ele><time>2026-03-29T07:38:42.998Z</time></trkpt><trkpt lat="45.45103767558184" lon="11.554946878772867"><ele>308.0</ele><time>2026-03-29T07:38:46.997Z</time></trkpt><trkpt lat="45.45096945345886" lon="11.554952457616203"><ele>308.0</ele><time>2026-03-29T07:38:49.997Z</time></trkpt><trkpt lat="45.450900559491856" lon="11.554963514703912"><ele>308.0</ele><time>2026-03-29T07:38:52.997Z</time></trkpt><trkpt lat="45.45082975509095" lon="11.554971662136614"><ele>308.0</ele><time>2026-03-29T07:38:57Z</time></trkpt><trkpt lat="45.45076803342298" lon="11.554989518408563"><ele>308.0</ele><time>2026-03-29T07:39:00Z</time></trkpt><trkpt lat="45.450683382474736" lon="11.555013205348734"><ele>308.0</ele><time>2026-03-29T07:39:05Z</time></trkpt><trkpt lat="45.4506148411096" lon="11.555037196664498"><ele>308.0</ele><time>2026-03-29T07:39:09Z</time></trkpt><trkpt lat="45.45055102146247" lon="11.555074300850539"><ele>308.0</ele><time>2026-03-29T07:39:13Z</time></trkpt><trkpt lat="45.45049496269447" lon="11.555135238667363"><ele>308.0</ele><time>2026-03-29T07:39:17Z</time></trkpt><trkpt lat="45.45048626692018" lon="11.555226098647678"><ele>308.0</ele><time>2026-03-29T07:39:21Z</time></trkpt><trkpt lat="45.45054351773176" lon="11.555290330864823"><ele>308.0</ele><time>2026-03-29T07:39:26Z</time></trkpt><trkpt lat="45.45061673277657" lon="11.555273250166817"><ele>308.0</ele><time>2026-03-29T07:39:29.999Z</time></trkpt><trkpt lat="45.450679756801165" lon="11.555285366901096"><ele>308.0</ele><time>2026-03-29T07:39:34.999Z</time></trkpt><trkpt lat="45.450756098308304" lon="11.55530403798536"><ele>308.0</ele><time>2026-03-29T07:39:38.999Z</time></trkpt><trkpt lat="45.450822937856486" lon="11.555336752380114"><ele>308.0</ele><time>2026-03-29T07:39:43.999Z</time></trkpt><trkpt lat="45.450891591462806" lon="11.555360429277881"><ele>308.0</ele><time>2026-03-29T07:39:47.999Z</time></trkpt><trkpt lat="45.450967490820666" lon="11.555388530098119"><ele>310.85714285714283</ele><time>2026-03-29T07:39:51.999Z</time></trkpt><trkpt lat="45.45102868456026" lon="11.555422609384198"><ele>313.7142857142857</ele><time>2026-03-29T07:39:55.999Z</time></trkpt><trkpt lat="45.451094887091976" lon="11.555469869980994"><ele>316.57142857142856</ele><time>2026-03-29T07:40:00.999Z</time></trkpt><trkpt lat="45.45114835506726" lon="11.555524696437052"><ele>319.42857142857144</ele><time>2026-03-29T07:40:04.999Z</time></trkpt><trkpt lat="45.45119807083902" lon="11.555614224388831"><ele>322.2857142857143</ele><time>2026-03-29T07:40:08.998Z</time></trkpt><trkpt lat="45.45122542836611" lon="11.555714090953707"><ele>325.1428571428571</ele><time>2026-03-29T07:40:12.998Z</time></trkpt><trkpt lat="45.45125050782073" lon="11.555823615364355"><ele>328.0</ele><time>2026-03-29T07:40:15.998Z</time></trkpt><trkpt lat="45.45127146665761" lon="11.555911010786556"><ele>327.66666666666663</ele><time>2026-03-29T07:40:17.998Z</time></trkpt><trkpt lat="45.45132914949792" lon="11.555999159099407"><ele>327.3333333333333</ele><time>2026-03-29T07:40:20.998Z</time></trkpt><trkpt lat="45.45135082393606" lon="11.556110902389232"><ele>327.0</ele><time>2026-03-29T07:40:23.998Z</time></trkpt><trkpt lat="45.45141479616359" lon="11.556135595211416"><ele>326.6666666666667</ele><time>2026-03-29T07:40:27.998Z</time></trkpt><trkpt lat="45.4514738016153" lon="11.556190988398054"><ele>326.33333333333337</ele><time>2026-03-29T07:40:50.997Z</time></trkpt><trkpt lat="45.451535487827265" lon="11.556224152528483"><ele>326.0</ele><time>2026-03-29T07:40:53.997Z</time></trkpt><trkpt lat="45.45162334988233" lon="11.556249141725791"><ele>326.0</ele><time>2026-03-29T07:40:56.997Z</time></trkpt><trkpt lat="45.45169204774759" lon="11.556240149132046"><ele>326.0</ele><time>2026-03-29T07:41:00Z</time></trkpt><trkpt lat="45.45177158322117" lon="11.556219276113982"><ele>326.0</ele><time>2026-03-29T07:41:03Z</time></trkpt><trkpt lat="45.45183712284155" lon="11.556200865057205"><ele>326.0</ele><time>2026-03-29T07:41:06Z</time></trkpt><trkpt lat="45.45191470641331" lon="11.55616432789737"><ele>326.0</ele><time>2026-03-29T07:41:09Z</time></trkpt><trkpt lat="45.45198283697823" lon="11.556143039763047"><ele>326.0</ele><time>2026-03-29T07:41:13Z</time></trkpt><trkpt lat="45.45206606683669" lon="11.556154384121882"><ele>326.6666666666667</ele><time>2026-03-29T07:41:17Z</time></trkpt><trkpt lat="45.452133126106474" lon="11.556183238871732"><ele>327.33333333333337</ele><time>2026-03-29T07:41:20Z</time></trkpt><trkpt lat="45.452206539813055" lon="11.55622406018961"><ele>328.0</ele><time>2026-03-29T07:41:23Z</time></trkpt><trkpt lat="45.45228050587127" lon="11.556264134379296"><ele>328.6666666666667</ele><time>2026-03-29T07:41:26Z</time></trkpt><trkpt lat="45.45234080149218" lon="11.55629950644004"><ele>329.3333333333333</ele><time>2026-03-29T07:41:29Z</time></trkpt><trkpt lat="45.45240908286797" lon="11.556348151332484"><ele>330.0</ele><time>2026-03-29T07:41:33Z</time></trkpt><trkpt lat="45.45248916150647" lon="11.556377452315575"><ele>330.0</ele><time>2026-03-29T07:41:36.999Z</time></trkpt><trkpt lat="45.45255753955371" lon="11.556382757418284"><ele>330.0</ele><time>2026-03-29T07:41:39.999Z</time></trkpt><trkpt lat="45.45264060105117" lon="11.556370750490808"><ele>330.0</ele><time>2026-03-29T07:41:43.999Z</time></trkpt><trkpt lat="45.45271931611039" lon="11.556328008298925"><ele>330.0</ele><time>2026-03-29T07:41:47.999Z</time></trkpt><trkpt lat="45.45278194418712" lon="11.556263868402683"><ele>330.0</ele><time>2026-03-29T07:41:51.999Z</time></trkpt><trkpt lat="45.45282341383097" lon="11.556191383538502"><ele>330.0</ele><time>2026-03-29T07:41:54.999Z</time></trkpt><trkpt lat="45.45286061960533" lon="11.556103008240948"><ele>330.0</ele><time>2026-03-29T07:41:57.999Z</time></trkpt><trkpt lat="45.452898006594324" lon="11.556022307432219"><ele>330.0</ele><time>2026-03-29T07:42:00.999Z</time></trkpt><trkpt lat="45.45294255404394" lon="11.555904937036578"><ele>330.0</ele><time>2026-03-29T07:42:03.999Z</time></trkpt><trkpt lat="45.452993747541605" lon="11.55578868410169"><ele>330.0</ele><time>2026-03-29T07:42:06.999Z</time></trkpt><trkpt lat="45.45302967128784" lon="11.5556936826723"><ele>330.0</ele><time>2026-03-29T07:42:08.999Z</time></trkpt><trkpt lat="45.4530700011662" lon="11.555598844080459"><ele>330.0</ele><time>2026-03-29T07:42:10.999Z</time></trkpt><trkpt lat="45.45312284910254" lon="11.555518772538564"><ele>329.6</ele><time>2026-03-29T07:42:12.999Z</time></trkpt><trkpt lat="45.45319491125041" lon="11.55544746255938"><ele>329.2</ele><time>2026-03-29T07:42:14.998Z</time></trkpt><trkpt lat="45.45329503567488" lon="11.55539558715582"><ele>328.79999999999995</ele><time>2026-03-29T07:42:16.998Z</time></trkpt><trkpt lat="45.453411706459484" lon="11.555366650096584"><ele>328.4</ele><time>2026-03-29T07:42:18.998Z</time></trkpt><trkpt lat="45.45351700750881" lon="11.555368839068533"><ele>328.0</ele><time>2026-03-29T07:42:20.998Z</time></trkpt><trkpt lat="45.45360095692741" lon="11.55542126516997"><ele>330.16666666666663</ele><time>2026-03-29T07:42:22.998Z</time></trkpt><trkpt lat="45.45364479127277" lon="11.555496861789551"><ele>332.3333333333333</ele><time>2026-03-29T07:42:24.998Z</time></trkpt><trkpt lat="45.45367031211981" lon="11.55558129091807"><ele>334.5</ele><time>2026-03-29T07:42:26.998Z</time></trkpt><trkpt lat="45.4536958842452" lon="11.555703598763266"><ele>336.6666666666667</ele><time>2026-03-29T07:42:29.998Z</time></trkpt><trkpt lat="45.45371331941355" lon="11.555825021835032"><ele>338.83333333333337</ele><time>2026-03-29T07:42:32.998Z</time></trkpt><trkpt lat="45.453732889114825" lon="11.5559181687442"><ele>341.0</ele><time>2026-03-29T07:42:35.998Z</time></trkpt><trkpt lat="45.45375910452155" lon="11.556024253902397"><ele>341.0</ele><time>2026-03-29T07:42:39.998Z</time></trkpt><trkpt lat="45.45374902479153" lon="11.556115383122748"><ele>341.0</ele><time>2026-03-29T07:42:44.998Z</time></trkpt><trkpt lat="45.453716582263" lon="11.55621308767711"><ele>341.0</ele><time>2026-03-29T07:42:49.998Z</time></trkpt><trkpt lat="45.45367547878149" lon="11.556285115538474"><ele>341.0</ele><time>2026-03-29T07:42:55.997Z</time></trkpt><trkpt lat="45.4537615671557" lon="11.556203613062184"><ele>341.0</ele><time>2026-03-29T07:43:09Z</time></trkpt><trkpt lat="45.45382493952639" lon="11.556094956854029"><ele>341.0</ele><time>2026-03-29T07:46:45.998Z</time></trkpt><trkpt lat="45.45379299783819" lon="11.55617593790293"><ele>341.0</ele><time>2026-03-29T07:48:34.998Z</time></trkpt><trkpt lat="45.453717458813884" lon="11.556198685077375"><ele>341.0</ele><time>2026-03-29T07:55:15.998Z</time></trkpt><trkpt lat="45.45372844559302" lon="11.55610819452119"><ele>341.0</ele><time>2026-03-29T07:55:20.998Z</time></trkpt><trkpt lat="45.45373468133878" lon="11.556001466609988"><ele>341.0</ele><time>2026-03-29T07:55:23.997Z</time></trkpt><trkpt lat="45.453729254587635" lon="11.555900598715963"><ele>341.0</ele><time>2026-03-29T07:55:25.997Z</time></trkpt><trkpt lat="45.45372416461419" lon="11.555793213989828"><ele>341.0</ele><time>2026-03-29T07:55:48Z</time></trkpt><trkpt lat="45.45369057301048" lon="11.555708570125446"><ele>341.0</ele><time>2026-03-29T07:55:53Z</time></trkpt><trkpt lat="45.453662823312555" lon="11.555608011639476"><ele>341.0</ele><time>2026-03-29T07:55:57Z</time></trkpt><trkpt lat="45.45363087513214" lon="11.555507349202182"><ele>341.0</ele><time>2026-03-29T07:56:02Z</time></trkpt><trkpt lat="45.45358660994562" lon="11.555441996454604"><ele>341.0</ele><time>2026-03-29T07:56:06Z</time></trkpt><trkpt lat="45.45352739905397" lon="11.555400610188624"><ele>341.0</ele><time>2026-03-29T07:56:09Z</time></trkpt><trkpt lat="45.45345525334558" lon="11.555377023946283"><ele>341.0</ele><time>2026-03-29T07:56:11.999Z</time></trkpt><trkpt lat="45.453385604919866" lon="11.555374260448405"><ele>341.0</ele><time>2026-03-29T07:56:14.999Z</time></trkpt><trkpt lat="45.45330946526064" lon="11.555384627285987"><ele>341.0</ele><time>2026-03-29T07:56:17.999Z</time></trkpt><trkpt lat="45.45324484858803" lon="11.555398191599041"><ele>341.0</ele><time>2026-03-29T07:56:20.999Z</time></trkpt><trkpt lat="45.45316717000571" lon="11.555448798332145"><ele>341.0</ele><time>2026-03-29T07:56:23.999Z</time></trkpt><trkpt lat="45.45310746442862" lon="11.555500248440067"><ele>341.0</ele><time>2026-03-29T07:56:26.999Z</time></trkpt><trkpt lat="45.45305104020606" lon="11.555587473579303"><ele>341.0</ele><time>2026-03-29T07:56:29.999Z</time></trkpt><trkpt lat="45.45300021774873" lon="11.5556844838544"><ele>341.0</ele><time>2026-03-29T07:56:32.999Z</time></trkpt><trkpt lat="45.45295178274897" lon="11.555792536383578"><ele>341.0</ele><time>2026-03-29T07:56:35.999Z</time></trkpt><trkpt lat="45.45292190729414" lon="11.555872407596482"><ele>340.33333333333337</ele><time>2026-03-29T07:56:37.999Z</time></trkpt><trkpt lat="45.452888689996854" lon="11.55596512190821"><ele>339.6666666666667</ele><time>2026-03-29T07:56:39.999Z</time></trkpt><trkpt lat="45.45286002176907" lon="11.556052920047282"><ele>339.0</ele><time>2026-03-29T07:56:41.999Z</time></trkpt><trkpt lat="45.45282692179001" lon="11.556141846668345"><ele>338.3333333333333</ele><time>2026-03-29T07:56:43.999Z</time></trkpt><trkpt lat="45.45277721219324" lon="11.55623050481619"><ele>337.66666666666663</ele><time>2026-03-29T07:56:45.999Z</time></trkpt><trkpt lat="45.45271252368378" lon="11.556303238465262"><ele>337.0</ele><time>2026-03-29T07:56:47.999Z</time></trkpt><trkpt lat="45.452633812627" lon="11.55636221229572"><ele>337.0</ele><time>2026-03-29T07:56:49.998Z</time></trkpt><trkpt lat="45.45254177591924" lon="11.556373540993311"><ele>337.0</ele><time>2026-03-29T07:56:51.998Z</time></trkpt><trkpt lat="45.45244728497023" lon="11.556344723783834"><ele>337.0</ele><time>2026-03-29T07:56:53.998Z</time></trkpt><trkpt lat="45.45235239265121" lon="11.556305971272693"><ele>337.0</ele><time>2026-03-29T07:56:55.998Z</time></trkpt><trkpt lat="45.45226223857641" lon="11.55622365248048"><ele>337.0</ele><time>2026-03-29T07:56:57.998Z</time></trkpt><trkpt lat="45.45216334417661" lon="11.556162814995627"><ele>336.8333333333333</ele><time>2026-03-29T07:56:59.998Z</time></trkpt><trkpt lat="45.4520536097676" lon="11.556141802040196"><ele>336.66666666666663</ele><time>2026-03-29T07:57:01.998Z</time></trkpt><trkpt lat="45.45193808508236" lon="11.556147697290255"><ele>336.5</ele><time>2026-03-29T07:57:03.998Z</time></trkpt><trkpt lat="45.45186895392166" lon="11.556152674087192"><ele>336.3333333333333</ele><time>2026-03-29T07:57:04.998Z</time></trkpt><trkpt lat="45.45180322285178" lon="11.556177448696097"><ele>336.1666666666667</ele><time>2026-03-29T07:57:05.998Z</time></trkpt><trkpt lat="45.45173767648374" lon="11.556202153688293"><ele>336.0</ele><time>2026-03-29T07:57:06.998Z</time></trkpt><trkpt lat="45.45167021292295" lon="11.556221358705944"><ele>336.0</ele><time>2026-03-29T07:57:07.998Z</time></trkpt><trkpt lat="45.451600899759526" lon="11.556221642481086"><ele>336.0</ele><time>2026-03-29T07:57:08.998Z</time></trkpt><trkpt lat="45.451527729889044" lon="11.556206935251149"><ele>336.0</ele><time>2026-03-29T07:57:09.998Z</time></trkpt><trkpt lat="45.4514642121396" lon="11.556174068755489"><ele>336.0</ele><time>2026-03-29T07:57:10.998Z</time></trkpt><trkpt lat="45.4513950345069" lon="11.556153420499443"><ele>336.0</ele><time>2026-03-29T07:57:11.998Z</time></trkpt><trkpt lat="45.451350636944795" lon="11.556077769489146"><ele>336.0</ele><time>2026-03-29T07:57:12.998Z</time></trkpt><trkpt lat="45.45127076004357" lon="11.555968958688943"><ele>334.6666666666667</ele><time>2026-03-29T07:57:14.998Z</time></trkpt><trkpt lat="45.451209042292696" lon="11.555899847743094"><ele>333.3333333333333</ele><time>2026-03-29T07:57:16.998Z</time></trkpt><trkpt lat="45.451109985026555" lon="11.555850226520587"><ele>332.0</ele><time>2026-03-29T07:57:18.998Z</time></trkpt><trkpt lat="45.451025716196774" lon="11.555846858835308"><ele>330.66666666666663</ele><time>2026-03-29T07:57:20.998Z</time></trkpt><trkpt lat="45.45094968867311" lon="11.555857573162202"><ele>329.3333333333333</ele><time>2026-03-29T07:57:22.998Z</time></trkpt><trkpt lat="45.45087905213766" lon="11.55589830657984"><ele>328.0</ele><time>2026-03-29T07:57:24.998Z</time></trkpt><trkpt lat="45.45081184080415" lon="11.555891915751035"><ele>328.0</ele><time>2026-03-29T07:57:26.997Z</time></trkpt><trkpt lat="45.4507441277274" lon="11.555910040332666"><ele>328.0</ele><time>2026-03-29T07:57:28.997Z</time></trkpt><trkpt lat="45.45065690009488" lon="11.555960716700836"><ele>328.0</ele><time>2026-03-29T07:57:31.997Z</time></trkpt><trkpt lat="45.450592538266704" lon="11.555981253079057"><ele>328.0</ele><time>2026-03-29T07:57:33.997Z</time></trkpt><trkpt lat="45.45052805586157" lon="11.556006537283624"><ele>328.0</ele><time>2026-03-29T07:57:35.997Z</time></trkpt><trkpt lat="45.45045621584466" lon="11.556019415548349"><ele>328.0</ele><time>2026-03-29T07:57:37.997Z</time></trkpt><trkpt lat="45.45036923657645" lon="11.556095009804494"><ele>326.8333333333333</ele><time>2026-03-29T07:57:40.997Z</time></trkpt><trkpt lat="45.450300751961954" lon="11.556128526177375"><ele>325.66666666666663</ele><time>2026-03-29T07:57:42.997Z</time></trkpt><trkpt lat="45.45023731468055" lon="11.556189200342509"><ele>324.5</ele><time>2026-03-29T07:57:44.997Z</time></trkpt><trkpt lat="45.45018105343025" lon="11.556255198417427"><ele>323.3333333333333</ele><time>2026-03-29T07:57:46.997Z</time></trkpt><trkpt lat="45.45013153660973" lon="11.556325328652221"><ele>322.1666666666667</ele><time>2026-03-29T07:57:49Z</time></trkpt><trkpt lat="45.45007145757246" lon="11.556403045333324"><ele>321.0</ele><time>2026-03-29T07:57:51Z</time></trkpt><trkpt lat="45.45000745742375" lon="11.556495174497377"><ele>321.20000000000005</ele><time>2026-03-29T07:57:53Z</time></trkpt><trkpt lat="45.44992866796347" lon="11.556601503893067"><ele>321.40000000000003</ele><time>2026-03-29T07:57:55Z</time></trkpt><trkpt lat="45.44984622527285" lon="11.5567024567166"><ele>321.6</ele><time>2026-03-29T07:57:57Z</time></trkpt><trkpt lat="45.44975178510926" lon="11.556796434060583"><ele>321.8</ele><time>2026-03-29T07:57:59Z</time></trkpt><trkpt lat="45.44966676884936" lon="11.556882988208327"><ele>322.0</ele><time>2026-03-29T07:58:01Z</time></trkpt><trkpt lat="45.449585583545684" lon="11.556947396789111"><ele>322.0</ele><time>2026-03-29T07:58:03Z</time></trkpt><trkpt lat="45.4494873462665" lon="11.557014508989832"><ele>322.0</ele><time>2026-03-29T07:58:05Z</time></trkpt><trkpt lat="45.449400161635474" lon="11.557067909509223"><ele>322.0</ele><time>2026-03-29T07:58:07Z</time></trkpt><trkpt lat="45.449315362107804" lon="11.557122723867076"><ele>322.0</ele><time>2026-03-29T07:58:09Z</time></trkpt><trkpt lat="45.449245097342946" lon="11.557173929977578"><ele>322.0</ele><time>2026-03-29T07:58:11Z</time></trkpt><trkpt lat="45.44916768499037" lon="11.557222006797558"><ele>323.66666666666663</ele><time>2026-03-29T07:58:13Z</time></trkpt><trkpt lat="45.44910321264895" lon="11.55730843415215"><ele>325.3333333333333</ele><time>2026-03-29T07:58:15Z</time></trkpt><trkpt lat="45.44905061152757" lon="11.557370759198873"><ele>327.0</ele><time>2026-03-29T07:58:17Z</time></trkpt><trkpt lat="45.44898973343405" lon="11.557430402326869"><ele>328.6666666666667</ele><time>2026-03-29T07:58:19Z</time></trkpt><trkpt lat="45.44893236720239" lon="11.557486673986606"><ele>330.33333333333337</ele><time>2026-03-29T07:58:20.999Z</time></trkpt><trkpt lat="45.44886209359999" lon="11.557540821718339"><ele>332.0</ele><time>2026-03-29T07:58:22.999Z</time></trkpt><trkpt lat="45.44879100283557" lon="11.557584326927273"><ele>332.0</ele><time>2026-03-29T07:58:24.999Z</time></trkpt><trkpt lat="45.44872061829745" lon="11.557623173307311"><ele>332.0</ele><time>2026-03-29T07:58:26.999Z</time></trkpt><trkpt lat="45.448646565662415" lon="11.557624124073955"><ele>332.0</ele><time>2026-03-29T07:58:28.999Z</time></trkpt><trkpt lat="45.44858020832294" lon="11.55764180440984"><ele>332.0</ele><time>2026-03-29T07:58:30.999Z</time></trkpt><trkpt lat="45.44851656429365" lon="11.557677105162199"><ele>332.0</ele><time>2026-03-29T07:58:32.999Z</time></trkpt><trkpt lat="45.448452390855074" lon="11.557684921182828"><ele>332.0</ele><time>2026-03-29T07:58:34.999Z</time></trkpt><trkpt lat="45.44838701020536" lon="11.557664560933688"><ele>332.0</ele><time>2026-03-29T07:58:36.999Z</time></trkpt><trkpt lat="45.44832322690738" lon="11.557663397701551"><ele>332.0</ele><time>2026-03-29T07:58:38.999Z</time></trkpt><trkpt lat="45.448255132719474" lon="11.55768342159488"><ele>332.0</ele><time>2026-03-29T07:58:40.999Z</time></trkpt><trkpt lat="45.448184797502336" lon="11.557654709942463"><ele>332.0</ele><time>2026-03-29T07:58:42.999Z</time></trkpt><trkpt lat="45.44811883757054" lon="11.557647235783225"><ele>332.0</ele><time>2026-03-29T07:58:44.999Z</time></trkpt><trkpt lat="45.448053061491116" lon="11.55763040136975"><ele>332.0</ele><time>2026-03-29T07:58:46.999Z</time></trkpt><trkpt lat="45.44797301276485" lon="11.55760562879604"><ele>332.0</ele><time>2026-03-29T07:58:48.999Z</time></trkpt><trkpt lat="45.44788847738683" lon="11.557579230581847"><ele>332.0</ele><time>2026-03-29T07:58:50.999Z</time></trkpt><trkpt lat="45.44778957279032" lon="11.557544131284887"><ele>332.0</ele><time>2026-03-29T07:58:52.999Z</time></trkpt><trkpt lat="45.44768613017721" lon="11.557510203241607"><ele>332.0</ele><time>2026-03-29T07:58:54.999Z</time></trkpt><trkpt lat="45.44764237985219" lon="11.557332225733097"><ele>332.0</ele><time>2026-03-29T07:58:56.999Z</time></trkpt><trkpt lat="45.447582962107155" lon="11.557167684037585"><ele>332.0</ele><time>2026-03-29T07:58:58.998Z</time></trkpt><trkpt lat="45.44752908164505" lon="11.55702619167741"><ele>331.8</ele><time>2026-03-29T07:59:00.998Z</time></trkpt><trkpt lat="45.44748401480338" lon="11.556909023147917"><ele>331.6</ele><time>2026-03-29T07:59:02.998Z</time></trkpt><trkpt lat="45.44743018220303" lon="11.556798886570013"><ele>331.40000000000003</ele><time>2026-03-29T07:59:04.998Z</time></trkpt><trkpt lat="45.44737846851775" lon="11.556681963452192"><ele>331.20000000000005</ele><time>2026-03-29T07:59:06.998Z</time></trkpt><trkpt lat="45.447346937694554" lon="11.556561516303129"><ele>331.0</ele><time>2026-03-29T07:59:08.998Z</time></trkpt><trkpt lat="45.44730409882484" lon="11.556452914524273"><ele>331.0</ele><time>2026-03-29T07:59:10.998Z</time></trkpt><trkpt lat="45.44726958670867" lon="11.556366848407785"><ele>331.0</ele><time>2026-03-29T07:59:12.998Z</time></trkpt><trkpt lat="45.44721672284505" lon="11.5562814211101"><ele>331.0</ele><time>2026-03-29T07:59:14.998Z</time></trkpt><trkpt lat="45.44718374708334" lon="11.556171147044129"><ele>331.0</ele><time>2026-03-29T07:59:16.998Z</time></trkpt><trkpt lat="45.4471393248209" lon="11.556078702080828"><ele>331.0</ele><time>2026-03-29T07:59:18.998Z</time></trkpt><trkpt lat="45.44709251142564" lon="11.555985494952532"><ele>331.0</ele><time>2026-03-29T07:59:20.998Z</time></trkpt><trkpt lat="45.44704276697967" lon="11.555892182637812"><ele>333.16666666666663</ele><time>2026-03-29T07:59:22.998Z</time></trkpt><trkpt lat="45.44699390129431" lon="11.555801913637561"><ele>335.3333333333333</ele><time>2026-03-29T07:59:24.998Z</time></trkpt><trkpt lat="45.44694504436164" lon="11.555699397006938"><ele>337.5</ele><time>2026-03-29T07:59:26.998Z</time></trkpt><trkpt lat="45.446902122856656" lon="11.555585542148014"><ele>339.6666666666667</ele><time>2026-03-29T07:59:28.998Z</time></trkpt><trkpt lat="45.44687936444772" lon="11.555470160644726"><ele>341.83333333333337</ele><time>2026-03-29T07:59:30.998Z</time></trkpt><trkpt lat="45.4468637749671" lon="11.55534320779247"><ele>344.0</ele><time>2026-03-29T07:59:32.998Z</time></trkpt><trkpt lat="45.44690398049294" lon="11.555226376296885"><ele>345.0</ele><time>2026-03-29T07:59:34.998Z</time></trkpt><trkpt lat="45.446947576757836" lon="11.555128782825209"><ele>346.0</ele><time>2026-03-29T07:59:36.997Z</time></trkpt><trkpt lat="45.44700268042597" lon="11.555062743740399"><ele>347.0</ele><time>2026-03-29T07:59:38.997Z</time></trkpt><trkpt lat="45.44706750350243" lon="11.554985248337479"><ele>348.0</ele><time>2026-03-29T07:59:41.997Z</time></trkpt><trkpt lat="45.4470220905695" lon="11.554850974821113"><ele>349.0</ele><time>2026-03-29T07:59:42.997Z</time></trkpt><trkpt lat="45.44705713148932" lon="11.55476105351323"><ele>350.0</ele><time>2026-03-29T07:59:45.997Z</time></trkpt><trkpt lat="45.447111550183294" lon="11.554702307297136"><ele>349.2857142857143</ele><time>2026-03-29T07:59:48.997Z</time></trkpt><trkpt lat="45.447155183646636" lon="11.554631066381544"><ele>348.57142857142856</ele><time>2026-03-29T07:59:51.997Z</time></trkpt><trkpt lat="45.44720130440452" lon="11.554558750941464"><ele>347.8571428571429</ele><time>2026-03-29T07:59:55Z</time></trkpt><trkpt lat="45.44725806156947" lon="11.55446975817451"><ele>347.1428571428571</ele><time>2026-03-29T07:59:58Z</time></trkpt><trkpt lat="45.4473058903287" lon="11.554398836553638"><ele>346.42857142857144</ele><time>2026-03-29T08:00:01Z</time></trkpt><trkpt lat="45.44735963349331" lon="11.554320305497608"><ele>345.7142857142857</ele><time>2026-03-29T08:00:04Z</time></trkpt><trkpt lat="45.44741841169696" lon="11.554234295578036"><ele>345.0</ele><time>2026-03-29T08:00:07Z</time></trkpt><trkpt lat="45.4474694497636" lon="11.554152144761046"><ele>345.0</ele><time>2026-03-29T08:00:10Z</time></trkpt><trkpt lat="45.44751623928606" lon="11.554067324159213"><ele>345.0</ele><time>2026-03-29T08:00:13Z</time></trkpt><trkpt lat="45.44755300560979" lon="11.553994078316194"><ele>345.0</ele><time>2026-03-29T08:00:16Z</time></trkpt><trkpt lat="45.44758903198243" lon="11.553915473318982"><ele>345.0</ele><time>2026-03-29T08:00:19Z</time></trkpt><trkpt lat="45.44762408478413" lon="11.55382998501001"><ele>345.0</ele><time>2026-03-29T08:00:22Z</time></trkpt><trkpt lat="45.44765322663204" lon="11.553743161427397"><ele>345.0</ele><time>2026-03-29T08:00:24.999Z</time></trkpt><trkpt lat="45.447672390652656" lon="11.553619475246297"><ele>345.0</ele><time>2026-03-29T08:00:27.999Z</time></trkpt><trkpt lat="45.44764475233936" lon="11.553523935611935"><ele>345.1666666666667</ele><time>2026-03-29T08:00:29.999Z</time></trkpt><trkpt lat="45.44758767175739" lon="11.55348207521714"><ele>345.3333333333333</ele><time>2026-03-29T08:00:30.999Z</time></trkpt><trkpt lat="45.44751773357823" lon="11.553432768178363"><ele>345.5</ele><time>2026-03-29T08:00:34.999Z</time></trkpt><trkpt lat="45.44743953317145" lon="11.553382679753502"><ele>345.66666666666663</ele><time>2026-03-29T08:00:38.999Z</time></trkpt><trkpt lat="45.447381098853214" lon="11.553346548295005"><ele>345.8333333333333</ele><time>2026-03-29T08:00:40.999Z</time></trkpt><trkpt lat="45.44730247578335" lon="11.553297933745585"><ele>346.0</ele><time>2026-03-29T08:00:42.999Z</time></trkpt><trkpt lat="45.447233109434464" lon="11.553253122684517"><ele>346.0</ele><time>2026-03-29T08:00:44.999Z</time></trkpt><trkpt lat="45.44716263564657" lon="11.553205224175304"><ele>346.0</ele><time>2026-03-29T08:00:46.999Z</time></trkpt><trkpt lat="45.44708161936841" lon="11.553149704777692"><ele>346.0</ele><time>2026-03-29T08:00:48.999Z</time></trkpt><trkpt lat="45.44698802196619" lon="11.55308092152281"><ele>346.0</ele><time>2026-03-29T08:00:50.999Z</time></trkpt><trkpt lat="45.446886645833956" lon="11.553001469262389"><ele>346.0</ele><time>2026-03-29T08:00:52.999Z</time></trkpt><trkpt lat="45.44682402097317" lon="11.552966304787683"><ele>346.57142857142856</ele><time>2026-03-29T08:00:53.999Z</time></trkpt><trkpt lat="45.44677918068974" lon="11.552877883868156"><ele>347.14285714285717</ele><time>2026-03-29T08:00:54.999Z</time></trkpt><trkpt lat="45.44673304919507" lon="11.552807206913577"><ele>347.7142857142857</ele><time>2026-03-29T08:00:55.999Z</time></trkpt><trkpt lat="45.44669187061289" lon="11.552735340447503"><ele>348.2857142857143</ele><time>2026-03-29T08:00:56.999Z</time></trkpt><trkpt lat="45.44665329900279" lon="11.5526604604718"><ele>348.8571428571429</ele><time>2026-03-29T08:00:57.999Z</time></trkpt><trkpt lat="45.44661632965502" lon="11.552587006597323"><ele>349.42857142857144</ele><time>2026-03-29T08:00:58.999Z</time></trkpt><trkpt lat="45.44653456916053" lon="11.552491292241202"><ele>350.0</ele><time>2026-03-29T08:01:00.999Z</time></trkpt><trkpt lat="45.44649442998951" lon="11.552401751385862"><ele>350.0</ele><time>2026-03-29T08:01:02.998Z</time></trkpt><trkpt lat="45.44644497819768" lon="11.552336758518878"><ele>350.0</ele><time>2026-03-29T08:01:05.998Z</time></trkpt><trkpt lat="45.44639098398361" lon="11.552278192512695"><ele>350.0</ele><time>2026-03-29T08:01:07.998Z</time></trkpt><trkpt lat="45.44631183615774" lon="11.552249908398736"><ele>350.0</ele><time>2026-03-29T08:01:09.998Z</time></trkpt><trkpt lat="45.446245951201135" lon="11.552179381512705"><ele>350.0</ele><time>2026-03-29T08:01:11.998Z</time></trkpt><trkpt lat="45.44619805204034" lon="11.552088283789441"><ele>350.0</ele><time>2026-03-29T08:01:13.998Z</time></trkpt><trkpt lat="45.44614650097193" lon="11.551998229948566"><ele>350.8</ele><time>2026-03-29T08:01:16.998Z</time></trkpt><trkpt lat="45.44609447372294" lon="11.551938536398458"><ele>351.6</ele><time>2026-03-29T08:01:19.998Z</time></trkpt><trkpt lat="45.44624779881991" lon="11.551780974120971"><ele>352.4</ele><time>2026-03-29T08:01:26.998Z</time></trkpt><trkpt lat="45.446292577726936" lon="11.551698004464173"><ele>353.2</ele><time>2026-03-29T08:01:29.998Z</time></trkpt><trkpt lat="45.44633113253063" lon="11.551588600682512"><ele>354.0</ele><time>2026-03-29T08:01:32.998Z</time></trkpt><trkpt lat="45.44636089473707" lon="11.551485445549503"><ele>354.5</ele><time>2026-03-29T08:01:35.998Z</time></trkpt><trkpt lat="45.446397707281626" lon="11.55137775836507"><ele>355.0</ele><time>2026-03-29T08:01:38.998Z</time></trkpt><trkpt lat="45.44643625854281" lon="11.551268208038755"><ele>355.5</ele><time>2026-03-29T08:01:41.997Z</time></trkpt><trkpt lat="45.44648595391944" lon="11.551153100281075"><ele>356.0</ele><time>2026-03-29T08:01:44.997Z</time></trkpt><trkpt lat="45.44652531588363" lon="11.551058142038691"><ele>356.5</ele><time>2026-03-29T08:01:47.997Z</time></trkpt><trkpt lat="45.446571558805225" lon="11.550956742876911"><ele>357.0</ele><time>2026-03-29T08:01:50.997Z</time></trkpt><trkpt lat="45.44661319822483" lon="11.550844646998268"><ele>357.0</ele><time>2026-03-29T08:01:53.997Z</time></trkpt><trkpt lat="45.44665038080889" lon="11.550732610066902"><ele>357.0</ele><time>2026-03-29T08:01:56.997Z</time></trkpt><trkpt lat="45.44668100470732" lon="11.550617146754952"><ele>357.0</ele><time>2026-03-29T08:02:00Z</time></trkpt><trkpt lat="45.446705015268115" lon="11.550531106730727"><ele>357.0</ele><time>2026-03-29T08:02:02Z</time></trkpt><trkpt lat="45.44671745436704" lon="11.55043688487282"><ele>357.0</ele><time>2026-03-29T08:02:05Z</time></trkpt><trkpt lat="45.446737991281815" lon="11.550331692947903"><ele>357.0</ele><time>2026-03-29T08:02:08Z</time></trkpt><trkpt lat="45.44673994710095" lon="11.55023578327116"><ele>356.8333333333333</ele><time>2026-03-29T08:02:11Z</time></trkpt><trkpt lat="45.446775797141854" lon="11.550113946575246"><ele>356.6666666666667</ele><time>2026-03-29T08:02:15Z</time></trkpt><trkpt lat="45.44678648214017" lon="11.54999440166678"><ele>356.5</ele><time>2026-03-29T08:02:18Z</time></trkpt><trkpt lat="45.446795773544025" lon="11.549872838207117"><ele>356.33333333333337</ele><time>2026-03-29T08:02:21Z</time></trkpt><trkpt lat="45.44681437262778" lon="11.5497833833186"><ele>356.1666666666667</ele><time>2026-03-29T08:02:23Z</time></trkpt><trkpt lat="45.44682032587806" lon="11.549661477864316"><ele>356.0</ele><time>2026-03-29T08:02:27Z</time></trkpt><trkpt lat="45.446844150469744" lon="11.549559519662575"><ele>356.0</ele><time>2026-03-29T08:02:29.999Z</time></trkpt><trkpt lat="45.44688076041207" lon="11.549459895692756"><ele>356.0</ele><time>2026-03-29T08:02:32.999Z</time></trkpt><trkpt lat="45.446914514246885" lon="11.549354696403524"><ele>356.0</ele><time>2026-03-29T08:02:35.999Z</time></trkpt><trkpt lat="45.44694031473547" lon="11.549247857729641"><ele>356.0</ele><time>2026-03-29T08:02:38.999Z</time></trkpt><trkpt lat="45.4469521212993" lon="11.549132335655642"><ele>356.0</ele><time>2026-03-29T08:02:41.999Z</time></trkpt><trkpt lat="45.44696748717713" lon="11.549022521722947"><ele>356.0</ele><time>2026-03-29T08:02:44.999Z</time></trkpt><trkpt lat="45.44698809692419" lon="11.548928916226044"><ele>355.99999999999994</ele><time>2026-03-29T08:02:47.999Z</time></trkpt><trkpt lat="45.44700591375899" lon="11.548833734851867"><ele>356.0</ele><time>2026-03-29T08:02:50.999Z</time></trkpt><trkpt lat="45.44705244767395" lon="11.548743820771502"><ele>356.0</ele><time>2026-03-29T08:02:53.999Z</time></trkpt><trkpt lat="45.44704478313728" lon="11.548635345760431"><ele>356.0</ele><time>2026-03-29T08:02:56.999Z</time></trkpt><trkpt lat="45.44702114470178" lon="11.548542460576735"><ele>356.0</ele><time>2026-03-29T08:02:59.999Z</time></trkpt><trkpt lat="45.44698922751362" lon="11.54845707184767"><ele>355.99999999999994</ele><time>2026-03-29T08:03:01.999Z</time></trkpt><trkpt lat="45.44695245979455" lon="11.548371533078326"><ele>356.0</ele><time>2026-03-29T08:03:03.999Z</time></trkpt><trkpt lat="45.446918606021846" lon="11.548241210599768"><ele>356.33333333333337</ele><time>2026-03-29T08:03:05.999Z</time></trkpt><trkpt lat="45.44687342425626" lon="11.548100222730477"><ele>356.6666666666667</ele><time>2026-03-29T08:03:07.998Z</time></trkpt><trkpt lat="45.44682642649976" lon="11.548012797869816"><ele>357.0</ele><time>2026-03-29T08:03:09.998Z</time></trkpt><trkpt lat="45.44676328707364" lon="11.54790175909886"><ele>357.3333333333333</ele><time>2026-03-29T08:03:11.998Z</time></trkpt><trkpt lat="45.44672875036092" lon="11.547815569247204"><ele>357.66666666666663</ele><time>2026-03-29T08:03:14.998Z</time></trkpt><trkpt lat="45.446670567712026" lon="11.547740693023593"><ele>358.0</ele><time>2026-03-29T08:03:17.998Z</time></trkpt><trkpt lat="45.44669038988892" lon="11.54763000787137"><ele>359.8333333333333</ele><time>2026-03-29T08:03:21.998Z</time></trkpt><trkpt lat="45.44676104645915" lon="11.547565437854352"><ele>361.66666666666663</ele><time>2026-03-29T08:03:25.998Z</time></trkpt><trkpt lat="45.44680130277095" lon="11.547474343622653"><ele>363.5</ele><time>2026-03-29T08:03:29.998Z</time></trkpt><trkpt lat="45.44684446305117" lon="11.54740719448993"><ele>365.3333333333333</ele><time>2026-03-29T08:03:31.998Z</time></trkpt><trkpt lat="45.446881957998144" lon="11.54732219926381"><ele>367.1666666666667</ele><time>2026-03-29T08:03:33.998Z</time></trkpt><trkpt lat="45.44693639974331" lon="11.547222411853543"><ele>369.0</ele><time>2026-03-29T08:03:35.998Z</time></trkpt><trkpt lat="45.44697817220942" lon="11.547142879193803"><ele>369.0</ele><time>2026-03-29T08:03:37.998Z</time></trkpt><trkpt lat="45.44702683183522" lon="11.547051319876484"><ele>369.0</ele><time>2026-03-29T08:03:39.998Z</time></trkpt><trkpt lat="45.447061203577526" lon="11.546957859944992"><ele>369.0</ele><time>2026-03-29T08:03:42.998Z</time></trkpt><trkpt lat="45.447114988469785" lon="11.546862850830445"><ele>369.0</ele><time>2026-03-29T08:03:45.997Z</time></trkpt><trkpt lat="45.44717726092075" lon="11.546764928803935"><ele>369.0</ele><time>2026-03-29T08:03:48.997Z</time></trkpt><trkpt lat="45.4472423758405" lon="11.546673817129975"><ele>369.0</ele><time>2026-03-29T08:03:51.997Z</time></trkpt><trkpt lat="45.44728784380047" lon="11.546596980240993"><ele>368.3333333333333</ele><time>2026-03-29T08:03:54.997Z</time></trkpt><trkpt lat="45.447330771668994" lon="11.546528664319492"><ele>367.6666666666667</ele><time>2026-03-29T08:03:56.997Z</time></trkpt><trkpt lat="45.44740679797066" lon="11.546470370855278"><ele>367.0</ele><time>2026-03-29T08:03:59.997Z</time></trkpt><trkpt lat="45.44747545586085" lon="11.546380753703389"><ele>366.33333333333337</ele><time>2026-03-29T08:04:01.997Z</time></trkpt><trkpt lat="45.44753583711319" lon="11.54629751328589"><ele>365.6666666666667</ele><time>2026-03-29T08:04:03.997Z</time></trkpt><trkpt lat="45.44756682944151" lon="11.54618924117354"><ele>365.0</ele><time>2026-03-29T08:04:07Z</time></trkpt><trkpt lat="45.44763775005477" lon="11.54610373819501"><ele>363.4</ele><time>2026-03-29T08:04:09Z</time></trkpt><trkpt lat="45.447717836728565" lon="11.546058530596428"><ele>361.8</ele><time>2026-03-29T08:04:10Z</time></trkpt><trkpt lat="45.447785556408725" lon="11.546008479278063"><ele>360.20000000000005</ele><time>2026-03-29T08:04:11Z</time></trkpt><trkpt lat="45.44784650543461" lon="11.545903101389923"><ele>358.6</ele><time>2026-03-29T08:04:13Z</time></trkpt><trkpt lat="45.447946481834684" lon="11.545818264092382"><ele>357.0</ele><time>2026-03-29T08:04:15Z</time></trkpt><trkpt lat="45.44803263690354" lon="11.545724955856889"><ele>357.0</ele><time>2026-03-29T08:04:17Z</time></trkpt><trkpt lat="45.44811067730005" lon="11.545665874515093"><ele>357.0</ele><time>2026-03-29T08:04:19Z</time></trkpt><trkpt lat="45.44819033067426" lon="11.545598168325446"><ele>357.0</ele><time>2026-03-29T08:04:22Z</time></trkpt><trkpt lat="45.44825685299425" lon="11.545569849895656"><ele>357.0</ele><time>2026-03-29T08:04:24Z</time></trkpt><trkpt lat="45.448281101755825" lon="11.545471361634249"><ele>357.0</ele><time>2026-03-29T08:04:28Z</time></trkpt><trkpt lat="45.4482086978511" lon="11.545431251048123"><ele>357.0</ele><time>2026-03-29T08:04:32Z</time></trkpt><trkpt lat="45.44813607419338" lon="11.545428669542142"><ele>357.0</ele><time>2026-03-29T08:04:34Z</time></trkpt><trkpt lat="45.44806510384531" lon="11.545389699188943"><ele>357.0</ele><time>2026-03-29T08:04:36Z</time></trkpt><trkpt lat="45.448004397034005" lon="11.54530689044909"><ele>357.0</ele><time>2026-03-29T08:04:37.999Z</time></trkpt><trkpt lat="45.4479236828918" lon="11.545181249931726"><ele>357.0</ele><time>2026-03-29T08:04:39.999Z</time></trkpt><trkpt lat="45.447881367577835" lon="11.545071072450462"><ele>357.0</ele><time>2026-03-29T08:04:41.999Z</time></trkpt><trkpt lat="45.44779639298369" lon="11.544967807398901"><ele>357.8333333333333</ele><time>2026-03-29T08:04:43.999Z</time></trkpt><trkpt lat="45.44777481189496" lon="11.544877523877831"><ele>358.6666666666667</ele><time>2026-03-29T08:04:44.999Z</time></trkpt><trkpt lat="45.44772368802418" lon="11.54474038452678"><ele>359.5</ele><time>2026-03-29T08:04:46.999Z</time></trkpt><trkpt lat="45.44768439055456" lon="11.544664625508165"><ele>360.33333333333337</ele><time>2026-03-29T08:04:48.999Z</time></trkpt><trkpt lat="45.44765566483803" lon="11.544529846531185"><ele>361.1666666666667</ele><time>2026-03-29T08:04:50.999Z</time></trkpt><trkpt lat="45.447644350817875" lon="11.544414887798343"><ele>362.0</ele><time>2026-03-29T08:04:52.999Z</time></trkpt><trkpt lat="45.44765432325231" lon="11.544279296786058"><ele>362.0</ele><time>2026-03-29T08:04:54.999Z</time></trkpt><trkpt lat="45.44767164719402" lon="11.544167617645225"><ele>362.0</ele><time>2026-03-29T08:04:56.999Z</time></trkpt><trkpt lat="45.44771833432001" lon="11.54407477875947"><ele>362.0</ele><time>2026-03-29T08:04:59.999Z</time></trkpt><trkpt lat="45.44776144632274" lon="11.543957509970733"><ele>362.0</ele><time>2026-03-29T08:05:02.999Z</time></trkpt><trkpt lat="45.44777110996431" lon="11.543860820570925"><ele>362.0</ele><time>2026-03-29T08:05:04.999Z</time></trkpt><trkpt lat="45.44777639960263" lon="11.543724540069482"><ele>362.0</ele><time>2026-03-29T08:05:08.999Z</time></trkpt><trkpt lat="45.447767106179285" lon="11.543632914108645"><ele>363.6666666666667</ele><time>2026-03-29T08:05:10.999Z</time></trkpt><trkpt lat="45.44779756064994" lon="11.54355149134737"><ele>365.33333333333337</ele><time>2026-03-29T08:05:13.999Z</time></trkpt><trkpt lat="45.447857641761885" lon="11.543464418020406"><ele>367.0</ele><time>2026-03-29T08:05:18.998Z</time></trkpt><trkpt lat="45.447909643863504" lon="11.543412012003628"><ele>368.6666666666667</ele><time>2026-03-29T08:05:21.998Z</time></trkpt><trkpt lat="45.44798198537975" lon="11.54335933822045"><ele>370.3333333333333</ele><time>2026-03-29T08:05:23.998Z</time></trkpt><trkpt lat="45.44804845994436" lon="11.543300536492731"><ele>372.0</ele><time>2026-03-29T08:05:25.998Z</time></trkpt><trkpt lat="45.44810935699708" lon="11.54321327604116"><ele>369.3333333333333</ele><time>2026-03-29T08:05:28.998Z</time></trkpt><trkpt lat="45.44815478537274" lon="11.543114389290132"><ele>366.6666666666667</ele><time>2026-03-29T08:05:32.998Z</time></trkpt><trkpt lat="45.44820890939087" lon="11.54300501278797"><ele>364.0</ele><time>2026-03-29T08:05:37.998Z</time></trkpt><trkpt lat="45.44826201416087" lon="11.54292099765846"><ele>361.33333333333337</ele><time>2026-03-29T08:05:41.998Z</time></trkpt><trkpt lat="45.448287031178" lon="11.542832824006783"><ele>358.6666666666667</ele><time>2026-03-29T08:05:49.998Z</time></trkpt><trkpt lat="45.44828413494427" lon="11.542712064309974"><ele>356.0</ele><time>2026-03-29T08:05:58.997Z</time></trkpt><trkpt lat="45.448302537075854" lon="11.54259059876352"><ele>356.0</ele><time>2026-03-29T08:06:02.997Z</time></trkpt><trkpt lat="45.44829235385478" lon="11.542452968834759"><ele>356.0</ele><time>2026-03-29T08:06:05.997Z</time></trkpt><trkpt lat="45.44831311146797" lon="11.542322015802675"><ele>356.0</ele><time>2026-03-29T08:06:10.997Z</time></trkpt><trkpt lat="45.44829619332422" lon="11.542232881570946"><ele>356.0</ele><time>2026-03-29T08:06:17Z</time></trkpt><trkpt lat="45.44828311765621" lon="11.54212877073523"><ele>356.0</ele><time>2026-03-29T08:06:33Z</time></trkpt><trkpt lat="45.448235944668845" lon="11.542037909625803"><ele>356.0</ele><time>2026-03-29T08:06:35Z</time></trkpt><trkpt lat="45.44815919026196" lon="11.541977685276635"><ele>356.1666666666667</ele><time>2026-03-29T08:06:38Z</time></trkpt><trkpt lat="45.44809091398711" lon="11.54193476826015"><ele>356.33333333333337</ele><time>2026-03-29T08:06:40Z</time></trkpt><trkpt lat="45.448010051686246" lon="11.54187940963089"><ele>356.5</ele><time>2026-03-29T08:06:43Z</time></trkpt><trkpt lat="45.44794820912022" lon="11.54184987792059"><ele>356.6666666666667</ele><time>2026-03-29T08:06:44.999Z</time></trkpt><trkpt lat="45.447878716133815" lon="11.541836154672781"><ele>356.8333333333333</ele><time>2026-03-29T08:06:47.999Z</time></trkpt><trkpt lat="45.44778834162955" lon="11.541810437079718"><ele>357.0</ele><time>2026-03-29T08:06:50.999Z</time></trkpt><trkpt lat="45.447716994245184" lon="11.541820611846767"><ele>357.0</ele><time>2026-03-29T08:06:53.999Z</time></trkpt><trkpt lat="45.44763751589328" lon="11.541788443028784"><ele>357.0</ele><time>2026-03-29T08:06:56.999Z</time></trkpt><trkpt lat="45.44757563413802" lon="11.541760689141261"><ele>357.0</ele><time>2026-03-29T08:06:59.999Z</time></trkpt><trkpt lat="45.44750451813314" lon="11.54171915987325"><ele>357.0</ele><time>2026-03-29T08:07:02.999Z</time></trkpt><trkpt lat="45.44744399486237" lon="11.54165463952502"><ele>357.0</ele><time>2026-03-29T08:07:04.999Z</time></trkpt><trkpt lat="45.44735907344217" lon="11.541580837421758"><ele>357.0</ele><time>2026-03-29T08:07:07.999Z</time></trkpt><trkpt lat="45.44733483160975" lon="11.541454253480165"><ele>357.0</ele><time>2026-03-29T08:07:09.999Z</time></trkpt><trkpt lat="45.44727958812124" lon="11.541402386220279"><ele>357.0</ele><time>2026-03-29T08:07:10.999Z</time></trkpt><trkpt lat="45.447221358376446" lon="11.541295975594682"><ele>357.0</ele><time>2026-03-29T08:07:12.999Z</time></trkpt><trkpt lat="45.44715719740766" lon="11.54117870563216"><ele>357.0</ele><time>2026-03-29T08:07:14.999Z</time></trkpt><trkpt lat="45.44716657104374" lon="11.541078821405673"><ele>357.0</ele><time>2026-03-29T08:07:16.999Z</time></trkpt><trkpt lat="45.44717787549917" lon="11.540985243507011"><ele>357.0</ele><time>2026-03-29T08:07:18.999Z</time></trkpt><trkpt lat="45.44719588630776" lon="11.540872244587295"><ele>357.14285714285717</ele><time>2026-03-29T08:07:20.999Z</time></trkpt><trkpt lat="45.44725338070571" lon="11.540810612904371"><ele>357.2857142857143</ele><time>2026-03-29T08:07:22.998Z</time></trkpt><trkpt lat="45.44730735848587" lon="11.540705197309325"><ele>357.42857142857144</ele><time>2026-03-29T08:07:25.998Z</time></trkpt><trkpt lat="45.44734876373486" lon="11.540618443420415"><ele>357.57142857142856</ele><time>2026-03-29T08:07:28.998Z</time></trkpt><trkpt lat="45.447403604531985" lon="11.540542207123933"><ele>357.7142857142857</ele><time>2026-03-29T08:07:31.998Z</time></trkpt><trkpt lat="45.44744094389708" lon="11.540464572600598"><ele>357.8571428571429</ele><time>2026-03-29T08:07:33.998Z</time></trkpt><trkpt lat="45.44745295141654" lon="11.540376418091597"><ele>358.0</ele><time>2026-03-29T08:07:35.998Z</time></trkpt><trkpt lat="45.44749414924114" lon="11.540298123129224"><ele>359.16666666666663</ele><time>2026-03-29T08:07:38.998Z</time></trkpt><trkpt lat="45.44754544563511" lon="11.54020544634814"><ele>360.3333333333333</ele><time>2026-03-29T08:07:42.998Z</time></trkpt><trkpt lat="45.44759250810333" lon="11.54013915933765"><ele>361.5</ele><time>2026-03-29T08:07:46.998Z</time></trkpt><trkpt lat="45.447642728769345" lon="11.540078305649102"><ele>362.6666666666667</ele><time>2026-03-29T08:07:51.998Z</time></trkpt><trkpt lat="45.447668671461564" lon="11.539980325102617"><ele>363.83333333333337</ele><time>2026-03-29T08:08:37Z</time></trkpt><trkpt lat="45.4476677542133" lon="11.539870427017842"><ele>365.0</ele><time>2026-03-29T08:08:40Z</time></trkpt><trkpt lat="45.447605309425725" lon="11.539752477662201"><ele>365.0</ele><time>2026-03-29T08:08:42Z</time></trkpt><trkpt lat="45.44756573629797" lon="11.539609175215883"><ele>365.0</ele><time>2026-03-29T08:08:44Z</time></trkpt><trkpt lat="45.44759298080357" lon="11.53948669595449"><ele>365.0</ele><time>2026-03-29T08:08:46Z</time></trkpt><trkpt lat="45.44760575257799" lon="11.539384067492588"><ele>365.0</ele><time>2026-03-29T08:08:48Z</time></trkpt><trkpt lat="45.44761378184399" lon="11.539282462081939"><ele>365.0</ele><time>2026-03-29T08:08:49.999Z</time></trkpt><trkpt lat="45.44762015913384" lon="11.539191332414445"><ele>365.0</ele><time>2026-03-29T08:08:51.999Z</time></trkpt><trkpt lat="45.447634185887075" lon="11.539100699904354"><ele>364.6666666666667</ele><time>2026-03-29T08:08:54.999Z</time></trkpt><trkpt lat="45.447637078786926" lon="11.539004433067063"><ele>364.33333333333337</ele><time>2026-03-29T08:08:56.999Z</time></trkpt><trkpt lat="45.44761310952633" lon="11.538896079875165"><ele>364.0</ele><time>2026-03-29T08:08:58.999Z</time></trkpt><trkpt lat="45.44756037776639" lon="11.538801990216458"><ele>363.6666666666667</ele><time>2026-03-29T08:09:00.999Z</time></trkpt><trkpt lat="45.44750494327865" lon="11.538739584613388"><ele>363.3333333333333</ele><time>2026-03-29T08:09:02.999Z</time></trkpt><trkpt lat="45.44743469752738" lon="11.538654211095555"><ele>363.0</ele><time>2026-03-29T08:09:04.999Z</time></trkpt><trkpt lat="45.44734699947471" lon="11.538549413438506"><ele>362.1666666666667</ele><time>2026-03-29T08:09:06.999Z</time></trkpt><trkpt lat="45.44729643465736" lon="11.538494193000727"><ele>361.3333333333333</ele><time>2026-03-29T08:09:07.999Z</time></trkpt><trkpt lat="45.44721331274928" lon="11.538414882904267"><ele>360.5</ele><time>2026-03-29T08:09:09.999Z</time></trkpt><trkpt lat="45.44720172947267" lon="11.538300412240408"><ele>359.66666666666663</ele><time>2026-03-29T08:09:12.999Z</time></trkpt><trkpt lat="45.447222069959345" lon="11.538166426351504"><ele>358.8333333333333</ele><time>2026-03-29T08:09:14.999Z</time></trkpt><trkpt lat="45.44717681653317" lon="11.538062184546519"><ele>358.0</ele><time>2026-03-29T08:09:18.999Z</time></trkpt><trkpt lat="45.447103176811204" lon="11.538090023049275"><ele>358.0</ele><time>2026-03-29T08:09:21.999Z</time></trkpt><trkpt lat="45.44702533710378" lon="11.5381547137643"><ele>358.0</ele><time>2026-03-29T08:09:24.999Z</time></trkpt><trkpt lat="45.44694725892301" lon="11.538192259237952"><ele>358.0</ele><time>2026-03-29T08:09:27.998Z</time></trkpt><trkpt lat="45.446872558018356" lon="11.538231641611103"><ele>358.0</ele><time>2026-03-29T08:09:30.998Z</time></trkpt><trkpt lat="45.446807385742524" lon="11.538267548576806"><ele>358.0</ele><time>2026-03-29T08:09:33.998Z</time></trkpt><trkpt lat="45.446736760510305" lon="11.538279664928913"><ele>358.0</ele><time>2026-03-29T08:09:36.998Z</time></trkpt><trkpt lat="45.44666167314703" lon="11.53830042115523"><ele>358.00000000000006</ele><time>2026-03-29T08:09:39.998Z</time></trkpt><trkpt lat="45.446579305670944" lon="11.538319890576682"><ele>358.0</ele><time>2026-03-29T08:09:43.998Z</time></trkpt><trkpt lat="45.446512365722654" lon="11.53833975566085"><ele>358.0</ele><time>2026-03-29T08:09:46.998Z</time></trkpt><trkpt lat="45.446444452006276" lon="11.538333988572761"><ele>358.0</ele><time>2026-03-29T08:09:49.998Z</time></trkpt><trkpt lat="45.44636191922203" lon="11.538328911528051"><ele>358.0</ele><time>2026-03-29T08:09:51.998Z</time></trkpt><trkpt lat="45.44628770548654" lon="11.5383120344324"><ele>358.00000000000006</ele><time>2026-03-29T08:09:53.998Z</time></trkpt><trkpt lat="45.44622324151824" lon="11.53831607645053"><ele>358.0</ele><time>2026-03-29T08:09:55.998Z</time></trkpt><trkpt lat="45.44614686651282" lon="11.53833121402416"><ele>357.42857142857144</ele><time>2026-03-29T08:09:59.998Z</time></trkpt><trkpt lat="45.44607779776059" lon="11.538325492393884"><ele>356.8571428571429</ele><time>2026-03-29T08:10:02.998Z</time></trkpt><trkpt lat="45.446011187495095" lon="11.538330388884194"><ele>356.28571428571433</ele><time>2026-03-29T08:10:05.997Z</time></trkpt><trkpt lat="45.4459482992074" lon="11.538364855580495"><ele>355.7142857142857</ele><time>2026-03-29T08:10:08.997Z</time></trkpt><trkpt lat="45.445890077043664" lon="11.538404525761147"><ele>355.1428571428571</ele><time>2026-03-29T08:10:10.997Z</time></trkpt><trkpt lat="45.44583078007535" lon="11.538442262647976"><ele>354.5714285714286</ele><time>2026-03-29T08:10:13.997Z</time></trkpt><trkpt lat="45.44576104359581" lon="11.538486628260978"><ele>354.0</ele><time>2026-03-29T08:10:16.997Z</time></trkpt><trkpt lat="45.445652306285545" lon="11.538536824321032"><ele>354.0</ele><time>2026-03-29T08:10:19.997Z</time></trkpt><trkpt lat="45.445570697938926" lon="11.538607924022838"><ele>354.0</ele><time>2026-03-29T08:10:21.997Z</time></trkpt><trkpt lat="45.44548575833633" lon="11.538705373065564"><ele>354.0</ele><time>2026-03-29T08:10:24Z</time></trkpt><trkpt lat="45.44539496022187" lon="11.538793838432525"><ele>354.0</ele><time>2026-03-29T08:10:26Z</time></trkpt><trkpt lat="45.445302542480995" lon="11.538816732988165"><ele>354.0</ele><time>2026-03-29T08:10:28Z</time></trkpt><trkpt lat="45.44524582939924" lon="11.538863446347179"><ele>355.6666666666667</ele><time>2026-03-29T08:10:29Z</time></trkpt><trkpt lat="45.44516104014383" lon="11.538927517434217"><ele>357.3333333333333</ele><time>2026-03-29T08:10:31Z</time></trkpt><trkpt lat="45.44508368054835" lon="11.538939289513857"><ele>359.0</ele><time>2026-03-29T08:10:33Z</time></trkpt><trkpt lat="45.444982594473856" lon="11.538992498210835"><ele>360.66666666666663</ele><time>2026-03-29T08:10:36Z</time></trkpt><trkpt lat="45.44491728259014" lon="11.538984353931939"><ele>362.3333333333333</ele><time>2026-03-29T08:10:37Z</time></trkpt><trkpt lat="45.44485393661009" lon="11.538972644557814"><ele>364.0</ele><time>2026-03-29T08:10:38Z</time></trkpt><trkpt lat="45.44475079369318" lon="11.539016714500065"><ele>364.0</ele><time>2026-03-29T08:10:40Z</time></trkpt><trkpt lat="45.44466089052478" lon="11.539049133832739"><ele>364.0</ele><time>2026-03-29T08:10:42Z</time></trkpt><trkpt lat="45.44456670754437" lon="11.539084862765044"><ele>364.0</ele><time>2026-03-29T08:10:44Z</time></trkpt><trkpt lat="45.44450038573863" lon="11.53911924132299"><ele>364.0</ele><time>2026-03-29T08:10:46Z</time></trkpt><trkpt lat="45.44442483858521" lon="11.539159377609069"><ele>364.0</ele><time>2026-03-29T08:10:49Z</time></trkpt><trkpt lat="45.44434821730932" lon="11.539191149381022"><ele>364.0</ele><time>2026-03-29T08:10:52Z</time></trkpt><trkpt lat="45.444284738130705" lon="11.539215868510668"><ele>362.66666666666663</ele><time>2026-03-29T08:10:54Z</time></trkpt><trkpt lat="45.44421610454064" lon="11.539237720771485"><ele>361.3333333333333</ele><time>2026-03-29T08:10:56.999Z</time></trkpt><trkpt lat="45.44414151641932" lon="11.539264923506577"><ele>360.0</ele><time>2026-03-29T08:10:59.999Z</time></trkpt><trkpt lat="45.44404521086716" lon="11.539272844485309"><ele>358.6666666666667</ele><time>2026-03-29T08:11:29.999Z</time></trkpt><trkpt lat="45.4439708396986" lon="11.53919597353899"><ele>357.33333333333337</ele><time>2026-03-29T08:11:39.998Z</time></trkpt><trkpt lat="45.44388172397151" lon="11.539148790505429"><ele>356.0</ele><time>2026-03-29T08:11:41.998Z</time></trkpt><trkpt lat="45.44382294634969" lon="11.539105529571534"><ele>356.33333333333337</ele><time>2026-03-29T08:11:42.998Z</time></trkpt><trkpt lat="45.44375993045388" lon="11.539068703186773"><ele>356.6666666666667</ele><time>2026-03-29T08:11:43.998Z</time></trkpt><trkpt lat="45.44370030754866" lon="11.539007293221871"><ele>357.0</ele><time>2026-03-29T08:11:44.998Z</time></trkpt><trkpt lat="45.443596996027516" lon="11.538899076313848"><ele>357.3333333333333</ele><time>2026-03-29T08:11:46.998Z</time></trkpt><trkpt lat="45.44352904534101" lon="11.538830869888944"><ele>357.66666666666663</ele><time>2026-03-29T08:11:48.998Z</time></trkpt><trkpt lat="45.443477254372866" lon="11.53876028408852"><ele>358.0</ele><time>2026-03-29T08:11:50.998Z</time></trkpt><trkpt lat="45.443426981874815" lon="11.538700741778376"><ele>358.0</ele><time>2026-03-29T08:11:52.998Z</time></trkpt><trkpt lat="45.4433664786063" lon="11.538660949270463"><ele>358.0</ele><time>2026-03-29T08:11:54.998Z</time></trkpt><trkpt lat="45.44328538628956" lon="11.538685444342528"><ele>358.0</ele><time>2026-03-29T08:11:57.998Z</time></trkpt><trkpt lat="45.443207029846604" lon="11.538794340305273"><ele>358.0</ele><time>2026-03-29T08:12:00.998Z</time></trkpt><trkpt lat="45.443143235507556" lon="11.538900678628972"><ele>358.0</ele><time>2026-03-29T08:12:02.998Z</time></trkpt><trkpt lat="45.44309189792475" lon="11.538989132084023"><ele>358.0</ele><time>2026-03-29T08:12:04.998Z</time></trkpt><trkpt lat="45.443049459346014" lon="11.539092123122344"><ele>357.16666666666663</ele><time>2026-03-29T08:12:06.998Z</time></trkpt><trkpt lat="45.4430050058079" lon="11.539178685735061"><ele>356.3333333333333</ele><time>2026-03-29T08:12:08.998Z</time></trkpt><trkpt lat="45.44296174330198" lon="11.539262512443706"><ele>355.5</ele><time>2026-03-29T08:12:10.998Z</time></trkpt><trkpt lat="45.442901664294" lon="11.539336699456118"><ele>354.6666666666667</ele><time>2026-03-29T08:12:13.997Z</time></trkpt><trkpt lat="45.44288270008219" lon="11.539436720617182"><ele>353.83333333333337</ele><time>2026-03-29T08:12:16.997Z</time></trkpt><trkpt lat="45.442841860330226" lon="11.539566884399582"><ele>353.0</ele><time>2026-03-29T08:12:19.997Z</time></trkpt><trkpt lat="45.442803103524625" lon="11.539654803282602"><ele>354.6666666666667</ele><time>2026-03-29T08:12:21.997Z</time></trkpt><trkpt lat="45.44277302187719" lon="11.539753338464562"><ele>356.33333333333337</ele><time>2026-03-29T08:12:23.997Z</time></trkpt><trkpt lat="45.44274793115194" lon="11.539839883161449"><ele>358.0</ele><time>2026-03-29T08:12:25.997Z</time></trkpt><trkpt lat="45.44272218490867" lon="11.539925743216939"><ele>359.6666666666667</ele><time>2026-03-29T08:12:27.997Z</time></trkpt><trkpt lat="45.44267925337808" lon="11.54004341611376"><ele>361.3333333333333</ele><time>2026-03-29T08:12:31Z</time></trkpt><trkpt lat="45.442647203693966" lon="11.54013910868753"><ele>363.0</ele><time>2026-03-29T08:12:34Z</time></trkpt><trkpt lat="45.44260477387716" lon="11.540259742750484"><ele>363.0</ele><time>2026-03-29T08:12:38Z</time></trkpt><trkpt lat="45.4425755603919" lon="11.54036531721423"><ele>363.0</ele><time>2026-03-29T08:12:41Z</time></trkpt><trkpt lat="45.44253568585306" lon="11.540477961784235"><ele>363.0</ele><time>2026-03-29T08:12:44Z</time></trkpt><trkpt lat="45.44250008211304" lon="11.54057849291464"><ele>363.0</ele><time>2026-03-29T08:12:48Z</time></trkpt><trkpt lat="45.44246433117959" lon="11.540672123426571"><ele>363.0</ele><time>2026-03-29T08:12:51Z</time></trkpt><trkpt lat="45.44243181859253" lon="11.540793696635275"><ele>363.0</ele><time>2026-03-29T08:12:54Z</time></trkpt><trkpt lat="45.4423939980814" lon="11.540878738430319"><ele>362.57142857142856</ele><time>2026-03-29T08:12:57Z</time></trkpt><trkpt lat="45.442350431555674" lon="11.54095863017494"><ele>362.1428571428571</ele><time>2026-03-29T08:13:00.999Z</time></trkpt><trkpt lat="45.442306173518205" lon="11.541038012381147"><ele>361.71428571428567</ele><time>2026-03-29T08:13:03.999Z</time></trkpt><trkpt lat="45.44225927930405" lon="11.541111308904584"><ele>361.2857142857143</ele><time>2026-03-29T08:13:06.999Z</time></trkpt><trkpt lat="45.44221553518665" lon="11.54117632789419"><ele>360.8571428571429</ele><time>2026-03-29T08:13:09.999Z</time></trkpt><trkpt lat="45.44216109871033" lon="11.541232856186186"><ele>360.4285714285714</ele><time>2026-03-29T08:13:11.999Z</time></trkpt><trkpt lat="45.44212609434421" lon="11.54132151181683"><ele>360.0</ele><time>2026-03-29T08:13:13.999Z</time></trkpt><trkpt lat="45.44206705384132" lon="11.54141458901311"><ele>361.3333333333333</ele><time>2026-03-29T08:13:16.999Z</time></trkpt><trkpt lat="45.44201907878241" lon="11.541514408940577"><ele>362.6666666666667</ele><time>2026-03-29T08:13:19.999Z</time></trkpt><trkpt lat="45.441940400590916" lon="11.541589442401095"><ele>364.0</ele><time>2026-03-29T08:13:23.999Z</time></trkpt><trkpt lat="45.44188638861704" lon="11.541653168313577"><ele>365.33333333333337</ele><time>2026-03-29T08:13:26.999Z</time></trkpt><trkpt lat="45.44182235663223" lon="11.541740832468603"><ele>366.6666666666667</ele><time>2026-03-29T08:13:29.999Z</time></trkpt><trkpt lat="45.4417732413465" lon="11.541869260863189"><ele>368.0</ele><time>2026-03-29T08:13:32.999Z</time></trkpt><trkpt lat="45.441726650097976" lon="11.541939774504764"><ele>365.59999999999997</ele><time>2026-03-29T08:13:35.999Z</time></trkpt><trkpt lat="45.44166649751834" lon="11.542067623696537"><ele>363.2</ele><time>2026-03-29T08:13:37.998Z</time></trkpt><trkpt lat="45.441605104218226" lon="11.542188747243571"><ele>360.8</ele><time>2026-03-29T08:13:39.998Z</time></trkpt><trkpt lat="45.44154705744628" lon="11.542307301051395"><ele>358.4</ele><time>2026-03-29T08:13:41.998Z</time></trkpt><trkpt lat="45.441471016860106" lon="11.54240401579684"><ele>356.0</ele><time>2026-03-29T08:13:43.998Z</time></trkpt><trkpt lat="45.4414227222807" lon="11.542492513321823"><ele>356.0</ele><time>2026-03-29T08:13:45.998Z</time></trkpt><trkpt lat="45.44136774983727" lon="11.5425909386349"><ele>356.0</ele><time>2026-03-29T08:13:47.998Z</time></trkpt><trkpt lat="45.441326202425536" lon="11.54266532686792"><ele>356.0</ele><time>2026-03-29T08:13:50.998Z</time></trkpt><trkpt lat="45.441410242086874" lon="11.542792561917922"><ele>356.0</ele><time>2026-03-29T08:13:52.998Z</time></trkpt><trkpt lat="45.441469597933576" lon="11.54290980910228"><ele>356.0</ele><time>2026-03-29T08:13:55.998Z</time></trkpt><trkpt lat="45.44150997302767" lon="11.543018414991808"><ele>355.5</ele><time>2026-03-29T08:13:57.998Z</time></trkpt><trkpt lat="45.44154249182965" lon="11.543107985117468"><ele>355.0</ele><time>2026-03-29T08:13:59.998Z</time></trkpt><trkpt lat="45.44157203589837" lon="11.543233564500028"><ele>354.5</ele><time>2026-03-29T08:14:02.998Z</time></trkpt><trkpt lat="45.44158570690505" lon="11.54337031009591"><ele>354.0</ele><time>2026-03-29T08:14:05.998Z</time></trkpt><trkpt lat="45.4415937931146" lon="11.54348259620803"><ele>353.5</ele><time>2026-03-29T08:14:07.998Z</time></trkpt><trkpt lat="45.44158779182386" lon="11.543600843500286"><ele>353.0</ele><time>2026-03-29T08:14:09.998Z</time></trkpt><trkpt lat="45.44159139878015" lon="11.54370438722275"><ele>353.5</ele><time>2026-03-29T08:14:11.998Z</time></trkpt><trkpt lat="45.44158998092393" lon="11.543810561075858"><ele>354.0</ele><time>2026-03-29T08:14:13.998Z</time></trkpt><trkpt lat="45.441594331140344" lon="11.543918350763699"><ele>354.5</ele><time>2026-03-29T08:14:15.997Z</time></trkpt><trkpt lat="45.44159665085097" lon="11.544026742743371"><ele>355.0</ele><time>2026-03-29T08:14:17.997Z</time></trkpt><trkpt lat="45.441598074096106" lon="11.544132593026506"><ele>355.5</ele><time>2026-03-29T08:14:19.997Z</time></trkpt><trkpt lat="45.4415885205557" lon="11.54424299411413"><ele>356.0</ele><time>2026-03-29T08:14:21.997Z</time></trkpt><trkpt lat="45.44157457471334" lon="11.544349009872287"><ele>356.0</ele><time>2026-03-29T08:14:23.997Z</time></trkpt><trkpt lat="45.44154833539069" lon="11.544448392560337"><ele>356.0</ele><time>2026-03-29T08:14:25.997Z</time></trkpt><trkpt lat="45.441515664848744" lon="11.544536809764528"><ele>356.0</ele><time>2026-03-29T08:14:27.997Z</time></trkpt><trkpt lat="45.44147619932292" lon="11.544620239117814"><ele>356.0</ele><time>2026-03-29T08:14:29.997Z</time></trkpt><trkpt lat="45.44143456537368" lon="11.544706424915082"><ele>356.0</ele><time>2026-03-29T08:14:31.997Z</time></trkpt><trkpt lat="45.441395763599985" lon="11.544798852654681"><ele>356.0</ele><time>2026-03-29T08:14:33.997Z</time></trkpt><trkpt lat="45.441332896310705" lon="11.544894143100706"><ele>355.85714285714283</ele><time>2026-03-29T08:14:37Z</time></trkpt><trkpt lat="45.441308004893386" lon="11.544977213426906"><ele>355.7142857142857</ele><time>2026-03-29T08:14:39Z</time></trkpt><trkpt lat="45.44125593101418" lon="11.54505123873624"><ele>355.57142857142856</ele><time>2026-03-29T08:14:41Z</time></trkpt><trkpt lat="45.44120250550826" lon="11.545141027954566"><ele>355.42857142857144</ele><time>2026-03-29T08:14:43Z</time></trkpt><trkpt lat="45.44116524750075" lon="11.545232973646112"><ele>355.2857142857143</ele><time>2026-03-29T08:14:45Z</time></trkpt><trkpt lat="45.44113722255823" lon="11.545316233426476"><ele>355.1428571428571</ele><time>2026-03-29T08:14:47Z</time></trkpt><trkpt lat="45.44111479019892" lon="11.54541343476364"><ele>355.0</ele><time>2026-03-29T08:14:49Z</time></trkpt><trkpt lat="45.441094523568836" lon="11.545528379918716"><ele>355.66666666666663</ele><time>2026-03-29T08:14:51Z</time></trkpt><trkpt lat="45.441089449442" lon="11.54564012684143"><ele>356.3333333333333</ele><time>2026-03-29T08:14:53Z</time></trkpt><trkpt lat="45.44108373063312" lon="11.545752222961362"><ele>357.0</ele><time>2026-03-29T08:14:55Z</time></trkpt><trkpt lat="45.44107862634388" lon="11.545868183875797"><ele>357.6666666666667</ele><time>2026-03-29T08:14:57Z</time></trkpt><trkpt lat="45.44108178734691" lon="11.545979024696637"><ele>358.33333333333337</ele><time>2026-03-29T08:14:59Z</time></trkpt><trkpt lat="45.441087007503505" lon="11.546092704510972"><ele>359.0</ele><time>2026-03-29T08:15:01Z</time></trkpt><trkpt lat="45.44109860908924" lon="11.546217430260025"><ele>359.0</ele><time>2026-03-29T08:15:03Z</time></trkpt><trkpt lat="45.44111078553066" lon="11.546335444048019"><ele>359.0</ele><time>2026-03-29T08:15:05Z</time></trkpt><trkpt lat="45.44112241059489" lon="11.546447222760602"><ele>359.0</ele><time>2026-03-29T08:15:06.999Z</time></trkpt><trkpt lat="45.44113106993236" lon="11.546555611129525"><ele>359.0</ele><time>2026-03-29T08:15:08.999Z</time></trkpt><trkpt lat="45.441132570612375" lon="11.546667468930444"><ele>359.0</ele><time>2026-03-29T08:15:10.999Z</time></trkpt><trkpt lat="45.44113212578995" lon="11.546779501867565"><ele>359.0</ele><time>2026-03-29T08:15:12.999Z</time></trkpt><trkpt lat="45.4411212781816" lon="11.546879554580459"><ele>359.0</ele><time>2026-03-29T08:15:14.999Z</time></trkpt><trkpt lat="45.44110222763915" lon="11.546998828690965"><ele>359.0</ele><time>2026-03-29T08:15:16.999Z</time></trkpt><trkpt lat="45.44107939737051" lon="11.54713240062082"><ele>359.0</ele><time>2026-03-29T08:15:18.999Z</time></trkpt><trkpt lat="45.441049894155285" lon="11.547260246415307"><ele>359.0</ele><time>2026-03-29T08:15:20.999Z</time></trkpt><trkpt lat="45.441027985146455" lon="11.547346522381"><ele>359.0</ele><time>2026-03-29T08:15:22.999Z</time></trkpt><trkpt lat="45.441006334959795" lon="11.547440250612212"><ele>359.0</ele><time>2026-03-29T08:15:24.999Z</time></trkpt><trkpt lat="45.44098330512383" lon="11.547548583109467"><ele>359.0</ele><time>2026-03-29T08:15:26.999Z</time></trkpt><trkpt lat="45.44095468798118" lon="11.547678701359267"><ele>359.0</ele><time>2026-03-29T08:15:28.999Z</time></trkpt><trkpt lat="45.44093413529072" lon="11.547800485563737"><ele>359.0</ele><time>2026-03-29T08:15:30.999Z</time></trkpt><trkpt lat="45.44094242679862" lon="11.547899585264194"><ele>359.0</ele><time>2026-03-29T08:15:32.999Z</time></trkpt><trkpt lat="45.44094036976614" lon="11.548001534690007"><ele>359.0</ele><time>2026-03-29T08:15:34.999Z</time></trkpt><trkpt lat="45.44084748567143" lon="11.547981282408852"><ele>359.0</ele><time>2026-03-29T08:15:36.999Z</time></trkpt><trkpt lat="45.44077401713497" lon="11.547970091357"><ele>359.0</ele><time>2026-03-29T08:15:38.999Z</time></trkpt><trkpt lat="45.4406999592742" lon="11.547982930389846"><ele>359.0</ele><time>2026-03-29T08:15:41.999Z</time></trkpt><trkpt lat="45.44062348105738" lon="11.547949585556186"><ele>359.0</ele><time>2026-03-29T08:15:44.999Z</time></trkpt><trkpt lat="45.440558745055185" lon="11.547912762495173"><ele>359.0</ele><time>2026-03-29T08:15:47.998Z</time></trkpt><trkpt lat="45.440502366576375" lon="11.547869420978543"><ele>359.0</ele><time>2026-03-29T08:15:50.998Z</time></trkpt><trkpt lat="45.440416757982454" lon="11.547929360423707"><ele>359.0</ele><time>2026-03-29T08:15:52.998Z</time></trkpt><trkpt lat="45.44034488495883" lon="11.547970535338827"><ele>359.2857142857143</ele><time>2026-03-29T08:15:54.998Z</time></trkpt><trkpt lat="45.440276145317085" lon="11.548013340232679"><ele>359.57142857142856</ele><time>2026-03-29T08:15:56.998Z</time></trkpt><trkpt lat="45.44020951652377" lon="11.548056209135806"><ele>359.8571428571429</ele><time>2026-03-29T08:15:58.998Z</time></trkpt><trkpt lat="45.44015868709941" lon="11.548113297688685"><ele>360.1428571428571</ele><time>2026-03-29T08:16:00.998Z</time></trkpt><trkpt lat="45.44009918467844" lon="11.548153499350047"><ele>360.4285714285714</ele><time>2026-03-29T08:16:02.998Z</time></trkpt><trkpt lat="45.440022251885026" lon="11.54819807371139"><ele>360.7142857142857</ele><time>2026-03-29T08:16:05.998Z</time></trkpt><trkpt lat="45.439961239859734" lon="11.548245196487022"><ele>361.0</ele><time>2026-03-29T08:16:07.998Z</time></trkpt><trkpt lat="45.43987336875296" lon="11.548287365621436"><ele>361.0</ele><time>2026-03-29T08:16:10.998Z</time></trkpt><trkpt lat="45.43980321642616" lon="11.54833649811941"><ele>361.0</ele><time>2026-03-29T08:16:13.998Z</time></trkpt><trkpt lat="45.439734727387226" lon="11.548384465619714"><ele>361.0</ele><time>2026-03-29T08:16:16.998Z</time></trkpt><trkpt lat="45.43968187759631" lon="11.54844815671421"><ele>361.0</ele><time>2026-03-29T08:16:19.998Z</time></trkpt><trkpt lat="45.43961688830529" lon="11.548485420213131"><ele>361.0</ele><time>2026-03-29T08:16:21.998Z</time></trkpt><trkpt lat="45.43954100796214" lon="11.548544714308973"><ele>361.0</ele><time>2026-03-29T08:16:23.997Z</time></trkpt><trkpt lat="45.4394562123025" lon="11.548615524211607"><ele>362.8333333333333</ele><time>2026-03-29T08:16:25.997Z</time></trkpt><trkpt lat="45.43938763558329" lon="11.548691873342642"><ele>364.66666666666663</ele><time>2026-03-29T08:16:27.997Z</time></trkpt><trkpt lat="45.439333419876874" lon="11.548764468211088"><ele>366.5</ele><time>2026-03-29T08:16:30.997Z</time></trkpt><trkpt lat="45.43927448843843" lon="11.548842660536552"><ele>368.3333333333333</ele><time>2026-03-29T08:16:34.997Z</time></trkpt><trkpt lat="45.43920479661573" lon="11.548925884555631"><ele>370.1666666666667</ele><time>2026-03-29T08:16:39.997Z</time></trkpt><trkpt lat="45.4391469512767" lon="11.548975612180136"><ele>372.0</ele><time>2026-03-29T08:16:45Z</time></trkpt><trkpt lat="45.43908629136966" lon="11.549024061925499"><ele>373.0</ele><time>2026-03-29T08:16:49Z</time></trkpt><trkpt lat="45.439013153725234" lon="11.549073733200121"><ele>374.0</ele><time>2026-03-29T08:16:53Z</time></trkpt><trkpt lat="45.4389512417403" lon="11.549131212560438"><ele>375.0</ele><time>2026-03-29T08:16:57Z</time></trkpt><trkpt lat="45.43887740357278" lon="11.549173370974009"><ele>376.0</ele><time>2026-03-29T08:17:01Z</time></trkpt><trkpt lat="45.438802174253645" lon="11.549202593185493"><ele>377.0</ele><time>2026-03-29T08:17:05Z</time></trkpt><trkpt lat="45.438730617302454" lon="11.549244432722878"><ele>378.0</ele><time>2026-03-29T08:17:09Z</time></trkpt><trkpt lat="45.43867620127242" lon="11.549291951681564"><ele>380.42857142857144</ele><time>2026-03-29T08:17:12Z</time></trkpt><trkpt lat="45.43860235333642" lon="11.54930678274014"><ele>382.8571428571429</ele><time>2026-03-29T08:17:15.999Z</time></trkpt><trkpt lat="45.438540030227024" lon="11.549294088173026"><ele>385.2857142857143</ele><time>2026-03-29T08:17:18.999Z</time></trkpt><trkpt lat="45.43848428760175" lon="11.549245645854828"><ele>387.7142857142857</ele><time>2026-03-29T08:17:21.999Z</time></trkpt><trkpt lat="45.43842318482496" lon="11.54920557249617"><ele>390.14285714285717</ele><time>2026-03-29T08:17:25.999Z</time></trkpt><trkpt lat="45.43836382809887" lon="11.549164440827278"><ele>392.57142857142856</ele><time>2026-03-29T08:17:29.999Z</time></trkpt><trkpt lat="45.438296441904214" lon="11.549140954611088"><ele>395.0</ele><time>2026-03-29T08:17:33.999Z</time></trkpt><trkpt lat="45.438242001496725" lon="11.549089615664283"><ele>394.99999999999994</ele><time>2026-03-29T08:17:37.999Z</time></trkpt><trkpt lat="45.43816955418495" lon="11.549031430188288"><ele>395.0</ele><time>2026-03-29T08:17:42.999Z</time></trkpt><trkpt lat="45.43811335518951" lon="11.548986173032871"><ele>395.0</ele><time>2026-03-29T08:17:46.999Z</time></trkpt><trkpt lat="45.43805134658559" lon="11.548903442789113"><ele>395.0</ele><time>2026-03-29T08:17:50.999Z</time></trkpt><trkpt lat="45.43797975029912" lon="11.54886267197137"><ele>394.99999999999994</ele><time>2026-03-29T08:17:54.998Z</time></trkpt><trkpt lat="45.43791541738826" lon="11.548808900272359"><ele>395.0</ele><time>2026-03-29T08:17:59.998Z</time></trkpt><trkpt lat="45.437852462534835" lon="11.548773260060162"><ele>394.3333333333333</ele><time>2026-03-29T08:18:04.998Z</time></trkpt><trkpt lat="45.43777879595041" lon="11.548733330593445"><ele>393.66666666666663</ele><time>2026-03-29T08:18:07.998Z</time></trkpt><trkpt lat="45.43769169655577" lon="11.548697173808687"><ele>393.0</ele><time>2026-03-29T08:18:10.998Z</time></trkpt><trkpt lat="45.437606336917085" lon="11.548673861876173"><ele>392.33333333333337</ele><time>2026-03-29T08:18:12.998Z</time></trkpt><trkpt lat="45.437502247807444" lon="11.548676160485227"><ele>391.6666666666667</ele><time>2026-03-29T08:18:14.998Z</time></trkpt><trkpt lat="45.4374335702443" lon="11.54867014391151"><ele>391.0</ele><time>2026-03-29T08:18:15.998Z</time></trkpt><trkpt lat="45.43737080393438" lon="11.548652657118751"><ele>391.00000000000006</ele><time>2026-03-29T08:18:16.998Z</time></trkpt><trkpt lat="45.437285130932416" lon="11.548661962653153"><ele>391.0</ele><time>2026-03-29T08:18:17.998Z</time></trkpt><trkpt lat="45.43720831774721" lon="11.548688169231523"><ele>391.0</ele><time>2026-03-29T08:18:18.998Z</time></trkpt><trkpt lat="45.43713838069254" lon="11.548791599790727"><ele>391.0</ele><time>2026-03-29T08:18:19.998Z</time></trkpt><trkpt lat="45.43707629070941" lon="11.548816727661459"><ele>391.00000000000006</ele><time>2026-03-29T08:18:20.998Z</time></trkpt><trkpt lat="45.437027488291776" lon="11.54888032021497"><ele>391.0</ele><time>2026-03-29T08:18:21.998Z</time></trkpt><trkpt lat="45.43691700296637" lon="11.548990572365119"><ele>390.6</ele><time>2026-03-29T08:18:23.998Z</time></trkpt><trkpt lat="45.43683212827227" lon="11.549052218201483"><ele>390.20000000000005</ele><time>2026-03-29T08:18:24.998Z</time></trkpt><trkpt lat="45.43676095817381" lon="11.549121316432169"><ele>389.79999999999995</ele><time>2026-03-29T08:18:25.998Z</time></trkpt><trkpt lat="45.43669520785059" lon="11.549208962909418"><ele>389.4</ele><time>2026-03-29T08:18:26.998Z</time></trkpt><trkpt lat="45.43660665954179" lon="11.549270402949782"><ele>389.0</ele><time>2026-03-29T08:18:27.998Z</time></trkpt><trkpt lat="45.436524549149226" lon="11.54934428828608"><ele>389.0</ele><time>2026-03-29T08:18:28.998Z</time></trkpt><trkpt lat="45.43642771202249" lon="11.549422052788914"><ele>389.0</ele><time>2026-03-29T08:18:29.998Z</time></trkpt><trkpt lat="45.43635832065979" lon="11.549473273447617"><ele>389.0</ele><time>2026-03-29T08:18:30.998Z</time></trkpt><trkpt lat="45.436293928284776" lon="11.549521043929758"><ele>389.0</ele><time>2026-03-29T08:18:31.998Z</time></trkpt><trkpt lat="45.436185178087385" lon="11.549588951965733"><ele>389.0</ele><time>2026-03-29T08:18:33.997Z</time></trkpt><trkpt lat="45.436107257143995" lon="11.549594474352627"><ele>386.0</ele><time>2026-03-29T08:18:35.997Z</time></trkpt><trkpt lat="45.43601285043204" lon="11.549632410897843"><ele>383.0</ele><time>2026-03-29T08:18:37.997Z</time></trkpt><trkpt lat="45.43592538280928" lon="11.549593826824935"><ele>380.0</ele><time>2026-03-29T08:18:39.997Z</time></trkpt><trkpt lat="45.435849171242296" lon="11.549584505234515"><ele>377.0</ele><time>2026-03-29T08:18:43.997Z</time></trkpt><trkpt lat="45.435840375480375" lon="11.54989745980679"><ele>377.0</ele><time>2026-03-29T08:18:44.997Z</time></trkpt><trkpt lat="45.43578480937999" lon="11.549966061986215"><ele>377.0</ele><time>2026-03-29T08:18:52Z</time></trkpt><trkpt lat="45.435730920204485" lon="11.55001972997526"><ele>377.0</ele><time>2026-03-29T08:18:56Z</time></trkpt><trkpt lat="45.43567245169231" lon="11.550095106776494"><ele>377.0</ele><time>2026-03-29T08:19:01Z</time></trkpt><trkpt lat="45.43562169241462" lon="11.550191699587344"><ele>377.0</ele><time>2026-03-29T08:19:06Z</time></trkpt><trkpt lat="45.435583195362064" lon="11.550279344794474"><ele>377.0</ele><time>2026-03-29T08:19:11Z</time></trkpt><trkpt lat="45.43554279132404" lon="11.550369751826926"><ele>377.6666666666667</ele><time>2026-03-29T08:19:15Z</time></trkpt><trkpt lat="45.43548849449887" lon="11.550462324791509"><ele>378.33333333333337</ele><time>2026-03-29T08:19:20Z</time></trkpt><trkpt lat="45.43544866783147" lon="11.550580360135207"><ele>379.0</ele><time>2026-03-29T08:19:23.999Z</time></trkpt><trkpt lat="45.435405947021856" lon="11.55067595113131"><ele>379.6666666666667</ele><time>2026-03-29T08:19:25.999Z</time></trkpt><trkpt lat="45.43532504304392" lon="11.550726141219354"><ele>380.3333333333333</ele><time>2026-03-29T08:19:28.999Z</time></trkpt><trkpt lat="45.43525518539132" lon="11.550751004604114"><ele>381.0</ele><time>2026-03-29T08:19:30.999Z</time></trkpt><trkpt lat="45.43516891634127" lon="11.550736074592786"><ele>381.0</ele><time>2026-03-29T08:19:33.999Z</time></trkpt><trkpt lat="45.43509470739857" lon="11.550748580849026"><ele>381.0</ele><time>2026-03-29T08:19:35.999Z</time></trkpt><trkpt lat="45.43481459700491" lon="11.550574594337878"><ele>381.0</ele><time>2026-03-29T08:19:36.999Z</time></trkpt><trkpt lat="45.43474149322852" lon="11.55056371094273"><ele>381.0</ele><time>2026-03-29T08:19:39.999Z</time></trkpt><trkpt lat="45.43468086420726" lon="11.55049524694144"><ele>381.0</ele><time>2026-03-29T08:19:43.999Z</time></trkpt><trkpt lat="45.43465755820155" lon="11.550406850051825"><ele>381.0</ele><time>2026-03-29T08:19:46.999Z</time></trkpt><trkpt lat="45.434641202782934" lon="11.550291362847403"><ele>381.0</ele><time>2026-03-29T08:19:50.999Z</time></trkpt><trkpt lat="45.43461963986735" lon="11.550159345661609"><ele>381.0</ele><time>2026-03-29T08:19:53.999Z</time></trkpt><trkpt lat="45.4345651179273" lon="11.550075512125293"><ele>381.0</ele><time>2026-03-29T08:19:57.999Z</time></trkpt><trkpt lat="45.43451960747731" lon="11.550003341697606"><ele>383.1666666666667</ele><time>2026-03-29T08:20:00.998Z</time></trkpt><trkpt lat="45.43448389958896" lon="11.549909820575548"><ele>385.33333333333337</ele><time>2026-03-29T08:20:04.998Z</time></trkpt><trkpt lat="45.434477467528694" lon="11.549803746045367"><ele>387.5</ele><time>2026-03-29T08:20:09.998Z</time></trkpt><trkpt lat="45.43455802904363" lon="11.549806283114757"><ele>389.6666666666667</ele><time>2026-03-29T08:20:13.998Z</time></trkpt><trkpt lat="45.43463121233515" lon="11.549803782941703"><ele>391.83333333333337</ele><time>2026-03-29T08:20:17.998Z</time></trkpt><trkpt lat="45.43470200266304" lon="11.549798665262854"><ele>394.0</ele><time>2026-03-29T08:20:21.998Z</time></trkpt><trkpt lat="45.43475472772448" lon="11.549718641149306"><ele>394.00000000000006</ele><time>2026-03-29T08:20:24.998Z</time></trkpt><trkpt lat="45.434811884508534" lon="11.549659745446693"><ele>394.0</ele><time>2026-03-29T08:20:27.998Z</time></trkpt><trkpt lat="45.43486984979055" lon="11.549570255809627"><ele>394.0</ele><time>2026-03-29T08:20:30.998Z</time></trkpt><trkpt lat="45.43493126579768" lon="11.549516371788073"><ele>394.0</ele><time>2026-03-29T08:20:33.998Z</time></trkpt><trkpt lat="45.4349990936805" lon="11.549434334988172"><ele>394.00000000000006</ele><time>2026-03-29T08:20:37.997Z</time></trkpt><trkpt lat="45.435049928599966" lon="11.549346422990924"><ele>394.0</ele><time>2026-03-29T08:20:40.997Z</time></trkpt><trkpt lat="45.43509476574031" lon="11.549232672943411"><ele>396.0</ele><time>2026-03-29T08:20:43.997Z</time></trkpt><trkpt lat="45.43514578857768" lon="11.549150730892409"><ele>398.0</ele><time>2026-03-29T08:20:46.997Z</time></trkpt><trkpt lat="45.435182382607735" lon="11.549059991930749"><ele>400.0</ele><time>2026-03-29T08:20:49.997Z</time></trkpt><trkpt lat="45.4352068741964" lon="11.548942423858806"><ele>402.0</ele><time>2026-03-29T08:20:54Z</time></trkpt><trkpt lat="45.43523602528914" lon="11.548854255715218"><ele>404.0</ele><time>2026-03-29T08:20:57Z</time></trkpt><trkpt lat="45.43527244060716" lon="11.548777552442395"><ele>406.0</ele><time>2026-03-29T08:21:00Z</time></trkpt><trkpt lat="45.43530924348239" lon="11.548702545054141"><ele>408.0</ele><time>2026-03-29T08:21:03Z</time></trkpt><trkpt lat="45.43537077530634" lon="11.548639024679563"><ele>408.42857142857144</ele><time>2026-03-29T08:21:07Z</time></trkpt><trkpt lat="45.43542836002101" lon="11.548567421765162"><ele>408.8571428571429</ele><time>2026-03-29T08:21:10Z</time></trkpt><trkpt lat="45.43546357163453" lon="11.548482713530733"><ele>409.2857142857143</ele><time>2026-03-29T08:21:13Z</time></trkpt><trkpt lat="45.435515784208874" lon="11.548420759004998"><ele>409.7142857142857</ele><time>2026-03-29T08:21:16Z</time></trkpt><trkpt lat="45.43556566604235" lon="11.548344743162719"><ele>410.1428571428571</ele><time>2026-03-29T08:21:19Z</time></trkpt><trkpt lat="45.435614117581416" lon="11.548243074398457"><ele>410.57142857142856</ele><time>2026-03-29T08:21:23Z</time></trkpt><trkpt lat="45.43565196260245" lon="11.548157207484659"><ele>411.0</ele><time>2026-03-29T08:21:26Z</time></trkpt><trkpt lat="45.43569208835561" lon="11.54807222727638"><ele>411.0</ele><time>2026-03-29T08:21:28.999Z</time></trkpt><trkpt lat="45.435731446102494" lon="11.547992336908033"><ele>411.0</ele><time>2026-03-29T08:21:31.999Z</time></trkpt><trkpt lat="45.43577904025301" lon="11.547901861577635"><ele>411.0</ele><time>2026-03-29T08:21:35.999Z</time></trkpt><trkpt lat="45.43580217989718" lon="11.547791794841174"><ele>411.0</ele><time>2026-03-29T08:21:40.999Z</time></trkpt><trkpt lat="45.43578181220207" lon="11.547705709512343"><ele>411.0</ele><time>2026-03-29T08:21:43.999Z</time></trkpt><trkpt lat="45.435752595875904" lon="11.547621139564628"><ele>411.0</ele><time>2026-03-29T08:21:46.999Z</time></trkpt><trkpt lat="45.43572232225011" lon="11.547531973715676"><ele>411.0</ele><time>2026-03-29T08:21:49.999Z</time></trkpt><trkpt lat="45.43567747577577" lon="11.547423035577642"><ele>412.6</ele><time>2026-03-29T08:21:52.999Z</time></trkpt><trkpt lat="45.43561332731972" lon="11.547380079995383"><ele>414.20000000000005</ele><time>2026-03-29T08:21:55.999Z</time></trkpt><trkpt lat="45.435616025868185" lon="11.547163950412695"><ele>415.79999999999995</ele><time>2026-03-29T08:21:56.999Z</time></trkpt><trkpt lat="45.435549943616834" lon="11.547149670681897"><ele>417.4</ele><time>2026-03-29T08:22:00.999Z</time></trkpt><trkpt lat="45.43544154412104" lon="11.547175773871306"><ele>419.0</ele><time>2026-03-29T08:22:05.999Z</time></trkpt><trkpt lat="45.435382031700016" lon="11.547062107196412"><ele>417.99999999999994</ele><time>2026-03-29T08:22:07.998Z</time></trkpt><trkpt lat="45.43533818891643" lon="11.546995236783772"><ele>417.0</ele><time>2026-03-29T08:22:08.998Z</time></trkpt><trkpt lat="45.435303406936775" lon="11.54686820699096"><ele>416.0</ele><time>2026-03-29T08:22:10.998Z</time></trkpt><trkpt lat="45.4353006287174" lon="11.546720793052476"><ele>415.0</ele><time>2026-03-29T08:22:13.998Z</time></trkpt><trkpt lat="45.43531767594721" lon="11.546634296329724"><ele>413.99999999999994</ele><time>2026-03-29T08:22:14.998Z</time></trkpt><trkpt lat="45.43535182329876" lon="11.54648434045721"><ele>413.0</ele><time>2026-03-29T08:22:16.998Z</time></trkpt><trkpt lat="45.435377489379825" lon="11.5463747219959"><ele>413.0</ele><time>2026-03-29T08:22:17.998Z</time></trkpt><trkpt lat="45.43539951379708" lon="11.546267634834933"><ele>413.0</ele><time>2026-03-29T08:22:18.998Z</time></trkpt><trkpt lat="45.43541585021183" lon="11.546134779286499"><ele>413.0</ele><time>2026-03-29T08:22:19.998Z</time></trkpt><trkpt lat="45.43542605326077" lon="11.545986253669337"><ele>413.0</ele><time>2026-03-29T08:22:20.998Z</time></trkpt><trkpt lat="45.43542167373277" lon="11.545837433742916"><ele>413.0</ele><time>2026-03-29T08:22:21.998Z</time></trkpt><trkpt lat="45.435439057997336" lon="11.545710780731174"><ele>412.0</ele><time>2026-03-29T08:22:22.998Z</time></trkpt><trkpt lat="45.43543850404222" lon="11.545596851026838"><ele>411.0</ele><time>2026-03-29T08:22:23.998Z</time></trkpt><trkpt lat="45.43543946823943" lon="11.545501138401216"><ele>410.0</ele><time>2026-03-29T08:22:24.998Z</time></trkpt><trkpt lat="45.43546608431741" lon="11.545348344722923"><ele>409.0</ele><time>2026-03-29T08:22:26.998Z</time></trkpt><trkpt lat="45.435528279599914" lon="11.545195369263066"><ele>408.0</ele><time>2026-03-29T08:22:28.998Z</time></trkpt><trkpt lat="45.43561039168047" lon="11.54505909641304"><ele>408.0</ele><time>2026-03-29T08:22:30.998Z</time></trkpt><trkpt lat="45.43565633338082" lon="11.544988941826821"><ele>408.0</ele><time>2026-03-29T08:22:31.998Z</time></trkpt><trkpt lat="45.435709375254994" lon="11.544912882136172"><ele>408.0</ele><time>2026-03-29T08:22:32.998Z</time></trkpt><trkpt lat="45.43576570723709" lon="11.54485192962637"><ele>408.0</ele><time>2026-03-29T08:22:33.998Z</time></trkpt><trkpt lat="45.43588508184163" lon="11.544774547495253"><ele>408.0</ele><time>2026-03-29T08:22:35.998Z</time></trkpt><trkpt lat="45.43595460534651" lon="11.544743836811087"><ele>408.0</ele><time>2026-03-29T08:22:36.998Z</time></trkpt><trkpt lat="45.43607279177947" lon="11.54471520395151"><ele>408.0</ele><time>2026-03-29T08:22:38.998Z</time></trkpt><trkpt lat="45.43619018329251" lon="11.544761912879943"><ele>408.0</ele><time>2026-03-29T08:22:40.998Z</time></trkpt><trkpt lat="45.43625220939169" lon="11.54479469645225"><ele>408.0</ele><time>2026-03-29T08:22:41.998Z</time></trkpt><trkpt lat="45.43631930947292" lon="11.544827350808731"><ele>408.0</ele><time>2026-03-29T08:22:42.998Z</time></trkpt><trkpt lat="45.436449045567386" lon="11.5448713271799"><ele>408.0</ele><time>2026-03-29T08:22:44.997Z</time></trkpt><trkpt lat="45.436557254515066" lon="11.544867162022232"><ele>408.0</ele><time>2026-03-29T08:22:46.997Z</time></trkpt><trkpt lat="45.43661934938823" lon="11.544726523229262"><ele>408.0</ele><time>2026-03-29T08:22:48.997Z</time></trkpt><trkpt lat="45.43665250448883" lon="11.544622067769199"><ele>408.0</ele><time>2026-03-29T08:22:50.997Z</time></trkpt><trkpt lat="45.43661584216992" lon="11.544460807235794"><ele>408.0</ele><time>2026-03-29T08:22:52.997Z</time></trkpt><trkpt lat="45.43652287856513" lon="11.544394595644356"><ele>408.0</ele><time>2026-03-29T08:22:54.997Z</time></trkpt><trkpt lat="45.43645120060827" lon="11.544349026525298"><ele>407.5</ele><time>2026-03-29T08:22:56.997Z</time></trkpt><trkpt lat="45.43638416001663" lon="11.544314929850959"><ele>407.0</ele><time>2026-03-29T08:22:58.997Z</time></trkpt><trkpt lat="45.43632350466602" lon="11.54425343284041"><ele>406.5</ele><time>2026-03-29T08:23:01Z</time></trkpt><trkpt lat="45.43625321008535" lon="11.54415682810562"><ele>406.0</ele><time>2026-03-29T08:23:04Z</time></trkpt><trkpt lat="45.43617684194019" lon="11.544087258198495"><ele>405.5</ele><time>2026-03-29T08:23:07Z</time></trkpt><trkpt lat="45.436122582451134" lon="11.544023655886075"><ele>405.0</ele><time>2026-03-29T08:23:11Z</time></trkpt><trkpt lat="45.436065255230886" lon="11.543930151998394"><ele>404.2857142857143</ele><time>2026-03-29T08:23:14Z</time></trkpt><trkpt lat="45.43601935677618" lon="11.543863207407732"><ele>403.57142857142856</ele><time>2026-03-29T08:23:16Z</time></trkpt><trkpt lat="45.435977608658945" lon="11.543776819595802"><ele>402.8571428571429</ele><time>2026-03-29T08:23:18Z</time></trkpt><trkpt lat="45.43594689851922" lon="11.543683534914086"><ele>402.1428571428571</ele><time>2026-03-29T08:23:21Z</time></trkpt><trkpt lat="45.435951649844434" lon="11.543549979887382"><ele>401.42857142857144</ele><time>2026-03-29T08:23:24Z</time></trkpt><trkpt lat="45.43595914185895" lon="11.543451557470972"><ele>400.7142857142857</ele><time>2026-03-29T08:23:26Z</time></trkpt><trkpt lat="45.43596772294711" lon="11.543359325089488"><ele>400.0</ele><time>2026-03-29T08:23:28Z</time></trkpt><trkpt lat="45.43597521844862" lon="11.543224943628319"><ele>400.00000000000006</ele><time>2026-03-29T08:23:31Z</time></trkpt><trkpt lat="45.435994429600754" lon="11.54312441115381"><ele>400.0</ele><time>2026-03-29T08:23:33.999Z</time></trkpt><trkpt lat="45.4360267585205" lon="11.543004884856716"><ele>400.0</ele><time>2026-03-29T08:23:37.999Z</time></trkpt><trkpt lat="45.43605102679847" lon="11.542917250593145"><ele>400.0</ele><time>2026-03-29T08:23:40.999Z</time></trkpt><trkpt lat="45.43607573372434" lon="11.542833173292742"><ele>400.0</ele><time>2026-03-29T08:23:43.999Z</time></trkpt><trkpt lat="45.436102520362596" lon="11.542742343639894"><ele>400.00000000000006</ele><time>2026-03-29T08:23:46.999Z</time></trkpt><trkpt lat="45.436129633790166" lon="11.542656620117778"><ele>400.0</ele><time>2026-03-29T08:23:48.999Z</time></trkpt><trkpt lat="45.43616378621994" lon="11.542551962456088"><ele>399.8571428571429</ele><time>2026-03-29T08:23:51.999Z</time></trkpt><trkpt lat="45.43619162738692" lon="11.542468685361696"><ele>399.7142857142857</ele><time>2026-03-29T08:23:53.999Z</time></trkpt><trkpt lat="45.43622011943831" lon="11.542386262990076"><ele>399.57142857142856</ele><time>2026-03-29T08:23:55.999Z</time></trkpt><trkpt lat="45.43625277396773" lon="11.542293291271212"><ele>399.42857142857144</ele><time>2026-03-29T08:23:57.999Z</time></trkpt><trkpt lat="45.4362934240632" lon="11.542184930201483"><ele>399.2857142857143</ele><time>2026-03-29T08:24:00.999Z</time></trkpt><trkpt lat="45.43632438174742" lon="11.542106427185368"><ele>399.14285714285717</ele><time>2026-03-29T08:24:02.999Z</time></trkpt><trkpt lat="45.43637197672993" lon="11.54200094029462"><ele>399.0</ele><time>2026-03-29T08:24:05.999Z</time></trkpt><trkpt lat="45.436420643568994" lon="11.541894478797719"><ele>398.5</ele><time>2026-03-29T08:24:08.999Z</time></trkpt><trkpt lat="45.43645570460825" lon="11.541814699971482"><ele>398.0</ele><time>2026-03-29T08:24:10.999Z</time></trkpt><trkpt lat="45.436492504910795" lon="11.54170674465701"><ele>397.5</ele><time>2026-03-29T08:24:12.998Z</time></trkpt><trkpt lat="45.43651942162751" lon="11.541559042394972"><ele>397.0</ele><time>2026-03-29T08:24:14.998Z</time></trkpt><trkpt lat="45.436523849716124" lon="11.541457914536059"><ele>396.5</ele><time>2026-03-29T08:24:16.998Z</time></trkpt><trkpt lat="45.43651492411158" lon="11.541354290798825"><ele>396.0</ele><time>2026-03-29T08:24:18.998Z</time></trkpt><trkpt lat="45.43649796750698" lon="11.541238898990278"><ele>396.3333333333333</ele><time>2026-03-29T08:24:21.998Z</time></trkpt><trkpt lat="45.436473546736835" lon="11.541146088198422"><ele>396.66666666666663</ele><time>2026-03-29T08:24:23.998Z</time></trkpt><trkpt lat="45.43644157112762" lon="11.541029329539349"><ele>397.0</ele><time>2026-03-29T08:24:25.998Z</time></trkpt><trkpt lat="45.4364197102285" lon="11.540917724489333"><ele>397.3333333333333</ele><time>2026-03-29T08:24:27.998Z</time></trkpt><trkpt lat="45.43639193164593" lon="11.540791435712677"><ele>397.66666666666663</ele><time>2026-03-29T08:24:29.998Z</time></trkpt><trkpt lat="45.436369947181404" lon="11.540668294466105"><ele>398.0</ele><time>2026-03-29T08:24:31.998Z</time></trkpt><trkpt lat="45.43634830078865" lon="11.54051692486606"><ele>397.49999999999994</ele><time>2026-03-29T08:24:33.998Z</time></trkpt><trkpt lat="45.43634562766712" lon="11.540375341818898"><ele>397.0</ele><time>2026-03-29T08:24:35.998Z</time></trkpt><trkpt lat="45.43637262216829" lon="11.540241574531324"><ele>396.5</ele><time>2026-03-29T08:24:37.998Z</time></trkpt><trkpt lat="45.436429657232836" lon="11.540141267829672"><ele>396.0</ele><time>2026-03-29T08:24:39.998Z</time></trkpt><trkpt lat="45.4364852103961" lon="11.540059272237725"><ele>395.49999999999994</ele><time>2026-03-29T08:24:41.998Z</time></trkpt><trkpt lat="45.43653769274769" lon="11.53998232787029"><ele>395.0</ele><time>2026-03-29T08:24:43.998Z</time></trkpt><trkpt lat="45.43658409460624" lon="11.539902062359056"><ele>395.0</ele><time>2026-03-29T08:24:45.998Z</time></trkpt><trkpt lat="45.43662886275365" lon="11.539819346208832"><ele>395.0</ele><time>2026-03-29T08:24:47.998Z</time></trkpt><trkpt lat="45.43666256430485" lon="11.53971910786854"><ele>395.0</ele><time>2026-03-29T08:24:49.997Z</time></trkpt><trkpt lat="45.43668854094065" lon="11.539611882119598"><ele>395.0</ele><time>2026-03-29T08:24:51.997Z</time></trkpt><trkpt lat="45.43671413413301" lon="11.539519914013209"><ele>395.0</ele><time>2026-03-29T08:24:53.997Z</time></trkpt><trkpt lat="45.43659727265477" lon="11.539337988046789"><ele>395.16666666666663</ele><time>2026-03-29T08:24:57.997Z</time></trkpt><trkpt lat="45.43652115616684" lon="11.539339654841474"><ele>395.3333333333333</ele><time>2026-03-29T08:25:00.997Z</time></trkpt><trkpt lat="45.436435571412964" lon="11.539301815968201"><ele>395.5</ele><time>2026-03-29T08:25:03.997Z</time></trkpt><trkpt lat="45.43637111506816" lon="11.539320676608932"><ele>395.66666666666663</ele><time>2026-03-29T08:25:06Z</time></trkpt><trkpt lat="45.4363071762092" lon="11.539296849557626"><ele>395.8333333333333</ele><time>2026-03-29T08:25:08Z</time></trkpt><trkpt lat="45.43622136591875" lon="11.539266401340205"><ele>396.0</ele><time>2026-03-29T08:25:11Z</time></trkpt><trkpt lat="45.436159211894974" lon="11.539225119716566"><ele>396.1666666666667</ele><time>2026-03-29T08:25:13Z</time></trkpt><trkpt lat="45.43609522391648" lon="11.539179111308755"><ele>396.33333333333337</ele><time>2026-03-29T08:25:15Z</time></trkpt><trkpt lat="45.43602108292324" lon="11.539117542167492"><ele>396.5</ele><time>2026-03-29T08:25:18Z</time></trkpt><trkpt lat="45.43596582315762" lon="11.539069515889125"><ele>396.6666666666667</ele><time>2026-03-29T08:25:20Z</time></trkpt><trkpt lat="45.4358817425075" lon="11.539015616515613"><ele>396.83333333333337</ele><time>2026-03-29T08:25:23Z</time></trkpt><trkpt lat="45.43579323837364" lon="11.538981246055346"><ele>397.0</ele><time>2026-03-29T08:25:26Z</time></trkpt><trkpt lat="45.435710342595065" lon="11.538947958791505"><ele>397.00000000000006</ele><time>2026-03-29T08:25:29Z</time></trkpt><trkpt lat="45.435620420361985" lon="11.53890986512833"><ele>397.0</ele><time>2026-03-29T08:25:32Z</time></trkpt><trkpt lat="45.4355502782958" lon="11.538878374157568"><ele>397.0</ele><time>2026-03-29T08:25:34Z</time></trkpt><trkpt lat="45.43547435617441" lon="11.53884083156383"><ele>397.0</ele><time>2026-03-29T08:25:37Z</time></trkpt><trkpt lat="45.435398935116375" lon="11.538798211982444"><ele>397.00000000000006</ele><time>2026-03-29T08:25:39.999Z</time></trkpt><trkpt lat="45.43533287236136" lon="11.538746706979058"><ele>397.0</ele><time>2026-03-29T08:25:42.999Z</time></trkpt><trkpt lat="45.435283083747635" lon="11.538681114751869"><ele>398.7142857142857</ele><time>2026-03-29T08:25:45.999Z</time></trkpt><trkpt lat="45.43522279892839" lon="11.538602205273772"><ele>400.42857142857144</ele><time>2026-03-29T08:25:48.999Z</time></trkpt><trkpt lat="45.435168739656646" lon="11.53854620520704"><ele>402.1428571428571</ele><time>2026-03-29T08:25:51.999Z</time></trkpt><trkpt lat="45.435108352459835" lon="11.538485940580198"><ele>403.8571428571429</ele><time>2026-03-29T08:25:54.999Z</time></trkpt><trkpt lat="45.43504867638328" lon="11.538426302081561"><ele>405.5714285714286</ele><time>2026-03-29T08:25:57.999Z</time></trkpt><trkpt lat="45.43499600414575" lon="11.538372734672878"><ele>407.2857142857143</ele><time>2026-03-29T08:26:00.999Z</time></trkpt><trkpt lat="45.43494461543564" lon="11.538314503309936"><ele>409.0</ele><time>2026-03-29T08:26:03.999Z</time></trkpt><trkpt lat="45.43489836615697" lon="11.538229081425191"><ele>409.0</ele><time>2026-03-29T08:26:08.999Z</time></trkpt><trkpt lat="45.434808063910864" lon="11.538232766499796"><ele>409.0</ele><time>2026-03-29T08:26:09.999Z</time></trkpt><trkpt lat="45.43473231220065" lon="11.538230236067761"><ele>409.0</ele><time>2026-03-29T08:26:11.999Z</time></trkpt><trkpt lat="45.4346331037509" lon="11.538224443770593"><ele>409.0</ele><time>2026-03-29T08:26:13.999Z</time></trkpt><trkpt lat="45.43452145874325" lon="11.538226284788315"><ele>409.0</ele><time>2026-03-29T08:26:15.999Z</time></trkpt><trkpt lat="45.43441635672397" lon="11.538252872421712"><ele>409.1428571428571</ele><time>2026-03-29T08:26:17.998Z</time></trkpt><trkpt lat="45.4343419150581" lon="11.538272677992763"><ele>409.28571428571433</ele><time>2026-03-29T08:26:19.998Z</time></trkpt><trkpt lat="45.434268485999276" lon="11.538289037373692"><ele>409.42857142857144</ele><time>2026-03-29T08:26:21.998Z</time></trkpt><trkpt lat="45.434207960172095" lon="11.53832013411547"><ele>409.57142857142856</ele><time>2026-03-29T08:26:23.998Z</time></trkpt><trkpt lat="45.43414938792171" lon="11.538231020920028"><ele>409.71428571428567</ele><time>2026-03-29T08:26:26.998Z</time></trkpt><trkpt lat="45.4340892070036" lon="11.538169005314709"><ele>409.8571428571429</ele><time>2026-03-29T08:26:29.998Z</time></trkpt><trkpt lat="45.43403425411056" lon="11.538104280206527"><ele>410.0</ele><time>2026-03-29T08:26:32.998Z</time></trkpt><trkpt lat="45.43397792443617" lon="11.538039965733171"><ele>409.99999999999994</ele><time>2026-03-29T08:26:35.998Z</time></trkpt><trkpt lat="45.43391727615252" lon="11.53797228654175"><ele>410.0</ele><time>2026-03-29T08:26:38.998Z</time></trkpt><trkpt lat="45.43385523789224" lon="11.537911531438619"><ele>410.0</ele><time>2026-03-29T08:26:41.998Z</time></trkpt><trkpt lat="45.43378557132663" lon="11.537864581019397"><ele>410.0</ele><time>2026-03-29T08:26:44.998Z</time></trkpt><trkpt lat="45.43371322964793" lon="11.537829819946202"><ele>409.99999999999994</ele><time>2026-03-29T08:26:47.998Z</time></trkpt><trkpt lat="45.433638516533286" lon="11.537802673761886"><ele>410.0</ele><time>2026-03-29T08:26:50.998Z</time></trkpt><trkpt lat="45.433571579845825" lon="11.537793759167313"><ele>410.3333333333333</ele><time>2026-03-29T08:26:52.998Z</time></trkpt><trkpt lat="45.43350409198605" lon="11.537817011155933"><ele>410.66666666666663</ele><time>2026-03-29T08:26:54.998Z</time></trkpt><trkpt lat="45.43341357282806" lon="11.53784641290644"><ele>411.0</ele><time>2026-03-29T08:26:57.997Z</time></trkpt><trkpt lat="45.43334423840982" lon="11.537880819017857"><ele>411.33333333333337</ele><time>2026-03-29T08:26:59.997Z</time></trkpt><trkpt lat="45.43327247926455" lon="11.537951198745539"><ele>411.6666666666667</ele><time>2026-03-29T08:27:01.997Z</time></trkpt><trkpt lat="45.43322235847371" lon="11.538061913944915"><ele>412.0</ele><time>2026-03-29T08:27:03.997Z</time></trkpt><trkpt lat="45.433168463806815" lon="11.538122406298665"><ele>411.71428571428567</ele><time>2026-03-29T08:27:05.997Z</time></trkpt><trkpt lat="45.433108347359294" lon="11.53822337363691"><ele>411.42857142857144</ele><time>2026-03-29T08:27:08.997Z</time></trkpt><trkpt lat="45.43306457929768" lon="11.538297818429882"><ele>411.1428571428571</ele><time>2026-03-29T08:27:10.997Z</time></trkpt><trkpt lat="45.43301959594937" lon="11.538374865392282"><ele>410.85714285714283</ele><time>2026-03-29T08:27:13Z</time></trkpt><trkpt lat="45.43297731983676" lon="11.538454466786305"><ele>410.57142857142856</ele><time>2026-03-29T08:27:15Z</time></trkpt><trkpt lat="45.432946246857" lon="11.53854524132219"><ele>410.2857142857143</ele><time>2026-03-29T08:27:17Z</time></trkpt><trkpt lat="45.43292821595313" lon="11.538635819086677"><ele>410.0</ele><time>2026-03-29T08:27:19Z</time></trkpt><trkpt lat="45.432912067184056" lon="11.538725668754973"><ele>409.99999999999994</ele><time>2026-03-29T08:27:21Z</time></trkpt><trkpt lat="45.43283921245247" lon="11.538811917008667"><ele>410.0</ele><time>2026-03-29T08:27:24Z</time></trkpt><trkpt lat="45.432789932361004" lon="11.538884840425615"><ele>410.0</ele><time>2026-03-29T08:27:26Z</time></trkpt><trkpt lat="45.432745877667436" lon="11.538949981870495"><ele>410.0</ele><time>2026-03-29T08:27:28Z</time></trkpt><trkpt lat="45.43267594179306" lon="11.539053392472804"><ele>409.99999999999994</ele><time>2026-03-29T08:27:30Z</time></trkpt><trkpt lat="45.43260542324878" lon="11.539160586953027"><ele>410.0</ele><time>2026-03-29T08:27:32Z</time></trkpt><trkpt lat="45.43256850340138" lon="11.539241168019055"><ele>409.99999999999994</ele><time>2026-03-29T08:27:33Z</time></trkpt><trkpt lat="45.432532022976105" lon="11.539355599977181"><ele>410.0</ele><time>2026-03-29T08:27:34Z</time></trkpt><trkpt lat="45.4324750327284" lon="11.5394349031803"><ele>410.0</ele><time>2026-03-29T08:27:35Z</time></trkpt><trkpt lat="45.432428961968895" lon="11.53952048575244"><ele>410.0</ele><time>2026-03-29T08:27:36Z</time></trkpt><trkpt lat="45.432383871186865" lon="11.539590030397957"><ele>409.99999999999994</ele><time>2026-03-29T08:27:37Z</time></trkpt><trkpt lat="45.43229653074514" lon="11.539706318466648"><ele>410.0</ele><time>2026-03-29T08:27:39Z</time></trkpt><trkpt lat="45.432242390473036" lon="11.539761753950978"><ele>409.6</ele><time>2026-03-29T08:27:40Z</time></trkpt><trkpt lat="45.43218671960488" lon="11.539806261513778"><ele>409.2</ele><time>2026-03-29T08:27:41Z</time></trkpt><trkpt lat="45.432070079183895" lon="11.53984605608581"><ele>408.79999999999995</ele><time>2026-03-29T08:27:43Z</time></trkpt><trkpt lat="45.431954056852156" lon="11.53987647008403"><ele>408.4</ele><time>2026-03-29T08:27:44.999Z</time></trkpt><trkpt lat="45.43184244136605" lon="11.539910038347012"><ele>408.0</ele><time>2026-03-29T08:27:46.999Z</time></trkpt><trkpt lat="45.4317371333525" lon="11.539969156494552"><ele>407.2</ele><time>2026-03-29T08:27:48.999Z</time></trkpt><trkpt lat="45.43167047399267" lon="11.539971023921296"><ele>406.4</ele><time>2026-03-29T08:27:49.999Z</time></trkpt><trkpt lat="45.431608291593015" lon="11.540022583594473"><ele>405.59999999999997</ele><time>2026-03-29T08:27:50.999Z</time></trkpt><trkpt lat="45.431484504955215" lon="11.540049829302525"><ele>404.79999999999995</ele><time>2026-03-29T08:27:52.999Z</time></trkpt><trkpt lat="45.43141057368825" lon="11.540092306108614"><ele>404.0</ele><time>2026-03-29T08:27:53.999Z</time></trkpt><trkpt lat="45.43130303462899" lon="11.540118392772706"><ele>403.5</ele><time>2026-03-29T08:27:55.999Z</time></trkpt><trkpt lat="45.43115393141391" lon="11.539930613678148"><ele>403.0</ele><time>2026-03-29T08:27:57.999Z</time></trkpt><trkpt lat="45.431089549885876" lon="11.539863805073509"><ele>402.5</ele><time>2026-03-29T08:27:58.999Z</time></trkpt><trkpt lat="45.43100952283093" lon="11.539820137314548"><ele>402.0</ele><time>2026-03-29T08:28:01.999Z</time></trkpt><trkpt lat="45.43092106929728" lon="11.539804122183261"><ele>402.0</ele><time>2026-03-29T08:28:04.999Z</time></trkpt><trkpt lat="45.43084884277312" lon="11.539803426540123"><ele>402.0</ele><time>2026-03-29T08:28:07.999Z</time></trkpt><trkpt lat="45.43077967143712" lon="11.539784902046959"><ele>402.0</ele><time>2026-03-29T08:28:10.999Z</time></trkpt><trkpt lat="45.430707416039986" lon="11.539786650959561"><ele>402.0</ele><time>2026-03-29T08:28:12.999Z</time></trkpt><trkpt lat="45.43063309840067" lon="11.539777623171616"><ele>402.0</ele><time>2026-03-29T08:28:14.999Z</time></trkpt><trkpt lat="45.43056161683325" lon="11.539781283055952"><ele>402.0</ele><time>2026-03-29T08:28:16.999Z</time></trkpt><trkpt lat="45.43046322211652" lon="11.53979227408157"><ele>401.40000000000003</ele><time>2026-03-29T08:28:18.999Z</time></trkpt><trkpt lat="45.43039369818766" lon="11.539794082164757"><ele>400.8</ele><time>2026-03-29T08:28:20.999Z</time></trkpt><trkpt lat="45.43030008860813" lon="11.539778428971369"><ele>400.2</ele><time>2026-03-29T08:28:22.998Z</time></trkpt><trkpt lat="45.43017466623342" lon="11.539775816959926"><ele>399.6</ele><time>2026-03-29T08:28:24.998Z</time></trkpt><trkpt lat="45.43005341398449" lon="11.539763594184748"><ele>399.0</ele><time>2026-03-29T08:28:26.998Z</time></trkpt><trkpt lat="45.4299850034914" lon="11.539754356900533"><ele>399.0</ele><time>2026-03-29T08:28:27.998Z</time></trkpt><trkpt lat="45.429879752309404" lon="11.539778920343833"><ele>399.0</ele><time>2026-03-29T08:28:29.998Z</time></trkpt><trkpt lat="45.42976938869251" lon="11.539790503098143"><ele>399.0</ele><time>2026-03-29T08:28:31.998Z</time></trkpt><trkpt lat="45.429690011320695" lon="11.539760717073897"><ele>399.0</ele><time>2026-03-29T08:28:33.998Z</time></trkpt><trkpt lat="45.42960225103533" lon="11.539791964800477"><ele>399.0</ele><time>2026-03-29T08:28:35.998Z</time></trkpt><trkpt lat="45.429530002703814" lon="11.53979785952144"><ele>398.8333333333333</ele><time>2026-03-29T08:28:37.998Z</time></trkpt><trkpt lat="45.429455386787296" lon="11.539833888522155"><ele>398.66666666666663</ele><time>2026-03-29T08:28:39.998Z</time></trkpt><trkpt lat="45.42939244194681" lon="11.539877852788319"><ele>398.5</ele><time>2026-03-29T08:28:41.998Z</time></trkpt><trkpt lat="45.42931895626511" lon="11.539912799953678"><ele>398.3333333333333</ele><time>2026-03-29T08:28:44.998Z</time></trkpt><trkpt lat="45.429262005489626" lon="11.53996962414646"><ele>398.16666666666663</ele><time>2026-03-29T08:28:46.998Z</time></trkpt><trkpt lat="45.429138454633794" lon="11.540029718727949"><ele>398.0</ele><time>2026-03-29T08:28:48.998Z</time></trkpt><trkpt lat="45.42907273492488" lon="11.54002021313218"><ele>397.99999999999994</ele><time>2026-03-29T08:28:49.998Z</time></trkpt><trkpt lat="45.429004285200655" lon="11.540036044058171"><ele>398.0</ele><time>2026-03-29T08:28:50.998Z</time></trkpt><trkpt lat="45.42893099070392" lon="11.540061934111234"><ele>398.0</ele><time>2026-03-29T08:28:51.998Z</time></trkpt><trkpt lat="45.42886074926236" lon="11.540083305703043"><ele>398.0</ele><time>2026-03-29T08:28:52.998Z</time></trkpt><trkpt lat="45.428796708109914" lon="11.540073222672271"><ele>397.99999999999994</ele><time>2026-03-29T08:28:53.998Z</time></trkpt><trkpt lat="45.42873138502443" lon="11.540038931116074"><ele>398.0</ele><time>2026-03-29T08:28:54.998Z</time></trkpt><trkpt lat="45.42863824220369" lon="11.539934163201506"><ele>397.99999999999994</ele><time>2026-03-29T08:28:56.998Z</time></trkpt><trkpt lat="45.428567327537976" lon="11.539894997944277"><ele>398.0</ele><time>2026-03-29T08:28:58.998Z</time></trkpt><trkpt lat="45.428482002668865" lon="11.53990159778282"><ele>398.0</ele><time>2026-03-29T08:29:00.997Z</time></trkpt><trkpt lat="45.42841639536325" lon="11.539894749041517"><ele>398.0</ele><time>2026-03-29T08:29:03.997Z</time></trkpt><trkpt lat="45.42833403836192" lon="11.539896965616112"><ele>397.99999999999994</ele><time>2026-03-29T08:29:06.997Z</time></trkpt><trkpt lat="45.42825265636357" lon="11.539931261332164"><ele>398.0</ele><time>2026-03-29T08:29:09.997Z</time></trkpt><trkpt lat="45.428163550034164" lon="11.539965741885194"><ele>397.99999999999994</ele><time>2026-03-29T08:29:12.997Z</time></trkpt><trkpt lat="45.42809775368104" lon="11.540008461714512"><ele>398.0</ele><time>2026-03-29T08:29:15.997Z</time></trkpt><trkpt lat="45.42802701398047" lon="11.540042356541232"><ele>398.0</ele><time>2026-03-29T08:29:19Z</time></trkpt><trkpt lat="45.42796299185152" lon="11.540081902752547"><ele>398.0</ele><time>2026-03-29T08:29:21Z</time></trkpt><trkpt lat="45.427884243445284" lon="11.540147409772828"><ele>397.99999999999994</ele><time>2026-03-29T08:29:23Z</time></trkpt><trkpt lat="45.42777611313258" lon="11.540177749360224"><ele>398.0</ele><time>2026-03-29T08:29:25Z</time></trkpt><trkpt lat="45.42767148190192" lon="11.540171822832932"><ele>398.66666666666663</ele><time>2026-03-29T08:29:27Z</time></trkpt><trkpt lat="45.427597602669195" lon="11.54015625179643"><ele>399.3333333333333</ele><time>2026-03-29T08:29:28Z</time></trkpt><trkpt lat="45.42751685520884" lon="11.540132063300884"><ele>400.0</ele><time>2026-03-29T08:29:29Z</time></trkpt><trkpt lat="45.42745680981178" lon="11.540096160971498"><ele>400.66666666666663</ele><time>2026-03-29T08:29:30Z</time></trkpt><trkpt lat="45.42733420588709" lon="11.540051287172817"><ele>401.3333333333333</ele><time>2026-03-29T08:29:32Z</time></trkpt><trkpt lat="45.42727039208129" lon="11.540045097801064"><ele>402.0</ele><time>2026-03-29T08:29:33Z</time></trkpt><trkpt lat="45.427200195171665" lon="11.5400476372408"><ele>401.8333333333333</ele><time>2026-03-29T08:29:34Z</time></trkpt><trkpt lat="45.42711437181208" lon="11.540119538473204"><ele>401.66666666666663</ele><time>2026-03-29T08:29:36Z</time></trkpt><trkpt lat="45.42704882859588" lon="11.540165529112974"><ele>401.5</ele><time>2026-03-29T08:29:38Z</time></trkpt><trkpt lat="45.42698718768313" lon="11.540209592390713"><ele>401.3333333333333</ele><time>2026-03-29T08:29:40Z</time></trkpt><trkpt lat="45.42690410295324" lon="11.540247002482934"><ele>401.16666666666663</ele><time>2026-03-29T08:29:43Z</time></trkpt><trkpt lat="45.42684356343465" lon="11.540275635620802"><ele>401.0</ele><time>2026-03-29T08:29:45Z</time></trkpt><trkpt lat="45.42677047312317" lon="11.540316481993663"><ele>400.99999999999994</ele><time>2026-03-29T08:29:49Z</time></trkpt><trkpt lat="45.42668916629747" lon="11.540350001691762"><ele>401.0</ele><time>2026-03-29T08:29:51.999Z</time></trkpt><trkpt lat="45.42661601150032" lon="11.540383901551493"><ele>401.0</ele><time>2026-03-29T08:29:53.999Z</time></trkpt><trkpt lat="45.42651104502715" lon="11.540421473757881"><ele>401.0</ele><time>2026-03-29T08:29:55.999Z</time></trkpt><trkpt lat="45.42643405208571" lon="11.540483641490914"><ele>400.99999999999994</ele><time>2026-03-29T08:29:57.999Z</time></trkpt><trkpt lat="45.426379840450494" lon="11.540550376815109"><ele>401.0</ele><time>2026-03-29T08:29:59.999Z</time></trkpt><trkpt lat="45.426306637700584" lon="11.54062619041624"><ele>400.99999999999994</ele><time>2026-03-29T08:30:02.999Z</time></trkpt><trkpt lat="45.42623775601" lon="11.540699867429772"><ele>401.0</ele><time>2026-03-29T08:30:05.999Z</time></trkpt><trkpt lat="45.426174797595465" lon="11.54075620140568"><ele>401.0</ele><time>2026-03-29T08:30:07.999Z</time></trkpt><trkpt lat="45.42610459303107" lon="11.540841157599438"><ele>401.0</ele><time>2026-03-29T08:30:10.999Z</time></trkpt><trkpt lat="45.426052375284435" lon="11.540894944264545"><ele>400.99999999999994</ele><time>2026-03-29T08:30:12.999Z</time></trkpt><trkpt lat="45.425991324658014" lon="11.54094450661051"><ele>401.0</ele><time>2026-03-29T08:30:14.999Z</time></trkpt><trkpt lat="45.42589937536776" lon="11.540989946013715"><ele>401.0</ele><time>2026-03-29T08:30:17.999Z</time></trkpt><trkpt lat="45.425825327901826" lon="11.54104718296837"><ele>401.0</ele><time>2026-03-29T08:30:19.999Z</time></trkpt><trkpt lat="45.42575196635124" lon="11.541045621605793"><ele>401.0</ele><time>2026-03-29T08:30:21.999Z</time></trkpt><trkpt lat="45.42566392259441" lon="11.54104991407208"><ele>401.0</ele><time>2026-03-29T08:30:23.999Z</time></trkpt><trkpt lat="45.4255564783147" lon="11.54101509310413"><ele>401.0</ele><time>2026-03-29T08:30:25.999Z</time></trkpt><trkpt lat="45.42542625870868" lon="11.540991805304358"><ele>398.66666666666663</ele><time>2026-03-29T08:30:27.999Z</time></trkpt><trkpt lat="45.425350253292834" lon="11.540963123884126"><ele>396.3333333333333</ele><time>2026-03-29T08:30:28.998Z</time></trkpt><trkpt lat="45.42526168896207" lon="11.540890194622252"><ele>394.0</ele><time>2026-03-29T08:30:29.998Z</time></trkpt><trkpt lat="45.42520240972191" lon="11.540828322034388"><ele>391.66666666666663</ele><time>2026-03-29T08:30:30.998Z</time></trkpt><trkpt lat="45.42512254031276" lon="11.540694557042425"><ele>389.3333333333333</ele><time>2026-03-29T08:30:32.998Z</time></trkpt><trkpt lat="45.42508340867435" lon="11.540619724270636"><ele>387.0</ele><time>2026-03-29T08:30:33.998Z</time></trkpt><trkpt lat="45.42502591687806" lon="11.540452664058417"><ele>386.3333333333333</ele><time>2026-03-29T08:30:35.998Z</time></trkpt><trkpt lat="45.42498215859687" lon="11.540366276337187"><ele>385.6666666666667</ele><time>2026-03-29T08:30:36.998Z</time></trkpt><trkpt lat="45.42494504437004" lon="11.540293005189678"><ele>385.0</ele><time>2026-03-29T08:30:37.998Z</time></trkpt><trkpt lat="45.42490367913389" lon="11.54021134161065"><ele>384.33333333333337</ele><time>2026-03-29T08:30:38.998Z</time></trkpt><trkpt lat="45.42484928296894" lon="11.540056760165012"><ele>383.6666666666667</ele><time>2026-03-29T08:30:40.998Z</time></trkpt><trkpt lat="45.42484783745932" lon="11.539959115761352"><ele>383.0</ele><time>2026-03-29T08:30:41.998Z</time></trkpt><trkpt lat="45.42484413399089" lon="11.53985939861798"><ele>383.0</ele><time>2026-03-29T08:30:42.998Z</time></trkpt><trkpt lat="45.42482548554339" lon="11.539707271641568"><ele>383.0</ele><time>2026-03-29T08:30:44.998Z</time></trkpt><trkpt lat="45.42482770438835" lon="11.539574908561514"><ele>383.0</ele><time>2026-03-29T08:30:46.998Z</time></trkpt><trkpt lat="45.42482336990877" lon="11.539447092737587"><ele>383.0</ele><time>2026-03-29T08:30:48.998Z</time></trkpt><trkpt lat="45.42485559575736" lon="11.539333698691253"><ele>383.0</ele><time>2026-03-29T08:30:50.998Z</time></trkpt><trkpt lat="45.42487373350994" lon="11.539237452107336"><ele>383.0</ele><time>2026-03-29T08:30:52.998Z</time></trkpt><trkpt lat="45.4248913170417" lon="11.539101812288774"><ele>383.6666666666667</ele><time>2026-03-29T08:30:55.998Z</time></trkpt><trkpt lat="45.42491332697117" lon="11.53899537156457"><ele>384.33333333333337</ele><time>2026-03-29T08:30:58.998Z</time></trkpt><trkpt lat="45.42494355335066" lon="11.538883860967285"><ele>385.0</ele><time>2026-03-29T08:31:01.998Z</time></trkpt><trkpt lat="45.424996238580036" lon="11.538782784699803"><ele>385.6666666666667</ele><time>2026-03-29T08:31:04.998Z</time></trkpt><trkpt lat="45.42504591104198" lon="11.538675302779257"><ele>386.3333333333333</ele><time>2026-03-29T08:31:07.997Z</time></trkpt><trkpt lat="45.425101426232565" lon="11.538577854299291"><ele>387.0</ele><time>2026-03-29T08:31:10.997Z</time></trkpt><trkpt lat="45.42514489333347" lon="11.538484670417926"><ele>387.8571428571429</ele><time>2026-03-29T08:31:13.997Z</time></trkpt><trkpt lat="45.42518095277507" lon="11.538398544110592"><ele>388.7142857142857</ele><time>2026-03-29T08:31:16.997Z</time></trkpt><trkpt lat="45.42521744363204" lon="11.538311998504513"><ele>389.57142857142856</ele><time>2026-03-29T08:31:19.997Z</time></trkpt><trkpt lat="45.42528889467588" lon="11.538242308872935"><ele>390.42857142857144</ele><time>2026-03-29T08:31:22.997Z</time></trkpt><trkpt lat="45.4253645809842" lon="11.538210696918497"><ele>391.2857142857143</ele><time>2026-03-29T08:31:26Z</time></trkpt><trkpt lat="45.425418964892394" lon="11.538146375851696"><ele>392.14285714285717</ele><time>2026-03-29T08:31:29Z</time></trkpt><trkpt lat="45.425471599955905" lon="11.538095263370895"><ele>393.0</ele><time>2026-03-29T08:31:31Z</time></trkpt><trkpt lat="45.42552226905448" lon="11.538012941336369"><ele>393.0</ele><time>2026-03-29T08:31:35Z</time></trkpt><trkpt lat="45.42558411170644" lon="11.537923571926013"><ele>393.0</ele><time>2026-03-29T08:31:37Z</time></trkpt><trkpt lat="45.425655743026866" lon="11.537850018664523"><ele>393.0</ele><time>2026-03-29T08:31:39Z</time></trkpt><trkpt lat="45.42570735134568" lon="11.53776826055254"><ele>393.0</ele><time>2026-03-29T08:31:41Z</time></trkpt><trkpt lat="45.42571942878654" lon="11.537679561333302"><ele>393.0</ele><time>2026-03-29T08:31:43Z</time></trkpt><trkpt lat="45.4257064673046" lon="11.537559463107218"><ele>393.0</ele><time>2026-03-29T08:31:45Z</time></trkpt><trkpt lat="45.425720072155386" lon="11.537437340903734"><ele>392.4</ele><time>2026-03-29T08:31:47Z</time></trkpt><trkpt lat="45.42572089757017" lon="11.53726410503621"><ele>391.79999999999995</ele><time>2026-03-29T08:31:49Z</time></trkpt><trkpt lat="45.42575912023378" lon="11.537136414265646"><ele>391.2</ele><time>2026-03-29T08:31:51Z</time></trkpt><trkpt lat="45.425796150346855" lon="11.537041256348662"><ele>390.6</ele><time>2026-03-29T08:31:53Z</time></trkpt><trkpt lat="45.42583243036258" lon="11.53696639795429"><ele>390.0</ele><time>2026-03-29T08:31:55Z</time></trkpt><trkpt lat="45.42591913873561" lon="11.53686932289252"><ele>387.8333333333333</ele><time>2026-03-29T08:31:57Z</time></trkpt><trkpt lat="45.42598559475114" lon="11.536815826627873"><ele>385.6666666666667</ele><time>2026-03-29T08:31:58Z</time></trkpt><trkpt lat="45.4260119472606" lon="11.536686090508379"><ele>383.5</ele><time>2026-03-29T08:31:59.999Z</time></trkpt><trkpt lat="45.42604435025785" lon="11.536557033042538"><ele>381.33333333333337</ele><time>2026-03-29T08:32:01.999Z</time></trkpt><trkpt lat="45.42608289584237" lon="11.53647107826144"><ele>379.1666666666667</ele><time>2026-03-29T08:32:03.999Z</time></trkpt><trkpt lat="45.42614892508816" lon="11.536384898394255"><ele>377.0</ele><time>2026-03-29T08:32:05.999Z</time></trkpt><trkpt lat="45.42622147068277" lon="11.53632077455305"><ele>378.25</ele><time>2026-03-29T08:32:07.999Z</time></trkpt><trkpt lat="45.426311729940224" lon="11.536227643020586"><ele>379.5</ele><time>2026-03-29T08:32:09.999Z</time></trkpt><trkpt lat="45.42641983674739" lon="11.536194675702845"><ele>380.75</ele><time>2026-03-29T08:32:11.999Z</time></trkpt><trkpt lat="45.42652683218669" lon="11.536191520551865"><ele>382.0</ele><time>2026-03-29T08:32:13.999Z</time></trkpt><trkpt lat="45.42665498714577" lon="11.536159989231816"><ele>379.16666666666663</ele><time>2026-03-29T08:32:15.999Z</time></trkpt><trkpt lat="45.42671989939868" lon="11.53612553924298"><ele>376.3333333333333</ele><time>2026-03-29T08:32:16.999Z</time></trkpt><trkpt lat="45.42679287825314" lon="11.536101176673142"><ele>373.5</ele><time>2026-03-29T08:32:17.999Z</time></trkpt><trkpt lat="45.42686618848115" lon="11.536070173564474"><ele>370.6666666666667</ele><time>2026-03-29T08:32:18.999Z</time></trkpt><trkpt lat="45.42692694802911" lon="11.536042692699484"><ele>367.83333333333337</ele><time>2026-03-29T08:32:19.999Z</time></trkpt><trkpt lat="45.427054260187575" lon="11.536026767710652"><ele>365.0</ele><time>2026-03-29T08:32:21.999Z</time></trkpt><trkpt lat="45.42714948428081" lon="11.53596355720482"><ele>364.6666666666667</ele><time>2026-03-29T08:32:23.999Z</time></trkpt><trkpt lat="45.42723482962665" lon="11.53584041112324"><ele>364.33333333333337</ele><time>2026-03-29T08:32:25.999Z</time></trkpt><trkpt lat="45.427256790822284" lon="11.535742520671716"><ele>364.0</ele><time>2026-03-29T08:32:26.999Z</time></trkpt><trkpt lat="45.42727859318616" lon="11.535626043726277"><ele>363.6666666666667</ele><time>2026-03-29T08:32:27.999Z</time></trkpt><trkpt lat="45.42728729042248" lon="11.535507639810264"><ele>363.3333333333333</ele><time>2026-03-29T08:32:28.999Z</time></trkpt><trkpt lat="45.42729713703565" lon="11.535392211058197"><ele>363.0</ele><time>2026-03-29T08:32:29.999Z</time></trkpt><trkpt lat="45.427294588699866" lon="11.535299657815779"><ele>364.1666666666667</ele><time>2026-03-29T08:32:30.999Z</time></trkpt><trkpt lat="45.42730165547139" lon="11.535195900298389"><ele>365.3333333333333</ele><time>2026-03-29T08:32:32.999Z</time></trkpt><trkpt lat="45.42735891650768" lon="11.535091642404762"><ele>366.5</ele><time>2026-03-29T08:32:37.998Z</time></trkpt><trkpt lat="45.4274319641208" lon="11.535026719386943"><ele>367.66666666666663</ele><time>2026-03-29T08:32:41.998Z</time></trkpt><trkpt lat="45.42750788758992" lon="11.534946478864644"><ele>368.8333333333333</ele><time>2026-03-29T08:32:44.998Z</time></trkpt><trkpt lat="45.42758036718328" lon="11.534903238879677"><ele>370.0</ele><time>2026-03-29T08:32:47.998Z</time></trkpt><trkpt lat="45.42767166954354" lon="11.53485670769348"><ele>370.0</ele><time>2026-03-29T08:32:50.998Z</time></trkpt><trkpt lat="45.4277693259435" lon="11.534852722943482"><ele>370.0</ele><time>2026-03-29T08:32:53.998Z</time></trkpt><trkpt lat="45.427855851670415" lon="11.534853176211465"><ele>370.0</ele><time>2026-03-29T08:32:56.998Z</time></trkpt><trkpt lat="45.42792200046079" lon="11.534824856738645"><ele>370.0</ele><time>2026-03-29T08:32:59.998Z</time></trkpt><trkpt lat="45.42798800062371" lon="11.534837565419572"><ele>370.0</ele><time>2026-03-29T08:33:02.998Z</time></trkpt><trkpt lat="45.42806140245395" lon="11.53483476374792"><ele>370.0</ele><time>2026-03-29T08:33:05.998Z</time></trkpt><trkpt lat="45.42813811376841" lon="11.534857795913341"><ele>370.57142857142856</ele><time>2026-03-29T08:33:08.998Z</time></trkpt><trkpt lat="45.42823399224952" lon="11.534829004951524"><ele>371.1428571428571</ele><time>2026-03-29T08:33:13.998Z</time></trkpt><trkpt lat="45.42828163918038" lon="11.53475809294112"><ele>371.71428571428567</ele><time>2026-03-29T08:33:16.997Z</time></trkpt><trkpt lat="45.428333417983374" lon="11.534702385253553"><ele>372.2857142857143</ele><time>2026-03-29T08:33:19.997Z</time></trkpt><trkpt lat="45.42836878518724" lon="11.534615723387402"><ele>372.8571428571429</ele><time>2026-03-29T08:33:21.997Z</time></trkpt><trkpt lat="45.42839219095296" lon="11.534516008433092"><ele>373.4285714285714</ele><time>2026-03-29T08:33:25.997Z</time></trkpt><trkpt lat="45.42843344738557" lon="11.534432638259217"><ele>374.0</ele><time>2026-03-29T08:33:28.997Z</time></trkpt><trkpt lat="45.42846844514211" lon="11.534335349567622"><ele>374.0</ele><time>2026-03-29T08:33:32Z</time></trkpt><trkpt lat="45.42849401244792" lon="11.534238717892727"><ele>374.0</ele><time>2026-03-29T08:33:35Z</time></trkpt><trkpt lat="45.42852835198085" lon="11.53415467159467"><ele>374.0</ele><time>2026-03-29T08:33:39Z</time></trkpt><trkpt lat="45.4285551958811" lon="11.53406008887919"><ele>374.0</ele><time>2026-03-29T08:33:42Z</time></trkpt><trkpt lat="45.42859570293942" lon="11.533983182068368"><ele>374.0</ele><time>2026-03-29T08:33:44Z</time></trkpt><trkpt lat="45.42864414866297" lon="11.533895461890529"><ele>374.0</ele><time>2026-03-29T08:33:47Z</time></trkpt><trkpt lat="45.428698469270444" lon="11.533813655282646"><ele>374.0</ele><time>2026-03-29T08:33:50Z</time></trkpt><trkpt lat="45.42876273118732" lon="11.533748428409694"><ele>373.83333333333337</ele><time>2026-03-29T08:33:53Z</time></trkpt><trkpt lat="45.4288153313858" lon="11.533688102606032"><ele>373.6666666666667</ele><time>2026-03-29T08:33:56Z</time></trkpt><trkpt lat="45.42886031049895" lon="11.533620285290429"><ele>373.5</ele><time>2026-03-29T08:33:58Z</time></trkpt><trkpt lat="45.428953977487055" lon="11.533575849347525"><ele>373.3333333333333</ele><time>2026-03-29T08:34:01Z</time></trkpt><trkpt lat="45.42902808936994" lon="11.53355568476561"><ele>373.16666666666663</ele><time>2026-03-29T08:34:03Z</time></trkpt><trkpt lat="45.4291122794425" lon="11.533496393157884"><ele>373.0</ele><time>2026-03-29T08:34:05.999Z</time></trkpt><trkpt lat="45.42919193407151" lon="11.533457237802546"><ele>373.0</ele><time>2026-03-29T08:34:07.999Z</time></trkpt><trkpt lat="45.42927210858443" lon="11.533397261748956"><ele>373.0</ele><time>2026-03-29T08:34:09.999Z</time></trkpt><trkpt lat="45.429375769620336" lon="11.533357451400319"><ele>373.0</ele><time>2026-03-29T08:34:11.999Z</time></trkpt><trkpt lat="45.42947582780244" lon="11.533345229023254"><ele>373.0</ele><time>2026-03-29T08:34:13.999Z</time></trkpt><trkpt lat="45.429567445247514" lon="11.533352037210285"><ele>373.0</ele><time>2026-03-29T08:34:16.999Z</time></trkpt><trkpt lat="45.42964655744088" lon="11.533352861906515"><ele>372.5</ele><time>2026-03-29T08:34:18.999Z</time></trkpt><trkpt lat="45.42972208752999" lon="11.533377954948008"><ele>372.0</ele><time>2026-03-29T08:34:20.999Z</time></trkpt><trkpt lat="45.42978806850265" lon="11.53339827939445"><ele>371.5</ele><time>2026-03-29T08:34:22.999Z</time></trkpt><trkpt lat="45.42986955496982" lon="11.53339394053593"><ele>371.0</ele><time>2026-03-29T08:34:26.999Z</time></trkpt><trkpt lat="45.42994018935241" lon="11.533357855170735"><ele>370.5</ele><time>2026-03-29T08:34:29.999Z</time></trkpt><trkpt lat="45.43000846989291" lon="11.53331443185232"><ele>370.0</ele><time>2026-03-29T08:34:32.999Z</time></trkpt><trkpt lat="45.43007349783395" lon="11.533256093311085"><ele>370.0</ele><time>2026-03-29T08:34:35.999Z</time></trkpt><trkpt lat="45.43013765089438" lon="11.533205720504906"><ele>370.0</ele><time>2026-03-29T08:34:38.999Z</time></trkpt><trkpt lat="45.43021747544728" lon="11.533160883697605"><ele>370.0</ele><time>2026-03-29T08:34:41.998Z</time></trkpt><trkpt lat="45.43029583748552" lon="11.533109015233881"><ele>370.0</ele><time>2026-03-29T08:34:44.998Z</time></trkpt><trkpt lat="45.43036929740936" lon="11.533073809711773"><ele>370.0</ele><time>2026-03-29T08:34:47.998Z</time></trkpt><trkpt lat="45.43045574213056" lon="11.533018761934493"><ele>370.0</ele><time>2026-03-29T08:34:50.998Z</time></trkpt><trkpt lat="45.43052670648968" lon="11.532977917966573"><ele>370.4285714285714</ele><time>2026-03-29T08:34:52.998Z</time></trkpt><trkpt lat="45.43058719426807" lon="11.532923668658654"><ele>370.85714285714283</ele><time>2026-03-29T08:34:54.998Z</time></trkpt><trkpt lat="45.43064064733254" lon="11.532875780667506"><ele>371.2857142857143</ele><time>2026-03-29T08:34:56.998Z</time></trkpt><trkpt lat="45.43071227118816" lon="11.532839781915138"><ele>371.71428571428567</ele><time>2026-03-29T08:34:59.998Z</time></trkpt><trkpt lat="45.43077699258382" lon="11.532803613403491"><ele>372.14285714285717</ele><time>2026-03-29T08:35:01.998Z</time></trkpt><trkpt lat="45.43085119668647" lon="11.532765808584687"><ele>372.57142857142856</ele><time>2026-03-29T08:35:04.998Z</time></trkpt><trkpt lat="45.43091138317306" lon="11.53273156986335"><ele>373.0</ele><time>2026-03-29T08:35:06.998Z</time></trkpt><trkpt lat="45.43098506919911" lon="11.53266744516364"><ele>373.0</ele><time>2026-03-29T08:35:09.998Z</time></trkpt><trkpt lat="45.43104506570117" lon="11.532624605233675"><ele>373.0</ele><time>2026-03-29T08:35:11.998Z</time></trkpt><trkpt lat="45.43111252434268" lon="11.532588890584547"><ele>373.0</ele><time>2026-03-29T08:35:14.998Z</time></trkpt><trkpt lat="45.43116417354773" lon="11.532448294727132"><ele>373.0</ele><time>2026-03-29T08:35:17.998Z</time></trkpt><trkpt lat="45.431222904434186" lon="11.53250403452917"><ele>373.0</ele><time>2026-03-29T08:35:19.997Z</time></trkpt><trkpt lat="45.431283612727675" lon="11.532448648853189"><ele>373.0</ele><time>2026-03-29T08:35:22.997Z</time></trkpt><trkpt lat="45.43134052765118" lon="11.532365444732871"><ele>373.66666666666663</ele><time>2026-03-29T08:35:25.997Z</time></trkpt><trkpt lat="45.43137683847273" lon="11.532268587783424"><ele>374.3333333333333</ele><time>2026-03-29T08:35:28.997Z</time></trkpt><trkpt lat="45.4314065732056" lon="11.532168056672226"><ele>375.0</ele><time>2026-03-29T08:35:31.997Z</time></trkpt><trkpt lat="45.43142342894418" lon="11.5320441655792"><ele>375.6666666666667</ele><time>2026-03-29T08:35:34.997Z</time></trkpt><trkpt lat="45.431458609799115" lon="11.531965356590655"><ele>376.33333333333337</ele><time>2026-03-29T08:35:37Z</time></trkpt><trkpt lat="45.431473789816856" lon="11.531863692397751"><ele>377.0</ele><time>2026-03-29T08:35:39Z</time></trkpt><trkpt lat="45.43149938929934" lon="11.531739214345146"><ele>377.33333333333337</ele><time>2026-03-29T08:35:42Z</time></trkpt><trkpt lat="45.43151358093584" lon="11.531647691495573"><ele>377.6666666666667</ele><time>2026-03-29T08:35:44Z</time></trkpt><trkpt lat="45.43153835777348" lon="11.531533218661163"><ele>378.0</ele><time>2026-03-29T08:35:47Z</time></trkpt><trkpt lat="45.43153132619739" lon="11.53142380457343"><ele>378.3333333333333</ele><time>2026-03-29T08:35:50Z</time></trkpt><trkpt lat="45.43153114121954" lon="11.531313119596991"><ele>378.66666666666663</ele><time>2026-03-29T08:35:53Z</time></trkpt><trkpt lat="45.43153191279832" lon="11.531198001222377"><ele>379.0</ele><time>2026-03-29T08:35:56Z</time></trkpt><trkpt lat="45.431540014459856" lon="11.531093049057974"><ele>379.5</ele><time>2026-03-29T08:35:59Z</time></trkpt><trkpt lat="45.431554994128696" lon="11.530996234734786"><ele>380.0</ele><time>2026-03-29T08:36:02Z</time></trkpt><trkpt lat="45.43156708616799" lon="11.53087965742944"><ele>380.5</ele><time>2026-03-29T08:36:06Z</time></trkpt><trkpt lat="45.4315799240044" lon="11.530762126340242"><ele>381.0</ele><time>2026-03-29T08:36:09.999Z</time></trkpt><trkpt lat="45.43161097302632" lon="11.530655188390728"><ele>381.5</ele><time>2026-03-29T08:36:13.999Z</time></trkpt><trkpt lat="45.43166058730718" lon="11.530548529210881"><ele>382.0</ele><time>2026-03-29T08:36:17.999Z</time></trkpt><trkpt lat="45.4316800591891" lon="11.530440088516954"><ele>382.5</ele><time>2026-03-29T08:36:20.999Z</time></trkpt><trkpt lat="45.43171850310034" lon="11.53034021572485"><ele>383.0</ele><time>2026-03-29T08:36:23.999Z</time></trkpt><trkpt lat="45.431738609246665" lon="11.530233645956296"><ele>383.5</ele><time>2026-03-29T08:36:26.999Z</time></trkpt><trkpt lat="45.4317576559099" lon="11.53012996146046"><ele>384.0</ele><time>2026-03-29T08:36:29.999Z</time></trkpt><trkpt lat="45.43178542985133" lon="11.530001786395495"><ele>384.50000000000006</ele><time>2026-03-29T08:36:32.999Z</time></trkpt><trkpt lat="45.43179791533512" lon="11.529886066756537"><ele>385.0</ele><time>2026-03-29T08:36:35.999Z</time></trkpt><trkpt lat="45.43179784065924" lon="11.529766743919097"><ele>385.00000000000006</ele><time>2026-03-29T08:36:38.999Z</time></trkpt><trkpt lat="45.43182548218553" lon="11.52964339430552"><ele>385.0</ele><time>2026-03-29T08:36:41.999Z</time></trkpt><trkpt lat="45.43185805368312" lon="11.529548087271388"><ele>385.0</ele><time>2026-03-29T08:36:44.998Z</time></trkpt><trkpt lat="45.43190508184333" lon="11.529441320619348"><ele>385.0</ele><time>2026-03-29T08:36:47.998Z</time></trkpt><trkpt lat="45.43192697242566" lon="11.529321684222339"><ele>385.00000000000006</ele><time>2026-03-29T08:36:50.998Z</time></trkpt><trkpt lat="45.43192827810552" lon="11.529221089564599"><ele>385.0</ele><time>2026-03-29T08:36:52.998Z</time></trkpt><trkpt lat="45.43195327723724" lon="11.529121743949108"><ele>385.6666666666667</ele><time>2026-03-29T08:36:54.998Z</time></trkpt><trkpt lat="45.43195006872048" lon="11.529017283626622"><ele>386.33333333333337</ele><time>2026-03-29T08:36:56.998Z</time></trkpt><trkpt lat="45.43196384173959" lon="11.528906473930494"><ele>387.0</ele><time>2026-03-29T08:36:58.998Z</time></trkpt><trkpt lat="45.43197430593477" lon="11.52879972161532"><ele>387.66666666666663</ele><time>2026-03-29T08:37:00.998Z</time></trkpt><trkpt lat="45.43199261659237" lon="11.528678356297311"><ele>388.3333333333333</ele><time>2026-03-29T08:37:03.998Z</time></trkpt><trkpt lat="45.431999376986695" lon="11.52857263969892"><ele>389.0</ele><time>2026-03-29T08:37:05.998Z</time></trkpt><trkpt lat="45.43200914459899" lon="11.528475993292288"><ele>389.99999999999994</ele><time>2026-03-29T08:37:07.998Z</time></trkpt><trkpt lat="45.43201514121941" lon="11.528366978104582"><ele>391.0</ele><time>2026-03-29T08:37:09.998Z</time></trkpt><trkpt lat="45.4320402768307" lon="11.528257864011957"><ele>392.0</ele><time>2026-03-29T08:37:11.998Z</time></trkpt><trkpt lat="45.43205687602132" lon="11.528133970292618"><ele>393.0</ele><time>2026-03-29T08:37:14.998Z</time></trkpt><trkpt lat="45.43207527753086" lon="11.528026058922705"><ele>393.99999999999994</ele><time>2026-03-29T08:37:18.998Z</time></trkpt><trkpt lat="45.43213105460186" lon="11.527963399994643"><ele>395.0</ele><time>2026-03-29T08:37:21.997Z</time></trkpt><trkpt lat="45.432125313930264" lon="11.527778088461941"><ele>395.3333333333333</ele><time>2026-03-29T08:42:01Z</time></trkpt><trkpt lat="45.43212879665451" lon="11.527644736192359"><ele>395.66666666666663</ele><time>2026-03-29T08:42:04Z</time></trkpt><trkpt lat="45.43211146006175" lon="11.5275258971388"><ele>396.0</ele><time>2026-03-29T08:42:06Z</time></trkpt><trkpt lat="45.43205365207423" lon="11.52743329158004"><ele>396.33333333333337</ele><time>2026-03-29T08:42:08Z</time></trkpt><trkpt lat="45.43197914769679" lon="11.527362218122118"><ele>396.6666666666667</ele><time>2026-03-29T08:42:10Z</time></trkpt><trkpt lat="45.43188843887673" lon="11.52735223231986"><ele>397.0</ele><time>2026-03-29T08:42:12Z</time></trkpt><trkpt lat="45.43180737405746" lon="11.527384113119574"><ele>397.00000000000006</ele><time>2026-03-29T08:42:14Z</time></trkpt><trkpt lat="45.431739803866215" lon="11.527411674587327"><ele>397.0</ele><time>2026-03-29T08:42:16Z</time></trkpt><trkpt lat="45.431658441253475" lon="11.527431883863098"><ele>397.0</ele><time>2026-03-29T08:42:18Z</time></trkpt><trkpt lat="45.43158212016398" lon="11.527436481497082"><ele>397.0</ele><time>2026-03-29T08:42:20Z</time></trkpt><trkpt lat="45.43151012341058" lon="11.527422651558098"><ele>397.00000000000006</ele><time>2026-03-29T08:42:22Z</time></trkpt><trkpt lat="45.431436062440774" lon="11.527385920798926"><ele>397.0</ele><time>2026-03-29T08:42:24Z</time></trkpt><trkpt lat="45.4313659693452" lon="11.527307411042258"><ele>397.1666666666667</ele><time>2026-03-29T08:42:25.999Z</time></trkpt><trkpt lat="45.43130014339316" lon="11.52716011550532"><ele>397.33333333333337</ele><time>2026-03-29T08:42:27.999Z</time></trkpt><trkpt lat="45.431287025719755" lon="11.527062230432977"><ele>397.5</ele><time>2026-03-29T08:42:28.999Z</time></trkpt><trkpt lat="45.43128644046119" lon="11.526948130979855"><ele>397.66666666666663</ele><time>2026-03-29T08:42:29.999Z</time></trkpt><trkpt lat="45.43129675998613" lon="11.526836057860448"><ele>397.8333333333333</ele><time>2026-03-29T08:42:30.999Z</time></trkpt><trkpt lat="45.43129657095471" lon="11.526716838942061"><ele>398.0</ele><time>2026-03-29T08:42:31.999Z</time></trkpt><trkpt lat="45.43129424365038" lon="11.526586264950701"><ele>395.79999999999995</ele><time>2026-03-29T08:42:32.999Z</time></trkpt><trkpt lat="45.43129376074656" lon="11.526456702513913"><ele>393.6</ele><time>2026-03-29T08:42:33.999Z</time></trkpt><trkpt lat="45.43128332826008" lon="11.526318928801999"><ele>391.4</ele><time>2026-03-29T08:42:34.999Z</time></trkpt><trkpt lat="45.43127872447415" lon="11.526170809463082"><ele>389.20000000000005</ele><time>2026-03-29T08:42:35.999Z</time></trkpt><trkpt lat="45.43127460016228" lon="11.526028552560325"><ele>387.0</ele><time>2026-03-29T08:42:36.999Z</time></trkpt><trkpt lat="45.43126442043193" lon="11.525895069741313"><ele>386.5</ele><time>2026-03-29T08:42:37.999Z</time></trkpt><trkpt lat="45.431242557111844" lon="11.525771287766238"><ele>386.0</ele><time>2026-03-29T08:42:38.999Z</time></trkpt><trkpt lat="45.431199133925446" lon="11.525652732802845"><ele>385.5</ele><time>2026-03-29T08:42:39.999Z</time></trkpt><trkpt lat="45.43112983449175" lon="11.525564284842211"><ele>385.0</ele><time>2026-03-29T08:42:40.999Z</time></trkpt><trkpt lat="45.431059708253606" lon="11.525489305338839"><ele>384.5</ele><time>2026-03-29T08:42:41.999Z</time></trkpt><trkpt lat="45.43099974721842" lon="11.525434281330739"><ele>384.0</ele><time>2026-03-29T08:42:42.999Z</time></trkpt><trkpt lat="45.43094431468122" lon="11.525375479238095"><ele>384.0</ele><time>2026-03-29T08:42:43.999Z</time></trkpt><trkpt lat="45.43090015108786" lon="11.525306987590167"><ele>384.0</ele><time>2026-03-29T08:42:44.999Z</time></trkpt><trkpt lat="45.43085693791126" lon="11.525225259685419"><ele>384.0</ele><time>2026-03-29T08:42:45.999Z</time></trkpt><trkpt lat="45.43080950687651" lon="11.5251605679292"><ele>384.0</ele><time>2026-03-29T08:42:46.999Z</time></trkpt><trkpt lat="45.43075762596192" lon="11.525015081455235"><ele>384.0</ele><time>2026-03-29T08:42:48.999Z</time></trkpt><trkpt lat="45.4306887162713" lon="11.52487970867062"><ele>384.0</ele><time>2026-03-29T08:42:50.999Z</time></trkpt><trkpt lat="45.430646213483584" lon="11.524813260265265"><ele>384.0</ele><time>2026-03-29T08:42:51.999Z</time></trkpt><trkpt lat="45.43058122556991" lon="11.524672245274655"><ele>384.0</ele><time>2026-03-29T08:42:53.999Z</time></trkpt><trkpt lat="45.430576034977165" lon="11.5244867257764"><ele>384.0</ele><time>2026-03-29T08:42:55.999Z</time></trkpt><trkpt lat="45.43060124078454" lon="11.524357266856732"><ele>384.0</ele><time>2026-03-29T08:42:56.999Z</time></trkpt><trkpt lat="45.43065148543459" lon="11.524244191707586"><ele>384.0</ele><time>2026-03-29T08:42:57.999Z</time></trkpt><trkpt lat="45.4307084634639" lon="11.524125582098455"><ele>382.79999999999995</ele><time>2026-03-29T08:42:58.999Z</time></trkpt><trkpt lat="45.4307656227677" lon="11.524011885140188"><ele>381.59999999999997</ele><time>2026-03-29T08:42:59.999Z</time></trkpt><trkpt lat="45.43081058251668" lon="11.523890669279847"><ele>380.4</ele><time>2026-03-29T08:43:00.999Z</time></trkpt><trkpt lat="45.43085294104624" lon="11.523766693051188"><ele>379.2</ele><time>2026-03-29T08:43:01.998Z</time></trkpt><trkpt lat="45.43088837468842" lon="11.523634638144916"><ele>378.0</ele><time>2026-03-29T08:43:02.998Z</time></trkpt><trkpt lat="45.430919868189285" lon="11.523503401049744"><ele>375.4</ele><time>2026-03-29T08:43:03.998Z</time></trkpt><trkpt lat="45.43097032457451" lon="11.523380546335812"><ele>372.79999999999995</ele><time>2026-03-29T08:43:04.998Z</time></trkpt><trkpt lat="45.43103819382564" lon="11.523267333633534"><ele>370.2</ele><time>2026-03-29T08:43:05.998Z</time></trkpt><trkpt lat="45.43110808439681" lon="11.523155527521011"><ele>367.6</ele><time>2026-03-29T08:43:06.998Z</time></trkpt><trkpt lat="45.431159229561736" lon="11.523034709899363"><ele>365.0</ele><time>2026-03-29T08:43:07.998Z</time></trkpt><trkpt lat="45.43119548715276" lon="11.522905511470395"><ele>364.6666666666667</ele><time>2026-03-29T08:43:08.998Z</time></trkpt><trkpt lat="45.43122458964381" lon="11.522778623196963"><ele>364.33333333333337</ele><time>2026-03-29T08:43:09.998Z</time></trkpt><trkpt lat="45.431250866906645" lon="11.522657124491467"><ele>364.0</ele><time>2026-03-29T08:43:10.998Z</time></trkpt><trkpt lat="45.43128597672481" lon="11.522553244832235"><ele>363.6666666666667</ele><time>2026-03-29T08:43:11.998Z</time></trkpt><trkpt lat="45.43133746450859" lon="11.522468903076932"><ele>363.3333333333333</ele><time>2026-03-29T08:43:12.998Z</time></trkpt><trkpt lat="45.431405809650215" lon="11.522408176086657"><ele>363.0</ele><time>2026-03-29T08:43:13.998Z</time></trkpt><trkpt lat="45.431486693315705" lon="11.522376814269547"><ele>363.0</ele><time>2026-03-29T08:43:14.998Z</time></trkpt><trkpt lat="45.431572748592195" lon="11.52234873219846"><ele>363.0</ele><time>2026-03-29T08:43:15.998Z</time></trkpt><trkpt lat="45.43165331248609" lon="11.522308986793162"><ele>363.0</ele><time>2026-03-29T08:43:16.998Z</time></trkpt><trkpt lat="45.43173702703276" lon="11.522288904819039"><ele>363.0</ele><time>2026-03-29T08:43:17.998Z</time></trkpt><trkpt lat="45.43183066921886" lon="11.52227915304934"><ele>363.0</ele><time>2026-03-29T08:43:18.998Z</time></trkpt><trkpt lat="45.43192301739025" lon="11.522302436309937"><ele>363.0</ele><time>2026-03-29T08:43:19.998Z</time></trkpt><trkpt lat="45.43200776822328" lon="11.522360562708576"><ele>363.0</ele><time>2026-03-29T08:43:20.998Z</time></trkpt><trkpt lat="45.43209537036656" lon="11.522443653743409"><ele>363.0</ele><time>2026-03-29T08:43:21.998Z</time></trkpt><trkpt lat="45.432180814618796" lon="11.522516953861034"><ele>363.0</ele><time>2026-03-29T08:43:22.998Z</time></trkpt><trkpt lat="45.43226324699093" lon="11.52257650673386"><ele>363.0</ele><time>2026-03-29T08:43:23.998Z</time></trkpt><trkpt lat="45.432345003908694" lon="11.522637349540519"><ele>363.0</ele><time>2026-03-29T08:43:24.998Z</time></trkpt><trkpt lat="45.43242921760032" lon="11.52268552216431"><ele>361.2857142857143</ele><time>2026-03-29T08:43:25.998Z</time></trkpt><trkpt lat="45.432508963758266" lon="11.522730055076531"><ele>359.57142857142856</ele><time>2026-03-29T08:43:26.998Z</time></trkpt><trkpt lat="45.43258266163402" lon="11.522765165749586"><ele>357.8571428571429</ele><time>2026-03-29T08:43:27.998Z</time></trkpt><trkpt lat="45.43265075002736" lon="11.522807482827435"><ele>356.1428571428571</ele><time>2026-03-29T08:43:28.998Z</time></trkpt><trkpt lat="45.432712819670726" lon="11.522844917801098"><ele>354.42857142857144</ele><time>2026-03-29T08:43:29.998Z</time></trkpt><trkpt lat="45.43277430812576" lon="11.522865754510804"><ele>352.7142857142857</ele><time>2026-03-29T08:43:30.998Z</time></trkpt><trkpt lat="45.43283817520831" lon="11.52285178971385"><ele>351.0</ele><time>2026-03-29T08:43:31.998Z</time></trkpt><trkpt lat="45.432930591400314" lon="11.522738511152061"><ele>351.00000000000006</ele><time>2026-03-29T08:43:33.998Z</time></trkpt><trkpt lat="45.4329466676419" lon="11.522642940021411"><ele>351.0</ele><time>2026-03-29T08:43:34.998Z</time></trkpt><trkpt lat="45.43292582791646" lon="11.522549440857128"><ele>351.0</ele><time>2026-03-29T08:43:35.998Z</time></trkpt><trkpt lat="45.43287157150101" lon="11.522458049771691"><ele>351.0</ele><time>2026-03-29T08:43:36.998Z</time></trkpt><trkpt lat="45.432800942864" lon="11.522416125956964"><ele>351.0</ele><time>2026-03-29T08:43:37.998Z</time></trkpt><trkpt lat="45.43273424293169" lon="11.522378384581078"><ele>351.00000000000006</ele><time>2026-03-29T08:43:38.998Z</time></trkpt><trkpt lat="45.432663649435135" lon="11.522344687843221"><ele>351.0</ele><time>2026-03-29T08:43:39.998Z</time></trkpt><trkpt lat="45.43258790398038" lon="11.522303539193812"><ele>351.0</ele><time>2026-03-29T08:43:40.997Z</time></trkpt><trkpt lat="45.43251283337068" lon="11.522261042694073"><ele>351.0</ele><time>2026-03-29T08:43:41.997Z</time></trkpt><trkpt lat="45.43243832223355" lon="11.522216636372896"><ele>351.0</ele><time>2026-03-29T08:43:42.997Z</time></trkpt><trkpt lat="45.43236508566154" lon="11.522164645176565"><ele>351.0</ele><time>2026-03-29T08:43:43.997Z</time></trkpt><trkpt lat="45.43229599648436" lon="11.52210483488977"><ele>351.0</ele><time>2026-03-29T08:43:44.997Z</time></trkpt><trkpt lat="45.43222900469764" lon="11.522048056767003"><ele>351.0</ele><time>2026-03-29T08:43:45.997Z</time></trkpt><trkpt lat="45.432159016442014" lon="11.52198766440612"><ele>350.3333333333333</ele><time>2026-03-29T08:43:46.997Z</time></trkpt><trkpt lat="45.43208451294781" lon="11.521933335534932"><ele>349.6666666666667</ele><time>2026-03-29T08:43:47.997Z</time></trkpt><trkpt lat="45.43201582562608" lon="11.52188080247894"><ele>349.0</ele><time>2026-03-29T08:43:48.997Z</time></trkpt><trkpt lat="45.431942905881385" lon="11.521829878600022"><ele>348.33333333333337</ele><time>2026-03-29T08:43:49.997Z</time></trkpt><trkpt lat="45.43186552131859" lon="11.521779017483963"><ele>347.6666666666667</ele><time>2026-03-29T08:43:50.997Z</time></trkpt><trkpt lat="45.43179140132451" lon="11.521730634893858"><ele>347.0</ele><time>2026-03-29T08:43:51.997Z</time></trkpt><trkpt lat="45.431708184667954" lon="11.521672145332555"><ele>347.0</ele><time>2026-03-29T08:43:52.997Z</time></trkpt><trkpt lat="45.431623057558134" lon="11.521610690982424"><ele>347.0</ele><time>2026-03-29T08:43:53.997Z</time></trkpt><trkpt lat="45.43153131464249" lon="11.521543079890664"><ele>347.0</ele><time>2026-03-29T08:43:54.997Z</time></trkpt><trkpt lat="45.43144350546037" lon="11.521479260356108"><ele>347.0</ele><time>2026-03-29T08:43:55.997Z</time></trkpt><trkpt lat="45.43134966857895" lon="11.521416248670858"><ele>347.0</ele><time>2026-03-29T08:43:56.997Z</time></trkpt><trkpt lat="45.431250974238594" lon="11.52135218822177"><ele>347.40000000000003</ele><time>2026-03-29T08:43:57.997Z</time></trkpt><trkpt lat="45.431149755416584" lon="11.521282575203179"><ele>347.8</ele><time>2026-03-29T08:43:58.997Z</time></trkpt><trkpt lat="45.431052433218035" lon="11.521206329714886"><ele>348.2</ele><time>2026-03-29T08:44:00Z</time></trkpt><trkpt lat="45.43095045863854" lon="11.521132445906868"><ele>348.6</ele><time>2026-03-29T08:44:01Z</time></trkpt><trkpt lat="45.430853242223144" lon="11.521057247249361"><ele>349.0</ele><time>2026-03-29T08:44:02Z</time></trkpt><trkpt lat="45.430750077566394" lon="11.520995927437347"><ele>349.0</ele><time>2026-03-29T08:44:03Z</time></trkpt><trkpt lat="45.430655482370895" lon="11.520944803976912"><ele>349.0</ele><time>2026-03-29T08:44:04Z</time></trkpt><trkpt lat="45.43056313452148" lon="11.520903856551579"><ele>349.0</ele><time>2026-03-29T08:44:05Z</time></trkpt><trkpt lat="45.43047277786123" lon="11.520869032090147"><ele>349.0</ele><time>2026-03-29T08:44:06Z</time></trkpt><trkpt lat="45.43039003722862" lon="11.520816945112001"><ele>349.0</ele><time>2026-03-29T08:44:07Z</time></trkpt><trkpt lat="45.43030832359222" lon="11.52077502545203"><ele>347.0</ele><time>2026-03-29T08:44:08Z</time></trkpt><trkpt lat="45.43023387434354" lon="11.520734230068392"><ele>345.0</ele><time>2026-03-29T08:44:09Z</time></trkpt><trkpt lat="45.43016335951738" lon="11.520696768241054"><ele>343.0</ele><time>2026-03-29T08:44:10Z</time></trkpt><trkpt lat="45.43009504699945" lon="11.52065493234553"><ele>341.0</ele><time>2026-03-29T08:44:11Z</time></trkpt><trkpt lat="45.43002369982918" lon="11.520592997317024"><ele>339.0</ele><time>2026-03-29T08:44:12Z</time></trkpt><trkpt lat="45.429938476662514" lon="11.520521078435848"><ele>337.0</ele><time>2026-03-29T08:44:13Z</time></trkpt><trkpt lat="45.4298564602831" lon="11.520447732957027"><ele>337.8</ele><time>2026-03-29T08:44:14Z</time></trkpt><trkpt lat="45.42976791039053" lon="11.520369664679931"><ele>338.6</ele><time>2026-03-29T08:44:15Z</time></trkpt><trkpt lat="45.42967736586965" lon="11.520286388488675"><ele>339.40000000000003</ele><time>2026-03-29T08:44:16Z</time></trkpt><trkpt lat="45.42959089154466" lon="11.520201547484083"><ele>340.20000000000005</ele><time>2026-03-29T08:44:17Z</time></trkpt><trkpt lat="45.42951348578449" lon="11.520119387178879"><ele>341.0</ele><time>2026-03-29T08:44:18Z</time></trkpt><trkpt lat="45.42944282231544" lon="11.520051152097222"><ele>338.4</ele><time>2026-03-29T08:44:19Z</time></trkpt><trkpt lat="45.42938048113092" lon="11.519992010306504"><ele>335.8</ele><time>2026-03-29T08:44:20Z</time></trkpt><trkpt lat="45.42932423404054" lon="11.519942108732582"><ele>333.2</ele><time>2026-03-29T08:44:21Z</time></trkpt><trkpt lat="45.429257268535515" lon="11.519823644344827"><ele>330.59999999999997</ele><time>2026-03-29T08:44:23Z</time></trkpt><trkpt lat="45.429316244910524" lon="11.519646309027989"><ele>328.0</ele><time>2026-03-29T08:44:25Z</time></trkpt><trkpt lat="45.429341172454826" lon="11.519512980735238"><ele>327.59999999999997</ele><time>2026-03-29T08:44:27Z</time></trkpt><trkpt lat="45.42936187223613" lon="11.519386016153485"><ele>327.2</ele><time>2026-03-29T08:44:29Z</time></trkpt><trkpt lat="45.42938680301385" lon="11.51924591994807"><ele>326.8</ele><time>2026-03-29T08:44:30.999Z</time></trkpt><trkpt lat="45.42941757744118" lon="11.519101826314074"><ele>326.4</ele><time>2026-03-29T08:44:32.999Z</time></trkpt><trkpt lat="45.429442356105724" lon="11.518952744531529"><ele>326.0</ele><time>2026-03-29T08:44:34.999Z</time></trkpt><trkpt lat="45.42946556401081" lon="11.518822668757233"><ele>327.83333333333337</ele><time>2026-03-29T08:44:36.999Z</time></trkpt><trkpt lat="45.42948983513701" lon="11.518707209396512"><ele>329.6666666666667</ele><time>2026-03-29T08:44:38.999Z</time></trkpt><trkpt lat="45.42952489132639" lon="11.518587306106527"><ele>331.5</ele><time>2026-03-29T08:44:41.999Z</time></trkpt><trkpt lat="45.42955180498506" lon="11.518493979672504"><ele>333.3333333333333</ele><time>2026-03-29T08:44:43.999Z</time></trkpt><trkpt lat="45.4295854357856" lon="11.518417803461356"><ele>335.16666666666663</ele><time>2026-03-29T08:44:45.999Z</time></trkpt><trkpt lat="45.42963267873938" lon="11.518312226138463"><ele>337.0</ele><time>2026-03-29T08:44:48.999Z</time></trkpt><trkpt lat="45.42967168007662" lon="11.518226339396065"><ele>337.66666666666663</ele><time>2026-03-29T08:44:51.999Z</time></trkpt><trkpt lat="45.429705388081956" lon="11.51814592908796"><ele>338.3333333333333</ele><time>2026-03-29T08:44:53.999Z</time></trkpt><trkpt lat="45.429765452736476" lon="11.518053569925536"><ele>339.0</ele><time>2026-03-29T08:44:56.999Z</time></trkpt><trkpt lat="45.42982025918195" lon="11.51796997265335"><ele>339.6666666666667</ele><time>2026-03-29T08:44:59.999Z</time></trkpt><trkpt lat="45.42987066121908" lon="11.517885908953474"><ele>340.33333333333337</ele><time>2026-03-29T08:45:02.999Z</time></trkpt><trkpt lat="45.42992399506731" lon="11.517801335615577"><ele>341.0</ele><time>2026-03-29T08:45:05.999Z</time></trkpt><trkpt lat="45.42997109950677" lon="11.517730182795782"><ele>341.0</ele><time>2026-03-29T08:45:08.999Z</time></trkpt><trkpt lat="45.43003661390208" lon="11.517658502350377"><ele>341.0</ele><time>2026-03-29T08:45:11.998Z</time></trkpt><trkpt lat="45.430087541468154" lon="11.517580739728253"><ele>341.0</ele><time>2026-03-29T08:45:14.998Z</time></trkpt><trkpt lat="45.430139995574095" lon="11.51750422330051"><ele>341.0</ele><time>2026-03-29T08:45:17.998Z</time></trkpt><trkpt lat="45.43019296722499" lon="11.517436906006845"><ele>341.0</ele><time>2026-03-29T08:45:20.998Z</time></trkpt><trkpt lat="45.43025544075019" lon="11.517357646510334"><ele>341.0</ele><time>2026-03-29T08:45:24.998Z</time></trkpt><trkpt lat="45.43030301950896" lon="11.517284833301984"><ele>341.0</ele><time>2026-03-29T08:45:27.998Z</time></trkpt><trkpt lat="45.43035161210795" lon="11.517219268242075"><ele>341.0</ele><time>2026-03-29T08:45:30.998Z</time></trkpt><trkpt lat="45.43040629148873" lon="11.517153820588536"><ele>341.0</ele><time>2026-03-29T08:45:33.998Z</time></trkpt><trkpt lat="45.430472569908076" lon="11.51708650039693"><ele>341.0</ele><time>2026-03-29T08:45:36.998Z</time></trkpt><trkpt lat="45.43055992131574" lon="11.517004133489444"><ele>341.0</ele><time>2026-03-29T08:45:39.998Z</time></trkpt><trkpt lat="45.430622560019295" lon="11.516944583146909"><ele>341.0</ele><time>2026-03-29T08:45:41.998Z</time></trkpt><trkpt lat="45.430682426511304" lon="11.516869289201725"><ele>343.5</ele><time>2026-03-29T08:45:43.998Z</time></trkpt><trkpt lat="45.4307277737725" lon="11.516767593454611"><ele>346.0</ele><time>2026-03-29T08:45:46.998Z</time></trkpt><trkpt lat="45.43073781897704" lon="11.516649764421405"><ele>348.5</ele><time>2026-03-29T08:45:49.997Z</time></trkpt><trkpt lat="45.430708953190404" lon="11.516551070924836"><ele>351.0</ele><time>2026-03-29T08:45:52.997Z</time></trkpt><trkpt lat="45.430648090936806" lon="11.516468272937143"><ele>353.5</ele><time>2026-03-29T08:45:55.997Z</time></trkpt><trkpt lat="45.43057723088242" lon="11.51642521268715"><ele>356.0</ele><time>2026-03-29T08:45:58.997Z</time></trkpt><trkpt lat="45.43050776997733" lon="11.5164018571051"><ele>355.2857142857143</ele><time>2026-03-29T08:46:01.997Z</time></trkpt><trkpt lat="45.43044032903331" lon="11.516381204008495"><ele>354.57142857142856</ele><time>2026-03-29T08:46:04.997Z</time></trkpt><trkpt lat="45.430375922010995" lon="11.516361938411"><ele>353.8571428571429</ele><time>2026-03-29T08:46:08Z</time></trkpt><trkpt lat="45.430306690957586" lon="11.51634452778103"><ele>353.1428571428571</ele><time>2026-03-29T08:46:11Z</time></trkpt><trkpt lat="45.430232965023876" lon="11.51632461008425"><ele>352.42857142857144</ele><time>2026-03-29T08:46:14Z</time></trkpt><trkpt lat="45.43016405902517" lon="11.516315221646819"><ele>351.7142857142857</ele><time>2026-03-29T08:46:17Z</time></trkpt><trkpt lat="45.43009590379535" lon="11.516297735023718"><ele>351.0</ele><time>2026-03-29T08:46:20Z</time></trkpt><trkpt lat="45.4300263079255" lon="11.516298033531948"><ele>351.00000000000006</ele><time>2026-03-29T08:46:23Z</time></trkpt><trkpt lat="45.429955376795256" lon="11.516266304806834"><ele>351.0</ele><time>2026-03-29T08:46:26Z</time></trkpt><trkpt lat="45.42988818832536" lon="11.516224986034661"><ele>351.0</ele><time>2026-03-29T08:46:29Z</time></trkpt><trkpt lat="45.42982801757878" lon="11.516156744874289"><ele>351.0</ele><time>2026-03-29T08:46:32Z</time></trkpt><trkpt lat="45.42977589326118" lon="11.516084255042431"><ele>351.0</ele><time>2026-03-29T08:46:35Z</time></trkpt><trkpt lat="45.429723897981354" lon="11.516003834889057"><ele>351.00000000000006</ele><time>2026-03-29T08:46:37.999Z</time></trkpt><trkpt lat="45.42967445130444" lon="11.51592998077978"><ele>351.0</ele><time>2026-03-29T08:46:40.999Z</time></trkpt><trkpt lat="45.42962140947963" lon="11.515846691471394"><ele>353.7142857142857</ele><time>2026-03-29T08:46:43.999Z</time></trkpt><trkpt lat="45.42956687828442" lon="11.515779364016476"><ele>356.42857142857144</ele><time>2026-03-29T08:46:46.999Z</time></trkpt><trkpt lat="45.42951593545904" lon="11.515706400761708"><ele>359.1428571428571</ele><time>2026-03-29T08:46:49.999Z</time></trkpt><trkpt lat="45.42947152221159" lon="11.51562606382718"><ele>361.8571428571429</ele><time>2026-03-29T08:46:52.999Z</time></trkpt><trkpt lat="45.429437255196326" lon="11.515535300403574"><ele>364.57142857142856</ele><time>2026-03-29T08:46:55.999Z</time></trkpt><trkpt lat="45.42940254073277" lon="11.515438817730692"><ele>367.2857142857143</ele><time>2026-03-29T08:46:58.999Z</time></trkpt><trkpt lat="45.42938312965549" lon="11.515342533793513"><ele>370.0</ele><time>2026-03-29T08:47:01.999Z</time></trkpt><trkpt lat="45.42938298447296" lon="11.515239477035472"><ele>369.85714285714283</ele><time>2026-03-29T08:47:04.999Z</time></trkpt><trkpt lat="45.42938705240425" lon="11.51513063908668"><ele>369.7142857142857</ele><time>2026-03-29T08:47:07.999Z</time></trkpt><trkpt lat="45.42939849484434" lon="11.515028000998255"><ele>369.57142857142856</ele><time>2026-03-29T08:47:10.999Z</time></trkpt><trkpt lat="45.42941062108986" lon="11.514928068693784"><ele>369.42857142857144</ele><time>2026-03-29T08:47:13.999Z</time></trkpt><trkpt lat="45.42941346329341" lon="11.514825634052018"><ele>369.2857142857143</ele><time>2026-03-29T08:47:16.998Z</time></trkpt><trkpt lat="45.42941697135217" lon="11.514715089162843"><ele>369.1428571428571</ele><time>2026-03-29T08:47:19.998Z</time></trkpt><trkpt lat="45.42942420494449" lon="11.514613140131813"><ele>369.0</ele><time>2026-03-29T08:47:22.998Z</time></trkpt><trkpt lat="45.42942670688558" lon="11.51450333839451"><ele>369.0</ele><time>2026-03-29T08:47:26.998Z</time></trkpt><trkpt lat="45.42943162225791" lon="11.514401217280609"><ele>369.0</ele><time>2026-03-29T08:47:29.998Z</time></trkpt><trkpt lat="45.42944444371968" lon="11.514309361216727"><ele>369.0</ele><time>2026-03-29T08:47:32.998Z</time></trkpt><trkpt lat="45.42953493998959" lon="11.51430773672091"><ele>369.0</ele><time>2026-03-29T08:48:09.997Z</time></trkpt><trkpt lat="45.42961827716433" lon="11.514308952215176"><ele>369.0</ele><time>2026-03-29T08:48:12Z</time></trkpt><trkpt lat="45.429687572797484" lon="11.51430768335392"><ele>369.0</ele><time>2026-03-29T08:48:14Z</time></trkpt><trkpt lat="45.42978471935607" lon="11.514298239160231"><ele>368.3333333333333</ele><time>2026-03-29T08:48:16Z</time></trkpt><trkpt lat="45.42989014938613" lon="11.5142910204743"><ele>367.6666666666667</ele><time>2026-03-29T08:48:18Z</time></trkpt><trkpt lat="45.42996937794219" lon="11.514308124153336"><ele>367.0</ele><time>2026-03-29T08:48:20Z</time></trkpt><trkpt lat="45.430064429736255" lon="11.514272760971984"><ele>366.33333333333337</ele><time>2026-03-29T08:48:23Z</time></trkpt><trkpt lat="45.43013051301705" lon="11.514288229709772"><ele>365.6666666666667</ele><time>2026-03-29T08:48:25Z</time></trkpt><trkpt lat="45.43019531257849" lon="11.51426072999371"><ele>365.0</ele><time>2026-03-29T08:48:27Z</time></trkpt><trkpt lat="45.43025759383954" lon="11.514298934402218"><ele>365.00000000000006</ele><time>2026-03-29T08:48:29Z</time></trkpt><trkpt lat="45.430329187984036" lon="11.514325053526294"><ele>365.0</ele><time>2026-03-29T08:48:32Z</time></trkpt><trkpt lat="45.430390599445346" lon="11.514351211564303"><ele>365.0</ele><time>2026-03-29T08:48:35Z</time></trkpt><trkpt lat="45.43043371120071" lon="11.514449941373128"><ele>365.0</ele><time>2026-03-29T08:48:40Z</time></trkpt><trkpt lat="45.430450887808504" lon="11.514549974574354"><ele>365.0</ele><time>2026-03-29T08:48:43Z</time></trkpt><trkpt lat="45.43049129630072" lon="11.514627637326399"><ele>365.00000000000006</ele><time>2026-03-29T08:48:45.999Z</time></trkpt><trkpt lat="45.43049776039355" lon="11.514724896331682"><ele>365.0</ele><time>2026-03-29T08:48:49.999Z</time></trkpt><trkpt lat="45.430555350091346" lon="11.514767541654235"><ele>367.33333333333337</ele><time>2026-03-29T08:48:53.999Z</time></trkpt><trkpt lat="45.43060598970932" lon="11.514700021454345"><ele>369.6666666666667</ele><time>2026-03-29T08:48:56.999Z</time></trkpt><trkpt lat="45.43065848878284" lon="11.514608268305002"><ele>372.0</ele><time>2026-03-29T08:49:00.999Z</time></trkpt><trkpt lat="45.43070106931451" lon="11.514511102750319"><ele>374.3333333333333</ele><time>2026-03-29T08:49:04.999Z</time></trkpt><trkpt lat="45.43075004167198" lon="11.514451972410813"><ele>376.66666666666663</ele><time>2026-03-29T08:49:07.999Z</time></trkpt><trkpt lat="45.43082570122153" lon="11.514395990877077"><ele>379.0</ele><time>2026-03-29T08:49:12.999Z</time></trkpt><trkpt lat="45.43089917534734" lon="11.514345630675129"><ele>379.00000000000006</ele><time>2026-03-29T08:49:16.999Z</time></trkpt><trkpt lat="45.43096396770549" lon="11.514314038410411"><ele>379.0</ele><time>2026-03-29T08:49:20.999Z</time></trkpt><trkpt lat="45.43102783878885" lon="11.51428156969032"><ele>379.0</ele><time>2026-03-29T08:49:23.998Z</time></trkpt><trkpt lat="45.431095788057064" lon="11.514243651842975"><ele>379.0</ele><time>2026-03-29T08:49:27.998Z</time></trkpt><trkpt lat="45.43116100910645" lon="11.514203681259312"><ele>379.0</ele><time>2026-03-29T08:49:32.998Z</time></trkpt><trkpt lat="45.43122677216312" lon="11.514165213977765"><ele>379.00000000000006</ele><time>2026-03-29T08:49:35.998Z</time></trkpt><trkpt lat="45.4313055276447" lon="11.514101663892937"><ele>379.0</ele><time>2026-03-29T08:49:39.998Z</time></trkpt><trkpt lat="45.43138320234802" lon="11.51410012715875"><ele>380.16666666666663</ele><time>2026-03-29T08:49:43.998Z</time></trkpt><trkpt lat="45.43145006797048" lon="11.514026516083032"><ele>381.3333333333333</ele><time>2026-03-29T08:49:47.998Z</time></trkpt><trkpt lat="45.43149492939606" lon="11.513955075380016"><ele>382.5</ele><time>2026-03-29T08:49:50.998Z</time></trkpt><trkpt lat="45.431529548328946" lon="11.513857461473282"><ele>383.66666666666663</ele><time>2026-03-29T08:49:53.998Z</time></trkpt><trkpt lat="45.43159357413521" lon="11.513829727432697"><ele>384.8333333333333</ele><time>2026-03-29T08:49:59.998Z</time></trkpt><trkpt lat="45.431632359665485" lon="11.513908313306125"><ele>386.0</ele><time>2026-03-29T08:50:03.997Z</time></trkpt><trkpt lat="45.431711058794576" lon="11.513982609283758"><ele>385.99999999999994</ele><time>2026-03-29T08:50:06.997Z</time></trkpt><trkpt lat="45.43176060758521" lon="11.514044696953823"><ele>386.0</ele><time>2026-03-29T08:50:08.997Z</time></trkpt><trkpt lat="45.43185398816036" lon="11.514111277617419"><ele>386.0</ele><time>2026-03-29T08:50:11.997Z</time></trkpt><trkpt lat="45.4319230387858" lon="11.514143266846434"><ele>386.0</ele><time>2026-03-29T08:50:13.997Z</time></trkpt><trkpt lat="45.43200004605716" lon="11.514218407701806"><ele>385.99999999999994</ele><time>2026-03-29T08:50:16.997Z</time></trkpt><trkpt lat="45.4320652572048" lon="11.514267509393566"><ele>386.0</ele><time>2026-03-29T08:50:19Z</time></trkpt><trkpt lat="45.4321158973201" lon="11.514325732828144"><ele>385.3333333333333</ele><time>2026-03-29T08:50:21Z</time></trkpt><trkpt lat="45.43216531079083" lon="11.514403550643447"><ele>384.66666666666663</ele><time>2026-03-29T08:50:23Z</time></trkpt><trkpt lat="45.43222031822152" lon="11.514502573865553"><ele>384.0</ele><time>2026-03-29T08:50:26Z</time></trkpt><trkpt lat="45.43226236695614" lon="11.514581528890835"><ele>383.3333333333333</ele><time>2026-03-29T08:50:28Z</time></trkpt><trkpt lat="45.43232673136948" lon="11.514694144693081"><ele>382.66666666666663</ele><time>2026-03-29T08:50:31Z</time></trkpt><trkpt lat="45.43236140799533" lon="11.514798508549147"><ele>382.0</ele><time>2026-03-29T08:50:35Z</time></trkpt><trkpt lat="45.43241883346158" lon="11.514865860121176"><ele>382.0</ele><time>2026-03-29T08:50:39Z</time></trkpt><trkpt lat="45.432467375637486" lon="11.51494900425722"><ele>382.0</ele><time>2026-03-29T08:50:42Z</time></trkpt><trkpt lat="45.43249570393849" lon="11.51505225233233"><ele>382.0</ele><time>2026-03-29T08:50:44Z</time></trkpt><trkpt lat="45.43252545340838" lon="11.515135555888902"><ele>382.0</ele><time>2026-03-29T08:50:46Z</time></trkpt><trkpt lat="45.432544291319886" lon="11.515277503917549"><ele>382.0</ele><time>2026-03-29T08:50:48Z</time></trkpt><trkpt lat="45.432579756585575" lon="11.515418461825423"><ele>382.0</ele><time>2026-03-29T08:50:50Z</time></trkpt><trkpt lat="45.43262189827702" lon="11.515544411760144"><ele>381.3333333333333</ele><time>2026-03-29T08:50:51.999Z</time></trkpt><trkpt lat="45.43265035448827" lon="11.515643614825807"><ele>380.66666666666663</ele><time>2026-03-29T08:50:53.999Z</time></trkpt><trkpt lat="45.432668515517996" lon="11.515729816894147"><ele>380.0</ele><time>2026-03-29T08:50:55.999Z</time></trkpt><trkpt lat="45.43271286973897" lon="11.515798762249759"><ele>379.3333333333333</ele><time>2026-03-29T08:50:57.999Z</time></trkpt><trkpt lat="45.43276608862268" lon="11.515907520232158"><ele>378.6666666666667</ele><time>2026-03-29T08:51:00.999Z</time></trkpt><trkpt lat="45.432774393353114" lon="11.516010957106372"><ele>378.0</ele><time>2026-03-29T08:51:03.999Z</time></trkpt><trkpt lat="45.43279611599732" lon="11.516135304887653"><ele>378.0</ele><time>2026-03-29T08:51:06.999Z</time></trkpt><trkpt lat="45.432825021503476" lon="11.516223327153973"><ele>378.0</ele><time>2026-03-29T08:51:09.999Z</time></trkpt><trkpt lat="45.432864050527776" lon="11.516300376397309"><ele>378.0</ele><time>2026-03-29T08:51:12.999Z</time></trkpt><trkpt lat="45.432895878954916" lon="11.51640011678867"><ele>378.0</ele><time>2026-03-29T08:51:15.999Z</time></trkpt><trkpt lat="45.432922596673286" lon="11.516505851085814"><ele>378.0</ele><time>2026-03-29T08:51:18.999Z</time></trkpt><trkpt lat="45.43298982851412" lon="11.516577331780162"><ele>378.0</ele><time>2026-03-29T08:51:22.999Z</time></trkpt><trkpt lat="45.433049253141505" lon="11.516639992467029"><ele>378.0</ele><time>2026-03-29T08:51:25.999Z</time></trkpt><trkpt lat="45.433058155160445" lon="11.516754100013696"><ele>379.6666666666667</ele><time>2026-03-29T08:51:28.998Z</time></trkpt><trkpt lat="45.43307859659087" lon="11.516842403794293"><ele>381.33333333333337</ele><time>2026-03-29T08:51:31.998Z</time></trkpt><trkpt lat="45.43310409932129" lon="11.516948159822684"><ele>383.0</ele><time>2026-03-29T08:51:34.998Z</time></trkpt><trkpt lat="45.43313580284251" lon="11.517068147247313"><ele>384.6666666666667</ele><time>2026-03-29T08:51:38.998Z</time></trkpt><trkpt lat="45.433156692017995" lon="11.517160812134325"><ele>386.33333333333337</ele><time>2026-03-29T08:51:41.998Z</time></trkpt><trkpt lat="45.43319622343335" lon="11.517265748773005"><ele>388.0</ele><time>2026-03-29T08:51:45.998Z</time></trkpt><trkpt lat="45.43323304777108" lon="11.517342551979615"><ele>388.33333333333337</ele><time>2026-03-29T08:51:47.998Z</time></trkpt><trkpt lat="45.43329570013131" lon="11.517403389147649"><ele>388.6666666666667</ele><time>2026-03-29T08:51:51.998Z</time></trkpt><trkpt lat="45.43333984992168" lon="11.517486021926063"><ele>389.0</ele><time>2026-03-29T08:51:55.998Z</time></trkpt><trkpt lat="45.43337279509615" lon="11.517580750068216"><ele>389.33333333333337</ele><time>2026-03-29T08:51:58.998Z</time></trkpt><trkpt lat="45.43340526644299" lon="11.51769277523286"><ele>389.6666666666667</ele><time>2026-03-29T08:52:01.998Z</time></trkpt><trkpt lat="45.43342742963183" lon="11.517801206678568"><ele>390.0</ele><time>2026-03-29T08:52:04.998Z</time></trkpt><trkpt lat="45.43342851129711" lon="11.517900350897783"><ele>389.8333333333333</ele><time>2026-03-29T08:52:06.997Z</time></trkpt><trkpt lat="45.43345460639517" lon="11.518011902149523"><ele>389.66666666666663</ele><time>2026-03-29T08:52:08.997Z</time></trkpt><trkpt lat="45.433478247537515" lon="11.518120024267693"><ele>389.5</ele><time>2026-03-29T08:52:10.997Z</time></trkpt><trkpt lat="45.43351014795974" lon="11.518217825702282"><ele>389.3333333333333</ele><time>2026-03-29T08:52:12.997Z</time></trkpt><trkpt lat="45.433519738605064" lon="11.518308098766385"><ele>389.16666666666663</ele><time>2026-03-29T08:52:14.997Z</time></trkpt><trkpt lat="45.43353689501106" lon="11.518408836887662"><ele>389.0</ele><time>2026-03-29T08:52:16.997Z</time></trkpt><trkpt lat="45.433560497092365" lon="11.518534928367655"><ele>389.0</ele><time>2026-03-29T08:52:18.997Z</time></trkpt><trkpt lat="45.43357607530758" lon="11.518635799295206"><ele>389.0</ele><time>2026-03-29T08:52:19.997Z</time></trkpt><trkpt lat="45.43359660109976" lon="11.518772590273318"><ele>389.0</ele><time>2026-03-29T08:52:21.997Z</time></trkpt><trkpt lat="45.43361973641943" lon="11.518873638319052"><ele>389.0</ele><time>2026-03-29T08:52:22.997Z</time></trkpt><trkpt lat="45.43367213372686" lon="11.51900950765083"><ele>389.0</ele><time>2026-03-29T08:52:25Z</time></trkpt><trkpt lat="45.43374741326143" lon="11.519109130214726"><ele>389.49999999999994</ele><time>2026-03-29T08:52:27Z</time></trkpt><trkpt lat="45.43378368224641" lon="11.519210093776946"><ele>390.0</ele><time>2026-03-29T08:52:29Z</time></trkpt><trkpt lat="45.433766309716496" lon="11.519319344022216"><ele>390.5</ele><time>2026-03-29T08:52:31Z</time></trkpt><trkpt lat="45.4337784477901" lon="11.519436494737894"><ele>391.0</ele><time>2026-03-29T08:52:34Z</time></trkpt><trkpt lat="45.43379030494627" lon="11.51955093422829"><ele>391.49999999999994</ele><time>2026-03-29T08:52:37Z</time></trkpt><trkpt lat="45.43381950146824" lon="11.519646965135655"><ele>392.0</ele><time>2026-03-29T08:52:40Z</time></trkpt><trkpt lat="45.433837113672666" lon="11.51974958808019"><ele>391.99999999999994</ele><time>2026-03-29T08:52:43Z</time></trkpt><trkpt lat="45.433855188743784" lon="11.51988042562494"><ele>392.0</ele><time>2026-03-29T08:52:47Z</time></trkpt><trkpt lat="45.43391144591773" lon="11.51994395239908"><ele>392.0</ele><time>2026-03-29T08:52:50Z</time></trkpt><trkpt lat="45.433949825774974" lon="11.520045947109532"><ele>392.0</ele><time>2026-03-29T08:52:54Z</time></trkpt><trkpt lat="45.43399995123652" lon="11.520112082399915"><ele>391.99999999999994</ele><time>2026-03-29T08:52:56.999Z</time></trkpt><trkpt lat="45.43407466055811" lon="11.520175816168525"><ele>392.0</ele><time>2026-03-29T08:52:59.999Z</time></trkpt><trkpt lat="45.434151071725495" lon="11.520186949815269"><ele>391.99999999999994</ele><time>2026-03-29T08:53:02.999Z</time></trkpt><trkpt lat="45.434230945767396" lon="11.520205735407776"><ele>392.0</ele><time>2026-03-29T08:53:05.999Z</time></trkpt><trkpt lat="45.43430464392787" lon="11.520232482343035"><ele>392.0</ele><time>2026-03-29T08:53:08.999Z</time></trkpt><trkpt lat="45.434377196985714" lon="11.520266930870271"><ele>392.0</ele><time>2026-03-29T08:53:10.999Z</time></trkpt><trkpt lat="45.434450187912" lon="11.520307644259423"><ele>391.99999999999994</ele><time>2026-03-29T08:53:12.999Z</time></trkpt><trkpt lat="45.43451587301738" lon="11.520342311007909"><ele>392.0</ele><time>2026-03-29T08:53:14.999Z</time></trkpt><trkpt lat="45.43459415663386" lon="11.520422790338287"><ele>391.16666666666663</ele><time>2026-03-29T08:53:17.999Z</time></trkpt><trkpt lat="45.434670725680185" lon="11.520465146279173"><ele>390.3333333333333</ele><time>2026-03-29T08:53:19.999Z</time></trkpt><trkpt lat="45.43473717253407" lon="11.520503916067792"><ele>389.5</ele><time>2026-03-29T08:53:21.999Z</time></trkpt><trkpt lat="45.43480453393858" lon="11.520523022739296"><ele>388.66666666666663</ele><time>2026-03-29T08:53:23.999Z</time></trkpt><trkpt lat="45.434878347609725" lon="11.520580382858597"><ele>387.8333333333333</ele><time>2026-03-29T08:53:26.999Z</time></trkpt><trkpt lat="45.43494741087794" lon="11.520660351090708"><ele>387.0</ele><time>2026-03-29T08:53:29.999Z</time></trkpt><trkpt lat="45.43497827285068" lon="11.520742710717258"><ele>387.0</ele><time>2026-03-29T08:53:31.999Z</time></trkpt><trkpt lat="45.43503929054258" lon="11.520837309521102"><ele>387.0</ele><time>2026-03-29T08:53:34.998Z</time></trkpt><trkpt lat="45.43509167195665" lon="11.520918118412329"><ele>387.0</ele><time>2026-03-29T08:53:37.998Z</time></trkpt><trkpt lat="45.435136222948714" lon="11.520995093976987"><ele>387.0</ele><time>2026-03-29T08:53:39.998Z</time></trkpt><trkpt lat="45.43520916813127" lon="11.521068190877106"><ele>387.0</ele><time>2026-03-29T08:53:42.998Z</time></trkpt><trkpt lat="45.43528319401086" lon="11.521099820707338"><ele>387.0</ele><time>2026-03-29T08:53:45.998Z</time></trkpt><trkpt lat="45.435363487076934" lon="11.521105258368072"><ele>387.0</ele><time>2026-03-29T08:53:48.998Z</time></trkpt><trkpt lat="45.435465935811855" lon="11.521101759522905"><ele>387.0</ele><time>2026-03-29T08:53:51.998Z</time></trkpt><trkpt lat="45.435588929672036" lon="11.521074560496299"><ele>387.0</ele><time>2026-03-29T08:53:53.998Z</time></trkpt><trkpt lat="45.43571024374578" lon="11.521029517361267"><ele>387.0</ele><time>2026-03-29T08:53:55.998Z</time></trkpt><trkpt lat="45.435826412383825" lon="11.521020579901446"><ele>387.0</ele><time>2026-03-29T08:53:57.998Z</time></trkpt><trkpt lat="45.43592437303165" lon="11.521036546133706"><ele>387.0</ele><time>2026-03-29T08:53:59.998Z</time></trkpt><trkpt lat="45.436012808391645" lon="11.521068434227676"><ele>387.0</ele><time>2026-03-29T08:54:01.998Z</time></trkpt><trkpt lat="45.4360784922408" lon="11.521086678577085"><ele>387.0</ele><time>2026-03-29T08:54:03.998Z</time></trkpt><trkpt lat="45.43615072262351" lon="11.521098483879772"><ele>387.0</ele><time>2026-03-29T08:54:05.998Z</time></trkpt><trkpt lat="45.43622347012464" lon="11.521095492474577"><ele>387.0</ele><time>2026-03-29T08:54:07.998Z</time></trkpt><trkpt lat="45.436288173886226" lon="11.52114011641065"><ele>387.8571428571429</ele><time>2026-03-29T08:54:10.998Z</time></trkpt><trkpt lat="45.43635417534512" lon="11.52117968388355"><ele>388.7142857142857</ele><time>2026-03-29T08:54:13.997Z</time></trkpt><trkpt lat="45.436415946340695" lon="11.521217234840119"><ele>389.57142857142856</ele><time>2026-03-29T08:54:16.997Z</time></trkpt><trkpt lat="45.436476061075304" lon="11.521254205983208"><ele>390.42857142857144</ele><time>2026-03-29T08:54:19.997Z</time></trkpt><trkpt lat="45.43653827075885" lon="11.521287766933618"><ele>391.2857142857143</ele><time>2026-03-29T08:54:22.997Z</time></trkpt><trkpt lat="45.43660556936714" lon="11.52134047132604"><ele>392.14285714285717</ele><time>2026-03-29T08:54:26.997Z</time></trkpt><trkpt lat="45.43665073415945" lon="11.521426900365007"><ele>393.0</ele><time>2026-03-29T08:54:31Z</time></trkpt><trkpt lat="45.43669072806911" lon="11.52150522192336"><ele>393.42857142857144</ele><time>2026-03-29T08:54:34Z</time></trkpt><trkpt lat="45.43674223088513" lon="11.521579136348779"><ele>393.8571428571429</ele><time>2026-03-29T08:54:37Z</time></trkpt><trkpt lat="45.436802947183" lon="11.521624002611848"><ele>394.28571428571433</ele><time>2026-03-29T08:54:40Z</time></trkpt><trkpt lat="45.43687139614232" lon="11.521639966243765"><ele>394.7142857142857</ele><time>2026-03-29T08:54:42Z</time></trkpt><trkpt lat="45.43693968672973" lon="11.521637442446522"><ele>395.1428571428571</ele><time>2026-03-29T08:54:45Z</time></trkpt><trkpt lat="45.437011306914926" lon="11.521620654032407"><ele>395.5714285714286</ele><time>2026-03-29T08:54:48Z</time></trkpt><trkpt lat="45.43708294033864" lon="11.521587464406402"><ele>396.0</ele><time>2026-03-29T08:54:51Z</time></trkpt><trkpt lat="45.437148017513124" lon="11.52152929167001"><ele>397.1666666666667</ele><time>2026-03-29T08:54:54Z</time></trkpt><trkpt lat="45.43721127896191" lon="11.521491020794306"><ele>398.33333333333337</ele><time>2026-03-29T08:59:15Z</time></trkpt><trkpt lat="45.437254913698126" lon="11.521407949374396"><ele>399.5</ele><time>2026-03-29T08:59:19.999Z</time></trkpt><trkpt lat="45.437332977275226" lon="11.52149330865306"><ele>400.6666666666667</ele><time>2026-03-29T08:59:20.999Z</time></trkpt><trkpt lat="45.43739408895302" lon="11.521464929698134"><ele>401.83333333333337</ele><time>2026-03-29T08:59:22.999Z</time></trkpt><trkpt lat="45.437446318123534" lon="11.521517921091329"><ele>403.0</ele><time>2026-03-29T08:59:24.999Z</time></trkpt><trkpt lat="45.43753119299372" lon="11.52156558525585"><ele>403.00000000000006</ele><time>2026-03-29T08:59:28.999Z</time></trkpt><trkpt lat="45.43759874418655" lon="11.521639475962475"><ele>403.0</ele><time>2026-03-29T08:59:31.999Z</time></trkpt><trkpt lat="45.43765229275271" lon="11.521741784675301"><ele>403.0</ele><time>2026-03-29T08:59:34.999Z</time></trkpt><trkpt lat="45.43770304904391" lon="11.521825780400247"><ele>403.0</ele><time>2026-03-29T08:59:36.999Z</time></trkpt><trkpt lat="45.43774605604586" lon="11.521917821693652"><ele>403.00000000000006</ele><time>2026-03-29T08:59:38.999Z</time></trkpt><trkpt lat="45.43778793865676" lon="11.522026292075632"><ele>403.0</ele><time>2026-03-29T08:59:40.999Z</time></trkpt><trkpt lat="45.43784612081526" lon="11.52209516781349"><ele>401.83333333333337</ele><time>2026-03-29T08:59:42.999Z</time></trkpt><trkpt lat="45.43791764307623" lon="11.522113743037911"><ele>400.6666666666667</ele><time>2026-03-29T08:59:44.999Z</time></trkpt><trkpt lat="45.43798885068584" lon="11.522194038626205"><ele>399.5</ele><time>2026-03-29T08:59:47.999Z</time></trkpt><trkpt lat="45.438064872157845" lon="11.522273719480868"><ele>398.33333333333337</ele><time>2026-03-29T08:59:50.999Z</time></trkpt><trkpt lat="45.438113777133694" lon="11.522380831805147"><ele>397.1666666666667</ele><time>2026-03-29T08:59:53.999Z</time></trkpt><trkpt lat="45.43814751792738" lon="11.522501685203862"><ele>396.0</ele><time>2026-03-29T08:59:56.998Z</time></trkpt><trkpt lat="45.43817144153742" lon="11.522629036075346"><ele>397.8333333333333</ele><time>2026-03-29T08:59:59.998Z</time></trkpt><trkpt lat="45.438177118542676" lon="11.522747431731807"><ele>399.66666666666663</ele><time>2026-03-29T09:00:02.998Z</time></trkpt><trkpt lat="45.43818457974792" lon="11.522883953031318"><ele>401.5</ele><time>2026-03-29T09:00:05.998Z</time></trkpt><trkpt lat="45.438185678441634" lon="11.522975516592837"><ele>403.3333333333333</ele><time>2026-03-29T09:00:07.998Z</time></trkpt><trkpt lat="45.438184012867275" lon="11.523095028056735"><ele>405.16666666666663</ele><time>2026-03-29T09:00:10.998Z</time></trkpt><trkpt lat="45.43817815014832" lon="11.523209662904993"><ele>407.0</ele><time>2026-03-29T09:00:13.998Z</time></trkpt><trkpt lat="45.438173299984314" lon="11.52333284129517"><ele>407.00000000000006</ele><time>2026-03-29T09:00:16.998Z</time></trkpt><trkpt lat="45.43817275543599" lon="11.523426997010475"><ele>407.0</ele><time>2026-03-29T09:00:18.998Z</time></trkpt><trkpt lat="45.43818122569028" lon="11.523558719338912"><ele>407.0</ele><time>2026-03-29T09:00:21.998Z</time></trkpt><trkpt lat="45.43818634449297" lon="11.523657425023512"><ele>407.0</ele><time>2026-03-29T09:00:23.998Z</time></trkpt><trkpt lat="45.438188674362266" lon="11.523754508299328"><ele>407.0</ele><time>2026-03-29T09:00:25.998Z</time></trkpt><trkpt lat="45.43819882033227" lon="11.523854538805352"><ele>407.00000000000006</ele><time>2026-03-29T09:00:27.998Z</time></trkpt><trkpt lat="45.438201786419135" lon="11.523950695186924"><ele>407.0</ele><time>2026-03-29T09:00:29.998Z</time></trkpt><trkpt lat="45.438186855441586" lon="11.524051324061784"><ele>406.8</ele><time>2026-03-29T09:00:31.998Z</time></trkpt><trkpt lat="45.43819779742174" lon="11.524157642323313"><ele>406.6</ele><time>2026-03-29T09:00:33.997Z</time></trkpt><trkpt lat="45.43818986217045" lon="11.52427676514622"><ele>406.40000000000003</ele><time>2026-03-29T09:00:35.997Z</time></trkpt><trkpt lat="45.438189840705206" lon="11.524407052112956"><ele>406.20000000000005</ele><time>2026-03-29T09:00:37.997Z</time></trkpt><trkpt lat="45.43816574284545" lon="11.524553324996814"><ele>406.0</ele><time>2026-03-29T09:00:39.997Z</time></trkpt><trkpt lat="45.438171254236934" lon="11.524708672170881"><ele>406.00000000000006</ele><time>2026-03-29T09:00:41.997Z</time></trkpt><trkpt lat="45.43820342577108" lon="11.524855546927483"><ele>406.0</ele><time>2026-03-29T09:00:43.997Z</time></trkpt><trkpt lat="45.43824329804749" lon="11.524965797923306"><ele>406.0</ele><time>2026-03-29T09:00:45.997Z</time></trkpt><trkpt lat="45.43828309879888" lon="11.525071746951937"><ele>406.0</ele><time>2026-03-29T09:00:48Z</time></trkpt><trkpt lat="45.43829810201032" lon="11.525162749172017"><ele>406.00000000000006</ele><time>2026-03-29T09:00:50Z</time></trkpt><trkpt lat="45.438347240650025" lon="11.525235633343128"><ele>406.0</ele><time>2026-03-29T09:00:52Z</time></trkpt><trkpt lat="45.43836321600402" lon="11.52534790727725"><ele>406.7142857142857</ele><time>2026-03-29T09:00:54Z</time></trkpt><trkpt lat="45.438375609956445" lon="11.525464626650281"><ele>407.42857142857144</ele><time>2026-03-29T09:00:56Z</time></trkpt><trkpt lat="45.43840433820828" lon="11.525551407871067"><ele>408.1428571428571</ele><time>2026-03-29T09:00:58Z</time></trkpt><trkpt lat="45.43844346312967" lon="11.525652461284764"><ele>408.8571428571429</ele><time>2026-03-29T09:01:00Z</time></trkpt><trkpt lat="45.43849415509026" lon="11.525718732041724"><ele>409.57142857142856</ele><time>2026-03-29T09:01:02Z</time></trkpt><trkpt lat="45.43855036669828" lon="11.525773357401958"><ele>410.2857142857143</ele><time>2026-03-29T09:01:04Z</time></trkpt><trkpt lat="45.438611679385524" lon="11.525824113150849"><ele>411.0</ele><time>2026-03-29T09:01:06Z</time></trkpt><trkpt lat="45.43867291891698" lon="11.525869115074688"><ele>411.0</ele><time>2026-03-29T09:01:08Z</time></trkpt><trkpt lat="45.43874081113622" lon="11.525910690953316"><ele>411.0</ele><time>2026-03-29T09:01:10Z</time></trkpt><trkpt lat="45.43883525036054" lon="11.525959958695005"><ele>411.0</ele><time>2026-03-29T09:01:13Z</time></trkpt><trkpt lat="45.438919888548874" lon="11.525984145318208"><ele>411.0</ele><time>2026-03-29T09:01:15Z</time></trkpt><trkpt lat="45.43898086841749" lon="11.52595481462305"><ele>411.0</ele><time>2026-03-29T09:01:17Z</time></trkpt><trkpt lat="45.43906097113741" lon="11.525972606422888"><ele>411.0</ele><time>2026-03-29T09:01:19Z</time></trkpt><trkpt lat="45.43910962822236" lon="11.52607262758335"><ele>410.5</ele><time>2026-03-29T09:01:22.999Z</time></trkpt><trkpt lat="45.439069709504146" lon="11.526168961048514"><ele>410.0</ele><time>2026-03-29T09:01:24.999Z</time></trkpt><trkpt lat="45.43903880780844" lon="11.526291625528692"><ele>409.5</ele><time>2026-03-29T09:01:26.999Z</time></trkpt><trkpt lat="45.43906743602069" lon="11.5264354298388"><ele>409.0</ele><time>2026-03-29T09:01:28.999Z</time></trkpt><trkpt lat="45.43908921910664" lon="11.526522665490882"><ele>408.5</ele><time>2026-03-29T09:01:29.999Z</time></trkpt><trkpt lat="45.43911866560556" lon="11.526602582408664"><ele>408.0</ele><time>2026-03-29T09:01:30.999Z</time></trkpt><trkpt lat="45.43915715545578" lon="11.526748301163511"><ele>408.0</ele><time>2026-03-29T09:01:32.999Z</time></trkpt><trkpt lat="45.439189421622466" lon="11.526879306717765"><ele>408.0</ele><time>2026-03-29T09:01:34.999Z</time></trkpt><trkpt lat="45.439214341191665" lon="11.526989416215386"><ele>408.0</ele><time>2026-03-29T09:01:36.999Z</time></trkpt><trkpt lat="45.439262007221544" lon="11.527070614525009"><ele>408.0</ele><time>2026-03-29T09:01:39.999Z</time></trkpt><trkpt lat="45.43929230576831" lon="11.527198842141718"><ele>408.0</ele><time>2026-03-29T09:01:41.999Z</time></trkpt><trkpt lat="45.439343344240314" lon="11.52725745860847"><ele>408.0</ele><time>2026-03-29T09:01:42.999Z</time></trkpt><trkpt lat="45.43939364198165" lon="11.527381173285633"><ele>407.5</ele><time>2026-03-29T09:01:44.999Z</time></trkpt><trkpt lat="45.43948161649431" lon="11.52745432425202"><ele>407.0</ele><time>2026-03-29T09:01:46.999Z</time></trkpt><trkpt lat="45.439561155859586" lon="11.527465947373114"><ele>406.5</ele><time>2026-03-29T09:01:47.999Z</time></trkpt><trkpt lat="45.43963128347349" lon="11.527452833916737"><ele>406.0</ele><time>2026-03-29T09:01:48.999Z</time></trkpt><trkpt lat="45.439702306053874" lon="11.527442427405955"><ele>405.5</ele><time>2026-03-29T09:01:49.999Z</time></trkpt><trkpt lat="45.439781237158726" lon="11.527430214051245"><ele>405.0</ele><time>2026-03-29T09:01:50.999Z</time></trkpt><trkpt lat="45.43985617546681" lon="11.527415473588832"><ele>401.8333333333333</ele><time>2026-03-29T09:01:51.999Z</time></trkpt><trkpt lat="45.43993613000839" lon="11.527396519912871"><ele>398.66666666666663</ele><time>2026-03-29T09:01:52.999Z</time></trkpt><trkpt lat="45.44001115769867" lon="11.527358442399905"><ele>395.5</ele><time>2026-03-29T09:01:53.999Z</time></trkpt><trkpt lat="45.440073605929626" lon="11.527311322312167"><ele>392.3333333333333</ele><time>2026-03-29T09:01:54.999Z</time></trkpt><trkpt lat="45.440142539768914" lon="11.527249132384203"><ele>389.16666666666663</ele><time>2026-03-29T09:01:55.999Z</time></trkpt><trkpt lat="45.44020371239464" lon="11.527189052339823"><ele>386.0</ele><time>2026-03-29T09:01:56.999Z</time></trkpt><trkpt lat="45.440256380535324" lon="11.527139211011924"><ele>386.0</ele><time>2026-03-29T09:01:57.998Z</time></trkpt><trkpt lat="45.44031896276943" lon="11.527088729028646"><ele>386.0</ele><time>2026-03-29T09:01:58.998Z</time></trkpt><trkpt lat="45.44041722781565" lon="11.52702505781906"><ele>386.0</ele><time>2026-03-29T09:02:00.998Z</time></trkpt><trkpt lat="45.440491200603546" lon="11.526997404544426"><ele>386.0</ele><time>2026-03-29T09:02:01.998Z</time></trkpt><trkpt lat="45.44061365005778" lon="11.526988067972164"><ele>386.0</ele><time>2026-03-29T09:02:03.998Z</time></trkpt><trkpt lat="45.440727909919666" lon="11.52702337010133"><ele>385.25</ele><time>2026-03-29T09:02:05.998Z</time></trkpt><trkpt lat="45.44082879142859" lon="11.52710176648907"><ele>384.5</ele><time>2026-03-29T09:02:07.998Z</time></trkpt><trkpt lat="45.440918675296004" lon="11.527208768102684"><ele>383.75</ele><time>2026-03-29T09:02:09.998Z</time></trkpt><trkpt lat="45.44101207664473" lon="11.527302202846545"><ele>383.0</ele><time>2026-03-29T09:02:11.998Z</time></trkpt><trkpt lat="45.44107697014744" lon="11.527423041674275"><ele>383.0</ele><time>2026-03-29T09:02:13.998Z</time></trkpt><trkpt lat="45.441137413423895" lon="11.527510632473248"><ele>383.0</ele><time>2026-03-29T09:02:16.998Z</time></trkpt><trkpt lat="45.44118809718614" lon="11.52758635561079"><ele>383.0</ele><time>2026-03-29T09:02:23.998Z</time></trkpt><trkpt lat="45.44124649726122" lon="11.52764838126913"><ele>383.0</ele><time>2026-03-29T09:02:26.998Z</time></trkpt><trkpt lat="45.44149371201906" lon="11.52739325261602"><ele>382.1666666666667</ele><time>2026-03-29T09:02:28.998Z</time></trkpt><trkpt lat="45.441556051968135" lon="11.527314417612034"><ele>381.33333333333337</ele><time>2026-03-29T09:02:30.998Z</time></trkpt><trkpt lat="45.44163863659128" lon="11.527321959556273"><ele>380.5</ele><time>2026-03-29T09:02:33.998Z</time></trkpt><trkpt lat="45.441764154684925" lon="11.527301726331322"><ele>379.6666666666667</ele><time>2026-03-29T09:02:36.997Z</time></trkpt><trkpt lat="45.441830518179934" lon="11.527300175301361"><ele>378.8333333333333</ele><time>2026-03-29T09:02:37.997Z</time></trkpt><trkpt lat="45.44188625685265" lon="11.527224454986333"><ele>378.0</ele><time>2026-03-29T09:02:39.997Z</time></trkpt><trkpt lat="45.44195344185881" lon="11.527158759032904"><ele>378.0</ele><time>2026-03-29T09:02:41.997Z</time></trkpt><trkpt lat="45.44203207232963" lon="11.527084342433795"><ele>378.0</ele><time>2026-03-29T09:02:43.997Z</time></trkpt><trkpt lat="45.44208660185631" lon="11.527014599283508"><ele>378.0</ele><time>2026-03-29T09:02:45.997Z</time></trkpt><trkpt lat="45.4421423368852" lon="11.526922272082544"><ele>378.0</ele><time>2026-03-29T09:02:47.997Z</time></trkpt><trkpt lat="45.44219136112006" lon="11.526860723640421"><ele>378.0</ele><time>2026-03-29T09:02:49.997Z</time></trkpt><trkpt lat="45.44225852408691" lon="11.526789928640133"><ele>378.0</ele><time>2026-03-29T09:02:51.997Z</time></trkpt><trkpt lat="45.442302904110264" lon="11.526688037749354"><ele>376.8333333333333</ele><time>2026-03-29T09:02:54Z</time></trkpt><trkpt lat="45.442370213780826" lon="11.526589575223179"><ele>375.6666666666667</ele><time>2026-03-29T09:02:56Z</time></trkpt><trkpt lat="45.44243953477832" lon="11.526486182605703"><ele>374.5</ele><time>2026-03-29T09:02:58Z</time></trkpt><trkpt lat="45.44249624195412" lon="11.526396935903644"><ele>373.33333333333337</ele><time>2026-03-29T09:03:00Z</time></trkpt><trkpt lat="45.442540314859585" lon="11.526305148095863"><ele>372.1666666666667</ele><time>2026-03-29T09:03:02Z</time></trkpt><trkpt lat="45.44256172936922" lon="11.52620962437514"><ele>371.0</ele><time>2026-03-29T09:03:04Z</time></trkpt><trkpt lat="45.44258784464851" lon="11.526105426298546"><ele>371.0</ele><time>2026-03-29T09:03:06Z</time></trkpt><trkpt lat="45.44257111593808" lon="11.525991809008977"><ele>371.0</ele><time>2026-03-29T09:03:09Z</time></trkpt><trkpt lat="45.44257386438206" lon="11.525874638091127"><ele>371.0</ele><time>2026-03-29T09:03:12Z</time></trkpt><trkpt lat="45.44260388858878" lon="11.525786844104251"><ele>371.0</ele><time>2026-03-29T09:03:14Z</time></trkpt><trkpt lat="45.442626376378634" lon="11.525675596756805"><ele>371.0</ele><time>2026-03-29T09:03:17Z</time></trkpt><trkpt lat="45.442652514532256" lon="11.525560805119436"><ele>371.0</ele><time>2026-03-29T09:03:21Z</time></trkpt><trkpt lat="45.44266103472647" lon="11.52546988542102"><ele>369.1666666666667</ele><time>2026-03-29T09:03:24Z</time></trkpt><trkpt lat="45.442690081223006" lon="11.525384982122123"><ele>367.33333333333337</ele><time>2026-03-29T09:03:26.999Z</time></trkpt><trkpt lat="45.44272535394546" lon="11.525285858981105"><ele>365.5</ele><time>2026-03-29T09:03:29.999Z</time></trkpt><trkpt lat="45.442765896455974" lon="11.525181033574382"><ele>363.6666666666667</ele><time>2026-03-29T09:03:31.999Z</time></trkpt><trkpt lat="45.44278564255534" lon="11.525084230264873"><ele>361.8333333333333</ele><time>2026-03-29T09:03:34.999Z</time></trkpt><trkpt lat="45.44280435169694" lon="11.5249604385056"><ele>360.0</ele><time>2026-03-29T09:03:37.999Z</time></trkpt><trkpt lat="45.44281704448101" lon="11.52482500887231"><ele>360.0</ele><time>2026-03-29T09:03:40.999Z</time></trkpt><trkpt lat="45.44281054670903" lon="11.524717816635373"><ele>360.0</ele><time>2026-03-29T09:03:43.999Z</time></trkpt><trkpt lat="45.44279592845397" lon="11.524610307870233"><ele>360.0</ele><time>2026-03-29T09:03:46.999Z</time></trkpt><trkpt lat="45.44274686390828" lon="11.524508823491942"><ele>360.0</ele><time>2026-03-29T09:03:49.999Z</time></trkpt><trkpt lat="45.4427364645018" lon="11.524407986571886"><ele>360.0</ele><time>2026-03-29T09:03:52.999Z</time></trkpt><trkpt lat="45.44271705373547" lon="11.524313824803977"><ele>360.0</ele><time>2026-03-29T09:03:56.999Z</time></trkpt><trkpt lat="45.44279171589047" lon="11.524245532324203"><ele>358.0</ele><time>2026-03-29T09:03:59.999Z</time></trkpt><trkpt lat="45.44289116509542" lon="11.524287941246337"><ele>356.0</ele><time>2026-03-29T09:04:01.999Z</time></trkpt><trkpt lat="45.44295148178538" lon="11.524236793286569"><ele>354.0</ele><time>2026-03-29T09:04:04.998Z</time></trkpt><trkpt lat="45.443016073630616" lon="11.524227778399435"><ele>352.0</ele><time>2026-03-29T09:04:07.998Z</time></trkpt><trkpt lat="45.443061237330426" lon="11.524066922823181"><ele>350.0</ele><time>2026-03-29T09:04:11.998Z</time></trkpt><trkpt lat="45.44309499068206" lon="11.523974940993417"><ele>348.0</ele><time>2026-03-29T09:04:13.998Z</time></trkpt><trkpt lat="45.443162918886856" lon="11.523857725383472"><ele>348.0</ele><time>2026-03-29T09:04:15.998Z</time></trkpt><trkpt lat="45.4432214084412" lon="11.523743751409537"><ele>348.0</ele><time>2026-03-29T09:04:17.998Z</time></trkpt><trkpt lat="45.44328377588685" lon="11.523620507717213"><ele>348.0</ele><time>2026-03-29T09:04:19.998Z</time></trkpt><trkpt lat="45.443325850271144" lon="11.523547047083275"><ele>348.0</ele><time>2026-03-29T09:04:21.998Z</time></trkpt><trkpt lat="45.44336881842132" lon="11.523474559313028"><ele>348.0</ele><time>2026-03-29T09:04:24.998Z</time></trkpt><trkpt lat="45.44343917854578" lon="11.523416275085983"><ele>348.0</ele><time>2026-03-29T09:04:27.998Z</time></trkpt><trkpt lat="45.443490769255746" lon="11.523362321611875"><ele>348.0</ele><time>2026-03-29T09:04:29.998Z</time></trkpt><trkpt lat="45.443548301277886" lon="11.52331573805423"><ele>348.0</ele><time>2026-03-29T09:04:32.998Z</time></trkpt><trkpt lat="45.44359924510665" lon="11.523249327904658"><ele>348.0</ele><time>2026-03-29T09:04:34.998Z</time></trkpt><trkpt lat="45.443652491039586" lon="11.523154955223312"><ele>348.0</ele><time>2026-03-29T09:04:38.998Z</time></trkpt><trkpt lat="45.443698122031705" lon="11.52309139353161"><ele>348.0</ele><time>2026-03-29T09:04:41.998Z</time></trkpt><trkpt lat="45.443745202390545" lon="11.523030981941245"><ele>348.0</ele><time>2026-03-29T09:04:44.997Z</time></trkpt><trkpt lat="45.44380038991549" lon="11.52295304186208"><ele>348.0</ele><time>2026-03-29T09:04:47.997Z</time></trkpt><trkpt lat="45.443847634237045" lon="11.522879434616295"><ele>347.0</ele><time>2026-03-29T09:04:50.997Z</time></trkpt><trkpt lat="45.44388981100123" lon="11.522793432713149"><ele>346.0</ele><time>2026-03-29T09:04:53.997Z</time></trkpt><trkpt lat="45.44392036697023" lon="11.522699199858804"><ele>345.0</ele><time>2026-03-29T09:04:57.997Z</time></trkpt><trkpt lat="45.44394779687423" lon="11.5226106488815"><ele>344.0</ele><time>2026-03-29T09:05:01Z</time></trkpt><trkpt lat="45.44396976750847" lon="11.522513197493808"><ele>343.0</ele><time>2026-03-29T09:05:03Z</time></trkpt><trkpt lat="45.44398330244121" lon="11.522404946339243"><ele>342.0</ele><time>2026-03-29T09:05:05Z</time></trkpt><trkpt lat="45.443996263992155" lon="11.522269025698293"><ele>342.0</ele><time>2026-03-29T09:05:07Z</time></trkpt><trkpt lat="45.44399867239439" lon="11.522129654818112"><ele>342.0</ele><time>2026-03-29T09:05:09Z</time></trkpt><trkpt lat="45.44399175604082" lon="11.522025909073388"><ele>342.0</ele><time>2026-03-29T09:05:11Z</time></trkpt><trkpt lat="45.444002226003" lon="11.521886642199833"><ele>342.0</ele><time>2026-03-29T09:05:13Z</time></trkpt><trkpt lat="45.44399688643628" lon="11.521781589873033"><ele>342.0</ele><time>2026-03-29T09:05:15Z</time></trkpt><trkpt lat="45.44398434403351" lon="11.521679132718925"><ele>342.0</ele><time>2026-03-29T09:05:17Z</time></trkpt><trkpt lat="45.443996001887115" lon="11.52155045089399"><ele>342.0</ele><time>2026-03-29T09:05:20Z</time></trkpt><trkpt lat="45.443986104428106" lon="11.52144200486155"><ele>342.0</ele><time>2026-03-29T09:05:22Z</time></trkpt><trkpt lat="45.44398624291313" lon="11.521329071847983"><ele>342.0</ele><time>2026-03-29T09:05:25Z</time></trkpt><trkpt lat="45.44398622130532" lon="11.52122583528839"><ele>342.0</ele><time>2026-03-29T09:05:28Z</time></trkpt><trkpt lat="45.4439879332927" lon="11.521117485554948"><ele>342.0</ele><time>2026-03-29T09:05:30Z</time></trkpt><trkpt lat="45.44398902512839" lon="11.521026357601894"><ele>342.0</ele><time>2026-03-29T09:05:32Z</time></trkpt><trkpt lat="45.44400023219492" lon="11.520907313234739"><ele>342.71428571428567</ele><time>2026-03-29T09:05:34.999Z</time></trkpt><trkpt lat="45.44400195493976" lon="11.520817472740426"><ele>343.42857142857144</ele><time>2026-03-29T09:05:36.999Z</time></trkpt><trkpt lat="45.44401119711665" lon="11.520708593185928"><ele>344.1428571428571</ele><time>2026-03-29T09:05:38.999Z</time></trkpt><trkpt lat="45.444020709819966" lon="11.520602957462224"><ele>344.85714285714283</ele><time>2026-03-29T09:05:40.999Z</time></trkpt><trkpt lat="45.444022482516935" lon="11.520504169437022"><ele>345.57142857142856</ele><time>2026-03-29T09:05:42.999Z</time></trkpt><trkpt lat="45.44401004273704" lon="11.52040527195712"><ele>346.2857142857143</ele><time>2026-03-29T09:05:44.999Z</time></trkpt><trkpt lat="45.44401722819121" lon="11.520282490197728"><ele>347.0</ele><time>2026-03-29T09:05:47.999Z</time></trkpt><trkpt lat="45.44401635999053" lon="11.520180223887657"><ele>348.33333333333337</ele><time>2026-03-29T09:05:50.999Z</time></trkpt><trkpt lat="45.44401497134594" lon="11.520082239444921"><ele>349.6666666666667</ele><time>2026-03-29T09:05:52.999Z</time></trkpt><trkpt lat="45.4440225589852" lon="11.519981075931382"><ele>351.0</ele><time>2026-03-29T09:05:54.999Z</time></trkpt><trkpt lat="45.444033852876665" lon="11.519872991717348"><ele>352.3333333333333</ele><time>2026-03-29T09:05:57.999Z</time></trkpt><trkpt lat="45.44406817204321" lon="11.519745061983905"><ele>353.66666666666663</ele><time>2026-03-29T09:06:00.999Z</time></trkpt><trkpt lat="45.44408216472973" lon="11.519625662335052"><ele>355.0</ele><time>2026-03-29T09:06:04.999Z</time></trkpt><trkpt lat="45.44410994114931" lon="11.519499752637469"><ele>356.5</ele><time>2026-03-29T09:06:07.999Z</time></trkpt><trkpt lat="45.44412029487393" lon="11.51938709243449"><ele>358.0</ele><time>2026-03-29T09:06:10.998Z</time></trkpt><trkpt lat="45.444183594939126" lon="11.519299599518197"><ele>359.5</ele><time>2026-03-29T09:06:14.998Z</time></trkpt><trkpt lat="45.44421595794527" lon="11.5192149017596"><ele>361.0</ele><time>2026-03-29T09:06:16.998Z</time></trkpt><trkpt lat="45.444255505026966" lon="11.519124979274634"><ele>362.5</ele><time>2026-03-29T09:06:18.998Z</time></trkpt><trkpt lat="45.44429237142265" lon="11.518988837123457"><ele>364.0</ele><time>2026-03-29T09:06:20.998Z</time></trkpt><trkpt lat="45.44434376463581" lon="11.518858017573052"><ele>364.0</ele><time>2026-03-29T09:06:22.998Z</time></trkpt><trkpt lat="45.44442113880423" lon="11.51878506588679"><ele>364.0</ele><time>2026-03-29T09:06:24.998Z</time></trkpt><trkpt lat="45.44447920704234" lon="11.51872489105211"><ele>364.0</ele><time>2026-03-29T09:06:26.998Z</time></trkpt><trkpt lat="45.444526685121055" lon="11.51863052193096"><ele>364.0</ele><time>2026-03-29T09:06:28.998Z</time></trkpt><trkpt lat="45.44457623139036" lon="11.518550418780608"><ele>364.0</ele><time>2026-03-29T09:06:30.998Z</time></trkpt><trkpt lat="45.4446493455236" lon="11.51847655240989"><ele>364.0</ele><time>2026-03-29T09:06:32.998Z</time></trkpt><trkpt lat="45.444714567659595" lon="11.51839834000508"><ele>360.0</ele><time>2026-03-29T09:06:34.998Z</time></trkpt><trkpt lat="45.444759978300596" lon="11.518319467945567"><ele>356.0</ele><time>2026-03-29T09:06:35.998Z</time></trkpt><trkpt lat="45.44479287120969" lon="11.518189427210539"><ele>352.0</ele><time>2026-03-29T09:06:37.998Z</time></trkpt><trkpt lat="45.444836768988786" lon="11.518060580712158"><ele>348.0</ele><time>2026-03-29T09:06:39.998Z</time></trkpt><trkpt lat="45.44487048251324" lon="11.517946178639221"><ele>344.0</ele><time>2026-03-29T09:06:41.998Z</time></trkpt><trkpt lat="45.44491184679061" lon="11.517805677995671"><ele>344.0</ele><time>2026-03-29T09:06:43.998Z</time></trkpt><trkpt lat="45.44494580050259" lon="11.517697519745832"><ele>344.0</ele><time>2026-03-29T09:06:45.998Z</time></trkpt><trkpt lat="45.44500094635789" lon="11.517598273370641"><ele>344.0</ele><time>2026-03-29T09:06:47.998Z</time></trkpt><trkpt lat="45.44502094260397" lon="11.517508037993597"><ele>344.0</ele><time>2026-03-29T09:06:49.997Z</time></trkpt><trkpt lat="45.44505358942361" lon="11.517380258359086"><ele>344.0</ele><time>2026-03-29T09:06:52.997Z</time></trkpt><trkpt lat="45.44504243857068" lon="11.51724806988386"><ele>344.0</ele><time>2026-03-29T09:06:54.997Z</time></trkpt><trkpt lat="45.445021283321445" lon="11.517131946813684"><ele>345.1666666666667</ele><time>2026-03-29T09:06:56.997Z</time></trkpt><trkpt lat="45.44497929608205" lon="11.517017580781086"><ele>346.33333333333337</ele><time>2026-03-29T09:06:58.997Z</time></trkpt><trkpt lat="45.444983609125536" lon="11.516895716929254"><ele>347.5</ele><time>2026-03-29T09:07:00.997Z</time></trkpt><trkpt lat="45.44500875146786" lon="11.516782769356132"><ele>348.6666666666667</ele><time>2026-03-29T09:07:02.997Z</time></trkpt><trkpt lat="45.44501882656445" lon="11.516688118668952"><ele>349.8333333333333</ele><time>2026-03-29T09:07:03.997Z</time></trkpt><trkpt lat="45.445036607212025" lon="11.516563063182167"><ele>351.0</ele><time>2026-03-29T09:07:06Z</time></trkpt><trkpt lat="45.445058817537706" lon="11.516474184297739"><ele>351.0</ele><time>2026-03-29T09:07:08Z</time></trkpt><trkpt lat="45.445072274066895" lon="11.516358822931418"><ele>351.0</ele><time>2026-03-29T09:07:10Z</time></trkpt><trkpt lat="45.44509633058679" lon="11.516272563636207"><ele>351.0</ele><time>2026-03-29T09:07:12Z</time></trkpt><trkpt lat="45.445130051708844" lon="11.516179002766107"><ele>351.0</ele><time>2026-03-29T09:07:14Z</time></trkpt><trkpt lat="45.44516657855159" lon="11.516098267282478"><ele>351.0</ele><time>2026-03-29T09:07:16Z</time></trkpt><trkpt lat="45.44521076021952" lon="11.5159904421624"><ele>351.0</ele><time>2026-03-29T09:07:19Z</time></trkpt><trkpt lat="45.44524622638619" lon="11.515881829396251"><ele>353.3333333333333</ele><time>2026-03-29T09:07:22Z</time></trkpt><trkpt lat="45.44529094486653" lon="11.515760381309404"><ele>355.6666666666667</ele><time>2026-03-29T09:07:25Z</time></trkpt><trkpt lat="45.445319346489036" lon="11.515675158092657"><ele>358.0</ele><time>2026-03-29T09:07:27Z</time></trkpt><trkpt lat="45.44535463400566" lon="11.515595614592728"><ele>360.33333333333337</ele><time>2026-03-29T09:07:29Z</time></trkpt><trkpt lat="45.44538781276358" lon="11.515482913523167"><ele>362.6666666666667</ele><time>2026-03-29T09:07:32Z</time></trkpt><trkpt lat="45.44541255260773" lon="11.515393114895584"><ele>365.0</ele><time>2026-03-29T09:07:34Z</time></trkpt><trkpt lat="45.44543681343663" lon="11.515259638535236"><ele>366.42857142857144</ele><time>2026-03-29T09:07:37Z</time></trkpt><trkpt lat="45.445428652501136" lon="11.515151231768074"><ele>367.8571428571429</ele><time>2026-03-29T09:07:38.999Z</time></trkpt><trkpt lat="45.44545505634903" lon="11.515063993781293"><ele>369.28571428571433</ele><time>2026-03-29T09:07:40.999Z</time></trkpt><trkpt lat="45.445476129912706" lon="11.514967047207884"><ele>370.7142857142857</ele><time>2026-03-29T09:07:42.999Z</time></trkpt><trkpt lat="45.445490739459345" lon="11.51486573551307"><ele>372.1428571428571</ele><time>2026-03-29T09:07:44.999Z</time></trkpt><trkpt lat="45.44550497610544" lon="11.514764050813822"><ele>373.5714285714286</ele><time>2026-03-29T09:07:46.999Z</time></trkpt><trkpt lat="45.44553759510422" lon="11.514657904140051"><ele>375.0</ele><time>2026-03-29T09:07:48.999Z</time></trkpt><trkpt lat="45.445541663639034" lon="11.51450386618681"><ele>369.0</ele><time>2026-03-29T09:07:50.999Z</time></trkpt><trkpt lat="45.445580771978754" lon="11.514430242523169"><ele>363.0</ele><time>2026-03-29T09:07:51.999Z</time></trkpt><trkpt lat="45.445653500963125" lon="11.51432527971462"><ele>357.0</ele><time>2026-03-29T09:07:53.999Z</time></trkpt><trkpt lat="45.44572502560862" lon="11.514208914888451"><ele>351.0</ele><time>2026-03-29T09:07:55.999Z</time></trkpt><trkpt lat="45.44580757105735" lon="11.514060175455931"><ele>345.0</ele><time>2026-03-29T09:07:57.999Z</time></trkpt><trkpt lat="45.445858232628254" lon="11.51394306694149"><ele>345.0</ele><time>2026-03-29T09:07:59.999Z</time></trkpt><trkpt lat="45.44591329652632" lon="11.513801469846381"><ele>345.0</ele><time>2026-03-29T09:08:02.999Z</time></trkpt><trkpt lat="45.44598305801097" lon="11.513668968741442"><ele>345.0</ele><time>2026-03-29T09:08:04.999Z</time></trkpt><trkpt lat="45.4460303873483" lon="11.513539222639926"><ele>345.0</ele><time>2026-03-29T09:08:07.999Z</time></trkpt><trkpt lat="45.446073448864425" lon="11.513445969048576"><ele>345.0</ele><time>2026-03-29T09:08:09.999Z</time></trkpt><trkpt lat="45.44611666511255" lon="11.513353057780899"><ele>345.7142857142857</ele><time>2026-03-29T09:08:11.999Z</time></trkpt><trkpt lat="45.44618315058758" lon="11.51330588721811"><ele>346.42857142857144</ele><time>2026-03-29T09:08:14.999Z</time></trkpt><trkpt lat="45.4462288319684" lon="11.513234095896415"><ele>347.1428571428571</ele><time>2026-03-29T09:08:17.998Z</time></trkpt><trkpt lat="45.446288711888776" lon="11.513200534147334"><ele>347.8571428571429</ele><time>2026-03-29T09:08:21.998Z</time></trkpt><trkpt lat="45.446356287557926" lon="11.513162378708452"><ele>348.57142857142856</ele><time>2026-03-29T09:08:24.998Z</time></trkpt><trkpt lat="45.44643136190996" lon="11.51311761494441"><ele>349.2857142857143</ele><time>2026-03-29T09:08:28.998Z</time></trkpt><trkpt lat="45.44649785587897" lon="11.513092309941735"><ele>350.0</ele><time>2026-03-29T09:08:31.998Z</time></trkpt><trkpt lat="45.44657683708561" lon="11.513075255502914"><ele>350.0</ele><time>2026-03-29T09:08:34.998Z</time></trkpt><trkpt lat="45.446658308516746" lon="11.513053443486449"><ele>350.0</ele><time>2026-03-29T09:08:37.998Z</time></trkpt><trkpt lat="45.44672128964854" lon="11.513048231226449"><ele>350.0</ele><time>2026-03-29T09:08:39.998Z</time></trkpt><trkpt lat="45.44680930430311" lon="11.513045079251597"><ele>350.0</ele><time>2026-03-29T09:08:41.998Z</time></trkpt><trkpt lat="45.446900760859066" lon="11.51305468663679"><ele>350.0</ele><time>2026-03-29T09:08:43.998Z</time></trkpt><trkpt lat="45.44696477387039" lon="11.513068489150681"><ele>350.0</ele><time>2026-03-29T09:08:44.998Z</time></trkpt><trkpt lat="45.44704661286243" lon="11.513030881340757"><ele>350.0</ele><time>2026-03-29T09:08:46.998Z</time></trkpt><trkpt lat="45.44700894954466" lon="11.512906205659679"><ele>350.0</ele><time>2026-03-29T09:08:49.998Z</time></trkpt><trkpt lat="45.446929675989836" lon="11.512830847604562"><ele>350.0</ele><time>2026-03-29T09:08:52.998Z</time></trkpt><trkpt lat="45.44685759260134" lon="11.512788510532491"><ele>350.0</ele><time>2026-03-29T09:08:55.997Z</time></trkpt><trkpt lat="45.44678969927323" lon="11.51273939394834"><ele>350.0</ele><time>2026-03-29T09:08:58.997Z</time></trkpt><trkpt lat="45.44672595378586" lon="11.512670896616084"><ele>350.0</ele><time>2026-03-29T09:09:01.997Z</time></trkpt><trkpt lat="45.446663590427015" lon="11.512615965608287"><ele>350.85714285714283</ele><time>2026-03-29T09:09:03.997Z</time></trkpt><trkpt lat="45.446614667964994" lon="11.51254668179116"><ele>351.7142857142857</ele><time>2026-03-29T09:09:05.997Z</time></trkpt><trkpt lat="45.446581334927735" lon="11.512454652692742"><ele>352.57142857142856</ele><time>2026-03-29T09:09:08.997Z</time></trkpt><trkpt lat="45.44653607135875" lon="11.51236791692205"><ele>353.42857142857144</ele><time>2026-03-29T09:09:12Z</time></trkpt><trkpt lat="45.446501381204875" lon="11.512272018530227"><ele>354.2857142857143</ele><time>2026-03-29T09:09:16Z</time></trkpt><trkpt lat="45.44649774431869" lon="11.5121823910081"><ele>355.1428571428571</ele><time>2026-03-29T09:09:21Z</time></trkpt><trkpt lat="45.446521296128914" lon="11.512092108198217"><ele>356.0</ele><time>2026-03-29T09:09:25Z</time></trkpt><trkpt lat="45.44654629153868" lon="11.512003333352073"><ele>357.6666666666667</ele><time>2026-03-29T09:09:28Z</time></trkpt><trkpt lat="45.446577225321896" lon="11.5119197291199"><ele>359.33333333333337</ele><time>2026-03-29T09:09:31Z</time></trkpt><trkpt lat="45.44661048310803" lon="11.511828721090238"><ele>361.0</ele><time>2026-03-29T09:09:34Z</time></trkpt><trkpt lat="45.446632634044434" lon="11.511736982364681"><ele>362.6666666666667</ele><time>2026-03-29T09:09:37Z</time></trkpt><trkpt lat="45.44664494541712" lon="11.511636715700147"><ele>364.3333333333333</ele><time>2026-03-29T09:09:40Z</time></trkpt><trkpt lat="45.44662640151665" lon="11.511512374085553"><ele>366.0</ele><time>2026-03-29T09:09:43Z</time></trkpt><trkpt lat="45.446570471852624" lon="11.511424734348747"><ele>366.0</ele><time>2026-03-29T09:09:45.999Z</time></trkpt><trkpt lat="45.446529777366194" lon="11.5113502930053"><ele>366.0</ele><time>2026-03-29T09:09:48.999Z</time></trkpt><trkpt lat="45.44647915693861" lon="11.511267031408421"><ele>366.0</ele><time>2026-03-29T09:09:51.999Z</time></trkpt><trkpt lat="45.44644323515625" lon="11.511173681186603"><ele>366.0</ele><time>2026-03-29T09:09:54.999Z</time></trkpt><trkpt lat="45.4463794901878" lon="11.511103513900855"><ele>366.0</ele><time>2026-03-29T09:09:57.999Z</time></trkpt><trkpt lat="45.44632759050417" lon="11.511008893444938"><ele>366.0</ele><time>2026-03-29T09:10:00.999Z</time></trkpt><trkpt lat="45.44627738926003" lon="11.510937023211799"><ele>365.8571428571429</ele><time>2026-03-29T09:10:03.999Z</time></trkpt><trkpt lat="45.44622023560821" lon="11.510873231821547"><ele>365.7142857142857</ele><time>2026-03-29T09:10:07.999Z</time></trkpt><trkpt lat="45.44615580526146" lon="11.51082883046321"><ele>365.57142857142856</ele><time>2026-03-29T09:10:17.999Z</time></trkpt><trkpt lat="45.44622612327973" lon="11.510859974174"><ele>365.42857142857144</ele><time>2026-03-29T09:10:25.998Z</time></trkpt><trkpt lat="45.44628405820214" lon="11.510906652011279"><ele>365.2857142857143</ele><time>2026-03-29T09:10:28.998Z</time></trkpt><trkpt lat="45.44633659859397" lon="11.510972911333713"><ele>365.14285714285717</ele><time>2026-03-29T09:10:32.998Z</time></trkpt><trkpt lat="45.446388763956" lon="11.511045412196816"><ele>365.0</ele><time>2026-03-29T09:10:37.998Z</time></trkpt><trkpt lat="45.4467258556675" lon="11.51071399251902"><ele>367.1666666666667</ele><time>2026-03-29T09:10:44.998Z</time></trkpt><trkpt lat="45.446734141517425" lon="11.510616074029064"><ele>369.33333333333337</ele><time>2026-03-29T09:10:48.998Z</time></trkpt><trkpt lat="45.44665524967355" lon="11.510601472340383"><ele>371.5</ele><time>2026-03-29T09:10:52.998Z</time></trkpt><trkpt lat="45.44658208209766" lon="11.51059665425051"><ele>373.6666666666667</ele><time>2026-03-29T09:10:55.998Z</time></trkpt><trkpt lat="45.446512582667054" lon="11.510536001174993"><ele>375.8333333333333</ele><time>2026-03-29T09:10:58.998Z</time></trkpt><trkpt lat="45.44647016800205" lon="11.510457973847867"><ele>378.0</ele><time>2026-03-29T09:11:00.998Z</time></trkpt><trkpt lat="45.4464334520053" lon="11.510354936658636"><ele>378.7142857142857</ele><time>2026-03-29T09:11:03.997Z</time></trkpt><trkpt lat="45.446410428089045" lon="11.51024648939765"><ele>379.42857142857144</ele><time>2026-03-29T09:11:06.997Z</time></trkpt><trkpt lat="45.44640610564947" lon="11.510139852453076"><ele>380.1428571428571</ele><time>2026-03-29T09:11:09.997Z</time></trkpt><trkpt lat="45.446413562936264" lon="11.510044162855175"><ele>380.8571428571429</ele><time>2026-03-29T09:11:12.997Z</time></trkpt><trkpt lat="45.44643216041128" lon="11.509934306893232"><ele>381.57142857142856</ele><time>2026-03-29T09:11:15.997Z</time></trkpt><trkpt lat="45.44650392331611" lon="11.509900932457672"><ele>382.2857142857143</ele><time>2026-03-29T09:11:19Z</time></trkpt><trkpt lat="45.44656988164739" lon="11.509897473461308"><ele>383.0</ele><time>2026-03-29T09:11:23Z</time></trkpt><trkpt lat="45.44663376968142" lon="11.50989060482166"><ele>383.0</ele><time>2026-03-29T09:11:26Z</time></trkpt><trkpt lat="45.44669904179279" lon="11.509902539426255"><ele>383.0</ele><time>2026-03-29T09:11:29Z</time></trkpt><trkpt lat="45.446762016065406" lon="11.50985926084672"><ele>383.0</ele><time>2026-03-29T09:11:32Z</time></trkpt><trkpt lat="45.446834514108474" lon="11.509812273065304"><ele>383.0</ele><time>2026-03-29T09:11:36Z</time></trkpt><trkpt lat="45.4468966869613" lon="11.509764512166948"><ele>383.0</ele><time>2026-03-29T09:11:39Z</time></trkpt><trkpt lat="45.44694837035948" lon="11.509712665239771"><ele>383.0</ele><time>2026-03-29T09:11:42Z</time></trkpt><trkpt lat="45.447001130822066" lon="11.50964975372867"><ele>383.0</ele><time>2026-03-29T09:11:45Z</time></trkpt><trkpt lat="45.447054414697874" lon="11.509581890879126"><ele>383.83333333333337</ele><time>2026-03-29T09:11:48Z</time></trkpt><trkpt lat="45.44710242215617" lon="11.509516258138223"><ele>384.6666666666667</ele><time>2026-03-29T09:11:52Z</time></trkpt><trkpt lat="45.44711405850754" lon="11.509392650484587"><ele>385.5</ele><time>2026-03-29T09:11:55.999Z</time></trkpt><trkpt lat="45.4471515542778" lon="11.509285714232455"><ele>386.33333333333337</ele><time>2026-03-29T09:11:57.999Z</time></trkpt><trkpt lat="45.44719630391663" lon="11.509202650282633"><ele>387.1666666666667</ele><time>2026-03-29T09:12:00.999Z</time></trkpt><trkpt lat="45.4472377780821" lon="11.5091158186843"><ele>388.0</ele><time>2026-03-29T09:12:02.999Z</time></trkpt><trkpt lat="45.44729983111833" lon="11.509059341555767"><ele>388.00000000000006</ele><time>2026-03-29T09:12:04.999Z</time></trkpt><trkpt lat="45.44736408547681" lon="11.509034983314269"><ele>388.0</ele><time>2026-03-29T09:12:06.999Z</time></trkpt><trkpt lat="45.44745175864353" lon="11.509011133077406"><ele>388.0</ele><time>2026-03-29T09:12:09.999Z</time></trkpt><trkpt lat="45.44754535854906" lon="11.508985987929977"><ele>388.0</ele><time>2026-03-29T09:12:12.999Z</time></trkpt><trkpt lat="45.44761467978186" lon="11.508960360625599"><ele>388.00000000000006</ele><time>2026-03-29T09:12:14.999Z</time></trkpt><trkpt lat="45.4476863608696" lon="11.508948793000533"><ele>388.0</ele><time>2026-03-29T09:12:16.999Z</time></trkpt><trkpt lat="45.44777474915439" lon="11.508916648097829"><ele>388.0</ele><time>2026-03-29T09:12:18.999Z</time></trkpt><trkpt lat="45.447871374163086" lon="11.50889781520331"><ele>388.0</ele><time>2026-03-29T09:12:20.999Z</time></trkpt><trkpt lat="45.447963503862596" lon="11.508850634111239"><ele>388.0</ele><time>2026-03-29T09:12:22.999Z</time></trkpt><trkpt lat="45.448058411429884" lon="11.508817432236135"><ele>388.0</ele><time>2026-03-29T09:12:24.999Z</time></trkpt><trkpt lat="45.448121929393615" lon="11.508804507378716"><ele>388.0</ele><time>2026-03-29T09:12:25.999Z</time></trkpt><trkpt lat="45.448227736531884" lon="11.508773017542657"><ele>388.33333333333337</ele><time>2026-03-29T09:12:27.999Z</time></trkpt><trkpt lat="45.448310078306555" lon="11.50874504655992"><ele>388.6666666666667</ele><time>2026-03-29T09:12:29.999Z</time></trkpt><trkpt lat="45.448393487914835" lon="11.508737903265082"><ele>389.0</ele><time>2026-03-29T09:12:31.998Z</time></trkpt><trkpt lat="45.448458786496644" lon="11.50876143386114"><ele>389.33333333333337</ele><time>2026-03-29T09:12:34.998Z</time></trkpt><trkpt lat="45.44853170721392" lon="11.508808220315586"><ele>389.6666666666667</ele><time>2026-03-29T09:12:37.998Z</time></trkpt><trkpt lat="45.44859480337924" lon="11.508909275077901"><ele>390.0</ele><time>2026-03-29T09:12:40.998Z</time></trkpt><trkpt lat="45.44862476854974" lon="11.50901525525154"><ele>390.0</ele><time>2026-03-29T09:12:44.998Z</time></trkpt><trkpt lat="45.44867004145254" lon="11.509133983709907"><ele>390.0</ele><time>2026-03-29T09:12:47.998Z</time></trkpt><trkpt lat="45.448697896639125" lon="11.509223962225512"><ele>390.0</ele><time>2026-03-29T09:12:50.998Z</time></trkpt><trkpt lat="45.448732245562844" lon="11.509333702036994"><ele>390.0</ele><time>2026-03-29T09:12:53.998Z</time></trkpt><trkpt lat="45.44876049334238" lon="11.509422169883855"><ele>390.0</ele><time>2026-03-29T09:12:56.998Z</time></trkpt><trkpt lat="45.44882132883043" lon="11.509507594634663"><ele>390.0</ele><time>2026-03-29T09:13:00.998Z</time></trkpt><trkpt lat="45.44892058034567" lon="11.509526189431847"><ele>388.4</ele><time>2026-03-29T09:13:02.998Z</time></trkpt><trkpt lat="45.44899684651828" lon="11.509536626725616"><ele>386.8</ele><time>2026-03-29T09:13:04.998Z</time></trkpt><trkpt lat="45.44910385829547" lon="11.509563694000144"><ele>385.20000000000005</ele><time>2026-03-29T09:13:06.998Z</time></trkpt><trkpt lat="45.44921707752518" lon="11.50960505137995"><ele>383.6</ele><time>2026-03-29T09:13:08.998Z</time></trkpt><trkpt lat="45.449310777148206" lon="11.509617073791572"><ele>382.0</ele><time>2026-03-29T09:13:11.997Z</time></trkpt><trkpt lat="45.4494067105818" lon="11.509630371344441"><ele>381.8333333333333</ele><time>2026-03-29T09:13:14.997Z</time></trkpt><trkpt lat="45.449484012010565" lon="11.509630240875918"><ele>381.66666666666663</ele><time>2026-03-29T09:13:17.997Z</time></trkpt><trkpt lat="45.44955523747304" lon="11.509643508858534"><ele>381.5</ele><time>2026-03-29T09:13:20.997Z</time></trkpt><trkpt lat="45.449638389121226" lon="11.509643614005599"><ele>381.3333333333333</ele><time>2026-03-29T09:13:22.997Z</time></trkpt><trkpt lat="45.44971882705473" lon="11.50959430013467"><ele>381.1666666666667</ele><time>2026-03-29T09:13:26Z</time></trkpt><trkpt lat="45.44979831403687" lon="11.509604246873165"><ele>381.0</ele><time>2026-03-29T09:13:29Z</time></trkpt><trkpt lat="45.4498766565716" lon="11.509590861789786"><ele>382.2857142857143</ele><time>2026-03-29T09:13:32Z</time></trkpt><trkpt lat="45.449938076476684" lon="11.509615138924564"><ele>383.5714285714286</ele><time>2026-03-29T09:13:35Z</time></trkpt><trkpt lat="45.45000347892508" lon="11.50965386889762"><ele>384.8571428571429</ele><time>2026-03-29T09:13:38Z</time></trkpt><trkpt lat="45.45005666525996" lon="11.509706436852863"><ele>386.1428571428571</ele><time>2026-03-29T09:13:41Z</time></trkpt><trkpt lat="45.450101298896314" lon="11.509798901157888"><ele>387.42857142857144</ele><time>2026-03-29T09:13:45Z</time></trkpt><trkpt lat="45.45013239195159" lon="11.50990687816529"><ele>388.7142857142857</ele><time>2026-03-29T09:13:47Z</time></trkpt><trkpt lat="45.450191834100586" lon="11.509949660250479"><ele>390.0</ele><time>2026-03-29T09:13:49Z</time></trkpt><trkpt lat="45.45024782698857" lon="11.510003107491377"><ele>390.0</ele><time>2026-03-29T09:13:51Z</time></trkpt><trkpt lat="45.4502960961869" lon="11.510073183495217"><ele>390.0</ele><time>2026-03-29T09:13:53Z</time></trkpt><trkpt lat="45.45038309526377" lon="11.51014893422578"><ele>390.0</ele><time>2026-03-29T09:13:55Z</time></trkpt><trkpt lat="45.450462159442885" lon="11.51023267627117"><ele>390.0</ele><time>2026-03-29T09:13:56.999Z</time></trkpt><trkpt lat="45.450518430788115" lon="11.51030677580326"><ele>390.0</ele><time>2026-03-29T09:13:58.999Z</time></trkpt><trkpt lat="45.450581314698034" lon="11.510396405038469"><ele>390.0</ele><time>2026-03-29T09:14:00.999Z</time></trkpt><trkpt lat="45.450639428056355" lon="11.510489281942712"><ele>390.5</ele><time>2026-03-29T09:14:02.999Z</time></trkpt><trkpt lat="45.450696278640265" lon="11.510587235852872"><ele>391.0</ele><time>2026-03-29T09:14:04.999Z</time></trkpt><trkpt lat="45.450764511741355" lon="11.510646207537189"><ele>391.5</ele><time>2026-03-29T09:14:06.999Z</time></trkpt><trkpt lat="45.45082388439572" lon="11.51074923659226"><ele>392.0</ele><time>2026-03-29T09:14:08.999Z</time></trkpt><trkpt lat="45.45091573957069" lon="11.510802965018799"><ele>392.5</ele><time>2026-03-29T09:14:10.999Z</time></trkpt><trkpt lat="45.45095524911484" lon="11.510888845110715"><ele>393.0</ele><time>2026-03-29T09:14:11.999Z</time></trkpt><trkpt lat="45.450992379546186" lon="11.510981426962546"><ele>393.0</ele><time>2026-03-29T09:14:12.999Z</time></trkpt><trkpt lat="45.451091386168" lon="11.511094230416266"><ele>393.0</ele><time>2026-03-29T09:14:14.999Z</time></trkpt><trkpt lat="45.451189939237175" lon="11.511060367203632"><ele>393.0</ele><time>2026-03-29T09:14:16.999Z</time></trkpt><trkpt lat="45.451278836678995" lon="11.511051538673703"><ele>393.0</ele><time>2026-03-29T09:14:19.999Z</time></trkpt><trkpt lat="45.451375650165986" lon="11.511034060771811"><ele>393.0</ele><time>2026-03-29T09:14:21.999Z</time></trkpt><trkpt lat="45.45148904301598" lon="11.511064431171036"><ele>392.1666666666667</ele><time>2026-03-29T09:14:23.999Z</time></trkpt><trkpt lat="45.45157896984454" lon="11.511087224818874"><ele>391.33333333333337</ele><time>2026-03-29T09:14:25.999Z</time></trkpt><trkpt lat="45.451641125923416" lon="11.511053523534496"><ele>390.5</ele><time>2026-03-29T09:14:27.999Z</time></trkpt><trkpt lat="45.45167151638022" lon="11.510966708887947"><ele>389.6666666666667</ele><time>2026-03-29T09:14:30.999Z</time></trkpt><trkpt lat="45.451692220663915" lon="11.510873584666138"><ele>388.83333333333337</ele><time>2026-03-29T09:14:34.998Z</time></trkpt><trkpt lat="45.45176752369931" lon="11.510863796394071"><ele>388.0</ele><time>2026-03-29T09:14:38.998Z</time></trkpt><trkpt lat="45.451878302566435" lon="11.510860837403099"><ele>388.00000000000006</ele><time>2026-03-29T09:14:40.998Z</time></trkpt><trkpt lat="45.45195075587446" lon="11.510879042134578"><ele>388.0</ele><time>2026-03-29T09:14:41.998Z</time></trkpt><trkpt lat="45.45201927464411" lon="11.510916178568719"><ele>388.0</ele><time>2026-03-29T09:14:42.998Z</time></trkpt><trkpt lat="45.45210122906472" lon="11.510935815312456"><ele>388.0</ele><time>2026-03-29T09:14:43.998Z</time></trkpt><trkpt lat="45.45217518361891" lon="11.510911385914824"><ele>388.00000000000006</ele><time>2026-03-29T09:14:44.998Z</time></trkpt><trkpt lat="45.452246271876014" lon="11.510901767810909"><ele>388.0</ele><time>2026-03-29T09:14:45.998Z</time></trkpt><trkpt lat="45.45238360830634" lon="11.510937766687947"><ele>386.79999999999995</ele><time>2026-03-29T09:14:47.998Z</time></trkpt><trkpt lat="45.4524538261238" lon="11.511051878842993"><ele>385.6</ele><time>2026-03-29T09:14:49.998Z</time></trkpt><trkpt lat="45.452539132503226" lon="11.511073565656911"><ele>384.4</ele><time>2026-03-29T09:14:51.998Z</time></trkpt><trkpt lat="45.45262018835305" lon="11.511168865904528"><ele>383.20000000000005</ele><time>2026-03-29T09:14:53.998Z</time></trkpt><trkpt lat="45.45271143629801" lon="11.511230464779176"><ele>382.0</ele><time>2026-03-29T09:14:55.998Z</time></trkpt><trkpt lat="45.452811520944394" lon="11.511241860535783"><ele>381.0</ele><time>2026-03-29T09:14:57.998Z</time></trkpt><trkpt lat="45.45293445744718" lon="11.511242157104938"><ele>380.0</ele><time>2026-03-29T09:14:59.998Z</time></trkpt><trkpt lat="45.45304007127499" lon="11.511223908416797"><ele>379.0</ele><time>2026-03-29T09:15:01.998Z</time></trkpt><trkpt lat="45.45315522573873" lon="11.511224942506836"><ele>378.0</ele><time>2026-03-29T09:15:03.998Z</time></trkpt><trkpt lat="45.45325266657027" lon="11.511191583384221"><ele>377.0</ele><time>2026-03-29T09:15:05.998Z</time></trkpt><trkpt lat="45.45334766444697" lon="11.511165693617217"><ele>375.8</ele><time>2026-03-29T09:15:07.998Z</time></trkpt><trkpt lat="45.45344036712914" lon="11.511128112043727"><ele>374.6</ele><time>2026-03-29T09:15:09.997Z</time></trkpt><trkpt lat="45.45352555873164" lon="11.511034797602912"><ele>373.40000000000003</ele><time>2026-03-29T09:15:11.997Z</time></trkpt><trkpt lat="45.453579949518016" lon="11.510930803052098"><ele>372.20000000000005</ele><time>2026-03-29T09:15:13.997Z</time></trkpt><trkpt lat="45.453607648275" lon="11.51080283590811"><ele>371.0</ele><time>2026-03-29T09:15:15.997Z</time></trkpt><trkpt lat="45.453653574707985" lon="11.51070917283786"><ele>371.0</ele><time>2026-03-29T09:15:17.997Z</time></trkpt><trkpt lat="45.45367290999056" lon="11.51061881387091"><ele>371.0</ele><time>2026-03-29T09:15:19.997Z</time></trkpt><trkpt lat="45.45370210156172" lon="11.510517905718961"><ele>371.0</ele><time>2026-03-29T09:15:21.997Z</time></trkpt><trkpt lat="45.45372202184134" lon="11.51043151108312"><ele>371.0</ele><time>2026-03-29T09:15:23.997Z</time></trkpt><trkpt lat="45.4537442602588" lon="11.51032723734361"><ele>371.0</ele><time>2026-03-29T09:15:25.997Z</time></trkpt><trkpt lat="45.453767440215344" lon="11.51020371697613"><ele>371.0</ele><time>2026-03-29T09:15:28.997Z</time></trkpt><trkpt lat="45.453828883307715" lon="11.51010008671725"><ele>371.33333333333337</ele><time>2026-03-29T09:15:32Z</time></trkpt><trkpt lat="45.453890274329964" lon="11.50998975370713"><ele>371.6666666666667</ele><time>2026-03-29T09:15:34Z</time></trkpt><trkpt lat="45.453959404575016" lon="11.509894536630735"><ele>372.0</ele><time>2026-03-29T09:15:36Z</time></trkpt><trkpt lat="45.454008404069405" lon="11.509828828387707"><ele>372.3333333333333</ele><time>2026-03-29T09:15:37Z</time></trkpt><trkpt lat="45.45406732789538" lon="11.509791497920876"><ele>372.66666666666663</ele><time>2026-03-29T09:15:38Z</time></trkpt><trkpt lat="45.454160415093426" lon="11.509723669428434"><ele>373.0</ele><time>2026-03-29T09:15:40Z</time></trkpt><trkpt lat="45.45422736288652" lon="11.509681370051116"><ele>373.0</ele><time>2026-03-29T09:15:41Z</time></trkpt><trkpt lat="45.45433279077318" lon="11.509675999957775"><ele>373.0</ele><time>2026-03-29T09:15:43Z</time></trkpt><trkpt lat="45.4544005209558" lon="11.50965582570108"><ele>373.0</ele><time>2026-03-29T09:15:44Z</time></trkpt><trkpt lat="45.45450685312834" lon="11.509626107692503"><ele>373.0</ele><time>2026-03-29T09:15:46Z</time></trkpt><trkpt lat="45.454599599405306" lon="11.509593590801488"><ele>373.0</ele><time>2026-03-29T09:15:49Z</time></trkpt><trkpt lat="45.454645458494014" lon="11.50952818308171"><ele>373.0</ele><time>2026-03-29T09:15:51Z</time></trkpt><trkpt lat="45.45467115893689" lon="11.509397245479022"><ele>371.59999999999997</ele><time>2026-03-29T09:15:53Z</time></trkpt><trkpt lat="45.454678690697314" lon="11.509264726407883"><ele>370.2</ele><time>2026-03-29T09:15:56Z</time></trkpt><trkpt lat="45.454691188646876" lon="11.509157972524848"><ele>368.8</ele><time>2026-03-29T09:15:58Z</time></trkpt><trkpt lat="45.45468797831586" lon="11.509015554085027"><ele>367.4</ele><time>2026-03-29T09:16:00.999Z</time></trkpt><trkpt lat="45.454703766656685" lon="11.508883626631643"><ele>366.0</ele><time>2026-03-29T09:16:02.999Z</time></trkpt><trkpt lat="45.45470156351407" lon="11.50874380042482"><ele>366.3333333333333</ele><time>2026-03-29T09:16:04.999Z</time></trkpt><trkpt lat="45.45474323428028" lon="11.50862985394469"><ele>366.6666666666667</ele><time>2026-03-29T09:16:06.999Z</time></trkpt><trkpt lat="45.45478233943241" lon="11.50852510464145"><ele>367.0</ele><time>2026-03-29T09:16:08.999Z</time></trkpt><trkpt lat="45.45479986044012" lon="11.508423783053795"><ele>367.33333333333337</ele><time>2026-03-29T09:16:10.999Z</time></trkpt><trkpt lat="45.454848598850255" lon="11.508319299720357"><ele>367.6666666666667</ele><time>2026-03-29T09:16:12.999Z</time></trkpt><trkpt lat="45.45486784134465" lon="11.508218974298279"><ele>368.0</ele><time>2026-03-29T09:16:14.999Z</time></trkpt><trkpt lat="45.45488266092372" lon="11.508115418574308"><ele>368.0</ele><time>2026-03-29T09:16:16.999Z</time></trkpt><trkpt lat="45.45491279473869" lon="11.50800256276198"><ele>368.0</ele><time>2026-03-29T09:16:18.999Z</time></trkpt><trkpt lat="45.45493339434832" lon="11.507912942670014"><ele>368.0</ele><time>2026-03-29T09:16:20.999Z</time></trkpt><trkpt lat="45.45494298024032" lon="11.50781844187659"><ele>368.0</ele><time>2026-03-29T09:16:22.999Z</time></trkpt><trkpt lat="45.45496824691511" lon="11.507714708602013"><ele>368.0</ele><time>2026-03-29T09:16:24.999Z</time></trkpt><trkpt lat="45.45498737459887" lon="11.507615178198078"><ele>368.0</ele><time>2026-03-29T09:16:26.999Z</time></trkpt><trkpt lat="45.45499954759367" lon="11.507520867106773"><ele>368.0</ele><time>2026-03-29T09:16:28.999Z</time></trkpt><trkpt lat="45.45498867525373" lon="11.507401855984806"><ele>368.83333333333337</ele><time>2026-03-29T09:16:30.999Z</time></trkpt><trkpt lat="45.45498186314102" lon="11.507272186409187"><ele>369.6666666666667</ele><time>2026-03-29T09:16:33.999Z</time></trkpt><trkpt lat="45.45498359631179" lon="11.50715273732479"><ele>370.5</ele><time>2026-03-29T09:16:36.999Z</time></trkpt><trkpt lat="45.45497584930975" lon="11.507063656033825"><ele>371.3333333333333</ele><time>2026-03-29T09:16:38.998Z</time></trkpt><trkpt lat="45.454954623574004" lon="11.506930561350174"><ele>372.16666666666663</ele><time>2026-03-29T09:16:41.998Z</time></trkpt><trkpt lat="45.45494093160233" lon="11.506802226859143"><ele>373.0</ele><time>2026-03-29T09:16:43.998Z</time></trkpt><trkpt lat="45.45492794391726" lon="11.506685320011758"><ele>373.16666666666663</ele><time>2026-03-29T09:16:45.998Z</time></trkpt><trkpt lat="45.454929766133816" lon="11.506572017552864"><ele>373.3333333333333</ele><time>2026-03-29T09:16:47.998Z</time></trkpt><trkpt lat="45.45493513756592" lon="11.506461792153083"><ele>373.5</ele><time>2026-03-29T09:16:49.998Z</time></trkpt><trkpt lat="45.45495016658275" lon="11.506356799282013"><ele>373.6666666666667</ele><time>2026-03-29T09:16:51.998Z</time></trkpt><trkpt lat="45.45495563076722" lon="11.506244556783244"><ele>373.83333333333337</ele><time>2026-03-29T09:16:53.998Z</time></trkpt><trkpt lat="45.454987958348376" lon="11.506150162483227"><ele>374.0</ele><time>2026-03-29T09:16:55.998Z</time></trkpt><trkpt lat="45.455021010502755" lon="11.5060416030414"><ele>372.79999999999995</ele><time>2026-03-29T09:16:57.998Z</time></trkpt><trkpt lat="45.45510350388168" lon="11.505940089272993"><ele>371.59999999999997</ele><time>2026-03-29T09:16:59.998Z</time></trkpt><trkpt lat="45.45519001710165" lon="11.505820043288757"><ele>370.4</ele><time>2026-03-29T09:17:01.998Z</time></trkpt><trkpt lat="45.45523869519101" lon="11.505751565627449"><ele>369.2</ele><time>2026-03-29T09:17:02.998Z</time></trkpt><trkpt lat="45.455335367606295" lon="11.505652400392302"><ele>368.0</ele><time>2026-03-29T09:17:04.998Z</time></trkpt><trkpt lat="45.455414043508405" lon="11.505568261978413"><ele>366.6666666666667</ele><time>2026-03-29T09:17:06.998Z</time></trkpt><trkpt lat="45.455470725696145" lon="11.505507395737638"><ele>365.33333333333337</ele><time>2026-03-29T09:17:07.998Z</time></trkpt><trkpt lat="45.4555564458119" lon="11.505403198594205"><ele>364.0</ele><time>2026-03-29T09:17:09.998Z</time></trkpt><trkpt lat="45.45560352867903" lon="11.505289935106068"><ele>362.6666666666667</ele><time>2026-03-29T09:17:11.998Z</time></trkpt><trkpt lat="45.455642256595254" lon="11.505218562256163"><ele>361.3333333333333</ele><time>2026-03-29T09:17:13.998Z</time></trkpt><trkpt lat="45.45566908807883" lon="11.505131723059437"><ele>360.0</ele><time>2026-03-29T09:17:15.997Z</time></trkpt><trkpt lat="45.455693628765815" lon="11.504994788638665"><ele>360.0</ele><time>2026-03-29T09:17:17.997Z</time></trkpt><trkpt lat="45.45572307816547" lon="11.504848453583222"><ele>360.0</ele><time>2026-03-29T09:17:19.997Z</time></trkpt><trkpt lat="45.455754423855886" lon="11.504731257555564"><ele>360.0</ele><time>2026-03-29T09:17:21.997Z</time></trkpt><trkpt lat="45.45579953173124" lon="11.504624362678896"><ele>360.0</ele><time>2026-03-29T09:17:23.997Z</time></trkpt><trkpt lat="45.45582942363638" lon="11.504515034551819"><ele>360.0</ele><time>2026-03-29T09:17:25.997Z</time></trkpt><trkpt lat="45.45586479403614" lon="11.504418099734858"><ele>360.0</ele><time>2026-03-29T09:17:27.997Z</time></trkpt><trkpt lat="45.455896211764454" lon="11.504312937615202"><ele>360.1666666666667</ele><time>2026-03-29T09:17:30.997Z</time></trkpt><trkpt lat="45.45590990780997" lon="11.504168148626881"><ele>360.3333333333333</ele><time>2026-03-29T09:17:33.997Z</time></trkpt><trkpt lat="45.45593079561224" lon="11.504042917824867"><ele>360.5</ele><time>2026-03-29T09:17:37Z</time></trkpt><trkpt lat="45.4559311922392" lon="11.50392304184435"><ele>360.66666666666663</ele><time>2026-03-29T09:17:40Z</time></trkpt><trkpt lat="45.455937778566714" lon="11.50382367793043"><ele>360.8333333333333</ele><time>2026-03-29T09:17:42Z</time></trkpt><trkpt lat="45.455932728330076" lon="11.503690532439899"><ele>361.0</ele><time>2026-03-29T09:17:45Z</time></trkpt><trkpt lat="45.45594028091584" lon="11.503593623983193"><ele>361.4</ele><time>2026-03-29T09:17:47Z</time></trkpt><trkpt lat="45.45592089589624" lon="11.503464652578808"><ele>361.8</ele><time>2026-03-29T09:17:49Z</time></trkpt><trkpt lat="45.45590904321596" lon="11.503313592453946"><ele>362.2</ele><time>2026-03-29T09:17:51Z</time></trkpt><trkpt lat="45.45590758103505" lon="11.503181198161045"><ele>362.59999999999997</ele><time>2026-03-29T09:17:53Z</time></trkpt><trkpt lat="45.45591244210828" lon="11.50308487015791"><ele>363.0</ele><time>2026-03-29T09:17:54Z</time></trkpt><trkpt lat="45.45591518798576" lon="11.502940639180297"><ele>363.1666666666667</ele><time>2026-03-29T09:17:56Z</time></trkpt><trkpt lat="45.45590563033826" lon="11.502829634299209"><ele>363.3333333333333</ele><time>2026-03-29T09:17:58Z</time></trkpt><trkpt lat="45.455900316633375" lon="11.50272695918148"><ele>363.5</ele><time>2026-03-29T09:18:00Z</time></trkpt><trkpt lat="45.45588065622262" lon="11.502613516099528"><ele>363.66666666666663</ele><time>2026-03-29T09:18:03Z</time></trkpt><trkpt lat="45.45585539350754" lon="11.502488357480855"><ele>363.8333333333333</ele><time>2026-03-29T09:18:06Z</time></trkpt><trkpt lat="45.45585291380775" lon="11.502398398609149"><ele>364.0</ele><time>2026-03-29T09:18:07.999Z</time></trkpt><trkpt lat="45.45584297727534" lon="11.50227520122225"><ele>364.0</ele><time>2026-03-29T09:18:10.999Z</time></trkpt><trkpt lat="45.45580430045244" lon="11.502154172936644"><ele>364.0</ele><time>2026-03-29T09:18:13.999Z</time></trkpt><trkpt lat="45.45576460348204" lon="11.502043361566242"><ele>364.0</ele><time>2026-03-29T09:18:16.999Z</time></trkpt><trkpt lat="45.455725872984274" lon="11.50191847710544"><ele>364.0</ele><time>2026-03-29T09:18:19.999Z</time></trkpt><trkpt lat="45.4556951282905" lon="11.501804479002033"><ele>364.0</ele><time>2026-03-29T09:18:22.999Z</time></trkpt><trkpt lat="45.455754719293495" lon="11.501710446924589"><ele>364.6</ele><time>2026-03-29T09:18:25.999Z</time></trkpt><trkpt lat="45.45577200076729" lon="11.50158999688958"><ele>365.2</ele><time>2026-03-29T09:18:27.999Z</time></trkpt><trkpt lat="45.45576717857491" lon="11.5014558565799"><ele>365.8</ele><time>2026-03-29T09:18:29.999Z</time></trkpt><trkpt lat="45.455754371727544" lon="11.5013243872199"><ele>366.40000000000003</ele><time>2026-03-29T09:18:31.999Z</time></trkpt><trkpt lat="45.45573414150949" lon="11.501210894626524"><ele>367.0</ele><time>2026-03-29T09:18:33.999Z</time></trkpt><trkpt lat="45.4557111257369" lon="11.501051392609002"><ele>367.40000000000003</ele><time>2026-03-29T09:18:35.999Z</time></trkpt><trkpt lat="45.45568780145319" lon="11.500903403896375"><ele>367.8</ele><time>2026-03-29T09:18:37.999Z</time></trkpt><trkpt lat="45.45569347611783" lon="11.500757669310842"><ele>368.2</ele><time>2026-03-29T09:18:39.999Z</time></trkpt><trkpt lat="45.45571752586633" lon="11.500600526319737"><ele>368.6</ele><time>2026-03-29T09:18:41.999Z</time></trkpt><trkpt lat="45.455785128047744" lon="11.500494459233545"><ele>369.0</ele><time>2026-03-29T09:18:43.999Z</time></trkpt><trkpt lat="45.45584530289579" lon="11.500418534201906"><ele>370.5</ele><time>2026-03-29T09:18:45.998Z</time></trkpt><trkpt lat="45.45591445431262" lon="11.500318480789659"><ele>372.0</ele><time>2026-03-29T09:18:48.998Z</time></trkpt><trkpt lat="45.45596867764229" lon="11.50025503011026"><ele>373.5</ele><time>2026-03-29T09:18:51.998Z</time></trkpt><trkpt lat="45.45599648145168" lon="11.50015854568149"><ele>375.0</ele><time>2026-03-29T09:18:54.998Z</time></trkpt><trkpt lat="45.45602362770259" lon="11.500066040220421"><ele>376.5</ele><time>2026-03-29T09:18:57.998Z</time></trkpt><trkpt lat="45.45606611697298" lon="11.499942213577187"><ele>378.0</ele><time>2026-03-29T09:19:00.998Z</time></trkpt><trkpt lat="45.45612159079738" lon="11.4998971975759"><ele>378.0</ele><time>2026-03-29T09:19:02.998Z</time></trkpt><trkpt lat="45.456163209176" lon="11.499824082817051"><ele>378.0</ele><time>2026-03-29T09:19:04.998Z</time></trkpt><trkpt lat="45.45624997263273" lon="11.499777660386519"><ele>378.0</ele><time>2026-03-29T09:19:07.998Z</time></trkpt><trkpt lat="45.45633729977936" lon="11.499733649200124"><ele>378.0</ele><time>2026-03-29T09:19:10.998Z</time></trkpt><trkpt lat="45.45640990406935" lon="11.499686317419817"><ele>378.0</ele><time>2026-03-29T09:19:13.998Z</time></trkpt><trkpt lat="45.45648387744179" lon="11.499630800334218"><ele>378.0</ele><time>2026-03-29T09:19:16.998Z</time></trkpt><trkpt lat="45.45655765090363" lon="11.499596870440863"><ele>377.6666666666667</ele><time>2026-03-29T09:19:19.998Z</time></trkpt><trkpt lat="45.456638189154255" lon="11.499565195583122"><ele>377.3333333333333</ele><time>2026-03-29T09:19:22.998Z</time></trkpt><trkpt lat="45.45669475608456" lon="11.49952541598874"><ele>377.0</ele><time>2026-03-29T09:19:24.997Z</time></trkpt><trkpt lat="45.45672859576889" lon="11.499427720899966"><ele>376.66666666666663</ele><time>2026-03-29T09:19:27.997Z</time></trkpt><trkpt lat="45.45674131667669" lon="11.49929990074458"><ele>376.3333333333333</ele><time>2026-03-29T09:19:29.997Z</time></trkpt><trkpt lat="45.45672248753891" lon="11.49918621347416"><ele>376.0</ele><time>2026-03-29T09:19:31.997Z</time></trkpt><trkpt lat="45.45672835472633" lon="11.499084110136137"><ele>376.0</ele><time>2026-03-29T09:19:33.997Z</time></trkpt><trkpt lat="45.45673228595406" lon="11.498965026324838"><ele>376.0</ele><time>2026-03-29T09:19:35.997Z</time></trkpt><trkpt lat="45.456721340364425" lon="11.49886423680432"><ele>376.0</ele><time>2026-03-29T09:19:37.997Z</time></trkpt><trkpt lat="45.456726487425286" lon="11.498771877907245"><ele>376.0</ele><time>2026-03-29T09:19:39.997Z</time></trkpt><trkpt lat="45.4567216118723" lon="11.498646788518073"><ele>376.0</ele><time>2026-03-29T09:19:43Z</time></trkpt><trkpt lat="45.45672750463194" lon="11.498554501944398"><ele>376.0</ele><time>2026-03-29T09:19:45Z</time></trkpt><trkpt lat="45.456749424591976" lon="11.49843961120202"><ele>375.5</ele><time>2026-03-29T09:19:48Z</time></trkpt><trkpt lat="45.456767620754775" lon="11.498314210219654"><ele>375.0</ele><time>2026-03-29T09:19:51Z</time></trkpt><trkpt lat="45.4567847396905" lon="11.49819146906747"><ele>374.5</ele><time>2026-03-29T09:19:53Z</time></trkpt><trkpt lat="45.45679599326235" lon="11.498074722171102"><ele>374.0</ele><time>2026-03-29T09:19:55Z</time></trkpt><trkpt lat="45.456825045922834" lon="11.497949013601044"><ele>373.5</ele><time>2026-03-29T09:19:57Z</time></trkpt><trkpt lat="45.456857708132894" lon="11.497842845263706"><ele>373.0</ele><time>2026-03-29T09:19:59Z</time></trkpt><trkpt lat="45.456896091435645" lon="11.497767232423964"><ele>372.2</ele><time>2026-03-29T09:20:01Z</time></trkpt><trkpt lat="45.456905284310544" lon="11.497624978704785"><ele>371.4</ele><time>2026-03-29T09:20:03Z</time></trkpt><trkpt lat="45.45692704221118" lon="11.497487232919685"><ele>370.59999999999997</ele><time>2026-03-29T09:20:05Z</time></trkpt><trkpt lat="45.45694686833724" lon="11.497338966096567"><ele>369.79999999999995</ele><time>2026-03-29T09:20:07Z</time></trkpt><trkpt lat="45.45696129637481" lon="11.497244857830843"><ele>369.0</ele><time>2026-03-29T09:20:08Z</time></trkpt><trkpt lat="45.45698708672741" lon="11.497079575681477"><ele>369.0</ele><time>2026-03-29T09:20:10Z</time></trkpt><trkpt lat="45.457011418740144" lon="11.496933445552251"><ele>369.0</ele><time>2026-03-29T09:20:12Z</time></trkpt><trkpt lat="45.45704705066723" lon="11.496766053455485"><ele>369.0</ele><time>2026-03-29T09:20:13.999Z</time></trkpt><trkpt lat="45.45707377925963" lon="11.49659503207506"><ele>369.0</ele><time>2026-03-29T09:20:15.999Z</time></trkpt><trkpt lat="45.45709769987594" lon="11.496450231963744"><ele>365.6</ele><time>2026-03-29T09:20:17.999Z</time></trkpt><trkpt lat="45.45712257870948" lon="11.496321859123395"><ele>362.2</ele><time>2026-03-29T09:20:19.999Z</time></trkpt><trkpt lat="45.45717036018628" lon="11.496196111858854"><ele>358.8</ele><time>2026-03-29T09:20:21.999Z</time></trkpt><trkpt lat="45.45723990300611" lon="11.496116530334918"><ele>355.40000000000003</ele><time>2026-03-29T09:20:23.999Z</time></trkpt><trkpt lat="45.457321239405175" lon="11.496042751935565"><ele>352.0</ele><time>2026-03-29T09:20:25.999Z</time></trkpt><trkpt lat="45.457376048016286" lon="11.495968654000608"><ele>352.0</ele><time>2026-03-29T09:20:27.999Z</time></trkpt><trkpt lat="45.457386989589324" lon="11.495850737449713"><ele>352.0</ele><time>2026-03-29T09:20:29.999Z</time></trkpt><trkpt lat="45.45735814736171" lon="11.495750262240724"><ele>352.0</ele><time>2026-03-29T09:20:31.999Z</time></trkpt><trkpt lat="45.457329994475415" lon="11.495648509562182"><ele>352.0</ele><time>2026-03-29T09:20:34.999Z</time></trkpt><trkpt lat="45.45731886592065" lon="11.49555452553905"><ele>352.0</ele><time>2026-03-29T09:20:36.999Z</time></trkpt><trkpt lat="45.457302100691486" lon="11.495450135809074"><ele>352.0</ele><time>2026-03-29T09:20:38.999Z</time></trkpt><trkpt lat="45.45729390583157" lon="11.495342744087914"><ele>352.16666666666663</ele><time>2026-03-29T09:20:40.999Z</time></trkpt><trkpt lat="45.45729039247332" lon="11.495232849442091"><ele>352.3333333333333</ele><time>2026-03-29T09:20:43.999Z</time></trkpt><trkpt lat="45.457302280360224" lon="11.49512253562896"><ele>352.5</ele><time>2026-03-29T09:20:46.999Z</time></trkpt><trkpt lat="45.45740113869187" lon="11.495014596459322"><ele>352.6666666666667</ele><time>2026-03-29T09:22:57.998Z</time></trkpt><trkpt lat="45.457447752115065" lon="11.494944869557758"><ele>352.83333333333337</ele><time>2026-03-29T09:22:59.998Z</time></trkpt><trkpt lat="45.45750933602623" lon="11.49488442336826"><ele>353.0</ele><time>2026-03-29T09:23:02.998Z</time></trkpt><trkpt lat="45.45754908287935" lon="11.494810030590074"><ele>353.0</ele><time>2026-03-29T09:23:05.998Z</time></trkpt><trkpt lat="45.45760439078333" lon="11.494751969265652"><ele>353.0</ele><time>2026-03-29T09:23:07.998Z</time></trkpt><trkpt lat="45.45766197022843" lon="11.494668143218119"><ele>353.0</ele><time>2026-03-29T09:23:09.998Z</time></trkpt><trkpt lat="45.45773804484851" lon="11.494578140720558"><ele>353.0</ele><time>2026-03-29T09:23:11.998Z</time></trkpt><trkpt lat="45.45783678045401" lon="11.494478792740692"><ele>353.0</ele><time>2026-03-29T09:23:13.998Z</time></trkpt><trkpt lat="45.4579096892125" lon="11.494419860942266"><ele>350.59999999999997</ele><time>2026-03-29T09:23:14.998Z</time></trkpt><trkpt lat="45.45799975872362" lon="11.49436284885674"><ele>348.2</ele><time>2026-03-29T09:23:15.998Z</time></trkpt><trkpt lat="45.45809626226491" lon="11.494300330922517"><ele>345.8</ele><time>2026-03-29T09:23:16.998Z</time></trkpt><trkpt lat="45.45820164545865" lon="11.494244560283741"><ele>343.4</ele><time>2026-03-29T09:23:17.998Z</time></trkpt><trkpt lat="45.45829707677023" lon="11.494188847808646"><ele>341.0</ele><time>2026-03-29T09:23:18.998Z</time></trkpt><trkpt lat="45.45837782644251" lon="11.49414158583647"><ele>341.0</ele><time>2026-03-29T09:23:19.998Z</time></trkpt><trkpt lat="45.4584508082936" lon="11.49409772848655"><ele>341.0</ele><time>2026-03-29T09:23:20.998Z</time></trkpt><trkpt lat="45.45851386032696" lon="11.49405564570602"><ele>341.0</ele><time>2026-03-29T09:23:21.998Z</time></trkpt><trkpt lat="45.45858118067301" lon="11.494040288038287"><ele>341.0</ele><time>2026-03-29T09:23:22.998Z</time></trkpt><trkpt lat="45.45869630438962" lon="11.493980335970962"><ele>341.0</ele><time>2026-03-29T09:23:24.998Z</time></trkpt><trkpt lat="45.45875899348712" lon="11.493964035319092"><ele>341.0</ele><time>2026-03-29T09:23:25.998Z</time></trkpt><trkpt lat="45.45882571046897" lon="11.493939325802376"><ele>339.6666666666667</ele><time>2026-03-29T09:23:26.998Z</time></trkpt><trkpt lat="45.458891935885646" lon="11.493908601341262"><ele>338.33333333333337</ele><time>2026-03-29T09:23:27.998Z</time></trkpt><trkpt lat="45.45901681958072" lon="11.493850951374293"><ele>337.0</ele><time>2026-03-29T09:23:29.998Z</time></trkpt><trkpt lat="45.45909586243244" lon="11.493845165442536"><ele>335.6666666666667</ele><time>2026-03-29T09:23:30.998Z</time></trkpt><trkpt lat="45.45917954133037" lon="11.493830896607362"><ele>334.3333333333333</ele><time>2026-03-29T09:23:31.998Z</time></trkpt><trkpt lat="45.459262462230356" lon="11.493817248744573"><ele>333.0</ele><time>2026-03-29T09:23:32.998Z</time></trkpt><trkpt lat="45.45934734212261" lon="11.493795028847101"><ele>333.0</ele><time>2026-03-29T09:23:33.998Z</time></trkpt><trkpt lat="45.459428919248424" lon="11.49375967901874"><ele>333.0</ele><time>2026-03-29T09:23:34.997Z</time></trkpt><trkpt lat="45.45951284800474" lon="11.493719167709076"><ele>333.0</ele><time>2026-03-29T09:23:35.997Z</time></trkpt><trkpt lat="45.45960120010361" lon="11.49368471905682"><ele>333.0</ele><time>2026-03-29T09:23:36.997Z</time></trkpt><trkpt lat="45.459689373889546" lon="11.493643804296433"><ele>333.0</ele><time>2026-03-29T09:23:37.997Z</time></trkpt><trkpt lat="45.45978108238023" lon="11.493601037329823"><ele>332.2</ele><time>2026-03-29T09:23:38.997Z</time></trkpt><trkpt lat="45.45987843430094" lon="11.493555294883317"><ele>331.4</ele><time>2026-03-29T09:23:39.997Z</time></trkpt><trkpt lat="45.45997923513415" lon="11.493550531293153"><ele>330.59999999999997</ele><time>2026-03-29T09:23:40.997Z</time></trkpt><trkpt lat="45.46007639957505" lon="11.493487982924323"><ele>329.79999999999995</ele><time>2026-03-29T09:23:41.997Z</time></trkpt><trkpt lat="45.460160482174686" lon="11.493457074279062"><ele>329.0</ele><time>2026-03-29T09:23:42.997Z</time></trkpt><trkpt lat="45.4602367890431" lon="11.493458943253382"><ele>329.0</ele><time>2026-03-29T09:23:43.997Z</time></trkpt><trkpt lat="45.4603010269342" lon="11.49345273438438"><ele>329.0</ele><time>2026-03-29T09:23:44.997Z</time></trkpt><trkpt lat="45.46038837438426" lon="11.493407134006278"><ele>329.0</ele><time>2026-03-29T09:23:46.997Z</time></trkpt><trkpt lat="45.46046914215661" lon="11.493396413175036"><ele>329.0</ele><time>2026-03-29T09:23:49.997Z</time></trkpt><trkpt lat="45.46053310862571" lon="11.49339446881933"><ele>329.0</ele><time>2026-03-29T09:23:51.997Z</time></trkpt><trkpt lat="45.46060100724367" lon="11.493383354171417"><ele>329.0</ele><time>2026-03-29T09:23:54Z</time></trkpt><trkpt lat="45.46068655536371" lon="11.493376154371845"><ele>330.0</ele><time>2026-03-29T09:23:57Z</time></trkpt><trkpt lat="45.460777028181965" lon="11.493370435773594"><ele>331.0</ele><time>2026-03-29T09:24:00Z</time></trkpt><trkpt lat="45.4608409674535" lon="11.493370642443946"><ele>332.0</ele><time>2026-03-29T09:24:02Z</time></trkpt><trkpt lat="45.46090355472803" lon="11.493403449799136"><ele>333.0</ele><time>2026-03-29T09:24:04Z</time></trkpt><trkpt lat="45.46097946452824" lon="11.493375642600837"><ele>334.0</ele><time>2026-03-29T09:24:07Z</time></trkpt><trkpt lat="45.461071093524204" lon="11.493397684462758"><ele>335.0</ele><time>2026-03-29T09:24:10Z</time></trkpt><trkpt lat="45.46114294207102" lon="11.493379645612492"><ele>335.0</ele><time>2026-03-29T09:24:13Z</time></trkpt><trkpt lat="45.46120908398525" lon="11.493391222823691"><ele>335.0</ele><time>2026-03-29T09:24:16Z</time></trkpt><trkpt lat="45.46128655673661" lon="11.493421076385426"><ele>335.0</ele><time>2026-03-29T09:24:19Z</time></trkpt><trkpt lat="45.46137123764274" lon="11.49341734040888"><ele>335.0</ele><time>2026-03-29T09:24:22Z</time></trkpt><trkpt lat="45.4614581151713" lon="11.4934257882"><ele>335.0</ele><time>2026-03-29T09:24:25Z</time></trkpt><trkpt lat="45.46152730381364" lon="11.493437720587929"><ele>335.0</ele><time>2026-03-29T09:24:26.999Z</time></trkpt><trkpt lat="45.46159047118195" lon="11.493438969919021"><ele>335.5</ele><time>2026-03-29T09:24:28.999Z</time></trkpt><trkpt lat="45.461662108720745" lon="11.493456697773706"><ele>336.0</ele><time>2026-03-29T09:24:30.999Z</time></trkpt><trkpt lat="45.46174365104154" lon="11.493429037371746"><ele>336.5</ele><time>2026-03-29T09:24:33.999Z</time></trkpt><trkpt lat="45.461838898159066" lon="11.493421005063329"><ele>337.0</ele><time>2026-03-29T09:24:36.999Z</time></trkpt><trkpt lat="45.46191372580686" lon="11.493428905584157"><ele>337.5</ele><time>2026-03-29T09:24:38.999Z</time></trkpt><trkpt lat="45.46198142822012" lon="11.493398652072274"><ele>338.0</ele><time>2026-03-29T09:24:40.999Z</time></trkpt><trkpt lat="45.46205211665302" lon="11.493383570365948"><ele>337.5</ele><time>2026-03-29T09:24:42.999Z</time></trkpt><trkpt lat="45.462122626120355" lon="11.493375849463071"><ele>337.0</ele><time>2026-03-29T09:24:44.999Z</time></trkpt><trkpt lat="45.462208067224324" lon="11.493352217218163"><ele>336.5</ele><time>2026-03-29T09:24:47.999Z</time></trkpt><trkpt lat="45.46229503948844" lon="11.4933369861215"><ele>336.0</ele><time>2026-03-29T09:24:50.999Z</time></trkpt><trkpt lat="45.46237425454117" lon="11.49331844339852"><ele>335.5</ele><time>2026-03-29T09:24:53.999Z</time></trkpt><trkpt lat="45.462458540790045" lon="11.4932998433481"><ele>335.0</ele><time>2026-03-29T09:24:56.999Z</time></trkpt><trkpt lat="45.462520651987745" lon="11.493359331656407"><ele>335.0</ele><time>2026-03-29T09:24:58.999Z</time></trkpt><trkpt lat="45.46260620418457" lon="11.493445652051472"><ele>335.0</ele><time>2026-03-29T09:25:01.999Z</time></trkpt><trkpt lat="45.462697501432075" lon="11.493464798525237"><ele>335.0</ele><time>2026-03-29T09:25:03.998Z</time></trkpt><trkpt lat="45.46277024797304" lon="11.493476682122724"><ele>335.0</ele><time>2026-03-29T09:25:05.998Z</time></trkpt><trkpt lat="45.4628321493646" lon="11.49345827754031"><ele>335.0</ele><time>2026-03-29T09:25:07.998Z</time></trkpt><trkpt lat="45.46290883304474" lon="11.49345746439939"><ele>335.0</ele><time>2026-03-29T09:25:09.998Z</time></trkpt><trkpt lat="45.46301743540914" lon="11.493455916413687"><ele>334.6666666666667</ele><time>2026-03-29T09:25:11.998Z</time></trkpt><trkpt lat="45.46311218060979" lon="11.493414540663272"><ele>334.33333333333337</ele><time>2026-03-29T09:25:14.998Z</time></trkpt><trkpt lat="45.46318661635254" lon="11.49340731135808"><ele>334.0</ele><time>2026-03-29T09:25:17.998Z</time></trkpt><trkpt lat="45.46327949963721" lon="11.493363520940008"><ele>333.6666666666667</ele><time>2026-03-29T09:25:19.998Z</time></trkpt><trkpt lat="45.46334133028145" lon="11.493318859770948"><ele>333.3333333333333</ele><time>2026-03-29T09:25:21.998Z</time></trkpt><trkpt lat="45.46344051634414" lon="11.49327901362473"><ele>333.0</ele><time>2026-03-29T09:25:23.998Z</time></trkpt><trkpt lat="45.46352440281179" lon="11.493220945269659"><ele>333.0</ele><time>2026-03-29T09:25:25.998Z</time></trkpt><trkpt lat="45.4635768362543" lon="11.49313986643238"><ele>333.0</ele><time>2026-03-29T09:25:27.998Z</time></trkpt><trkpt lat="45.463677532237135" lon="11.493115636660862"><ele>333.0</ele><time>2026-03-29T09:25:30.998Z</time></trkpt><trkpt lat="45.463759364826274" lon="11.493166076142153"><ele>333.0</ele><time>2026-03-29T09:25:32.998Z</time></trkpt><trkpt lat="45.46378146021814" lon="11.49328338904693"><ele>333.0</ele><time>2026-03-29T09:25:34.998Z</time></trkpt><trkpt lat="45.46383530781401" lon="11.493352042586894"><ele>333.0</ele><time>2026-03-29T09:25:36.998Z</time></trkpt><trkpt lat="45.4638938208739" lon="11.493413942619606"><ele>332.8333333333333</ele><time>2026-03-29T09:25:38.998Z</time></trkpt><trkpt lat="45.46396814386877" lon="11.49350076345697"><ele>332.6666666666667</ele><time>2026-03-29T09:25:40.997Z</time></trkpt><trkpt lat="45.46404303066581" lon="11.493555187094174"><ele>332.5</ele><time>2026-03-29T09:25:42.997Z</time></trkpt><trkpt lat="45.46409328449819" lon="11.493611707739001"><ele>332.33333333333337</ele><time>2026-03-29T09:25:44.997Z</time></trkpt><trkpt lat="45.464172162975444" lon="11.49367394773611"><ele>332.1666666666667</ele><time>2026-03-29T09:25:46.997Z</time></trkpt><trkpt lat="45.46423732067494" lon="11.493717213569871"><ele>332.0</ele><time>2026-03-29T09:25:48.997Z</time></trkpt><trkpt lat="45.464307985427304" lon="11.493750484584853"><ele>331.1666666666667</ele><time>2026-03-29T09:25:50.997Z</time></trkpt><trkpt lat="45.46442739544663" lon="11.493796058180823"><ele>330.33333333333337</ele><time>2026-03-29T09:25:52.997Z</time></trkpt><trkpt lat="45.464507617354606" lon="11.49383226876756"><ele>329.5</ele><time>2026-03-29T09:25:54.997Z</time></trkpt><trkpt lat="45.464574173914556" lon="11.493861837178933"><ele>328.6666666666667</ele><time>2026-03-29T09:25:55.997Z</time></trkpt><trkpt lat="45.4646345228978" lon="11.493890073094502"><ele>327.8333333333333</ele><time>2026-03-29T09:25:56.997Z</time></trkpt><trkpt lat="45.46473685511376" lon="11.49393981513067"><ele>327.0</ele><time>2026-03-29T09:25:58.997Z</time></trkpt><trkpt lat="45.464795742048445" lon="11.493983848195237"><ele>327.0</ele><time>2026-03-29T09:26:01Z</time></trkpt><trkpt lat="45.46487748659514" lon="11.494001491227841"><ele>327.0</ele><time>2026-03-29T09:26:03Z</time></trkpt><trkpt lat="45.46494996178279" lon="11.494057708061558"><ele>327.0</ele><time>2026-03-29T09:26:05Z</time></trkpt><trkpt lat="45.46505504159729" lon="11.494184427864935"><ele>327.0</ele><time>2026-03-29T09:26:07Z</time></trkpt><trkpt lat="45.465158456796054" lon="11.494298115247044"><ele>327.0</ele><time>2026-03-29T09:26:09Z</time></trkpt><trkpt lat="45.46522304614074" lon="11.494422863847639"><ele>327.0</ele><time>2026-03-29T09:26:11Z</time></trkpt><trkpt lat="45.465261847634345" lon="11.494551643644801"><ele>327.0</ele><time>2026-03-29T09:26:13Z</time></trkpt><trkpt lat="45.465319218816504" lon="11.494652349672803"><ele>327.0</ele><time>2026-03-29T09:26:15Z</time></trkpt><trkpt lat="45.46542388626933" lon="11.49470084071439"><ele>327.0</ele><time>2026-03-29T09:26:18Z</time></trkpt><trkpt lat="45.465566525044686" lon="11.494891354536282"><ele>323.40000000000003</ele><time>2026-03-29T09:26:20Z</time></trkpt><trkpt lat="45.46565357514246" lon="11.494840000168196"><ele>319.8</ele><time>2026-03-29T09:26:22Z</time></trkpt><trkpt lat="45.465773412716985" lon="11.494814722718493"><ele>316.2</ele><time>2026-03-29T09:26:24Z</time></trkpt><trkpt lat="45.465854932224694" lon="11.49481137087521"><ele>312.6</ele><time>2026-03-29T09:26:25Z</time></trkpt><trkpt lat="45.46592155136344" lon="11.494808203256843"><ele>309.0</ele><time>2026-03-29T09:26:26Z</time></trkpt><trkpt lat="45.46602975460634" lon="11.494797210534047"><ele>309.0</ele><time>2026-03-29T09:26:28Z</time></trkpt><trkpt lat="45.466092837224764" lon="11.494789827154797"><ele>309.0</ele><time>2026-03-29T09:26:29Z</time></trkpt><trkpt lat="45.466219308975155" lon="11.494768898539377"><ele>309.0</ele><time>2026-03-29T09:26:30.999Z</time></trkpt><trkpt lat="45.4663259177096" lon="11.494731272603504"><ele>309.0</ele><time>2026-03-29T09:26:32.999Z</time></trkpt><trkpt lat="45.46644906396499" lon="11.494671607152096"><ele>309.0</ele><time>2026-03-29T09:26:34.999Z</time></trkpt><trkpt lat="45.46653714357799" lon="11.49461761196814"><ele>310.14285714285717</ele><time>2026-03-29T09:26:35.999Z</time></trkpt><trkpt lat="45.46659670775782" lon="11.494562872299005"><ele>311.2857142857143</ele><time>2026-03-29T09:26:36.999Z</time></trkpt><trkpt lat="45.46666041828704" lon="11.49451246316565"><ele>312.42857142857144</ele><time>2026-03-29T09:26:37.999Z</time></trkpt><trkpt lat="45.46673573811434" lon="11.494496892659345"><ele>313.57142857142856</ele><time>2026-03-29T09:26:38.999Z</time></trkpt><trkpt lat="45.46680394100663" lon="11.494478098118694"><ele>314.7142857142857</ele><time>2026-03-29T09:26:39.999Z</time></trkpt><trkpt lat="45.466873098800214" lon="11.494459367962593"><ele>315.8571428571429</ele><time>2026-03-29T09:26:40.999Z</time></trkpt><trkpt lat="45.46694461846187" lon="11.494442142489556"><ele>317.0</ele><time>2026-03-29T09:26:41.999Z</time></trkpt><trkpt lat="45.467021164455254" lon="11.49440421428845"><ele>317.0</ele><time>2026-03-29T09:26:42.999Z</time></trkpt><trkpt lat="45.46709975955504" lon="11.49440143147519"><ele>317.0</ele><time>2026-03-29T09:26:43.999Z</time></trkpt><trkpt lat="45.467164342342464" lon="11.494337774044252"><ele>317.0</ele><time>2026-03-29T09:26:44.999Z</time></trkpt><trkpt lat="45.46727387046632" lon="11.49427266846494"><ele>317.0</ele><time>2026-03-29T09:26:46.999Z</time></trkpt><trkpt lat="45.46735642473437" lon="11.494183674068381"><ele>317.0</ele><time>2026-03-29T09:26:48.999Z</time></trkpt><trkpt lat="45.46742642614371" lon="11.494122782312687"><ele>315.6666666666667</ele><time>2026-03-29T09:26:50.999Z</time></trkpt><trkpt lat="45.46751322376254" lon="11.494042194914178"><ele>314.33333333333337</ele><time>2026-03-29T09:26:52.999Z</time></trkpt><trkpt lat="45.46760120855468" lon="11.493964670789559"><ele>313.0</ele><time>2026-03-29T09:26:54.999Z</time></trkpt><trkpt lat="45.46767122286861" lon="11.493862424235232"><ele>311.6666666666667</ele><time>2026-03-29T09:26:56.999Z</time></trkpt><trkpt lat="45.46771950596979" lon="11.493801216046391"><ele>310.3333333333333</ele><time>2026-03-29T09:26:57.999Z</time></trkpt><trkpt lat="45.46776778980006" lon="11.493740006951251"><ele>309.0</ele><time>2026-03-29T09:26:58.999Z</time></trkpt><trkpt lat="45.46777578252649" lon="11.493647892307383"><ele>309.0</ele><time>2026-03-29T09:27:00.999Z</time></trkpt><trkpt lat="45.4678222670893" lon="11.493578770182497"><ele>309.0</ele><time>2026-03-29T09:27:01.999Z</time></trkpt><trkpt lat="45.46787120590333" lon="11.493428576346084"><ele>309.0</ele><time>2026-03-29T09:27:03.999Z</time></trkpt><trkpt lat="45.46822181201152" lon="11.493598960698762"><ele>306.8</ele><time>2026-03-29T09:27:05.999Z</time></trkpt><trkpt lat="45.46830313328746" lon="11.493555038718942"><ele>304.59999999999997</ele><time>2026-03-29T09:27:07.998Z</time></trkpt><trkpt lat="45.46840219653495" lon="11.493531503101302"><ele>302.4</ele><time>2026-03-29T09:27:09.998Z</time></trkpt><trkpt lat="45.468504652530996" lon="11.49349617702944"><ele>300.2</ele><time>2026-03-29T09:27:11.998Z</time></trkpt><trkpt lat="45.46860499606708" lon="11.493450469654428"><ele>298.0</ele><time>2026-03-29T09:27:13.998Z</time></trkpt><trkpt lat="45.468694696103285" lon="11.49342574098467"><ele>298.0</ele><time>2026-03-29T09:27:15.998Z</time></trkpt><trkpt lat="45.46876474193722" lon="11.49340668324151"><ele>298.0</ele><time>2026-03-29T09:27:17.998Z</time></trkpt><trkpt lat="45.46883524666192" lon="11.49338484625576"><ele>298.0</ele><time>2026-03-29T09:27:19.998Z</time></trkpt><trkpt lat="45.46890579966106" lon="11.493354916154225"><ele>298.0</ele><time>2026-03-29T09:27:21.998Z</time></trkpt><trkpt lat="45.46896960027323" lon="11.493356203765696"><ele>298.0</ele><time>2026-03-29T09:27:23.998Z</time></trkpt><trkpt lat="45.46906755533412" lon="11.493346911378877"><ele>298.0</ele><time>2026-03-29T09:27:26.998Z</time></trkpt><trkpt lat="45.46914735879903" lon="11.493323343424395"><ele>298.5</ele><time>2026-03-29T09:27:29.998Z</time></trkpt><trkpt lat="45.46920314264536" lon="11.493240333360816"><ele>299.0</ele><time>2026-03-29T09:27:32.998Z</time></trkpt><trkpt lat="45.469223346380716" lon="11.493144972937964"><ele>299.5</ele><time>2026-03-29T09:27:35.998Z</time></trkpt><trkpt lat="45.46926882428176" lon="11.493037468161747"><ele>300.0</ele><time>2026-03-29T09:27:38.998Z</time></trkpt><trkpt lat="45.469298962457636" lon="11.492941597918213"><ele>300.5</ele><time>2026-03-29T09:27:41.998Z</time></trkpt><trkpt lat="45.46932861021897" lon="11.49284831992597"><ele>301.0</ele><time>2026-03-29T09:27:44.997Z</time></trkpt><trkpt lat="45.469374811021076" lon="11.492774522301078"><ele>301.16666666666663</ele><time>2026-03-29T09:27:47.997Z</time></trkpt><trkpt lat="45.46943031870369" lon="11.492664123122882"><ele>301.3333333333333</ele><time>2026-03-29T09:27:50.997Z</time></trkpt><trkpt lat="45.469495736451115" lon="11.492609879548121"><ele>301.5</ele><time>2026-03-29T09:27:53.997Z</time></trkpt><trkpt lat="45.469553429365774" lon="11.492538391161983"><ele>301.6666666666667</ele><time>2026-03-29T09:27:55.997Z</time></trkpt><trkpt lat="45.46965055388645" lon="11.49250621113752"><ele>301.83333333333337</ele><time>2026-03-29T09:27:58.997Z</time></trkpt><trkpt lat="45.469721989898396" lon="11.492487542918466"><ele>302.0</ele><time>2026-03-29T09:28:00.997Z</time></trkpt><trkpt lat="45.46980388582451" lon="11.492456449814979"><ele>301.0</ele><time>2026-03-29T09:28:02.997Z</time></trkpt><trkpt lat="45.469910629216635" lon="11.492442253037469"><ele>300.0</ele><time>2026-03-29T09:28:04.997Z</time></trkpt><trkpt lat="45.47000942091236" lon="11.492457225433586"><ele>299.0</ele><time>2026-03-29T09:28:07Z</time></trkpt><trkpt lat="45.47008613180906" lon="11.49245765395521"><ele>298.0</ele><time>2026-03-29T09:28:09Z</time></trkpt><trkpt lat="45.47018331034238" lon="11.492433502442166"><ele>297.0</ele><time>2026-03-29T09:28:11Z</time></trkpt><trkpt lat="45.47025907312631" lon="11.492441721979395"><ele>297.0</ele><time>2026-03-29T09:28:13Z</time></trkpt><trkpt lat="45.47033967126833" lon="11.492420548757968"><ele>297.0</ele><time>2026-03-29T09:28:15Z</time></trkpt><trkpt lat="45.470417637250975" lon="11.492376214715112"><ele>297.0</ele><time>2026-03-29T09:28:18Z</time></trkpt><trkpt lat="45.47048162687871" lon="11.492362437714984"><ele>297.0</ele><time>2026-03-29T09:28:19Z</time></trkpt><trkpt lat="45.47054444674358" lon="11.492349110179369"><ele>297.0</ele><time>2026-03-29T09:28:20Z</time></trkpt><trkpt lat="45.47063069904682" lon="11.492312387507447"><ele>297.0</ele><time>2026-03-29T09:28:22Z</time></trkpt><trkpt lat="45.47073440075957" lon="11.492263289994808"><ele>296.3333333333333</ele><time>2026-03-29T09:28:24Z</time></trkpt><trkpt lat="45.47080622928048" lon="11.492231416382127"><ele>295.6666666666667</ele><time>2026-03-29T09:28:25Z</time></trkpt><trkpt lat="45.47089151728115" lon="11.492151699663879"><ele>295.0</ele><time>2026-03-29T09:28:27Z</time></trkpt><trkpt lat="45.47095060994704" lon="11.492119474961145"><ele>294.33333333333337</ele><time>2026-03-29T09:28:28Z</time></trkpt><trkpt lat="45.47101611664454" lon="11.492097458009669"><ele>293.6666666666667</ele><time>2026-03-29T09:28:29Z</time></trkpt><trkpt lat="45.471104356260234" lon="11.492018022509976"><ele>293.0</ele><time>2026-03-29T09:28:31Z</time></trkpt><trkpt lat="45.47121075917424" lon="11.491984199708506"><ele>292.5</ele><time>2026-03-29T09:28:33Z</time></trkpt><trkpt lat="45.4713034978454" lon="11.491949187575145"><ele>292.0</ele><time>2026-03-29T09:28:34.999Z</time></trkpt><trkpt lat="45.471399769349176" lon="11.492009669792356"><ele>291.5</ele><time>2026-03-29T09:28:36.999Z</time></trkpt><trkpt lat="45.471458904562034" lon="11.492058115413709"><ele>291.0</ele><time>2026-03-29T09:28:42.999Z</time></trkpt><trkpt lat="45.471522233346086" lon="11.492143090197542"><ele>290.5</ele><time>2026-03-29T09:28:45.999Z</time></trkpt><trkpt lat="45.47158818960526" lon="11.49215970183842"><ele>290.0</ele><time>2026-03-29T09:28:57.999Z</time></trkpt><trkpt lat="45.471664379470866" lon="11.492162521045856"><ele>290.0</ele><time>2026-03-29T09:28:59.999Z</time></trkpt><trkpt lat="45.471747894509136" lon="11.492123288448843"><ele>290.0</ele><time>2026-03-29T09:29:01.999Z</time></trkpt><trkpt lat="45.47183223380959" lon="11.492068871243232"><ele>290.0</ele><time>2026-03-29T09:29:03.999Z</time></trkpt><trkpt lat="45.47193432207069" lon="11.492021109696083"><ele>290.0</ele><time>2026-03-29T09:29:05.999Z</time></trkpt><trkpt lat="45.47205035908004" lon="11.491959787624808"><ele>290.0</ele><time>2026-03-29T09:29:07.999Z</time></trkpt><trkpt lat="45.47216971098195" lon="11.491905569914262"><ele>289.5</ele><time>2026-03-29T09:29:09.998Z</time></trkpt><trkpt lat="45.472229390007335" lon="11.49187339867903"><ele>289.0</ele><time>2026-03-29T09:29:10.998Z</time></trkpt><trkpt lat="45.47234612363989" lon="11.49181786240781"><ele>288.5</ele><time>2026-03-29T09:29:12.998Z</time></trkpt><trkpt lat="45.472458995201585" lon="11.491760212169357"><ele>288.0</ele><time>2026-03-29T09:29:14.998Z</time></trkpt><trkpt lat="45.47251816589015" lon="11.491723245124035"><ele>287.5</ele><time>2026-03-29T09:29:15.998Z</time></trkpt><trkpt lat="45.47258186575242" lon="11.491693209946225"><ele>287.0</ele><time>2026-03-29T09:29:16.998Z</time></trkpt><trkpt lat="45.47264455940829" lon="11.49166279207261"><ele>287.0</ele><time>2026-03-29T09:29:17.998Z</time></trkpt><trkpt lat="45.472762722936324" lon="11.491602416475619"><ele>287.0</ele><time>2026-03-29T09:29:19.998Z</time></trkpt><trkpt lat="45.472827359320505" lon="11.491566572445496"><ele>287.0</ele><time>2026-03-29T09:29:20.998Z</time></trkpt><trkpt lat="45.472904605709395" lon="11.491529520514932"><ele>287.0</ele><time>2026-03-29T09:29:21.998Z</time></trkpt><trkpt lat="45.47296891997595" lon="11.491483695263971"><ele>287.0</ele><time>2026-03-29T09:29:22.998Z</time></trkpt><trkpt lat="45.47302933261801" lon="11.491438119157703"><ele>287.0</ele><time>2026-03-29T09:29:23.998Z</time></trkpt><trkpt lat="45.47308562063859" lon="11.491375078622928"><ele>287.0</ele><time>2026-03-29T09:29:24.998Z</time></trkpt><trkpt lat="45.47319166757079" lon="11.491264458546892"><ele>287.0</ele><time>2026-03-29T09:29:26.998Z</time></trkpt><trkpt lat="45.47327618722983" lon="11.491170672857947"><ele>287.0</ele><time>2026-03-29T09:29:28.998Z</time></trkpt><trkpt lat="45.47333922455384" lon="11.491087843201344"><ele>287.0</ele><time>2026-03-29T09:29:30.998Z</time></trkpt><trkpt lat="45.47340788647617" lon="11.491040995807476"><ele>287.0</ele><time>2026-03-29T09:29:32.998Z</time></trkpt><trkpt lat="45.47348675625867" lon="11.490975534143091"><ele>287.0</ele><time>2026-03-29T09:29:35.998Z</time></trkpt><trkpt lat="45.47358026131989" lon="11.490907524034734"><ele>287.0</ele><time>2026-03-29T09:29:37.998Z</time></trkpt><trkpt lat="45.473653296596225" lon="11.490861521460522"><ele>287.0</ele><time>2026-03-29T09:29:39.998Z</time></trkpt><trkpt lat="45.47373015927272" lon="11.490808908638632"><ele>287.0</ele><time>2026-03-29T09:29:41.998Z</time></trkpt><trkpt lat="45.473808763462145" lon="11.490756609918199"><ele>287.0</ele><time>2026-03-29T09:29:43.998Z</time></trkpt><trkpt lat="45.47389717716483" lon="11.490720134518202"><ele>287.0</ele><time>2026-03-29T09:29:45.998Z</time></trkpt><trkpt lat="45.47399587022332" lon="11.490665052303237"><ele>285.6</ele><time>2026-03-29T09:29:47.997Z</time></trkpt><trkpt lat="45.47410076123195" lon="11.490609053905631"><ele>284.2</ele><time>2026-03-29T09:29:49.997Z</time></trkpt><trkpt lat="45.474170797841886" lon="11.490506574400445"><ele>282.8</ele><time>2026-03-29T09:29:51.997Z</time></trkpt><trkpt lat="45.474204626984296" lon="11.490351660703556"><ele>281.4</ele><time>2026-03-29T09:29:53.997Z</time></trkpt><trkpt lat="45.474220514908254" lon="11.490182395741266"><ele>280.0</ele><time>2026-03-29T09:29:55.997Z</time></trkpt><trkpt lat="45.47427926257288" lon="11.490032224986097"><ele>280.0</ele><time>2026-03-29T09:29:57.997Z</time></trkpt><trkpt lat="45.47433852731031" lon="11.489947642342337"><ele>280.0</ele><time>2026-03-29T09:29:59.997Z</time></trkpt><trkpt lat="45.474376899649485" lon="11.489850850640185"><ele>280.0</ele><time>2026-03-29T09:30:01.997Z</time></trkpt><trkpt lat="45.474417630777374" lon="11.489736304764964"><ele>280.0</ele><time>2026-03-29T09:30:04.997Z</time></trkpt><trkpt lat="45.47445803888673" lon="11.489639884603918"><ele>280.0</ele><time>2026-03-29T09:30:07.997Z</time></trkpt><trkpt lat="45.47449373442723" lon="11.489541981903269"><ele>280.0</ele><time>2026-03-29T09:30:10.997Z</time></trkpt><trkpt lat="45.474534983186665" lon="11.48943947841861"><ele>280.0</ele><time>2026-03-29T09:30:14Z</time></trkpt><trkpt lat="45.47453400074331" lon="11.489336567402432"><ele>280.0</ele><time>2026-03-29T09:30:17Z</time></trkpt><trkpt lat="45.474487046351975" lon="11.489262221225026"><ele>280.0</ele><time>2026-03-29T09:30:20Z</time></trkpt><trkpt lat="45.474426884740076" lon="11.489158739163202"><ele>280.0</ele><time>2026-03-29T09:30:23Z</time></trkpt><trkpt lat="45.474369853731325" lon="11.489055804877868"><ele>280.0</ele><time>2026-03-29T09:30:26Z</time></trkpt><trkpt lat="45.47435232510229" lon="11.48892509055822"><ele>280.0</ele><time>2026-03-29T09:30:29Z</time></trkpt><trkpt lat="45.47440653480148" lon="11.488855929961154"><ele>280.0</ele><time>2026-03-29T09:30:31Z</time></trkpt><trkpt lat="45.47447780802334" lon="11.488808225756886"><ele>280.0</ele><time>2026-03-29T09:30:33Z</time></trkpt><trkpt lat="45.47454281061625" lon="11.488732085414536"><ele>280.0</ele><time>2026-03-29T09:30:36Z</time></trkpt><trkpt lat="45.47459928617291" lon="11.488675134440252"><ele>280.0</ele><time>2026-03-29T09:30:38Z</time></trkpt><trkpt lat="45.47465340023434" lon="11.488610266320904"><ele>280.0</ele><time>2026-03-29T09:30:40Z</time></trkpt><trkpt lat="45.47472680370037" lon="11.4885369865913"><ele>280.0</ele><time>2026-03-29T09:30:42.999Z</time></trkpt><trkpt lat="45.47479216609543" lon="11.488472400917049"><ele>280.5</ele><time>2026-03-29T09:30:44.999Z</time></trkpt><trkpt lat="45.47485589283983" lon="11.488397384026587"><ele>281.0</ele><time>2026-03-29T09:30:46.999Z</time></trkpt><trkpt lat="45.47493264936031" lon="11.488339592435286"><ele>281.5</ele><time>2026-03-29T09:30:48.999Z</time></trkpt><trkpt lat="45.47498547994243" lon="11.488270032902218"><ele>282.0</ele><time>2026-03-29T09:30:50.999Z</time></trkpt><trkpt lat="45.4750530944321" lon="11.488210189628983"><ele>282.5</ele><time>2026-03-29T09:30:53.999Z</time></trkpt><trkpt lat="45.47511706984486" lon="11.48812904805276"><ele>283.0</ele><time>2026-03-29T09:30:56.999Z</time></trkpt><trkpt lat="45.475181819221646" lon="11.488056531267988"><ele>283.0</ele><time>2026-03-29T09:30:59.999Z</time></trkpt><trkpt lat="45.47524565334423" lon="11.487990885188202"><ele>283.0</ele><time>2026-03-29T09:31:02.999Z</time></trkpt><trkpt lat="45.475293918344086" lon="11.487865128937589"><ele>283.0</ele><time>2026-03-29T09:31:06.999Z</time></trkpt><trkpt lat="45.4753548759135" lon="11.487779435180812"><ele>283.0</ele><time>2026-03-29T09:31:08.999Z</time></trkpt><trkpt lat="45.47541163833715" lon="11.487693678020584"><ele>283.0</ele><time>2026-03-29T09:31:10.999Z</time></trkpt><trkpt lat="45.47548095637009" lon="11.487619818521615"><ele>283.0</ele><time>2026-03-29T09:31:12.999Z</time></trkpt><trkpt lat="45.47556014882689" lon="11.487588504119572"><ele>280.6</ele><time>2026-03-29T09:31:15.999Z</time></trkpt><trkpt lat="45.47564812963597" lon="11.487535335271327"><ele>278.20000000000005</ele><time>2026-03-29T09:31:17.999Z</time></trkpt><trkpt lat="45.475735581345354" lon="11.48756551659912"><ele>275.8</ele><time>2026-03-29T09:31:19.998Z</time></trkpt><trkpt lat="45.47580657167519" lon="11.48763391728753"><ele>273.40000000000003</ele><time>2026-03-29T09:31:21.998Z</time></trkpt><trkpt lat="45.47584152751193" lon="11.487744075173634"><ele>271.0</ele><time>2026-03-29T09:31:23.998Z</time></trkpt><trkpt lat="45.47586985303373" lon="11.487873556432469"><ele>272.5</ele><time>2026-03-29T09:31:25.998Z</time></trkpt><trkpt lat="45.47587887554269" lon="11.48798650004616"><ele>274.0</ele><time>2026-03-29T09:31:27.998Z</time></trkpt><trkpt lat="45.475886714477205" lon="11.488093459491218"><ele>275.5</ele><time>2026-03-29T09:31:29.998Z</time></trkpt><trkpt lat="45.475934636010344" lon="11.488187529505524"><ele>277.0</ele><time>2026-03-29T09:31:33.998Z</time></trkpt><trkpt lat="45.47600029249329" lon="11.488232587872783"><ele>278.5</ele><time>2026-03-29T09:31:36.998Z</time></trkpt><trkpt lat="45.47606893386048" lon="11.488346991189756"><ele>280.0</ele><time>2026-03-29T09:31:38.998Z</time></trkpt><trkpt lat="45.47611036505316" lon="11.48841661964753"><ele>280.0</ele><time>2026-03-29T09:31:40.998Z</time></trkpt><trkpt lat="45.47620461688126" lon="11.488457773450833"><ele>280.0</ele><time>2026-03-29T09:31:44.998Z</time></trkpt><trkpt lat="45.47627492301982" lon="11.488499066208465"><ele>280.0</ele><time>2026-03-29T09:31:45.998Z</time></trkpt><trkpt lat="45.476390266082085" lon="11.48855502215855"><ele>280.0</ele><time>2026-03-29T09:31:47.998Z</time></trkpt><trkpt lat="45.47649965851109" lon="11.488601866552893"><ele>280.0</ele><time>2026-03-29T09:31:49.998Z</time></trkpt><trkpt lat="45.4766036214507" lon="11.488539967355083"><ele>275.8</ele><time>2026-03-29T09:31:51.998Z</time></trkpt><trkpt lat="45.47666797115206" lon="11.488500066663015"><ele>271.6</ele><time>2026-03-29T09:31:52.998Z</time></trkpt><trkpt lat="45.47673788818034" lon="11.48846028530821"><ele>267.4</ele><time>2026-03-29T09:31:53.998Z</time></trkpt><trkpt lat="45.47681181845905" lon="11.488429354079502"><ele>263.2</ele><time>2026-03-29T09:31:54.998Z</time></trkpt><trkpt lat="45.47693531269964" lon="11.488392802630225"><ele>259.0</ele><time>2026-03-29T09:31:56.997Z</time></trkpt><trkpt lat="45.477038488492525" lon="11.48835495762458"><ele>259.0</ele><time>2026-03-29T09:31:58.997Z</time></trkpt><trkpt lat="45.47710113656177" lon="11.488334262785523"><ele>259.0</ele><time>2026-03-29T09:32:00.997Z</time></trkpt><trkpt lat="45.477185407737274" lon="11.488284192851438"><ele>259.0</ele><time>2026-03-29T09:32:02.997Z</time></trkpt><trkpt lat="45.47727408679413" lon="11.488222085941636"><ele>259.0</ele><time>2026-03-29T09:32:04.997Z</time></trkpt><trkpt lat="45.477340636813906" lon="11.488192585970989"><ele>259.0</ele><time>2026-03-29T09:32:05.997Z</time></trkpt><trkpt lat="45.47740404453452" lon="11.48813885154868"><ele>259.0</ele><time>2026-03-29T09:32:06.997Z</time></trkpt><trkpt lat="45.47745927723922" lon="11.488082318186418"><ele>257.8</ele><time>2026-03-29T09:32:07.997Z</time></trkpt><trkpt lat="45.47752102644507" lon="11.488019759049463"><ele>256.59999999999997</ele><time>2026-03-29T09:32:08.997Z</time></trkpt><trkpt lat="45.47761448014798" lon="11.48792405196484"><ele>255.4</ele><time>2026-03-29T09:32:10.997Z</time></trkpt><trkpt lat="45.47772154774463" lon="11.487868984123509"><ele>254.2</ele><time>2026-03-29T09:32:12.997Z</time></trkpt><trkpt lat="45.47780456132133" lon="11.487869188392384"><ele>253.0</ele><time>2026-03-29T09:32:14.997Z</time></trkpt><trkpt lat="45.47788594755511" lon="11.487846849224422"><ele>252.99999999999997</ele><time>2026-03-29T09:32:19Z</time></trkpt><trkpt lat="45.47795448826569" lon="11.48781336933554"><ele>253.0</ele><time>2026-03-29T09:32:37Z</time></trkpt><trkpt lat="45.478031515663474" lon="11.487764560656874"><ele>253.0</ele><time>2026-03-29T09:32:41Z</time></trkpt><trkpt lat="45.47808296226618" lon="11.487698634039372"><ele>253.0</ele><time>2026-03-29T09:32:43Z</time></trkpt><trkpt lat="45.478042655908034" lon="11.48759671426552"><ele>252.99999999999997</ele><time>2026-03-29T09:32:46Z</time></trkpt><trkpt lat="45.47805541757203" lon="11.48747589859186"><ele>253.0</ele><time>2026-03-29T09:32:48.999Z</time></trkpt><trkpt lat="45.47806511922425" lon="11.48738714380638"><ele>252.99999999999997</ele><time>2026-03-29T09:32:51.999Z</time></trkpt><trkpt lat="45.47807815144365" lon="11.487267919641955"><ele>253.0</ele><time>2026-03-29T09:32:55.999Z</time></trkpt><trkpt lat="45.47808809971628" lon="11.487163738415134"><ele>253.0</ele><time>2026-03-29T09:32:58.999Z</time></trkpt><trkpt lat="45.47809893201279" lon="11.487049945841646"><ele>253.0</ele><time>2026-03-29T09:33:02.999Z</time></trkpt><trkpt lat="45.4781088400626" lon="11.486945313015491"><ele>252.99999999999997</ele><time>2026-03-29T09:33:06.999Z</time></trkpt><trkpt lat="45.47811969570371" lon="11.486841202780372"><ele>253.0</ele><time>2026-03-29T09:33:09.999Z</time></trkpt><trkpt lat="45.47813058062773" lon="11.486748796676588"><ele>252.83333333333331</ele><time>2026-03-29T09:33:11.999Z</time></trkpt><trkpt lat="45.47814665658747" lon="11.486636549981593"><ele>252.66666666666666</ele><time>2026-03-29T09:33:14.999Z</time></trkpt><trkpt lat="45.478163995490654" lon="11.48652566716812"><ele>252.5</ele><time>2026-03-29T09:33:17.999Z</time></trkpt><trkpt lat="45.478187797973376" lon="11.486391849334888"><ele>252.33333333333331</ele><time>2026-03-29T09:33:20.999Z</time></trkpt><trkpt lat="45.478211871693155" lon="11.486278533904306"><ele>252.16666666666666</ele><time>2026-03-29T09:33:22.999Z</time></trkpt><trkpt lat="45.478242579942" lon="11.486151339687405"><ele>252.0</ele><time>2026-03-29T09:33:25.998Z</time></trkpt><trkpt lat="45.47826592970041" lon="11.486058755185732"><ele>251.42857142857144</ele><time>2026-03-29T09:33:27.998Z</time></trkpt><trkpt lat="45.47828756240605" lon="11.485972879942974"><ele>250.85714285714286</ele><time>2026-03-29T09:33:30.998Z</time></trkpt><trkpt lat="45.47830896683775" lon="11.485884453677631"><ele>250.28571428571428</ele><time>2026-03-29T09:33:34.998Z</time></trkpt><trkpt lat="45.47833890751386" lon="11.485760762357083"><ele>249.71428571428572</ele><time>2026-03-29T09:33:36.998Z</time></trkpt><trkpt lat="45.47836010481638" lon="11.485673182004293"><ele>249.14285714285717</ele><time>2026-03-29T09:33:39.998Z</time></trkpt><trkpt lat="45.47838211365651" lon="11.485581907346829"><ele>248.57142857142858</ele><time>2026-03-29T09:33:42.998Z</time></trkpt><trkpt lat="45.47840870843209" lon="11.485471613940327"><ele>248.0</ele><time>2026-03-29T09:33:44.998Z</time></trkpt><trkpt lat="45.47843310330505" lon="11.485370443978486"><ele>247.00000000000003</ele><time>2026-03-29T09:33:46.998Z</time></trkpt><trkpt lat="45.478464310685844" lon="11.485241021308635"><ele>246.0</ele><time>2026-03-29T09:33:48.998Z</time></trkpt><trkpt lat="45.47847973049895" lon="11.485148020906484"><ele>245.0</ele><time>2026-03-29T09:33:50.998Z</time></trkpt><trkpt lat="45.478502037897755" lon="11.48504084200133"><ele>244.0</ele><time>2026-03-29T09:33:52.998Z</time></trkpt><trkpt lat="45.47853426081663" lon="11.48493376731955"><ele>243.00000000000003</ele><time>2026-03-29T09:33:54.998Z</time></trkpt><trkpt lat="45.47855395865209" lon="11.484820418636843"><ele>242.0</ele><time>2026-03-29T09:33:56.998Z</time></trkpt><trkpt lat="45.47856722615267" lon="11.484723551339904"><ele>242.00000000000003</ele><time>2026-03-29T09:33:58.998Z</time></trkpt><trkpt lat="45.47864108126281" lon="11.484663922216482"><ele>242.0</ele><time>2026-03-29T09:34:01.997Z</time></trkpt><trkpt lat="45.47872007188128" lon="11.484652257749236"><ele>242.0</ele><time>2026-03-29T09:34:04.997Z</time></trkpt><trkpt lat="45.47879178078636" lon="11.48464345847216"><ele>242.0</ele><time>2026-03-29T09:34:08.997Z</time></trkpt><trkpt lat="45.47887143826146" lon="11.484650047840711"><ele>242.00000000000003</ele><time>2026-03-29T09:34:11.997Z</time></trkpt><trkpt lat="45.47896135176536" lon="11.48467739562614"><ele>242.0</ele><time>2026-03-29T09:34:14.997Z</time></trkpt><trkpt lat="45.47903285659484" lon="11.484728242503882"><ele>241.8</ele><time>2026-03-29T09:34:17.997Z</time></trkpt><trkpt lat="45.4791060114031" lon="11.484761449040521"><ele>241.6</ele><time>2026-03-29T09:34:20.997Z</time></trkpt><trkpt lat="45.47917977086575" lon="11.48470819251277"><ele>241.40000000000003</ele><time>2026-03-29T09:34:25Z</time></trkpt><trkpt lat="45.479269629132475" lon="11.484650450133891"><ele>241.20000000000002</ele><time>2026-03-29T09:34:27Z</time></trkpt><trkpt lat="45.47935614195986" lon="11.484537011775934"><ele>241.0</ele><time>2026-03-29T09:34:29Z</time></trkpt><trkpt lat="45.47942566416938" lon="11.484381886908379"><ele>240.99999999999997</ele><time>2026-03-29T09:34:31Z</time></trkpt><trkpt lat="45.4794633598915" lon="11.484306021327297"><ele>241.0</ele><time>2026-03-29T09:34:32Z</time></trkpt><trkpt lat="45.47951428368451" lon="11.48422727998682"><ele>241.0</ele><time>2026-03-29T09:34:33Z</time></trkpt><trkpt lat="45.47957256365965" lon="11.484177809552142"><ele>241.0</ele><time>2026-03-29T09:34:34Z</time></trkpt><trkpt lat="45.47968530345948" lon="11.484119761112051"><ele>240.99999999999997</ele><time>2026-03-29T09:34:36Z</time></trkpt><trkpt lat="45.479785917503825" lon="11.48408662314698"><ele>241.0</ele><time>2026-03-29T09:34:38Z</time></trkpt><trkpt lat="45.479896204813" lon="11.484067883710733"><ele>239.33333333333331</ele><time>2026-03-29T09:34:40Z</time></trkpt><trkpt lat="45.47995953973107" lon="11.484060599070595"><ele>237.66666666666666</ele><time>2026-03-29T09:34:41Z</time></trkpt><trkpt lat="45.48002346448353" lon="11.484060765756563"><ele>236.0</ele><time>2026-03-29T09:34:42Z</time></trkpt><trkpt lat="45.480133795598114" lon="11.484101328385245"><ele>234.33333333333331</ele><time>2026-03-29T09:34:44Z</time></trkpt><trkpt lat="45.48020016502463" lon="11.484155857448929"><ele>232.66666666666666</ele><time>2026-03-29T09:34:45Z</time></trkpt><trkpt lat="45.4802562737064" lon="11.484239010819199"><ele>231.0</ele><time>2026-03-29T09:34:46Z</time></trkpt><trkpt lat="45.48033641311164" lon="11.484323229958823"><ele>231.0</ele><time>2026-03-29T09:34:47Z</time></trkpt><trkpt lat="45.480428795258156" lon="11.484427940124338"><ele>231.00000000000003</ele><time>2026-03-29T09:34:48Z</time></trkpt><trkpt lat="45.48052160932208" lon="11.484513868167713"><ele>231.00000000000003</ele><time>2026-03-29T09:34:49Z</time></trkpt><trkpt lat="45.480590393196046" lon="11.484608783148396"><ele>231.0</ele><time>2026-03-29T09:34:50Z</time></trkpt><trkpt lat="45.48066533817493" lon="11.484676148721505"><ele>231.0</ele><time>2026-03-29T09:34:51Z</time></trkpt><trkpt lat="45.48073363181241" lon="11.484732014061667"><ele>231.0</ele><time>2026-03-29T09:34:52Z</time></trkpt><trkpt lat="45.480797644198496" lon="11.484774544428031"><ele>231.00000000000003</ele><time>2026-03-29T09:34:53Z</time></trkpt><trkpt lat="45.4809111324119" lon="11.48480054611207"><ele>231.00000000000003</ele><time>2026-03-29T09:34:55Z</time></trkpt><trkpt lat="45.481019039932676" lon="11.484824313584499"><ele>231.0</ele><time>2026-03-29T09:34:56.999Z</time></trkpt><trkpt lat="45.48110805641317" lon="11.484965978594174"><ele>231.0</ele><time>2026-03-29T09:34:58.999Z</time></trkpt><trkpt lat="45.481208077996676" lon="11.485084026685893"><ele>229.16666666666666</ele><time>2026-03-29T09:35:00.999Z</time></trkpt><trkpt lat="45.48134626262942" lon="11.485173974528761"><ele>227.33333333333331</ele><time>2026-03-29T09:35:02.999Z</time></trkpt><trkpt lat="45.481411776321984" lon="11.485208767418115"><ele>225.5</ele><time>2026-03-29T09:35:03.999Z</time></trkpt><trkpt lat="45.48147546086854" lon="11.485229778479384"><ele>223.66666666666666</ele><time>2026-03-29T09:35:04.999Z</time></trkpt><trkpt lat="45.48155806765594" lon="11.485245968297294"><ele>221.83333333333331</ele><time>2026-03-29T09:35:05.999Z</time></trkpt><trkpt lat="45.48162636009396" lon="11.485254093728782"><ele>220.0</ele><time>2026-03-29T09:35:06.999Z</time></trkpt><trkpt lat="45.48169532570407" lon="11.485259744796881"><ele>219.99999999999997</ele><time>2026-03-29T09:35:07.999Z</time></trkpt><trkpt lat="45.481759686219604" lon="11.48524834028898"><ele>220.0</ele><time>2026-03-29T09:35:08.999Z</time></trkpt><trkpt lat="45.48184620519389" lon="11.485251712072316"><ele>220.0</ele><time>2026-03-29T09:35:09.999Z</time></trkpt><trkpt lat="45.481936292833495" lon="11.485237064674017"><ele>220.0</ele><time>2026-03-29T09:35:10.999Z</time></trkpt><trkpt lat="45.48203431011531" lon="11.485253442635196"><ele>219.99999999999997</ele><time>2026-03-29T09:35:11.999Z</time></trkpt><trkpt lat="45.48210893359666" lon="11.48527631886042"><ele>220.0</ele><time>2026-03-29T09:35:12.999Z</time></trkpt><trkpt lat="45.48219160082872" lon="11.485272812614053"><ele>217.99999999999997</ele><time>2026-03-29T09:35:13.999Z</time></trkpt><trkpt lat="45.48227502870971" lon="11.485279102159659"><ele>216.0</ele><time>2026-03-29T09:35:14.999Z</time></trkpt><trkpt lat="45.4823531474991" lon="11.485268109994204"><ele>214.0</ele><time>2026-03-29T09:35:15.999Z</time></trkpt><trkpt lat="45.48242661585957" lon="11.48528664801508"><ele>212.0</ele><time>2026-03-29T09:35:16.999Z</time></trkpt><trkpt lat="45.48249249102684" lon="11.4853257067889"><ele>209.99999999999997</ele><time>2026-03-29T09:35:17.999Z</time></trkpt><trkpt lat="45.48255450726721" lon="11.485345416797074"><ele>208.0</ele><time>2026-03-29T09:35:18.999Z</time></trkpt><trkpt lat="45.48264669206902" lon="11.48535106294882"><ele>207.99999999999997</ele><time>2026-03-29T09:35:20.999Z</time></trkpt><trkpt lat="45.48273135374288" lon="11.485393855579527"><ele>208.0</ele><time>2026-03-29T09:35:22.999Z</time></trkpt><trkpt lat="45.482829459041945" lon="11.485385587310995"><ele>208.0</ele><time>2026-03-29T09:35:24.999Z</time></trkpt><trkpt lat="45.482910579974" lon="11.485396823559636"><ele>208.0</ele><time>2026-03-29T09:35:26.999Z</time></trkpt><trkpt lat="45.4829727066073" lon="11.48536509381127"><ele>207.99999999999997</ele><time>2026-03-29T09:35:28.999Z</time></trkpt><trkpt lat="45.48303581876843" lon="11.48528393769218"><ele>208.0</ele><time>2026-03-29T09:35:31.999Z</time></trkpt><trkpt lat="45.48306511508131" lon="11.485146277847551"><ele>202.4</ele><time>2026-03-29T09:35:33.999Z</time></trkpt><trkpt lat="45.48310201864485" lon="11.48501137196188"><ele>196.8</ele><time>2026-03-29T09:35:35.998Z</time></trkpt><trkpt lat="45.483160965112035" lon="11.484838902369244"><ele>191.2</ele><time>2026-03-29T09:35:37.998Z</time></trkpt><trkpt lat="45.48319053947553" lon="11.484754479517674"><ele>185.6</ele><time>2026-03-29T09:35:38.998Z</time></trkpt><trkpt lat="45.483245544161456" lon="11.484625730153146"><ele>180.0</ele><time>2026-03-29T09:35:40.998Z</time></trkpt><trkpt lat="45.4832929750969" lon="11.484521554307836"><ele>180.0</ele><time>2026-03-29T09:35:42.998Z</time></trkpt><trkpt lat="45.48336006503799" lon="11.484434839955806"><ele>180.0</ele><time>2026-03-29T09:35:44.998Z</time></trkpt><trkpt lat="45.483416281271396" lon="11.484327469856643"><ele>180.0</ele><time>2026-03-29T09:35:46.998Z</time></trkpt><trkpt lat="45.48340260019678" lon="11.484227597494083"><ele>180.0</ele><time>2026-03-29T09:35:47.998Z</time></trkpt><trkpt lat="45.483406249910324" lon="11.484110684136777"><ele>180.0</ele><time>2026-03-29T09:35:48.998Z</time></trkpt><trkpt lat="45.48340729532458" lon="11.48400155375725"><ele>180.0</ele><time>2026-03-29T09:35:49.998Z</time></trkpt><trkpt lat="45.483408127714185" lon="11.483852293042109"><ele>179.83333333333334</ele><time>2026-03-29T09:35:50.998Z</time></trkpt><trkpt lat="45.48340942188179" lon="11.483725981603602"><ele>179.66666666666666</ele><time>2026-03-29T09:35:51.998Z</time></trkpt><trkpt lat="45.48341778180169" lon="11.483601183012224"><ele>179.5</ele><time>2026-03-29T09:35:52.998Z</time></trkpt><trkpt lat="45.483440521701525" lon="11.483485091138151"><ele>179.33333333333331</ele><time>2026-03-29T09:35:53.998Z</time></trkpt><trkpt lat="45.48346159913194" lon="11.483362442563697"><ele>179.16666666666666</ele><time>2026-03-29T09:35:54.998Z</time></trkpt><trkpt lat="45.48348071337274" lon="11.483262584058538"><ele>179.0</ele><time>2026-03-29T09:35:55.998Z</time></trkpt><trkpt lat="45.483508601733625" lon="11.483169463718987"><ele>179.0</ele><time>2026-03-29T09:35:56.998Z</time></trkpt><trkpt lat="45.48353901738621" lon="11.48308171459947"><ele>179.0</ele><time>2026-03-29T09:35:57.998Z</time></trkpt><trkpt lat="45.4835984787605" lon="11.482939685789077"><ele>179.0</ele><time>2026-03-29T09:35:59.998Z</time></trkpt><trkpt lat="45.48365936991433" lon="11.482807582955706"><ele>179.0</ele><time>2026-03-29T09:36:01.998Z</time></trkpt><trkpt lat="45.48373514666031" lon="11.482663244477388"><ele>179.0</ele><time>2026-03-29T09:36:03.998Z</time></trkpt><trkpt lat="45.483773165894405" lon="11.482584238434235"><ele>176.39999999999998</ele><time>2026-03-29T09:36:04.998Z</time></trkpt><trkpt lat="45.483810542953144" lon="11.482506566878012"><ele>173.8</ele><time>2026-03-29T09:36:05.998Z</time></trkpt><trkpt lat="45.48384806205453" lon="11.482430833058578"><ele>171.2</ele><time>2026-03-29T09:36:06.998Z</time></trkpt><trkpt lat="45.48391774300949" lon="11.482291488497015"><ele>168.60000000000002</ele><time>2026-03-29T09:36:08.998Z</time></trkpt><trkpt lat="45.483985488386324" lon="11.482158898825272"><ele>166.0</ele><time>2026-03-29T09:36:10.998Z</time></trkpt><trkpt lat="45.48404187374223" lon="11.482033221838869"><ele>166.0</ele><time>2026-03-29T09:36:12.998Z</time></trkpt><trkpt lat="45.484098192089874" lon="11.48190334197393"><ele>166.0</ele><time>2026-03-29T09:36:14.997Z</time></trkpt><trkpt lat="45.484175103805114" lon="11.481811135889922"><ele>166.0</ele><time>2026-03-29T09:36:16.997Z</time></trkpt><trkpt lat="45.484274737974424" lon="11.481704285904964"><ele>166.0</ele><time>2026-03-29T09:36:18.997Z</time></trkpt><trkpt lat="45.48432892051166" lon="11.481645718215235"><ele>166.0</ele><time>2026-03-29T09:36:19.997Z</time></trkpt><trkpt lat="45.484396128580265" lon="11.481576258624878"><ele>166.0</ele><time>2026-03-29T09:36:20.997Z</time></trkpt><trkpt lat="45.48445990363405" lon="11.481516032241949"><ele>166.0</ele><time>2026-03-29T09:36:21.997Z</time></trkpt><trkpt lat="45.48452034380136" lon="11.481457102327372"><ele>166.0</ele><time>2026-03-29T09:36:22.997Z</time></trkpt><trkpt lat="45.48459160500644" lon="11.4814289742142"><ele>166.0</ele><time>2026-03-29T09:36:23.997Z</time></trkpt><trkpt lat="45.48465060696555" lon="11.481393913074497"><ele>166.0</ele><time>2026-03-29T09:36:24.997Z</time></trkpt><trkpt lat="45.48472541150888" lon="11.481366651836492"><ele>166.0</ele><time>2026-03-29T09:36:25.997Z</time></trkpt><trkpt lat="45.48479282407015" lon="11.481332049100498"><ele>166.0</ele><time>2026-03-29T09:36:26.997Z</time></trkpt><trkpt lat="45.48486146771435" lon="11.481297351151056"><ele>166.42857142857142</ele><time>2026-03-29T09:36:27.997Z</time></trkpt><trkpt lat="45.484931281927466" lon="11.481272273246637"><ele>166.85714285714286</ele><time>2026-03-29T09:36:28.997Z</time></trkpt><trkpt lat="45.48499232247112" lon="11.481232851423322"><ele>167.28571428571428</ele><time>2026-03-29T09:36:30Z</time></trkpt><trkpt lat="45.48506330253071" lon="11.481205646475017"><ele>167.71428571428572</ele><time>2026-03-29T09:36:31Z</time></trkpt><trkpt lat="45.48513170814018" lon="11.481184155770677"><ele>168.14285714285714</ele><time>2026-03-29T09:36:32Z</time></trkpt><trkpt lat="45.485200214337155" lon="11.481164001109867"><ele>168.57142857142858</ele><time>2026-03-29T09:36:33Z</time></trkpt><trkpt lat="45.48526483461723" lon="11.481137505682529"><ele>169.0</ele><time>2026-03-29T09:36:34Z</time></trkpt><trkpt lat="45.48535359923057" lon="11.481115169329378"><ele>169.0</ele><time>2026-03-29T09:36:36Z</time></trkpt><trkpt lat="45.48541361458007" lon="11.48119051720021"><ele>169.0</ele><time>2026-03-29T09:36:39Z</time></trkpt><trkpt lat="45.48549207924336" lon="11.481324586901419"><ele>169.0</ele><time>2026-03-29T09:36:41Z</time></trkpt><trkpt lat="45.48557008694359" lon="11.481370299241444"><ele>169.0</ele><time>2026-03-29T09:36:42Z</time></trkpt><trkpt lat="45.48565984151852" lon="11.481376030023787"><ele>169.0</ele><time>2026-03-29T09:36:43Z</time></trkpt><trkpt lat="45.48574009076435" lon="11.481407243504727"><ele>164.39999999999998</ele><time>2026-03-29T09:36:44Z</time></trkpt><trkpt lat="45.48583153229662" lon="11.481454725821601"><ele>159.79999999999998</ele><time>2026-03-29T09:36:45Z</time></trkpt><trkpt lat="45.48591431191826" lon="11.481501987446292"><ele>155.2</ele><time>2026-03-29T09:36:46Z</time></trkpt><trkpt lat="45.485996502667305" lon="11.481576554545843"><ele>150.6</ele><time>2026-03-29T09:36:47Z</time></trkpt><trkpt lat="45.48607000251814" lon="11.481666572241739"><ele>146.0</ele><time>2026-03-29T09:36:48Z</time></trkpt><trkpt lat="45.48615758859102" lon="11.48172619048086"><ele>146.0</ele><time>2026-03-29T09:36:49Z</time></trkpt><trkpt lat="45.486249864466366" lon="11.481778101439705"><ele>146.0</ele><time>2026-03-29T09:36:50Z</time></trkpt><trkpt lat="45.48634973879345" lon="11.481812139855425"><ele>146.0</ele><time>2026-03-29T09:36:51Z</time></trkpt><trkpt lat="45.48644082995881" lon="11.481836746732004"><ele>146.0</ele><time>2026-03-29T09:36:52Z</time></trkpt><trkpt lat="45.48650849768884" lon="11.481919328372776"><ele>146.0</ele><time>2026-03-29T09:36:53Z</time></trkpt><trkpt lat="45.486559630556435" lon="11.482001229291036"><ele>145.5</ele><time>2026-03-29T09:36:54Z</time></trkpt><trkpt lat="45.48660570788481" lon="11.482093863019264"><ele>145.0</ele><time>2026-03-29T09:36:55Z</time></trkpt><trkpt lat="45.48664543557804" lon="11.482186253939808"><ele>144.5</ele><time>2026-03-29T09:36:56Z</time></trkpt><trkpt lat="45.48668273390018" lon="11.48227699424025"><ele>144.0</ele><time>2026-03-29T09:36:57Z</time></trkpt><trkpt lat="45.48671924072894" lon="11.482363499076367"><ele>143.5</ele><time>2026-03-29T09:36:58Z</time></trkpt><trkpt lat="45.4867558189311" lon="11.48243974401086"><ele>143.0</ele><time>2026-03-29T09:36:59Z</time></trkpt><trkpt lat="45.48683160883854" lon="11.48255127460076"><ele>143.0</ele><time>2026-03-29T09:37:01Z</time></trkpt><trkpt lat="45.48689844351573" lon="11.482640629776464"><ele>143.0</ele><time>2026-03-29T09:37:02.999Z</time></trkpt><trkpt lat="45.486965047077796" lon="11.482689307058418"><ele>143.0</ele><time>2026-03-29T09:37:05.999Z</time></trkpt><trkpt lat="45.48702673021412" lon="11.482736459020359"><ele>143.0</ele><time>2026-03-29T09:37:12.999Z</time></trkpt><trkpt lat="45.48712401399915" lon="11.482707933915993"><ele>143.0</ele><time>2026-03-29T09:37:14.999Z</time></trkpt><trkpt lat="45.48722100321829" lon="11.482644000364331"><ele>143.0</ele><time>2026-03-29T09:37:16.999Z</time></trkpt><trkpt lat="45.48728089328007" lon="11.482605336835519"><ele>144.0</ele><time>2026-03-29T09:37:17.999Z</time></trkpt><trkpt lat="45.48734882916684" lon="11.482571865972185"><ele>145.0</ele><time>2026-03-29T09:37:18.999Z</time></trkpt><trkpt lat="45.48741447657926" lon="11.482547772546166"><ele>146.0</ele><time>2026-03-29T09:37:19.999Z</time></trkpt><trkpt lat="45.487485336462726" lon="11.482526819728148"><ele>147.0</ele><time>2026-03-29T09:37:20.999Z</time></trkpt><trkpt lat="45.48755092208416" lon="11.482495366649056"><ele>148.0</ele><time>2026-03-29T09:37:21.999Z</time></trkpt><trkpt lat="45.487616710591396" lon="11.48247911059464"><ele>149.0</ele><time>2026-03-29T09:37:22.999Z</time></trkpt><trkpt lat="45.487720806749245" lon="11.48244099085852"><ele>149.0</ele><time>2026-03-29T09:37:24.999Z</time></trkpt><trkpt lat="45.48782864144234" lon="11.48244270587771"><ele>149.0</ele><time>2026-03-29T09:37:26.999Z</time></trkpt><trkpt lat="45.48790829921111" lon="11.482511117477696"><ele>149.0</ele><time>2026-03-29T09:37:28.999Z</time></trkpt><trkpt lat="45.48791769870533" lon="11.482670087631096"><ele>149.0</ele><time>2026-03-29T09:37:30.999Z</time></trkpt><trkpt lat="45.48787238284427" lon="11.482818559470475"><ele>149.0</ele><time>2026-03-29T09:37:32.999Z</time></trkpt><trkpt lat="45.48784048950255" lon="11.482976412769295"><ele>145.8</ele><time>2026-03-29T09:37:34.999Z</time></trkpt><trkpt lat="45.487795984969715" lon="11.483140466589342"><ele>142.60000000000002</ele><time>2026-03-29T09:37:36.999Z</time></trkpt><trkpt lat="45.48777673767233" lon="11.483237096580885"><ele>139.4</ele><time>2026-03-29T09:37:37.999Z</time></trkpt><trkpt lat="45.48776133503379" lon="11.483331697535728"><ele>136.20000000000002</ele><time>2026-03-29T09:37:38.998Z</time></trkpt><trkpt lat="45.48775519169157" lon="11.48344451368552"><ele>133.0</ele><time>2026-03-29T09:37:39.998Z</time></trkpt><trkpt lat="45.487749562618276" lon="11.483660940214602"><ele>130.66666666666669</ele><time>2026-03-29T09:37:41.998Z</time></trkpt><trkpt lat="45.48775251040744" lon="11.483780154689159"><ele>128.33333333333334</ele><time>2026-03-29T09:37:42.998Z</time></trkpt><trkpt lat="45.48776270873734" lon="11.483888411291899"><ele>126.0</ele><time>2026-03-29T09:37:43.998Z</time></trkpt><trkpt lat="45.487778991284905" lon="11.483990604181631"><ele>123.66666666666666</ele><time>2026-03-29T09:37:44.998Z</time></trkpt><trkpt lat="45.487800034995615" lon="11.48409012007411"><ele>121.33333333333333</ele><time>2026-03-29T09:37:45.998Z</time></trkpt><trkpt lat="45.48782743979036" lon="11.484194221183854"><ele>119.0</ele><time>2026-03-29T09:37:46.998Z</time></trkpt><trkpt lat="45.48785975383536" lon="11.484294335973672"><ele>118.99999999999999</ele><time>2026-03-29T09:37:47.998Z</time></trkpt><trkpt lat="45.487896494598424" lon="11.484390892702509"><ele>119.0</ele><time>2026-03-29T09:37:48.998Z</time></trkpt><trkpt lat="45.487939488170014" lon="11.484488001099638"><ele>119.0</ele><time>2026-03-29T09:37:49.998Z</time></trkpt><trkpt lat="45.487978737385575" lon="11.484568089692532"><ele>119.0</ele><time>2026-03-29T09:37:50.998Z</time></trkpt><trkpt lat="45.48802320979483" lon="11.484646652958068"><ele>118.99999999999999</ele><time>2026-03-29T09:37:51.998Z</time></trkpt><trkpt lat="45.48807939995193" lon="11.48473089343668"><ele>119.0</ele><time>2026-03-29T09:37:52.998Z</time></trkpt><trkpt lat="45.48813537695114" lon="11.484803855670682"><ele>119.57142857142857</ele><time>2026-03-29T09:37:53.998Z</time></trkpt><trkpt lat="45.48820801646064" lon="11.484862688011633"><ele>120.14285714285714</ele><time>2026-03-29T09:37:54.998Z</time></trkpt><trkpt lat="45.488257822611" lon="11.48493146175158"><ele>120.71428571428572</ele><time>2026-03-29T09:37:55.998Z</time></trkpt><trkpt lat="45.4883158918735" lon="11.484996798845762"><ele>121.28571428571429</ele><time>2026-03-29T09:37:56.998Z</time></trkpt><trkpt lat="45.48837387475714" lon="11.485057736633605"><ele>121.85714285714286</ele><time>2026-03-29T09:37:57.998Z</time></trkpt><trkpt lat="45.48843366232594" lon="11.485117515147854"><ele>122.42857142857144</ele><time>2026-03-29T09:37:58.998Z</time></trkpt><trkpt lat="45.488499406901205" lon="11.485173877234608"><ele>123.00000000000001</ele><time>2026-03-29T09:37:59.998Z</time></trkpt><trkpt lat="45.48857239798085" lon="11.485236524034349"><ele>123.0</ele><time>2026-03-29T09:38:00.998Z</time></trkpt><trkpt lat="45.48863322373654" lon="11.485317826420207"><ele>123.0</ele><time>2026-03-29T09:38:01.998Z</time></trkpt><trkpt lat="45.48870617231023" lon="11.48538280334163"><ele>123.0</ele><time>2026-03-29T09:38:02.998Z</time></trkpt><trkpt lat="45.488786562658895" lon="11.485444428664133"><ele>123.0</ele><time>2026-03-29T09:38:03.998Z</time></trkpt><trkpt lat="45.488867335534245" lon="11.485479935188785"><ele>123.0</ele><time>2026-03-29T09:38:04.998Z</time></trkpt><trkpt lat="45.488953674221804" lon="11.485522832138212"><ele>123.0</ele><time>2026-03-29T09:38:05.998Z</time></trkpt><trkpt lat="45.489036109347865" lon="11.485580665470906"><ele>120.0</ele><time>2026-03-29T09:38:06.998Z</time></trkpt><trkpt lat="45.4891199032591" lon="11.485616200611439"><ele>117.0</ele><time>2026-03-29T09:38:07.998Z</time></trkpt><trkpt lat="45.489197779930606" lon="11.485661910927591"><ele>114.0</ele><time>2026-03-29T09:38:08.998Z</time></trkpt><trkpt lat="45.489275067813935" lon="11.485704899729189"><ele>111.0</ele><time>2026-03-29T09:38:09.998Z</time></trkpt><trkpt lat="45.48935028682914" lon="11.485750739076803"><ele>108.0</ele><time>2026-03-29T09:38:10.998Z</time></trkpt><trkpt lat="45.48942364579282" lon="11.48579991980417"><ele>105.0</ele><time>2026-03-29T09:38:11.998Z</time></trkpt><trkpt lat="45.48951439888554" lon="11.485854120247652"><ele>108.2</ele><time>2026-03-29T09:38:12.998Z</time></trkpt><trkpt lat="45.48960714432022" lon="11.4858910986482"><ele>111.4</ele><time>2026-03-29T09:38:13.998Z</time></trkpt><trkpt lat="45.48970206170846" lon="11.485941788301965"><ele>114.6</ele><time>2026-03-29T09:38:14.998Z</time></trkpt><trkpt lat="45.489798510843684" lon="11.485993856873634"><ele>117.8</ele><time>2026-03-29T09:38:15.998Z</time></trkpt><trkpt lat="45.48989715210333" lon="11.486056471750585"><ele>121.0</ele><time>2026-03-29T09:38:16.997Z</time></trkpt><trkpt lat="45.48999816286221" lon="11.486110242170804"><ele>121.0</ele><time>2026-03-29T09:38:17.997Z</time></trkpt><trkpt lat="45.49009275046474" lon="11.486156391315955"><ele>121.0</ele><time>2026-03-29T09:38:18.997Z</time></trkpt><trkpt lat="45.490191699334204" lon="11.486196905213633"><ele>121.0</ele><time>2026-03-29T09:38:19.997Z</time></trkpt><trkpt lat="45.49027934460724" lon="11.486268354246851"><ele>121.0</ele><time>2026-03-29T09:38:20.997Z</time></trkpt><trkpt lat="45.490365438996186" lon="11.486301410476475"><ele>121.0</ele><time>2026-03-29T09:38:21.997Z</time></trkpt><trkpt lat="45.49043149628816" lon="11.486358933272356"><ele>116.83333333333334</ele><time>2026-03-29T09:38:22.997Z</time></trkpt><trkpt lat="45.49049309369293" lon="11.486417535972484"><ele>112.66666666666667</ele><time>2026-03-29T09:38:23.997Z</time></trkpt><trkpt lat="45.490556786547714" lon="11.4864813242549"><ele>108.5</ele><time>2026-03-29T09:38:24.997Z</time></trkpt><trkpt lat="45.4906277222352" lon="11.486531314758661"><ele>104.33333333333334</ele><time>2026-03-29T09:38:25.997Z</time></trkpt><trkpt lat="45.490681551663194" lon="11.486585652801779"><ele>100.16666666666667</ele><time>2026-03-29T09:38:26.997Z</time></trkpt><trkpt lat="45.49074184973258" lon="11.486646565706012"><ele>96.0</ele><time>2026-03-29T09:38:27.997Z</time></trkpt><trkpt lat="45.490815285974634" lon="11.486700154978287"><ele>96.0</ele><time>2026-03-29T09:38:28.997Z</time></trkpt><trkpt lat="45.49088728887996" lon="11.486767882115972"><ele>96.0</ele><time>2026-03-29T09:38:29.997Z</time></trkpt><trkpt lat="45.4909739945085" lon="11.486838278741919"><ele>96.0</ele><time>2026-03-29T09:38:30.997Z</time></trkpt><trkpt lat="45.49104865657481" lon="11.48689391008399"><ele>96.0</ele><time>2026-03-29T09:38:31.997Z</time></trkpt><trkpt lat="45.49115028579723" lon="11.486918259315521"><ele>96.0</ele><time>2026-03-29T09:38:32.997Z</time></trkpt><trkpt lat="45.49123858128551" lon="11.486981924677872"><ele>93.19999999999999</ele><time>2026-03-29T09:38:33.997Z</time></trkpt><trkpt lat="45.49131556340642" lon="11.487029610069392"><ele>90.39999999999999</ele><time>2026-03-29T09:38:34.997Z</time></trkpt><trkpt lat="45.49140547575715" lon="11.487089737010125"><ele>87.6</ele><time>2026-03-29T09:38:36Z</time></trkpt><trkpt lat="45.491500689199" lon="11.487150145031052"><ele>84.8</ele><time>2026-03-29T09:38:37Z</time></trkpt><trkpt lat="45.49158322227296" lon="11.487224033255776"><ele>82.0</ele><time>2026-03-29T09:38:38Z</time></trkpt><trkpt lat="45.491667761866964" lon="11.487309146249714"><ele>82.0</ele><time>2026-03-29T09:38:39Z</time></trkpt><trkpt lat="45.491752879682366" lon="11.487385444989854"><ele>82.0</ele><time>2026-03-29T09:38:40Z</time></trkpt><trkpt lat="45.491827883528664" lon="11.487455011638236"><ele>82.0</ele><time>2026-03-29T09:38:41Z</time></trkpt><trkpt lat="45.49189906455863" lon="11.48754523240439"><ele>82.0</ele><time>2026-03-29T09:38:42Z</time></trkpt><trkpt lat="45.49197279459405" lon="11.487640196566984"><ele>82.0</ele><time>2026-03-29T09:38:43Z</time></trkpt><trkpt lat="45.492047849361974" lon="11.487735524165817"><ele>81.0</ele><time>2026-03-29T09:38:44Z</time></trkpt><trkpt lat="45.492105711145015" lon="11.4878449236784"><ele>80.0</ele><time>2026-03-29T09:38:45Z</time></trkpt><trkpt lat="45.49217582021432" lon="11.487945663628675"><ele>79.0</ele><time>2026-03-29T09:38:46Z</time></trkpt><trkpt lat="45.49225271434973" lon="11.488056153201448"><ele>78.0</ele><time>2026-03-29T09:38:47Z</time></trkpt><trkpt lat="45.49233043162445" lon="11.48814189674956"><ele>77.0</ele><time>2026-03-29T09:38:48Z</time></trkpt><trkpt lat="45.49239851798884" lon="11.488248118388887"><ele>77.0</ele><time>2026-03-29T09:38:49Z</time></trkpt><trkpt lat="45.49246089952925" lon="11.488361385273192"><ele>77.0</ele><time>2026-03-29T09:38:50Z</time></trkpt><trkpt lat="45.49251668591403" lon="11.488463642011462"><ele>77.0</ele><time>2026-03-29T09:38:51Z</time></trkpt><trkpt lat="45.49257624528457" lon="11.488582035250163"><ele>77.0</ele><time>2026-03-29T09:38:52Z</time></trkpt><trkpt lat="45.49261603431319" lon="11.488683632963506"><ele>77.0</ele><time>2026-03-29T09:38:53Z</time></trkpt><trkpt lat="45.49266307733614" lon="11.488793630476984"><ele>71.4</ele><time>2026-03-29T09:38:54Z</time></trkpt><trkpt lat="45.492711563158835" lon="11.488907082379237"><ele>65.80000000000001</ele><time>2026-03-29T09:38:55Z</time></trkpt><trkpt lat="45.49276101324604" lon="11.489022790666914"><ele>60.2</ele><time>2026-03-29T09:38:56Z</time></trkpt><trkpt lat="45.4928048876931" lon="11.4891247081329"><ele>54.6</ele><time>2026-03-29T09:38:57Z</time></trkpt><trkpt lat="45.492855423729736" lon="11.489235473483578"><ele>49.0</ele><time>2026-03-29T09:38:58Z</time></trkpt><trkpt lat="45.492908707172234" lon="11.489348649072818"><ele>51.166666666666664</ele><time>2026-03-29T09:38:59Z</time></trkpt><trkpt lat="45.49296395499822" lon="11.489464343170479"><ele>53.33333333333333</ele><time>2026-03-29T09:39:00Z</time></trkpt><trkpt lat="45.49301569296369" lon="11.48956730481818"><ele>55.5</ele><time>2026-03-29T09:39:01Z</time></trkpt><trkpt lat="45.49306558016759" lon="11.489666026027571"><ele>57.66666666666667</ele><time>2026-03-29T09:39:02Z</time></trkpt><trkpt lat="45.49310015794077" lon="11.489759559134612"><ele>59.833333333333336</ele><time>2026-03-29T09:39:03Z</time></trkpt><trkpt lat="45.493124501730875" lon="11.489864606182854"><ele>62.0</ele><time>2026-03-29T09:39:04Z</time></trkpt><trkpt lat="45.49313265140191" lon="11.489983605131739"><ele>62.00000000000001</ele><time>2026-03-29T09:39:05Z</time></trkpt><trkpt lat="45.493163602744175" lon="11.490101393649844"><ele>62.0</ele><time>2026-03-29T09:39:06Z</time></trkpt><trkpt lat="45.49317584243501" lon="11.490207754846908"><ele>62.0</ele><time>2026-03-29T09:39:06.999Z</time></trkpt><trkpt lat="45.4931924290908" lon="11.49030924107494"><ele>62.0</ele><time>2026-03-29T09:39:07.999Z</time></trkpt><trkpt lat="45.49321056290926" lon="11.490426556197677"><ele>62.00000000000001</ele><time>2026-03-29T09:39:08.999Z</time></trkpt><trkpt lat="45.49323742437213" lon="11.49053516969387"><ele>62.0</ele><time>2026-03-29T09:39:09.999Z</time></trkpt><trkpt lat="45.49327365012471" lon="11.490649057470309"><ele>58.8</ele><time>2026-03-29T09:39:10.999Z</time></trkpt><trkpt lat="45.493305984622886" lon="11.490780823795008"><ele>55.6</ele><time>2026-03-29T09:39:11.999Z</time></trkpt><trkpt lat="45.49335234330352" lon="11.490895886834663"><ele>52.4</ele><time>2026-03-29T09:39:12.999Z</time></trkpt><trkpt lat="45.49341799552491" lon="11.491000417723535"><ele>49.199999999999996</ele><time>2026-03-29T09:39:13.999Z</time></trkpt><trkpt lat="45.49345809266459" lon="11.49112687325058"><ele>46.0</ele><time>2026-03-29T09:39:14.999Z</time></trkpt><trkpt lat="45.49352213486328" lon="11.491234878236758"><ele>47.599999999999994</ele><time>2026-03-29T09:39:15.999Z</time></trkpt><trkpt lat="45.49359774849846" lon="11.4913241609518"><ele>49.2</ele><time>2026-03-29T09:39:16.999Z</time></trkpt><trkpt lat="45.49365732360535" lon="11.491424529029898"><ele>50.800000000000004</ele><time>2026-03-29T09:39:17.999Z</time></trkpt><trkpt lat="45.49371611110121" lon="11.491519339126183"><ele>52.400000000000006</ele><time>2026-03-29T09:39:18.999Z</time></trkpt><trkpt lat="45.49378234516506" lon="11.49159972357458"><ele>54.0</ele><time>2026-03-29T09:39:19.999Z</time></trkpt><trkpt lat="45.493857376955425" lon="11.491681293377189"><ele>54.0</ele><time>2026-03-29T09:39:20.999Z</time></trkpt><trkpt lat="45.493914518382915" lon="11.491770346322358"><ele>54.0</ele><time>2026-03-29T09:39:21.999Z</time></trkpt><trkpt lat="45.49400082542345" lon="11.491808383399439"><ele>54.0</ele><time>2026-03-29T09:39:22.999Z</time></trkpt><trkpt lat="45.49407153176188" lon="11.49187103023154"><ele>54.0</ele><time>2026-03-29T09:39:23.999Z</time></trkpt><trkpt lat="45.494141623597194" lon="11.491932835190628"><ele>54.0</ele><time>2026-03-29T09:39:24.999Z</time></trkpt><trkpt lat="45.494191493661056" lon="11.492023730620712"><ele>54.0</ele><time>2026-03-29T09:39:25.999Z</time></trkpt><trkpt lat="45.494250792961566" lon="11.492055249703592"><ele>54.0</ele><time>2026-03-29T09:39:26.999Z</time></trkpt><trkpt lat="45.49431556388109" lon="11.49207573552093"><ele>54.0</ele><time>2026-03-29T09:39:27.999Z</time></trkpt><trkpt lat="45.49437768534964" lon="11.492102550976481"><ele>54.0</ele><time>2026-03-29T09:39:28.999Z</time></trkpt><trkpt lat="45.494442736574285" lon="11.49214003136139"><ele>54.0</ele><time>2026-03-29T09:39:29.999Z</time></trkpt><trkpt lat="45.49451381898183" lon="11.492180404785426"><ele>54.0</ele><time>2026-03-29T09:39:30.999Z</time></trkpt><trkpt lat="45.49458045253758" lon="11.49222119176203"><ele>54.0</ele><time>2026-03-29T09:39:31.999Z</time></trkpt><trkpt lat="45.49464859039558" lon="11.492264421618195"><ele>54.0</ele><time>2026-03-29T09:39:32.999Z</time></trkpt><trkpt lat="45.49471707134955" lon="11.492306042923998"><ele>52.5</ele><time>2026-03-29T09:39:33.999Z</time></trkpt><trkpt lat="45.49478492003955" lon="11.492366412594293"><ele>51.0</ele><time>2026-03-29T09:39:34.999Z</time></trkpt><trkpt lat="45.49484987683995" lon="11.492445781190682"><ele>49.5</ele><time>2026-03-29T09:39:35.999Z</time></trkpt><trkpt lat="45.49490857184286" lon="11.492531694847836"><ele>48.0</ele><time>2026-03-29T09:39:36.999Z</time></trkpt><trkpt lat="45.494962235581106" lon="11.492602800258815"><ele>46.5</ele><time>2026-03-29T09:39:37.999Z</time></trkpt><trkpt lat="45.49501777221132" lon="11.492674899162926"><ele>45.0</ele><time>2026-03-29T09:39:38.999Z</time></trkpt><trkpt lat="45.495067954005464" lon="11.492742097378308"><ele>45.0</ele><time>2026-03-29T09:39:39.999Z</time></trkpt><trkpt lat="45.495117690641024" lon="11.492808772803834"><ele>45.0</ele><time>2026-03-29T09:39:40.999Z</time></trkpt><trkpt lat="45.495166496193626" lon="11.492868636744866"><ele>45.0</ele><time>2026-03-29T09:39:41.999Z</time></trkpt><trkpt lat="45.49521811233263" lon="11.492920424163296"><ele>45.0</ele><time>2026-03-29T09:39:42.999Z</time></trkpt><trkpt lat="45.49527398936394" lon="11.492975159425427"><ele>45.0</ele><time>2026-03-29T09:39:43.998Z</time></trkpt><trkpt lat="45.49533520287484" lon="11.493020799970939"><ele>45.0</ele><time>2026-03-29T09:39:44.998Z</time></trkpt><trkpt lat="45.49539314583034" lon="11.493070560573052"><ele>45.0</ele><time>2026-03-29T09:39:45.998Z</time></trkpt><trkpt lat="45.49545109657358" lon="11.493125319276556"><ele>45.5</ele><time>2026-03-29T09:39:46.998Z</time></trkpt><trkpt lat="45.49550594378938" lon="11.493174937899306"><ele>46.0</ele><time>2026-03-29T09:39:47.998Z</time></trkpt><trkpt lat="45.49561030472613" lon="11.493259415045939"><ele>46.5</ele><time>2026-03-29T09:39:49.998Z</time></trkpt><trkpt lat="45.49568886223032" lon="11.493336515263705"><ele>47.0</ele><time>2026-03-29T09:39:51.998Z</time></trkpt><trkpt lat="45.49574863335536" lon="11.493379357557222"><ele>47.5</ele><time>2026-03-29T09:39:54.998Z</time></trkpt><trkpt lat="45.49580624395867" lon="11.493430315070844"><ele>48.0</ele><time>2026-03-29T09:39:58.998Z</time></trkpt><trkpt lat="45.49586744765548" lon="11.493494403024464"><ele>47.99999999999999</ele><time>2026-03-29T09:40:02.998Z</time></trkpt><trkpt lat="45.49592585833635" lon="11.493550382635119"><ele>48.0</ele><time>2026-03-29T09:40:06.998Z</time></trkpt><trkpt lat="45.495982645652546" lon="11.493615220995588"><ele>48.0</ele><time>2026-03-29T09:40:11.998Z</time></trkpt><trkpt lat="45.49603786542644" lon="11.493675840016968"><ele>48.0</ele><time>2026-03-29T09:40:15.998Z</time></trkpt><trkpt lat="45.496092377192895" lon="11.49372874038116"><ele>48.0</ele><time>2026-03-29T09:40:19.998Z</time></trkpt><trkpt lat="45.49615077564065" lon="11.493795852943677"><ele>47.99999999999999</ele><time>2026-03-29T09:40:23.997Z</time></trkpt><trkpt lat="45.496203337310966" lon="11.493874966969058"><ele>48.0</ele><time>2026-03-29T09:40:27.997Z</time></trkpt><trkpt lat="45.49627063961257" lon="11.493944444705113"><ele>46.833333333333336</ele><time>2026-03-29T09:40:31.997Z</time></trkpt><trkpt lat="45.49634100562264" lon="11.49397860177574"><ele>45.666666666666664</ele><time>2026-03-29T09:40:34.997Z</time></trkpt><trkpt lat="45.49640960374303" lon="11.494034127538095"><ele>44.5</ele><time>2026-03-29T09:40:38.997Z</time></trkpt><trkpt lat="45.496468620667436" lon="11.494070766942617"><ele>43.33333333333333</ele><time>2026-03-29T09:40:40.997Z</time></trkpt><trkpt lat="45.49654507251041" lon="11.494121331759208"><ele>42.166666666666664</ele><time>2026-03-29T09:40:44Z</time></trkpt><trkpt lat="45.4966141181466" lon="11.494133963604336"><ele>41.0</ele><time>2026-03-29T09:40:47Z</time></trkpt><trkpt lat="45.49669647567219" lon="11.494153709706449"><ele>41.0</ele><time>2026-03-29T09:40:50Z</time></trkpt><trkpt lat="45.49677551189271" lon="11.49415553287283"><ele>41.0</ele><time>2026-03-29T09:40:54Z</time></trkpt><trkpt lat="45.496845503765016" lon="11.494159873426486"><ele>41.0</ele><time>2026-03-29T09:40:57Z</time></trkpt><trkpt lat="45.49692717263756" lon="11.494161412127703"><ele>41.0</ele><time>2026-03-29T09:41:00Z</time></trkpt><trkpt lat="45.49701740232146" lon="11.49417664663819"><ele>41.0</ele><time>2026-03-29T09:41:03Z</time></trkpt><trkpt lat="45.49710616514368" lon="11.494211212581305"><ele>41.0</ele><time>2026-03-29T09:41:06Z</time></trkpt><trkpt lat="45.4971877107411" lon="11.494247737673568"><ele>41.5</ele><time>2026-03-29T09:41:08Z</time></trkpt><trkpt lat="45.49725228303965" lon="11.494295339031764"><ele>42.0</ele><time>2026-03-29T09:41:10Z</time></trkpt><trkpt lat="45.497335484716544" lon="11.494344240254737"><ele>42.5</ele><time>2026-03-29T09:41:12.999Z</time></trkpt><trkpt lat="45.49740162722374" lon="11.49440013923199"><ele>43.0</ele><time>2026-03-29T09:41:15.999Z</time></trkpt><trkpt lat="45.49747289895724" lon="11.494446857628287"><ele>43.5</ele><time>2026-03-29T09:41:20.999Z</time></trkpt><trkpt lat="45.49755056790801" lon="11.494497806104643"><ele>44.0</ele><time>2026-03-29T09:41:23.999Z</time></trkpt><trkpt lat="45.49762887221596" lon="11.49453229508814"><ele>44.0</ele><time>2026-03-29T09:41:26.999Z</time></trkpt><trkpt lat="45.497705202639935" lon="11.494581428195739"><ele>44.0</ele><time>2026-03-29T09:41:29.999Z</time></trkpt><trkpt lat="45.49779337149963" lon="11.494635229875481"><ele>44.0</ele><time>2026-03-29T09:41:32.999Z</time></trkpt><trkpt lat="45.497883509531405" lon="11.494685390105696"><ele>44.0</ele><time>2026-03-29T09:41:35.999Z</time></trkpt><trkpt lat="45.49795776117462" lon="11.494732803170194"><ele>44.0</ele><time>2026-03-29T09:41:37.999Z</time></trkpt><trkpt lat="45.49802704231229" lon="11.494772445851215"><ele>44.0</ele><time>2026-03-29T09:41:39.999Z</time></trkpt><trkpt lat="45.498096184663524" lon="11.494819019142213"><ele>43.0</ele><time>2026-03-29T09:41:41.999Z</time></trkpt><trkpt lat="45.498158796907745" lon="11.494854572970459"><ele>42.0</ele><time>2026-03-29T09:41:43.999Z</time></trkpt><trkpt lat="45.49821958726858" lon="11.494897677327327"><ele>41.0</ele><time>2026-03-29T09:41:45.999Z</time></trkpt><trkpt lat="45.49828658545927" lon="11.49493678537798"><ele>40.0</ele><time>2026-03-29T09:41:47.999Z</time></trkpt><trkpt lat="45.498352221503" lon="11.494995950998032"><ele>39.0</ele><time>2026-03-29T09:41:49.998Z</time></trkpt><trkpt lat="45.498419833428805" lon="11.495056955875162"><ele>38.0</ele><time>2026-03-29T09:41:51.998Z</time></trkpt><trkpt lat="45.49848762806693" lon="11.495120601629056"><ele>37.0</ele><time>2026-03-29T09:41:53.998Z</time></trkpt><trkpt lat="45.4985477515092" lon="11.495186214614323"><ele>37.0</ele><time>2026-03-29T09:41:55.998Z</time></trkpt><trkpt lat="45.49859866406709" lon="11.495263315219493"><ele>37.0</ele><time>2026-03-29T09:41:57.998Z</time></trkpt><trkpt lat="45.49864401624158" lon="11.495334431472948"><ele>37.0</ele><time>2026-03-29T09:41:59.998Z</time></trkpt><trkpt lat="45.49868506925473" lon="11.495408902907789"><ele>37.0</ele><time>2026-03-29T09:42:01.998Z</time></trkpt><trkpt lat="45.49872560401681" lon="11.49549486765383"><ele>37.0</ele><time>2026-03-29T09:42:03.998Z</time></trkpt><trkpt lat="45.498758137419934" lon="11.495585163293805"><ele>37.0</ele><time>2026-03-29T09:42:05.998Z</time></trkpt><trkpt lat="45.49879278138723" lon="11.49568068308556"><ele>37.0</ele><time>2026-03-29T09:42:07.998Z</time></trkpt><trkpt lat="45.49881745882392" lon="11.495773848720281"><ele>37.0</ele><time>2026-03-29T09:42:09.998Z</time></trkpt><trkpt lat="45.49883791360276" lon="11.495864578930565"><ele>37.0</ele><time>2026-03-29T09:42:11.998Z</time></trkpt><trkpt lat="45.49886555153934" lon="11.495955593308281"><ele>37.0</ele><time>2026-03-29T09:42:13.998Z</time></trkpt><trkpt lat="45.498896898199185" lon="11.496086322682894"><ele>37.0</ele><time>2026-03-29T09:42:16.998Z</time></trkpt><trkpt lat="45.49891669262103" lon="11.496180572428717"><ele>37.0</ele><time>2026-03-29T09:42:18.998Z</time></trkpt><trkpt lat="45.49893663338513" lon="11.496272876658887"><ele>37.0</ele><time>2026-03-29T09:42:20.998Z</time></trkpt><trkpt lat="45.49895943422014" lon="11.496357772319815"><ele>37.0</ele><time>2026-03-29T09:42:22.998Z</time></trkpt><trkpt lat="45.49898164793301" lon="11.496461306186125"><ele>37.0</ele><time>2026-03-29T09:42:24.998Z</time></trkpt><trkpt lat="45.499005134377" lon="11.49656263188785"><ele>37.0</ele><time>2026-03-29T09:42:26.997Z</time></trkpt><trkpt lat="45.49903182463132" lon="11.496680843700434"><ele>37.0</ele><time>2026-03-29T09:42:29.997Z</time></trkpt><trkpt lat="45.49906118281871" lon="11.496769106048879"><ele>37.0</ele><time>2026-03-29T09:42:31.997Z</time></trkpt><trkpt lat="45.4990984590953" lon="11.496872919777527"><ele>37.0</ele><time>2026-03-29T09:42:33.997Z</time></trkpt><trkpt lat="45.49913394830141" lon="11.496962712881885"><ele>37.0</ele><time>2026-03-29T09:42:35.997Z</time></trkpt><trkpt lat="45.499172995978455" lon="11.497045411587067"><ele>37.16666666666667</ele><time>2026-03-29T09:42:37.997Z</time></trkpt><trkpt lat="45.49921184432351" lon="11.497127568326892"><ele>37.333333333333336</ele><time>2026-03-29T09:42:39.997Z</time></trkpt><trkpt lat="45.499246801061716" lon="11.497204165583293"><ele>37.5</ele><time>2026-03-29T09:42:41.997Z</time></trkpt><trkpt lat="45.499297121636886" lon="11.497314666858365"><ele>37.666666666666664</ele><time>2026-03-29T09:42:44.997Z</time></trkpt><trkpt lat="45.499344574569925" lon="11.497388238744911"><ele>37.83333333333333</ele><time>2026-03-29T09:42:46.997Z</time></trkpt><trkpt lat="45.49941012996977" lon="11.497499705041797"><ele>38.0</ele><time>2026-03-29T09:42:50Z</time></trkpt><trkpt lat="45.4994484312925" lon="11.497575791232846"><ele>38.0</ele><time>2026-03-29T09:42:52Z</time></trkpt><trkpt lat="45.499494658295276" lon="11.497643191863135"><ele>38.0</ele><time>2026-03-29T09:42:54Z</time></trkpt><trkpt lat="45.499539133624815" lon="11.497724102754988"><ele>38.0</ele><time>2026-03-29T09:42:56Z</time></trkpt><trkpt lat="45.499583601361046" lon="11.497797320776593"><ele>38.0</ele><time>2026-03-29T09:42:58Z</time></trkpt><trkpt lat="45.49963608409295" lon="11.497873057307704"><ele>38.0</ele><time>2026-03-29T09:43:00Z</time></trkpt><trkpt lat="45.49969252619172" lon="11.497945521400844"><ele>38.0</ele><time>2026-03-29T09:43:02Z</time></trkpt><trkpt lat="45.499757409052954" lon="11.498033668520955"><ele>38.0</ele><time>2026-03-29T09:43:04Z</time></trkpt><trkpt lat="45.49982142990664" lon="11.49811383374938"><ele>38.4</ele><time>2026-03-29T09:43:06Z</time></trkpt><trkpt lat="45.49988905809117" lon="11.498185871378817"><ele>38.8</ele><time>2026-03-29T09:43:08Z</time></trkpt><trkpt lat="45.499958063341424" lon="11.498258763707579"><ele>39.2</ele><time>2026-03-29T09:43:10Z</time></trkpt><trkpt lat="45.50002711020706" lon="11.498337305950978"><ele>39.6</ele><time>2026-03-29T09:43:12Z</time></trkpt><trkpt lat="45.50010413917287" lon="11.498413861811315"><ele>40.0</ele><time>2026-03-29T09:43:14Z</time></trkpt><trkpt lat="45.50019003061642" lon="11.498503090386302"><ele>40.0</ele><time>2026-03-29T09:43:16Z</time></trkpt><trkpt lat="45.50026417294191" lon="11.498616617438286"><ele>40.0</ele><time>2026-03-29T09:43:17.999Z</time></trkpt><trkpt lat="45.50032241526442" lon="11.498755469662765"><ele>40.0</ele><time>2026-03-29T09:43:19.999Z</time></trkpt><trkpt lat="45.5003778209341" lon="11.498902175821382"><ele>40.0</ele><time>2026-03-29T09:43:21.999Z</time></trkpt><trkpt lat="45.50045188541896" lon="11.499030950147827"><ele>42.0</ele><time>2026-03-29T09:43:23.999Z</time></trkpt><trkpt lat="45.500526040188994" lon="11.499146484379208"><ele>44.0</ele><time>2026-03-29T09:43:25.999Z</time></trkpt><trkpt lat="45.500606032742695" lon="11.499254029660857"><ele>46.0</ele><time>2026-03-29T09:43:27.999Z</time></trkpt><trkpt lat="45.50066973395401" lon="11.499311707096876"><ele>48.0</ele><time>2026-03-29T09:43:28.999Z</time></trkpt><trkpt lat="45.50073412932812" lon="11.499352300090191"><ele>50.0</ele><time>2026-03-29T09:43:29.999Z</time></trkpt><trkpt lat="45.5008112854739" lon="11.499445437408191"><ele>50.0</ele><time>2026-03-29T09:43:31.999Z</time></trkpt><trkpt lat="45.500906500084426" lon="11.499513560453881"><ele>50.0</ele><time>2026-03-29T09:43:33.999Z</time></trkpt><trkpt lat="45.50099515443753" lon="11.499577473565187"><ele>50.0</ele><time>2026-03-29T09:43:35.999Z</time></trkpt><trkpt lat="45.50107155866097" lon="11.499623157428353"><ele>50.0</ele><time>2026-03-29T09:43:37.999Z</time></trkpt><trkpt lat="45.50116752757356" lon="11.499690913280826"><ele>50.0</ele><time>2026-03-29T09:43:39.999Z</time></trkpt><trkpt lat="45.50126916759125" lon="11.499769014025034"><ele>50.66666666666667</ele><time>2026-03-29T09:43:41.999Z</time></trkpt><trkpt lat="45.50134101872546" lon="11.499871520278056"><ele>51.333333333333336</ele><time>2026-03-29T09:43:43.999Z</time></trkpt><trkpt lat="45.501411370079246" lon="11.499954584878179"><ele>52.0</ele><time>2026-03-29T09:43:45.999Z</time></trkpt><trkpt lat="45.501462682270706" lon="11.500045346980874"><ele>52.66666666666667</ele><time>2026-03-29T09:43:47.999Z</time></trkpt><trkpt lat="45.50149743305728" lon="11.50014356219332"><ele>53.333333333333336</ele><time>2026-03-29T09:43:49.999Z</time></trkpt><trkpt lat="45.5015240227296" lon="11.500235384582414"><ele>54.0</ele><time>2026-03-29T09:43:51.999Z</time></trkpt><trkpt lat="45.50154102560289" lon="11.500341950114665"><ele>53.400000000000006</ele><time>2026-03-29T09:43:53.999Z</time></trkpt><trkpt lat="45.50154432430941" lon="11.500463349800459"><ele>52.800000000000004</ele><time>2026-03-29T09:43:55.998Z</time></trkpt><trkpt lat="45.501532263562446" lon="11.500594421275366"><ele>52.2</ele><time>2026-03-29T09:43:57.998Z</time></trkpt><trkpt lat="45.501512675528986" lon="11.500729142320413"><ele>51.599999999999994</ele><time>2026-03-29T09:43:59.998Z</time></trkpt><trkpt lat="45.50148990573343" lon="11.5008572781386"><ele>51.0</ele><time>2026-03-29T09:44:01.998Z</time></trkpt><trkpt lat="45.501465460723296" lon="11.500997472994921"><ele>51.0</ele><time>2026-03-29T09:44:03.998Z</time></trkpt><trkpt lat="45.501439943580934" lon="11.501115628718507"><ele>51.0</ele><time>2026-03-29T09:44:05.998Z</time></trkpt><trkpt lat="45.50143157922058" lon="11.501238784864714"><ele>51.0</ele><time>2026-03-29T09:44:07.998Z</time></trkpt><trkpt lat="45.50143133211569" lon="11.501359030579316"><ele>51.0</ele><time>2026-03-29T09:44:09.998Z</time></trkpt><trkpt lat="45.5014429364272" lon="11.501491578056736"><ele>51.0</ele><time>2026-03-29T09:44:11.998Z</time></trkpt><trkpt lat="45.50146674896228" lon="11.50161121061857"><ele>51.0</ele><time>2026-03-29T09:44:13.998Z</time></trkpt><trkpt lat="45.50150507527925" lon="11.501715525512427"><ele>50.666666666666664</ele><time>2026-03-29T09:44:15.998Z</time></trkpt><trkpt lat="45.501561135635626" lon="11.501818806026865"><ele>50.33333333333333</ele><time>2026-03-29T09:44:17.998Z</time></trkpt><trkpt lat="45.50162823845879" lon="11.501900333242629"><ele>50.0</ele><time>2026-03-29T09:44:19.998Z</time></trkpt><trkpt lat="45.501688163256446" lon="11.50199844317897"><ele>49.666666666666664</ele><time>2026-03-29T09:44:21.998Z</time></trkpt><trkpt lat="45.5017513500361" lon="11.502053530638415"><ele>49.33333333333333</ele><time>2026-03-29T09:44:23.998Z</time></trkpt><trkpt lat="45.50183867150067" lon="11.50212965897382"><ele>49.0</ele><time>2026-03-29T09:44:25.998Z</time></trkpt><trkpt lat="45.50191026785553" lon="11.502202372725268"><ele>48.83333333333333</ele><time>2026-03-29T09:44:27.998Z</time></trkpt><trkpt lat="45.50197698619812" lon="11.502282289601192"><ele>48.666666666666664</ele><time>2026-03-29T09:44:29.998Z</time></trkpt><trkpt lat="45.50203352610179" lon="11.502376948916767"><ele>48.5</ele><time>2026-03-29T09:44:31.997Z</time></trkpt><trkpt lat="45.50209161111855" lon="11.50245841999103"><ele>48.33333333333333</ele><time>2026-03-29T09:44:33.997Z</time></trkpt><trkpt lat="45.50210461798264" lon="11.50257791755991"><ele>48.166666666666664</ele><time>2026-03-29T09:44:35.997Z</time></trkpt><trkpt lat="45.50212813431076" lon="11.502703931676777"><ele>48.0</ele><time>2026-03-29T09:44:37.997Z</time></trkpt><trkpt lat="45.50216321057037" lon="11.502838953039891"><ele>46.8</ele><time>2026-03-29T09:44:39.997Z</time></trkpt><trkpt lat="45.50217785109493" lon="11.502985565283103"><ele>45.599999999999994</ele><time>2026-03-29T09:44:41.997Z</time></trkpt><trkpt lat="45.502196270048216" lon="11.503115036584505"><ele>44.400000000000006</ele><time>2026-03-29T09:44:43.997Z</time></trkpt><trkpt lat="45.50221047209612" lon="11.50324253303499"><ele>43.2</ele><time>2026-03-29T09:44:45.997Z</time></trkpt><trkpt lat="45.50222549909291" lon="11.503369960010192"><ele>42.0</ele><time>2026-03-29T09:44:47.997Z</time></trkpt><trkpt lat="45.50223441153196" lon="11.503497957113522"><ele>42.0</ele><time>2026-03-29T09:44:49.997Z</time></trkpt><trkpt lat="45.5022356863728" lon="11.503638323446957"><ele>42.0</ele><time>2026-03-29T09:44:51.997Z</time></trkpt><trkpt lat="45.50224402382458" lon="11.503766537874437"><ele>42.0</ele><time>2026-03-29T09:44:54Z</time></trkpt><trkpt lat="45.50222234784294" lon="11.503888545397228"><ele>42.0</ele><time>2026-03-29T09:44:56Z</time></trkpt><trkpt lat="45.50216800455669" lon="11.503999735156604"><ele>42.0</ele><time>2026-03-29T09:44:58Z</time></trkpt><trkpt lat="45.50212723915733" lon="11.50410303847901"><ele>43.142857142857146</ele><time>2026-03-29T09:45:00Z</time></trkpt><trkpt lat="45.502093041800194" lon="11.504192189237871"><ele>44.285714285714285</ele><time>2026-03-29T09:45:02Z</time></trkpt><trkpt lat="45.502059662574865" lon="11.504297689146851"><ele>45.42857142857143</ele><time>2026-03-29T09:45:04Z</time></trkpt><trkpt lat="45.502035323883206" lon="11.504394072161556"><ele>46.57142857142857</ele><time>2026-03-29T09:45:06Z</time></trkpt><trkpt lat="45.50202046288" lon="11.504498585795389"><ele>47.714285714285715</ele><time>2026-03-29T09:45:08Z</time></trkpt><trkpt lat="45.502020154646615" lon="11.504603317068039"><ele>48.85714285714286</ele><time>2026-03-29T09:45:10Z</time></trkpt><trkpt lat="45.502049388248594" lon="11.504702344537225"><ele>50.0</ele><time>2026-03-29T09:45:12Z</time></trkpt><trkpt lat="45.50206332476547" lon="11.504803797220626"><ele>49.16666666666667</ele><time>2026-03-29T09:45:14Z</time></trkpt><trkpt lat="45.50207061686221" lon="11.504902175428889"><ele>48.333333333333336</ele><time>2026-03-29T09:45:16Z</time></trkpt><trkpt lat="45.5020708855649" lon="11.505018091439032"><ele>47.5</ele><time>2026-03-29T09:45:19Z</time></trkpt><trkpt lat="45.50207924704015" lon="11.505127527870762"><ele>46.66666666666667</ele><time>2026-03-29T09:45:24Z</time></trkpt><trkpt lat="45.502086503837305" lon="11.50523046555373"><ele>45.833333333333336</ele><time>2026-03-29T09:45:28.999Z</time></trkpt><trkpt lat="45.50209064082831" lon="11.50533314327145"><ele>45.0</ele><time>2026-03-29T09:47:19Z</time></trkpt><trkpt lat="45.502195883577144" lon="11.505358711654578"><ele>45.0</ele><time>2026-03-29T09:47:21Z</time></trkpt><trkpt lat="45.50228527588802" lon="11.505373267669865"><ele>45.0</ele><time>2026-03-29T09:47:23Z</time></trkpt><trkpt lat="45.50237750876093" lon="11.50536920493152"><ele>45.0</ele><time>2026-03-29T09:47:25Z</time></trkpt><trkpt lat="45.50249948330802" lon="11.505342007031127"><ele>45.0</ele><time>2026-03-29T09:47:27Z</time></trkpt><trkpt lat="45.50256476586853" lon="11.505336542603096"><ele>45.0</ele><time>2026-03-29T09:47:28Z</time></trkpt><trkpt lat="45.5026770009044" lon="11.505336438556677"><ele>45.0</ele><time>2026-03-29T09:47:30Z</time></trkpt><trkpt lat="45.5027825016634" lon="11.505336394996204"><ele>45.0</ele><time>2026-03-29T09:47:32Z</time></trkpt><trkpt lat="45.50289248140617" lon="11.505328692174883"><ele>45.0</ele><time>2026-03-29T09:47:33.999Z</time></trkpt><trkpt lat="45.50300061417626" lon="11.505340103072005"><ele>45.0</ele><time>2026-03-29T09:47:35.999Z</time></trkpt><trkpt lat="45.503099409199365" lon="11.505343356399534"><ele>45.0</ele><time>2026-03-29T09:47:37.999Z</time></trkpt><trkpt lat="45.50318775270645" lon="11.505356956267445"><ele>47.2</ele><time>2026-03-29T09:47:39.999Z</time></trkpt><trkpt lat="45.50330415687547" lon="11.50537015009734"><ele>49.4</ele><time>2026-03-29T09:47:41.999Z</time></trkpt><trkpt lat="45.50339792273293" lon="11.5053933318888"><ele>51.599999999999994</ele><time>2026-03-29T09:47:43.999Z</time></trkpt><trkpt lat="45.50350954089123" lon="11.50541098863017"><ele>53.8</ele><time>2026-03-29T09:47:45.999Z</time></trkpt><trkpt lat="45.50356912791915" lon="11.505445240374714"><ele>56.0</ele><time>2026-03-29T09:47:46.999Z</time></trkpt><trkpt lat="45.503681718557736" lon="11.505455575386584"><ele>52.199999999999996</ele><time>2026-03-29T09:47:48.999Z</time></trkpt><trkpt lat="45.50377507327543" lon="11.50549382792767"><ele>48.39999999999999</ele><time>2026-03-29T09:47:50.999Z</time></trkpt><trkpt lat="45.503871592898676" lon="11.505505395869157"><ele>44.6</ele><time>2026-03-29T09:47:52.999Z</time></trkpt><trkpt lat="45.503968098535644" lon="11.50553476131859"><ele>40.8</ele><time>2026-03-29T09:47:54.999Z</time></trkpt><trkpt lat="45.50407311304112" lon="11.505568974768435"><ele>37.0</ele><time>2026-03-29T09:47:56.999Z</time></trkpt><trkpt lat="45.50416660454876" lon="11.505601389959278"><ele>37.0</ele><time>2026-03-29T09:47:58.999Z</time></trkpt><trkpt lat="45.504258727724" lon="11.50563589570389"><ele>37.0</ele><time>2026-03-29T09:48:00.999Z</time></trkpt><trkpt lat="45.50435019890065" lon="11.505667342546108"><ele>37.0</ele><time>2026-03-29T09:48:02.999Z</time></trkpt><trkpt lat="45.504411702737016" lon="11.505692700278559"><ele>37.0</ele><time>2026-03-29T09:48:03.999Z</time></trkpt><trkpt lat="45.50452774803427" lon="11.505673512549038"><ele>37.0</ele><time>2026-03-29T09:48:05.999Z</time></trkpt><trkpt lat="45.50463167997538" lon="11.505684009459152"><ele>38.0</ele><time>2026-03-29T09:48:07.999Z</time></trkpt><trkpt lat="45.50473741111472" lon="11.505704978665591"><ele>39.0</ele><time>2026-03-29T09:48:09.999Z</time></trkpt><trkpt lat="45.50484073227253" lon="11.505699421969775"><ele>40.0</ele><time>2026-03-29T09:48:11.998Z</time></trkpt><trkpt lat="45.50493752538303" lon="11.505669344021806"><ele>41.0</ele><time>2026-03-29T09:48:13.998Z</time></trkpt><trkpt lat="45.50500127438915" lon="11.50566627145476"><ele>42.0</ele><time>2026-03-29T09:48:14.998Z</time></trkpt><trkpt lat="45.5051201226675" lon="11.505670398321955"><ele>42.0</ele><time>2026-03-29T09:48:16.998Z</time></trkpt><trkpt lat="45.50522886613263" lon="11.505676378181075"><ele>42.0</ele><time>2026-03-29T09:48:18.998Z</time></trkpt><trkpt lat="45.50529326731181" lon="11.505681127378686"><ele>42.0</ele><time>2026-03-29T09:48:19.998Z</time></trkpt><trkpt lat="45.505412737120494" lon="11.505685142642609"><ele>42.0</ele><time>2026-03-29T09:48:21.998Z</time></trkpt><trkpt lat="45.50551593239392" lon="11.50569179052003"><ele>42.0</ele><time>2026-03-29T09:48:23.998Z</time></trkpt><trkpt lat="45.505639364443624" lon="11.505721067908786"><ele>42.666666666666664</ele><time>2026-03-29T09:48:25.998Z</time></trkpt><trkpt lat="45.505751436650975" lon="11.505727225955836"><ele>43.333333333333336</ele><time>2026-03-29T09:48:27.998Z</time></trkpt><trkpt lat="45.50581527410751" lon="11.505729514900715"><ele>44.0</ele><time>2026-03-29T09:48:28.998Z</time></trkpt><trkpt lat="45.505879027984896" lon="11.505731217372976"><ele>44.66666666666667</ele><time>2026-03-29T09:48:29.998Z</time></trkpt><trkpt lat="45.506005390780984" lon="11.505734591746231"><ele>45.333333333333336</ele><time>2026-03-29T09:48:31.998Z</time></trkpt><trkpt lat="45.506071029020305" lon="11.50573599339667"><ele>46.0</ele><time>2026-03-29T09:48:32.998Z</time></trkpt><trkpt lat="45.5061863611783" lon="11.505728227444715"><ele>45.75</ele><time>2026-03-29T09:48:34.998Z</time></trkpt><trkpt lat="45.50630201780814" lon="11.505694193535732"><ele>45.5</ele><time>2026-03-29T09:48:36.998Z</time></trkpt><trkpt lat="45.506422672281175" lon="11.50570700685167"><ele>45.25</ele><time>2026-03-29T09:48:38.998Z</time></trkpt><trkpt lat="45.50653154292189" lon="11.505706343285867"><ele>45.0</ele><time>2026-03-29T09:48:40.998Z</time></trkpt><trkpt lat="45.50664289913305" lon="11.505704989354681"><ele>45.0</ele><time>2026-03-29T09:48:42.998Z</time></trkpt><trkpt lat="45.506707601348374" lon="11.5057094141131"><ele>45.0</ele><time>2026-03-29T09:48:43.998Z</time></trkpt><trkpt lat="45.50677161037451" lon="11.505710925497054"><ele>45.0</ele><time>2026-03-29T09:48:44.998Z</time></trkpt><trkpt lat="45.50688467343659" lon="11.50571600199713"><ele>45.0</ele><time>2026-03-29T09:48:46.998Z</time></trkpt><trkpt lat="45.50699563277655" lon="11.505717778672961"><ele>45.0</ele><time>2026-03-29T09:48:48.997Z</time></trkpt><trkpt lat="45.50710674275121" lon="11.505724594322837"><ele>45.4</ele><time>2026-03-29T09:48:50.997Z</time></trkpt><trkpt lat="45.50720809815806" lon="11.505733017700665"><ele>45.8</ele><time>2026-03-29T09:48:52.997Z</time></trkpt><trkpt lat="45.50731492100769" lon="11.50575363048514"><ele>46.2</ele><time>2026-03-29T09:48:54.997Z</time></trkpt><trkpt lat="45.507416282200666" lon="11.505784796893522"><ele>46.6</ele><time>2026-03-29T09:48:56.997Z</time></trkpt><trkpt lat="45.507536484350275" lon="11.50582011353594"><ele>47.0</ele><time>2026-03-29T09:48:58.997Z</time></trkpt><trkpt lat="45.50763744298567" lon="11.505854402415784"><ele>47.0</ele><time>2026-03-29T09:49:00.997Z</time></trkpt><trkpt lat="45.50774441548989" lon="11.505890060046871"><ele>47.0</ele><time>2026-03-29T09:49:02.997Z</time></trkpt><trkpt lat="45.507851675317184" lon="11.505923351451521"><ele>47.0</ele><time>2026-03-29T09:49:04.997Z</time></trkpt><trkpt lat="45.50796384407128" lon="11.505968317284834"><ele>47.0</ele><time>2026-03-29T09:49:07Z</time></trkpt><trkpt lat="45.50807885961582" lon="11.506013030412085"><ele>49.5</ele><time>2026-03-29T09:49:09Z</time></trkpt><trkpt lat="45.50818595138955" lon="11.506051720348447"><ele>52.0</ele><time>2026-03-29T09:49:11Z</time></trkpt><trkpt lat="45.508291313672366" lon="11.50609316626619"><ele>54.5</ele><time>2026-03-29T09:49:13Z</time></trkpt><trkpt lat="45.50840199486201" lon="11.506126765597221"><ele>57.0</ele><time>2026-03-29T09:49:15Z</time></trkpt><trkpt lat="45.50851752982031" lon="11.506161984588175"><ele>57.0</ele><time>2026-03-29T09:49:17Z</time></trkpt><trkpt lat="45.50862647947263" lon="11.506180182271262"><ele>57.0</ele><time>2026-03-29T09:49:19Z</time></trkpt><trkpt lat="45.50872928721769" lon="11.506208084865897"><ele>57.0</ele><time>2026-03-29T09:49:21Z</time></trkpt><trkpt lat="45.50883562848546" lon="11.506254249463579"><ele>57.0</ele><time>2026-03-29T09:49:23Z</time></trkpt><trkpt lat="45.508939582304286" lon="11.50626315650077"><ele>57.0</ele><time>2026-03-29T09:49:25Z</time></trkpt><trkpt lat="45.50902424665566" lon="11.506321933900777"><ele>53.333333333333336</ele><time>2026-03-29T09:49:27Z</time></trkpt><trkpt lat="45.509091409237485" lon="11.506377649607353"><ele>49.666666666666664</ele><time>2026-03-29T09:49:29Z</time></trkpt><trkpt lat="45.50915585823771" lon="11.5064480833541"><ele>46.0</ele><time>2026-03-29T09:49:31Z</time></trkpt><trkpt lat="45.50927335337435" lon="11.506441965014252"><ele>42.33333333333333</ele><time>2026-03-29T09:49:33Z</time></trkpt><trkpt lat="45.509342452659055" lon="11.506459267467635"><ele>38.666666666666664</ele><time>2026-03-29T09:49:34Z</time></trkpt><trkpt lat="45.50942031358119" lon="11.506452101731378"><ele>35.0</ele><time>2026-03-29T09:49:35Z</time></trkpt><trkpt lat="45.50949779914999" lon="11.506431290899013"><ele>35.0</ele><time>2026-03-29T09:49:36Z</time></trkpt><trkpt lat="45.50956454113115" lon="11.506451654541092"><ele>35.0</ele><time>2026-03-29T09:49:37Z</time></trkpt><trkpt lat="45.509679782012434" lon="11.50649044261778"><ele>35.0</ele><time>2026-03-29T09:49:38.999Z</time></trkpt><trkpt lat="45.50974270444403" lon="11.506509470476235"><ele>35.0</ele><time>2026-03-29T09:49:39.999Z</time></trkpt><trkpt lat="45.50980779230141" lon="11.506522851034127"><ele>35.0</ele><time>2026-03-29T09:49:40.999Z</time></trkpt><trkpt lat="45.509871650686016" lon="11.506540014371373"><ele>35.0</ele><time>2026-03-29T09:49:41.999Z</time></trkpt><trkpt lat="45.50994375372485" lon="11.50656531738518"><ele>35.142857142857146</ele><time>2026-03-29T09:49:42.999Z</time></trkpt><trkpt lat="45.51001154187206" lon="11.506595550682155"><ele>35.285714285714285</ele><time>2026-03-29T09:49:43.999Z</time></trkpt><trkpt lat="45.510079771565465" lon="11.506626214646943"><ele>35.42857142857143</ele><time>2026-03-29T09:49:44.999Z</time></trkpt><trkpt lat="45.510144038062904" lon="11.506657919980162"><ele>35.57142857142857</ele><time>2026-03-29T09:49:45.999Z</time></trkpt><trkpt lat="45.51021433338694" lon="11.506686901437345"><ele>35.714285714285715</ele><time>2026-03-29T09:49:46.999Z</time></trkpt><trkpt lat="45.510284325851615" lon="11.506715335077562"><ele>35.85714285714286</ele><time>2026-03-29T09:49:47.999Z</time></trkpt><trkpt lat="45.51035067448518" lon="11.506740693324945"><ele>36.0</ele><time>2026-03-29T09:49:48.999Z</time></trkpt><trkpt lat="45.510417102367875" lon="11.506764212946859"><ele>35.714285714285715</ele><time>2026-03-29T09:49:49.999Z</time></trkpt><trkpt lat="45.51048684959772" lon="11.50679247383596"><ele>35.42857142857143</ele><time>2026-03-29T09:49:50.999Z</time></trkpt><trkpt lat="45.51055561995628" lon="11.506820509924848"><ele>35.14285714285714</ele><time>2026-03-29T09:49:51.999Z</time></trkpt><trkpt lat="45.510625771461264" lon="11.506855220414462"><ele>34.85714285714286</ele><time>2026-03-29T09:49:52.999Z</time></trkpt><trkpt lat="45.510692507481714" lon="11.506889043076583"><ele>34.57142857142857</ele><time>2026-03-29T09:49:53.999Z</time></trkpt><trkpt lat="45.510762448742575" lon="11.506918886260484"><ele>34.285714285714285</ele><time>2026-03-29T09:49:54.999Z</time></trkpt><trkpt lat="45.51082600293164" lon="11.506946445990982"><ele>34.0</ele><time>2026-03-29T09:49:55.999Z</time></trkpt><trkpt lat="45.51088728629214" lon="11.506978342862613"><ele>34.0</ele><time>2026-03-29T09:49:56.999Z</time></trkpt><trkpt lat="45.510949055517756" lon="11.507009697292405"><ele>34.0</ele><time>2026-03-29T09:49:57.999Z</time></trkpt><trkpt lat="45.51106273712353" lon="11.507066280425496"><ele>34.0</ele><time>2026-03-29T09:49:59.999Z</time></trkpt><trkpt lat="45.511168348346445" lon="11.507122947915251"><ele>34.0</ele><time>2026-03-29T09:50:01.999Z</time></trkpt><trkpt lat="45.51125517600727" lon="11.507165772301809"><ele>34.0</ele><time>2026-03-29T09:50:03.999Z</time></trkpt><trkpt lat="45.51133114890638" lon="11.50697000539178"><ele>33.8</ele><time>2026-03-29T09:50:08.999Z</time></trkpt><trkpt lat="45.51137224346953" lon="11.506797360925212"><ele>33.599999999999994</ele><time>2026-03-29T09:50:10.999Z</time></trkpt><trkpt lat="45.51139734679802" lon="11.506708628931706"><ele>33.4</ele><time>2026-03-29T09:50:11.999Z</time></trkpt><trkpt lat="45.5114202781937" lon="11.506624937698634"><ele>33.199999999999996</ele><time>2026-03-29T09:50:12.999Z</time></trkpt><trkpt lat="45.51146099259481" lon="11.50646962696162"><ele>33.0</ele><time>2026-03-29T09:50:14.999Z</time></trkpt><trkpt lat="45.5115062827412" lon="11.506309869386378"><ele>35.0</ele><time>2026-03-29T09:50:16.998Z</time></trkpt><trkpt lat="45.511564665034" lon="11.506159396963177"><ele>37.0</ele><time>2026-03-29T09:50:18.998Z</time></trkpt><trkpt lat="45.5115986539227" lon="11.506031471310829"><ele>39.0</ele><time>2026-03-29T09:50:20.998Z</time></trkpt><trkpt lat="45.51169165662893" lon="11.50610114562871"><ele>41.0</ele><time>2026-03-29T09:50:23.998Z</time></trkpt><trkpt lat="45.51180755720646" lon="11.506164308613972"><ele>43.0</ele><time>2026-03-29T09:50:25.998Z</time></trkpt><trkpt lat="45.51186951666859" lon="11.506198075081254"><ele>41.199999999999996</ele><time>2026-03-29T09:50:26.998Z</time></trkpt><trkpt lat="45.511978988381976" lon="11.50626195293461"><ele>39.4</ele><time>2026-03-29T09:50:28.998Z</time></trkpt><trkpt lat="45.5120909274595" lon="11.506306490851697"><ele>37.599999999999994</ele><time>2026-03-29T09:50:30.998Z</time></trkpt><trkpt lat="45.51215023608089" lon="11.506345862567358"><ele>35.8</ele><time>2026-03-29T09:50:31.998Z</time></trkpt><trkpt lat="45.512260787924184" lon="11.506412422984923"><ele>34.0</ele><time>2026-03-29T09:50:33.998Z</time></trkpt><trkpt lat="45.512362885711994" lon="11.506484669635016"><ele>34.0</ele><time>2026-03-29T09:50:35.998Z</time></trkpt><trkpt lat="45.51245580855932" lon="11.506556969907821"><ele>34.0</ele><time>2026-03-29T09:50:37.998Z</time></trkpt><trkpt lat="45.512568683220366" lon="11.506624413960482"><ele>34.0</ele><time>2026-03-29T09:50:39.998Z</time></trkpt><trkpt lat="45.512668540326864" lon="11.506722557393497"><ele>34.0</ele><time>2026-03-29T09:50:41.998Z</time></trkpt><trkpt lat="45.51276895476708" lon="11.506775145547412"><ele>34.0</ele><time>2026-03-29T09:50:43.998Z</time></trkpt><trkpt lat="45.51287680214571" lon="11.506845852303272"><ele>34.0</ele><time>2026-03-29T09:50:45.998Z</time></trkpt><trkpt lat="45.51293996040708" lon="11.506898039522106"><ele>34.0</ele><time>2026-03-29T09:50:46.998Z</time></trkpt><trkpt lat="45.51303534251046" lon="11.506979543748873"><ele>34.0</ele><time>2026-03-29T09:50:48.998Z</time></trkpt><trkpt lat="45.513149193089475" lon="11.507016481775374"><ele>34.0</ele><time>2026-03-29T09:50:50.998Z</time></trkpt><trkpt lat="45.513258897503434" lon="11.507043161971769"><ele>33.4</ele><time>2026-03-29T09:50:52.998Z</time></trkpt><trkpt lat="45.513381105726516" lon="11.507016819317851"><ele>32.8</ele><time>2026-03-29T09:50:54.997Z</time></trkpt><trkpt lat="45.51348329803721" lon="11.50697652238352"><ele>32.2</ele><time>2026-03-29T09:50:56.997Z</time></trkpt><trkpt lat="45.51358036509467" lon="11.506945894968053"><ele>31.6</ele><time>2026-03-29T09:50:58.997Z</time></trkpt><trkpt lat="45.513662089687045" lon="11.506911669282614"><ele>31.0</ele><time>2026-03-29T09:51:00.997Z</time></trkpt><trkpt lat="45.51372844643164" lon="11.506892210524416"><ele>31.0</ele><time>2026-03-29T09:53:51.999Z</time></trkpt><trkpt lat="45.5137216455419" lon="11.506715185452158"><ele>31.0</ele><time>2026-03-29T09:53:53.999Z</time></trkpt><trkpt lat="45.513690684316586" lon="11.506602841502627"><ele>31.0</ele><time>2026-03-29T09:53:55.999Z</time></trkpt><trkpt lat="45.513675967929984" lon="11.506472252402029"><ele>31.0</ele><time>2026-03-29T09:53:57.999Z</time></trkpt><trkpt lat="45.51364696668931" lon="11.506319340235628"><ele>31.0</ele><time>2026-03-29T09:53:59.999Z</time></trkpt><trkpt lat="45.51362397643026" lon="11.506156784184787"><ele>32.4</ele><time>2026-03-29T09:54:01.999Z</time></trkpt><trkpt lat="45.51359518215843" lon="11.505996852071734"><ele>33.8</ele><time>2026-03-29T09:54:03.999Z</time></trkpt><trkpt lat="45.51357555647458" lon="11.505819083419576"><ele>35.199999999999996</ele><time>2026-03-29T09:54:05.999Z</time></trkpt><trkpt lat="45.51356277897814" lon="11.50572689785611"><ele>36.6</ele><time>2026-03-29T09:54:06.999Z</time></trkpt><trkpt lat="45.51353992827233" lon="11.505571977691408"><ele>38.0</ele><time>2026-03-29T09:54:08.999Z</time></trkpt><trkpt lat="45.51353016953935" lon="11.505481209229632"><ele>38.25</ele><time>2026-03-29T09:54:09.999Z</time></trkpt><trkpt lat="45.51351077975425" lon="11.505298278669736"><ele>38.5</ele><time>2026-03-29T09:54:11.999Z</time></trkpt><trkpt lat="45.513476480853946" lon="11.505136106964967"><ele>38.75</ele><time>2026-03-29T09:54:13.999Z</time></trkpt><trkpt lat="45.51344565388545" lon="11.504976853875318"><ele>39.0</ele><time>2026-03-29T09:54:15.999Z</time></trkpt><trkpt lat="45.513420132785505" lon="11.504833876600745"><ele>39.0</ele><time>2026-03-29T09:54:17.999Z</time></trkpt><trkpt lat="45.51339532114787" lon="11.504745556257081"><ele>39.0</ele><time>2026-03-29T09:54:18.999Z</time></trkpt><trkpt lat="45.51335007115682" lon="11.504579692483473"><ele>39.0</ele><time>2026-03-29T09:54:20.999Z</time></trkpt><trkpt lat="45.51330595706203" lon="11.504498578308569"><ele>39.0</ele><time>2026-03-29T09:54:21.999Z</time></trkpt><trkpt lat="45.51322002817146" lon="11.5043470156466"><ele>39.0</ele><time>2026-03-29T09:54:23.999Z</time></trkpt><trkpt lat="45.51308778121103" lon="11.50428148919137"><ele>37.714285714285715</ele><time>2026-03-29T09:54:25.999Z</time></trkpt><trkpt lat="45.5130428049172" lon="11.504209310812984"><ele>36.42857142857142</ele><time>2026-03-29T09:54:26.999Z</time></trkpt><trkpt lat="45.513001101544944" lon="11.5041191957779"><ele>35.14285714285714</ele><time>2026-03-29T09:54:27.999Z</time></trkpt><trkpt lat="45.512974151559355" lon="11.504008868090681"><ele>33.85714285714286</ele><time>2026-03-29T09:54:28.999Z</time></trkpt><trkpt lat="45.512918966882914" lon="11.503933710966574"><ele>32.57142857142857</ele><time>2026-03-29T09:54:29.999Z</time></trkpt><trkpt lat="45.5128689811105" lon="11.503866524512375"><ele>31.285714285714285</ele><time>2026-03-29T09:54:30.998Z</time></trkpt><trkpt lat="45.51281663583368" lon="11.503802838173458"><ele>30.0</ele><time>2026-03-29T09:54:31.998Z</time></trkpt><trkpt lat="45.51272602065981" lon="11.50369790662673"><ele>33.6</ele><time>2026-03-29T09:54:33.998Z</time></trkpt><trkpt lat="45.512690043857546" lon="11.503585300180651"><ele>37.2</ele><time>2026-03-29T09:54:34.998Z</time></trkpt><trkpt lat="45.512707005584105" lon="11.503441914254275"><ele>40.8</ele><time>2026-03-29T09:54:35.998Z</time></trkpt><trkpt lat="45.512644024893376" lon="11.503290062204908"><ele>44.4</ele><time>2026-03-29T09:54:37.998Z</time></trkpt><trkpt lat="45.51259088382775" lon="11.503148327761348"><ele>48.0</ele><time>2026-03-29T09:54:39.998Z</time></trkpt><trkpt lat="45.51253705681799" lon="11.503000549399198"><ele>48.0</ele><time>2026-03-29T09:54:41.998Z</time></trkpt><trkpt lat="45.51248599388303" lon="11.502935272027612"><ele>48.0</ele><time>2026-03-29T09:54:42.998Z</time></trkpt><trkpt lat="45.51245267720502" lon="11.50285745961106"><ele>48.0</ele><time>2026-03-29T09:54:43.998Z</time></trkpt><trkpt lat="45.51240382246722" lon="11.50270630533201"><ele>48.0</ele><time>2026-03-29T09:54:45.998Z</time></trkpt><trkpt lat="45.51234102332517" lon="11.502592970851282"><ele>48.0</ele><time>2026-03-29T09:54:47.998Z</time></trkpt><trkpt lat="45.51228649941708" lon="11.502438367777048"><ele>48.599999999999994</ele><time>2026-03-29T09:54:49.998Z</time></trkpt><trkpt lat="45.51224997765593" lon="11.502268920245506"><ele>49.199999999999996</ele><time>2026-03-29T09:54:51.998Z</time></trkpt><trkpt lat="45.51221250561586" lon="11.502189723960681"><ele>49.8</ele><time>2026-03-29T09:54:52.998Z</time></trkpt><trkpt lat="45.51215214470603" lon="11.502058738441841"><ele>50.4</ele><time>2026-03-29T09:54:54.998Z</time></trkpt><trkpt lat="45.51209667189771" lon="11.501924400797785"><ele>51.0</ele><time>2026-03-29T09:54:56.998Z</time></trkpt><trkpt lat="45.512030133771916" lon="11.501773921905592"><ele>51.0</ele><time>2026-03-29T09:54:58.998Z</time></trkpt><trkpt lat="45.51201444504056" lon="11.501677593710683"><ele>51.0</ele><time>2026-03-29T09:54:59.998Z</time></trkpt><trkpt lat="45.51199669900809" lon="11.501579399388179"><ele>51.0</ele><time>2026-03-29T09:55:00.998Z</time></trkpt><trkpt lat="45.51199190582906" lon="11.501479417086266"><ele>51.0</ele><time>2026-03-29T09:55:01.998Z</time></trkpt><trkpt lat="45.51198161599031" lon="11.50137553238133"><ele>51.0</ele><time>2026-03-29T09:55:02.998Z</time></trkpt><trkpt lat="45.51197598874758" lon="11.501283128563697"><ele>51.0</ele><time>2026-03-29T09:55:03.998Z</time></trkpt><trkpt lat="45.51198175500111" lon="11.501176525338689"><ele>51.0</ele><time>2026-03-29T09:55:04.998Z</time></trkpt><trkpt lat="45.51197070127957" lon="11.501078084442424"><ele>50.599999999999994</ele><time>2026-03-29T09:55:05.998Z</time></trkpt><trkpt lat="45.51196381239296" lon="11.50087451353478"><ele>50.2</ele><time>2026-03-29T09:55:07.997Z</time></trkpt><trkpt lat="45.511963228351945" lon="11.50078073109092"><ele>49.8</ele><time>2026-03-29T09:55:08.997Z</time></trkpt><trkpt lat="45.51195540516817" lon="11.500674751011182"><ele>49.400000000000006</ele><time>2026-03-29T09:55:09.997Z</time></trkpt><trkpt lat="45.511959965030826" lon="11.500509518992049"><ele>49.0</ele><time>2026-03-29T09:55:11.997Z</time></trkpt><trkpt lat="45.511942389207434" lon="11.500392561839021"><ele>48.166666666666664</ele><time>2026-03-29T09:55:12.997Z</time></trkpt><trkpt lat="45.511933794831464" lon="11.5003016569614"><ele>47.33333333333333</ele><time>2026-03-29T09:55:13.997Z</time></trkpt><trkpt lat="45.511927297720106" lon="11.50019800611397"><ele>46.5</ele><time>2026-03-29T09:55:14.997Z</time></trkpt><trkpt lat="45.51192043380024" lon="11.500100616374308"><ele>45.666666666666664</ele><time>2026-03-29T09:55:15.997Z</time></trkpt><trkpt lat="45.51191202954134" lon="11.499992364789065"><ele>44.83333333333333</ele><time>2026-03-29T09:55:16.997Z</time></trkpt><trkpt lat="45.51188983590451" lon="11.499828631575701"><ele>44.0</ele><time>2026-03-29T09:55:18.997Z</time></trkpt><trkpt lat="45.51187398224649" lon="11.499656762811899"><ele>43.0</ele><time>2026-03-29T09:55:20.997Z</time></trkpt><trkpt lat="45.511847903127254" lon="11.499504655421307"><ele>42.0</ele><time>2026-03-29T09:55:22.997Z</time></trkpt><trkpt lat="45.51180041211276" lon="11.49934329878598"><ele>41.0</ele><time>2026-03-29T09:55:25Z</time></trkpt><trkpt lat="45.51177539089433" lon="11.499250078624192"><ele>40.0</ele><time>2026-03-29T09:55:26Z</time></trkpt><trkpt lat="45.51174896081072" lon="11.499148704523408"><ele>39.0</ele><time>2026-03-29T09:55:27Z</time></trkpt><trkpt lat="45.51169173901892" lon="11.498980527772659"><ele>39.0</ele><time>2026-03-29T09:55:29Z</time></trkpt><trkpt lat="45.51166001518486" lon="11.498897488052084"><ele>39.0</ele><time>2026-03-29T09:55:30Z</time></trkpt><trkpt lat="45.511642507231635" lon="11.498796961392664"><ele>39.0</ele><time>2026-03-29T09:55:31Z</time></trkpt><trkpt lat="45.51159976146426" lon="11.498707679735052"><ele>39.0</ele><time>2026-03-29T09:55:32Z</time></trkpt><trkpt lat="45.511586394888255" lon="11.498596442314241"><ele>39.0</ele><time>2026-03-29T09:55:33Z</time></trkpt><trkpt lat="45.51156343095541" lon="11.498509252348084"><ele>39.0</ele><time>2026-03-29T09:55:34Z</time></trkpt><trkpt lat="45.51153914534972" lon="11.498343865920361"><ele>39.333333333333336</ele><time>2026-03-29T09:55:36Z</time></trkpt><trkpt lat="45.511552507861865" lon="11.498171494425419"><ele>39.666666666666664</ele><time>2026-03-29T09:55:38Z</time></trkpt><trkpt lat="45.51157486403392" lon="11.49807759653288"><ele>40.0</ele><time>2026-03-29T09:55:39Z</time></trkpt><trkpt lat="45.51160258407717" lon="11.497987661907404"><ele>40.33333333333333</ele><time>2026-03-29T09:55:40Z</time></trkpt><trkpt lat="45.511633985309366" lon="11.49790111319025"><ele>40.666666666666664</ele><time>2026-03-29T09:55:41Z</time></trkpt><trkpt lat="45.51166944886123" lon="11.497826579918332"><ele>41.0</ele><time>2026-03-29T09:55:42Z</time></trkpt><trkpt lat="45.51170950297535" lon="11.497756638581295"><ele>43.4</ele><time>2026-03-29T09:55:43Z</time></trkpt><trkpt lat="45.511789568508654" lon="11.497626813434385"><ele>45.8</ele><time>2026-03-29T09:55:45Z</time></trkpt><trkpt lat="45.51182730886711" lon="11.497544909177918"><ele>48.199999999999996</ele><time>2026-03-29T09:55:46Z</time></trkpt><trkpt lat="45.51191587103586" lon="11.497396543935242"><ele>50.599999999999994</ele><time>2026-03-29T09:55:48Z</time></trkpt><trkpt lat="45.511955291765766" lon="11.497313090498514"><ele>53.0</ele><time>2026-03-29T09:55:49Z</time></trkpt><trkpt lat="45.51199590903911" lon="11.497229991290434"><ele>53.00000000000001</ele><time>2026-03-29T09:55:50Z</time></trkpt><trkpt lat="45.512043499003845" lon="11.497161450454364"><ele>53.0</ele><time>2026-03-29T09:55:51Z</time></trkpt><trkpt lat="45.51208636822954" lon="11.4970914486289"><ele>53.0</ele><time>2026-03-29T09:55:52Z</time></trkpt><trkpt lat="45.51213033950006" lon="11.496995968716579"><ele>53.0</ele><time>2026-03-29T09:55:53Z</time></trkpt><trkpt lat="45.51218112922288" lon="11.496918507115563"><ele>53.00000000000001</ele><time>2026-03-29T09:55:54Z</time></trkpt><trkpt lat="45.51223435296807" lon="11.496850998287576"><ele>53.0</ele><time>2026-03-29T09:55:54.999Z</time></trkpt><trkpt lat="45.512326676921326" lon="11.496706656582372"><ele>51.16666666666667</ele><time>2026-03-29T09:55:56.999Z</time></trkpt><trkpt lat="45.51236687356871" lon="11.496626884271715"><ele>49.333333333333336</ele><time>2026-03-29T09:55:57.999Z</time></trkpt><trkpt lat="45.512401074120966" lon="11.496536398117355"><ele>47.5</ele><time>2026-03-29T09:55:58.999Z</time></trkpt><trkpt lat="45.51242294718071" lon="11.496451775345824"><ele>45.66666666666667</ele><time>2026-03-29T09:55:59.999Z</time></trkpt><trkpt lat="45.512454257639526" lon="11.496281291671405"><ele>43.833333333333336</ele><time>2026-03-29T09:56:01.999Z</time></trkpt><trkpt lat="45.51245327363371" lon="11.496127127035948"><ele>42.0</ele><time>2026-03-29T09:56:03.999Z</time></trkpt><trkpt lat="45.512425595893724" lon="11.495979601319446"><ele>41.857142857142854</ele><time>2026-03-29T09:56:05.999Z</time></trkpt><trkpt lat="45.51239308078203" lon="11.495841248004496"><ele>41.714285714285715</ele><time>2026-03-29T09:56:07.999Z</time></trkpt><trkpt lat="45.51236892751194" lon="11.495753298865232"><ele>41.57142857142857</ele><time>2026-03-29T09:56:08.999Z</time></trkpt><trkpt lat="45.5123410661661" lon="11.495664488685662"><ele>41.42857142857143</ele><time>2026-03-29T09:56:09.999Z</time></trkpt><trkpt lat="45.51231491129902" lon="11.495575866361316"><ele>41.285714285714285</ele><time>2026-03-29T09:56:10.999Z</time></trkpt><trkpt lat="45.51228472073282" lon="11.49549441567964"><ele>41.14285714285714</ele><time>2026-03-29T09:56:11.999Z</time></trkpt><trkpt lat="45.51224809337886" lon="11.495399170196707"><ele>41.0</ele><time>2026-03-29T09:56:12.999Z</time></trkpt><trkpt lat="45.51221315339156" lon="11.495316989826028"><ele>40.71428571428571</ele><time>2026-03-29T09:56:13.999Z</time></trkpt><trkpt lat="45.51217482915844" lon="11.495223184130023"><ele>40.42857142857143</ele><time>2026-03-29T09:56:14.999Z</time></trkpt><trkpt lat="45.51213993644296" lon="11.495144557123133"><ele>40.14285714285714</ele><time>2026-03-29T09:56:15.999Z</time></trkpt><trkpt lat="45.51210654955419" lon="11.49505894088871"><ele>39.857142857142854</ele><time>2026-03-29T09:56:16.999Z</time></trkpt><trkpt lat="45.512067294670935" lon="11.49497665581952"><ele>39.57142857142857</ele><time>2026-03-29T09:56:17.999Z</time></trkpt><trkpt lat="45.51202789461762" lon="11.494903043129124"><ele>39.285714285714285</ele><time>2026-03-29T09:56:18.999Z</time></trkpt><trkpt lat="45.51199086991548" lon="11.494826002062695"><ele>39.0</ele><time>2026-03-29T09:56:19.999Z</time></trkpt><trkpt lat="45.51191896941582" lon="11.494696468294814"><ele>39.8</ele><time>2026-03-29T09:56:21.999Z</time></trkpt><trkpt lat="45.51184955351072" lon="11.494563586037254"><ele>40.599999999999994</ele><time>2026-03-29T09:56:23.999Z</time></trkpt><trkpt lat="45.51178001906154" lon="11.494414713604726"><ele>41.4</ele><time>2026-03-29T09:56:25.999Z</time></trkpt><trkpt lat="45.51171237832109" lon="11.494248663736002"><ele>42.199999999999996</ele><time>2026-03-29T09:56:27.999Z</time></trkpt><trkpt lat="45.51167962653079" lon="11.494169072908038"><ele>43.0</ele><time>2026-03-29T09:56:28.999Z</time></trkpt><trkpt lat="45.5116519620472" lon="11.49408376101808"><ele>43.0</ele><time>2026-03-29T09:56:29.999Z</time></trkpt><trkpt lat="45.51162922404065" lon="11.493981215064043"><ele>43.0</ele><time>2026-03-29T09:56:30.999Z</time></trkpt><trkpt lat="45.51160367908816" lon="11.493890922218776"><ele>43.0</ele><time>2026-03-29T09:56:31.999Z</time></trkpt><trkpt lat="45.5115724291434" lon="11.493800410906806"><ele>43.0</ele><time>2026-03-29T09:56:32.998Z</time></trkpt><trkpt lat="45.511520895145686" lon="11.493617425923233"><ele>43.0</ele><time>2026-03-29T09:56:34.998Z</time></trkpt><trkpt lat="45.511493212070285" lon="11.493522673988357"><ele>43.0</ele><time>2026-03-29T09:56:35.998Z</time></trkpt><trkpt lat="45.51146641911823" lon="11.493432526591127"><ele>42.0</ele><time>2026-03-29T09:56:36.998Z</time></trkpt><trkpt lat="45.51143268768812" lon="11.493334756486867"><ele>41.0</ele><time>2026-03-29T09:56:37.998Z</time></trkpt><trkpt lat="45.511403676335526" lon="11.493243069025976"><ele>40.0</ele><time>2026-03-29T09:56:38.998Z</time></trkpt><trkpt lat="45.51138520130977" lon="11.493145216845447"><ele>39.0</ele><time>2026-03-29T09:56:39.998Z</time></trkpt><trkpt lat="45.51135618813415" lon="11.493046237957444"><ele>38.0</ele><time>2026-03-29T09:56:40.998Z</time></trkpt><trkpt lat="45.51132277747547" lon="11.492939491432324"><ele>37.0</ele><time>2026-03-29T09:56:41.998Z</time></trkpt><trkpt lat="45.511287357402814" lon="11.492845770719617"><ele>38.5</ele><time>2026-03-29T09:56:42.998Z</time></trkpt><trkpt lat="45.511238031879564" lon="11.492744522676428"><ele>40.0</ele><time>2026-03-29T09:56:43.998Z</time></trkpt><trkpt lat="45.51119003511054" lon="11.49265810530979"><ele>41.5</ele><time>2026-03-29T09:56:44.998Z</time></trkpt><trkpt lat="45.51113005880483" lon="11.492589849255182"><ele>43.0</ele><time>2026-03-29T09:56:45.998Z</time></trkpt><trkpt lat="45.51106670320776" lon="11.492511290334635"><ele>44.5</ele><time>2026-03-29T09:56:46.998Z</time></trkpt><trkpt lat="45.511001136842964" lon="11.492445981115154"><ele>46.0</ele><time>2026-03-29T09:56:47.998Z</time></trkpt><trkpt lat="45.51093827184891" lon="11.49238075080067"><ele>46.0</ele><time>2026-03-29T09:56:48.998Z</time></trkpt><trkpt lat="45.51087661507483" lon="11.492328868876756"><ele>46.0</ele><time>2026-03-29T09:56:49.998Z</time></trkpt><trkpt lat="45.51081724053086" lon="11.492291311007346"><ele>46.0</ele><time>2026-03-29T09:56:50.998Z</time></trkpt><trkpt lat="45.51076223069543" lon="11.492236197236416"><ele>46.0</ele><time>2026-03-29T09:56:51.998Z</time></trkpt><trkpt lat="45.51065980794748" lon="11.492138233683843"><ele>46.0</ele><time>2026-03-29T09:56:53.998Z</time></trkpt><trkpt lat="45.51056392838731" lon="11.492052633466677"><ele>46.0</ele><time>2026-03-29T09:56:55.998Z</time></trkpt><trkpt lat="45.51047011396425" lon="11.491961246726147"><ele>46.8</ele><time>2026-03-29T09:56:57.998Z</time></trkpt><trkpt lat="45.51038262462765" lon="11.491879565055301"><ele>47.599999999999994</ele><time>2026-03-29T09:56:59.998Z</time></trkpt><trkpt lat="45.510291588157465" lon="11.491800997541858"><ele>48.4</ele><time>2026-03-29T09:57:01.998Z</time></trkpt><trkpt lat="45.51019483213784" lon="11.491730841603932"><ele>49.2</ele><time>2026-03-29T09:57:03.998Z</time></trkpt><trkpt lat="45.51010561336978" lon="11.491652038911411"><ele>50.0</ele><time>2026-03-29T09:57:05.998Z</time></trkpt><trkpt lat="45.51003089166002" lon="11.491580809925424"><ele>50.0</ele><time>2026-03-29T09:57:07.998Z</time></trkpt><trkpt lat="45.50995381792037" lon="11.49153100519537"><ele>50.0</ele><time>2026-03-29T09:57:09.997Z</time></trkpt><trkpt lat="45.509878816955705" lon="11.491400828873793"><ele>50.0</ele><time>2026-03-29T09:57:12.997Z</time></trkpt><trkpt lat="45.50979271953903" lon="11.491312843713912"><ele>50.0</ele><time>2026-03-29T09:57:14.997Z</time></trkpt><trkpt lat="45.50971290774795" lon="11.491196300020526"><ele>50.0</ele><time>2026-03-29T09:57:16.997Z</time></trkpt><trkpt lat="45.509627005025706" lon="11.491070153026872"><ele>50.50000000000001</ele><time>2026-03-29T09:57:18.997Z</time></trkpt><trkpt lat="45.50958406878925" lon="11.491002834065533"><ele>51.0</ele><time>2026-03-29T09:57:19.997Z</time></trkpt><trkpt lat="45.50950143376013" lon="11.490882898940818"><ele>51.5</ele><time>2026-03-29T09:57:21.997Z</time></trkpt><trkpt lat="45.50945563708762" lon="11.490820857527924"><ele>52.0</ele><time>2026-03-29T09:57:22.997Z</time></trkpt><trkpt lat="45.50937265601421" lon="11.490711607118937"><ele>52.50000000000001</ele><time>2026-03-29T09:57:24.997Z</time></trkpt><trkpt lat="45.509328195726745" lon="11.490644569048216"><ele>53.0</ele><time>2026-03-29T09:57:25.997Z</time></trkpt><trkpt lat="45.509280386547275" lon="11.490584190882934"><ele>53.0</ele><time>2026-03-29T09:57:26.997Z</time></trkpt><trkpt lat="45.50923171528042" lon="11.490520462019555"><ele>53.0</ele><time>2026-03-29T09:57:27.997Z</time></trkpt><trkpt lat="45.509183745816266" lon="11.49045323341865"><ele>53.0</ele><time>2026-03-29T09:57:28.997Z</time></trkpt><trkpt lat="45.50913682357023" lon="11.490381529185614"><ele>53.0</ele><time>2026-03-29T09:57:30Z</time></trkpt><trkpt lat="45.509083831577634" lon="11.490325272415669"><ele>53.0</ele><time>2026-03-29T09:57:31Z</time></trkpt><trkpt lat="45.509030122917565" lon="11.490255735606837"><ele>53.0</ele><time>2026-03-29T09:57:32Z</time></trkpt><trkpt lat="45.50897575630642" lon="11.490188556719506"><ele>53.0</ele><time>2026-03-29T09:57:33Z</time></trkpt><trkpt lat="45.508928391332155" lon="11.490125043536167"><ele>55.0</ele><time>2026-03-29T09:57:34Z</time></trkpt><trkpt lat="45.508839086458416" lon="11.490002882022214"><ele>57.0</ele><time>2026-03-29T09:57:36Z</time></trkpt><trkpt lat="45.50875008150778" lon="11.48989207409194"><ele>59.0</ele><time>2026-03-29T09:57:38Z</time></trkpt><trkpt lat="45.50866543603871" lon="11.489792104295027"><ele>61.0</ele><time>2026-03-29T09:57:40Z</time></trkpt><trkpt lat="45.508622291213065" lon="11.489723105994536"><ele>63.0</ele><time>2026-03-29T09:57:41Z</time></trkpt><trkpt lat="45.50857491954642" lon="11.489663453052954"><ele>63.0</ele><time>2026-03-29T09:57:42Z</time></trkpt><trkpt lat="45.5085267947871" lon="11.489595991716408"><ele>63.0</ele><time>2026-03-29T09:57:43Z</time></trkpt><trkpt lat="45.508477468941884" lon="11.48953655153082"><ele>63.0</ele><time>2026-03-29T09:57:44Z</time></trkpt><trkpt lat="45.508426844226214" lon="11.489471988292694"><ele>63.0</ele><time>2026-03-29T09:57:45Z</time></trkpt><trkpt lat="45.5083777170215" lon="11.489401223991198"><ele>63.0</ele><time>2026-03-29T09:57:46Z</time></trkpt><trkpt lat="45.50832547992876" lon="11.489334785895363"><ele>63.0</ele><time>2026-03-29T09:57:47Z</time></trkpt><trkpt lat="45.50827617528928" lon="11.489264063876833"><ele>63.0</ele><time>2026-03-29T09:57:48Z</time></trkpt><trkpt lat="45.508228551833" lon="11.489192711085295"><ele>61.0</ele><time>2026-03-29T09:57:49Z</time></trkpt><trkpt lat="45.50817943742658" lon="11.489109735441511"><ele>59.0</ele><time>2026-03-29T09:57:50Z</time></trkpt><trkpt lat="45.50808719915515" lon="11.488966268017304"><ele>57.0</ele><time>2026-03-29T09:57:52Z</time></trkpt><trkpt lat="45.508043056606226" lon="11.488891400113692"><ele>55.0</ele><time>2026-03-29T09:57:53Z</time></trkpt><trkpt lat="45.50800311936102" lon="11.488808358257343"><ele>53.0</ele><time>2026-03-29T09:57:54Z</time></trkpt><trkpt lat="45.50795564390369" lon="11.48872711713776"><ele>51.0</ele><time>2026-03-29T09:57:55Z</time></trkpt><trkpt lat="45.50790649319482" lon="11.488661018129319"><ele>51.0</ele><time>2026-03-29T09:57:56Z</time></trkpt><trkpt lat="45.5078590246233" lon="11.488586600340199"><ele>51.0</ele><time>2026-03-29T09:57:57Z</time></trkpt><trkpt lat="45.50780961767201" lon="11.488506946042348"><ele>51.0</ele><time>2026-03-29T09:57:58Z</time></trkpt><trkpt lat="45.50776011413357" lon="11.488429722998507"><ele>51.0</ele><time>2026-03-29T09:57:59Z</time></trkpt><trkpt lat="45.50771131799225" lon="11.488346839186311"><ele>51.0</ele><time>2026-03-29T09:58:00Z</time></trkpt><trkpt lat="45.50766306470034" lon="11.48826865256286"><ele>51.0</ele><time>2026-03-29T09:58:00.999Z</time></trkpt><trkpt lat="45.50762518142156" lon="11.488188654382157"><ele>51.0</ele><time>2026-03-29T09:58:01.999Z</time></trkpt><trkpt lat="45.50756761289383" lon="11.488120022956684"><ele>51.0</ele><time>2026-03-29T09:58:02.999Z</time></trkpt><trkpt lat="45.50752134347264" lon="11.488040821653282"><ele>51.0</ele><time>2026-03-29T09:58:03.999Z</time></trkpt><trkpt lat="45.50747568974646" lon="11.487960761424546"><ele>51.0</ele><time>2026-03-29T09:58:04.999Z</time></trkpt><trkpt lat="45.50742614228858" lon="11.48788711908006"><ele>51.0</ele><time>2026-03-29T09:58:05.999Z</time></trkpt><trkpt lat="45.50737867220845" lon="11.487816357356811"><ele>51.0</ele><time>2026-03-29T09:58:06.999Z</time></trkpt><trkpt lat="45.507336691231764" lon="11.487745824107934"><ele>51.0</ele><time>2026-03-29T09:58:07.999Z</time></trkpt><trkpt lat="45.50729760141181" lon="11.487670619617516"><ele>51.0</ele><time>2026-03-29T09:58:08.999Z</time></trkpt><trkpt lat="45.50725679768948" lon="11.48760172650044"><ele>49.25</ele><time>2026-03-29T09:58:09.999Z</time></trkpt><trkpt lat="45.50717720858474" lon="11.487467791817295"><ele>47.5</ele><time>2026-03-29T09:58:11.999Z</time></trkpt><trkpt lat="45.507103055988985" lon="11.487340905883658"><ele>45.75</ele><time>2026-03-29T09:58:13.999Z</time></trkpt><trkpt lat="45.50703363388798" lon="11.487208572695774"><ele>44.0</ele><time>2026-03-29T09:58:15.999Z</time></trkpt><trkpt lat="45.50696661702464" lon="11.487065457514959"><ele>44.0</ele><time>2026-03-29T09:58:17.999Z</time></trkpt><trkpt lat="45.5069355295439" lon="11.486985108176844"><ele>44.0</ele><time>2026-03-29T09:58:18.999Z</time></trkpt><trkpt lat="45.506889425193904" lon="11.486821681049397"><ele>44.0</ele><time>2026-03-29T09:58:20.999Z</time></trkpt><trkpt lat="45.5068795680905" lon="11.486724673822124"><ele>44.0</ele><time>2026-03-29T09:58:21.999Z</time></trkpt><trkpt lat="45.50687485301862" lon="11.486538770263484"><ele>44.0</ele><time>2026-03-29T09:58:23.999Z</time></trkpt><trkpt lat="45.50687407533419" lon="11.48643909373333"><ele>44.0</ele><time>2026-03-29T09:58:24.999Z</time></trkpt><trkpt lat="45.50686560238126" lon="11.486346762444471"><ele>44.0</ele><time>2026-03-29T09:58:25.999Z</time></trkpt><trkpt lat="45.50685921252364" lon="11.486253024409537"><ele>44.0</ele><time>2026-03-29T09:58:26.999Z</time></trkpt><trkpt lat="45.5068530414571" lon="11.486162636365393"><ele>44.0</ele><time>2026-03-29T09:58:27.999Z</time></trkpt><trkpt lat="45.50684669925983" lon="11.486071457755545"><ele>44.0</ele><time>2026-03-29T09:58:28.999Z</time></trkpt><trkpt lat="45.50683186858823" lon="11.485983782387745"><ele>44.0</ele><time>2026-03-29T09:58:29.999Z</time></trkpt><trkpt lat="45.50682173398066" lon="11.485889726332697"><ele>44.0</ele><time>2026-03-29T09:58:30.999Z</time></trkpt><trkpt lat="45.506764690042324" lon="11.485723512564038"><ele>42.666666666666664</ele><time>2026-03-29T09:58:32.999Z</time></trkpt><trkpt lat="45.506704573177934" lon="11.485581188338312"><ele>41.33333333333333</ele><time>2026-03-29T09:58:34.999Z</time></trkpt><trkpt lat="45.50666665718032" lon="11.485500402314853"><ele>40.0</ele><time>2026-03-29T09:58:35.999Z</time></trkpt><trkpt lat="45.50662706183601" lon="11.485423376934012"><ele>38.666666666666664</ele><time>2026-03-29T09:58:36.999Z</time></trkpt><trkpt lat="45.506584123992965" lon="11.485343632635564"><ele>37.333333333333336</ele><time>2026-03-29T09:58:37.998Z</time></trkpt><trkpt lat="45.506542436191815" lon="11.485269458779863"><ele>36.0</ele><time>2026-03-29T09:58:38.998Z</time></trkpt><trkpt lat="45.506503552986445" lon="11.485194915430425"><ele>35.4</ele><time>2026-03-29T09:58:39.998Z</time></trkpt><trkpt lat="45.506422442378394" lon="11.48507822931749"><ele>34.8</ele><time>2026-03-29T09:58:41.998Z</time></trkpt><trkpt lat="45.50635353530433" lon="11.484959693854591"><ele>34.199999999999996</ele><time>2026-03-29T09:58:43.998Z</time></trkpt><trkpt lat="45.50629346805" lon="11.484851750056633"><ele>33.6</ele><time>2026-03-29T09:58:45.998Z</time></trkpt><trkpt lat="45.5063242117122" lon="11.484769886295576"><ele>33.0</ele><time>2026-03-29T09:58:46.998Z</time></trkpt><trkpt lat="45.50639585955591" lon="11.484733792338039"><ele>33.0</ele><time>2026-03-29T09:58:47.998Z</time></trkpt><trkpt lat="45.506457400882304" lon="11.484701318084404"><ele>33.0</ele><time>2026-03-29T09:58:48.998Z</time></trkpt><trkpt lat="45.50652036984404" lon="11.484672211298939"><ele>33.0</ele><time>2026-03-29T09:58:49.998Z</time></trkpt><trkpt lat="45.506581871716804" lon="11.484637203606638"><ele>33.0</ele><time>2026-03-29T09:58:50.998Z</time></trkpt><trkpt lat="45.5066450792514" lon="11.484601642280586"><ele>33.0</ele><time>2026-03-29T09:58:51.998Z</time></trkpt><trkpt lat="45.50670235111693" lon="11.484541095925945"><ele>33.0</ele><time>2026-03-29T09:58:52.998Z</time></trkpt><trkpt lat="45.506771657912424" lon="11.484498690923388"><ele>33.0</ele><time>2026-03-29T09:58:53.998Z</time></trkpt><trkpt lat="45.50683949327347" lon="11.484455522031205"><ele>33.0</ele><time>2026-03-29T09:58:54.998Z</time></trkpt><trkpt lat="45.50689699562627" lon="11.484411132216273"><ele>33.0</ele><time>2026-03-29T09:58:55.998Z</time></trkpt><trkpt lat="45.50695487685974" lon="11.484361941455058"><ele>33.0</ele><time>2026-03-29T09:58:56.998Z</time></trkpt><trkpt lat="45.507018428894995" lon="11.48431691470442"><ele>33.0</ele><time>2026-03-29T09:58:57.998Z</time></trkpt><trkpt lat="45.507084402379704" lon="11.484264917642504"><ele>33.0</ele><time>2026-03-29T09:58:58.998Z</time></trkpt><trkpt lat="45.507167574349396" lon="11.484222607854237"><ele>33.0</ele><time>2026-03-29T09:58:59.998Z</time></trkpt><trkpt lat="45.50727056886637" lon="11.484153150797717"><ele>33.25</ele><time>2026-03-29T09:59:01.998Z</time></trkpt><trkpt lat="45.50737991660772" lon="11.48407940939674"><ele>33.5</ele><time>2026-03-29T09:59:03.998Z</time></trkpt><trkpt lat="45.50747522475891" lon="11.484015395127223"><ele>33.75</ele><time>2026-03-29T09:59:05.998Z</time></trkpt><trkpt lat="45.50757188702109" lon="11.483950953610764"><ele>34.0</ele><time>2026-03-29T09:59:07.998Z</time></trkpt><trkpt lat="45.50768145920425" lon="11.48387790550182"><ele>33.99999999999999</ele><time>2026-03-29T09:59:09.998Z</time></trkpt><trkpt lat="45.50773862146126" lon="11.483814016251456"><ele>34.0</ele><time>2026-03-29T09:59:10.998Z</time></trkpt><trkpt lat="45.50779619695689" lon="11.483775700423365"><ele>34.0</ele><time>2026-03-29T09:59:11.998Z</time></trkpt><trkpt lat="45.50786611624094" lon="11.483733626940818"><ele>34.0</ele><time>2026-03-29T09:59:12.998Z</time></trkpt><trkpt lat="45.50792570517903" lon="11.48369669740379"><ele>34.0</ele><time>2026-03-29T09:59:13.998Z</time></trkpt><trkpt lat="45.50799092089247" lon="11.483656455041656"><ele>33.99999999999999</ele><time>2026-03-29T09:59:14.998Z</time></trkpt><trkpt lat="45.50805165159306" lon="11.483620196705342"><ele>34.0</ele><time>2026-03-29T09:59:15.997Z</time></trkpt><trkpt lat="45.508123988402936" lon="11.48360131441422"><ele>33.71428571428571</ele><time>2026-03-29T09:59:16.997Z</time></trkpt><trkpt lat="45.508188095981055" lon="11.483553186913127"><ele>33.42857142857143</ele><time>2026-03-29T09:59:17.997Z</time></trkpt><trkpt lat="45.50824602153095" lon="11.483502245783377"><ele>33.14285714285714</ele><time>2026-03-29T09:59:18.997Z</time></trkpt><trkpt lat="45.508308107978934" lon="11.483464639294489"><ele>32.857142857142854</ele><time>2026-03-29T09:59:19.997Z</time></trkpt><trkpt lat="45.50837353525338" lon="11.483418476685978"><ele>32.57142857142857</ele><time>2026-03-29T09:59:20.997Z</time></trkpt><trkpt lat="45.50843535233372" lon="11.483381384643083"><ele>32.285714285714285</ele><time>2026-03-29T09:59:21.997Z</time></trkpt><trkpt lat="45.50849341201582" lon="11.483336046158325"><ele>32.0</ele><time>2026-03-29T09:59:22.997Z</time></trkpt><trkpt lat="45.50855250898947" lon="11.483288459552686"><ele>32.0</ele><time>2026-03-29T09:59:23.997Z</time></trkpt><trkpt lat="45.508657616017146" lon="11.483195240263143"><ele>32.0</ele><time>2026-03-29T09:59:25.997Z</time></trkpt><trkpt lat="45.50874982585466" lon="11.483100068014915"><ele>32.0</ele><time>2026-03-29T09:59:27.997Z</time></trkpt><trkpt lat="45.50883364842565" lon="11.482982385648459"><ele>32.0</ele><time>2026-03-29T09:59:29.997Z</time></trkpt><trkpt lat="45.50888648499757" lon="11.482925294334498"><ele>32.0</ele><time>2026-03-29T09:59:30.997Z</time></trkpt><trkpt lat="45.50894405961425" lon="11.482864944671878"><ele>32.57142857142857</ele><time>2026-03-29T09:59:31.997Z</time></trkpt><trkpt lat="45.50899744382987" lon="11.482806787920627"><ele>33.14285714285714</ele><time>2026-03-29T09:59:32.997Z</time></trkpt><trkpt lat="45.509040441503046" lon="11.482740736539382"><ele>33.714285714285715</ele><time>2026-03-29T09:59:33.997Z</time></trkpt><trkpt lat="45.509087285735966" lon="11.482676052748682"><ele>34.285714285714285</ele><time>2026-03-29T09:59:34.997Z</time></trkpt><trkpt lat="45.50914129382474" lon="11.482613344039525"><ele>34.85714285714286</ele><time>2026-03-29T09:59:36Z</time></trkpt><trkpt lat="45.50918833743426" lon="11.482551547616275"><ele>35.42857142857143</ele><time>2026-03-29T09:59:37Z</time></trkpt><trkpt lat="45.50926899944448" lon="11.482434429706755"><ele>36.0</ele><time>2026-03-29T09:59:39Z</time></trkpt><trkpt lat="45.50932833907828" lon="11.4822785292772"><ele>36.333333333333336</ele><time>2026-03-29T09:59:41Z</time></trkpt><trkpt lat="45.50935821286663" lon="11.482096310393793"><ele>36.666666666666664</ele><time>2026-03-29T09:59:43Z</time></trkpt><trkpt lat="45.509349764809365" lon="11.482002604253884"><ele>37.0</ele><time>2026-03-29T09:59:44Z</time></trkpt><trkpt lat="45.50933096086646" lon="11.481906245341364"><ele>37.33333333333333</ele><time>2026-03-29T09:59:45Z</time></trkpt><trkpt lat="45.509317816726885" lon="11.481806784732392"><ele>37.666666666666664</ele><time>2026-03-29T09:59:46Z</time></trkpt><trkpt lat="45.50931038496106" lon="11.481713105911124"><ele>38.0</ele><time>2026-03-29T09:59:47Z</time></trkpt><trkpt lat="45.509294182191574" lon="11.481622136276878"><ele>38.0</ele><time>2026-03-29T09:59:48Z</time></trkpt><trkpt lat="45.50928137558633" lon="11.481520702109922"><ele>38.0</ele><time>2026-03-29T09:59:49Z</time></trkpt><trkpt lat="45.50924610549933" lon="11.481352138490516"><ele>38.0</ele><time>2026-03-29T09:59:51Z</time></trkpt><trkpt lat="45.50922347612504" lon="11.48118149053074"><ele>38.0</ele><time>2026-03-29T09:59:53Z</time></trkpt><trkpt lat="45.50920678915247" lon="11.48104690041711"><ele>38.0</ele><time>2026-03-29T09:59:55Z</time></trkpt><trkpt lat="45.509201414371155" lon="11.480875693016795"><ele>38.166666666666664</ele><time>2026-03-29T09:59:57Z</time></trkpt><trkpt lat="45.509213800879905" lon="11.480780451796354"><ele>38.33333333333333</ele><time>2026-03-29T09:59:58Z</time></trkpt><trkpt lat="45.50922569972443" lon="11.480682730466699"><ele>38.5</ele><time>2026-03-29T09:59:59Z</time></trkpt><trkpt lat="45.50924030843903" lon="11.480504641275102"><ele>38.666666666666664</ele><time>2026-03-29T10:00:01Z</time></trkpt><trkpt lat="45.50924719698613" lon="11.480409994197432"><ele>38.833333333333336</ele><time>2026-03-29T10:00:02Z</time></trkpt><trkpt lat="45.50926882250046" lon="11.480318530246892"><ele>39.0</ele><time>2026-03-29T10:00:03Z</time></trkpt><trkpt lat="45.50929242718967" lon="11.480234644315855"><ele>39.0</ele><time>2026-03-29T10:00:04Z</time></trkpt><trkpt lat="45.50932084541575" lon="11.48015141785119"><ele>39.0</ele><time>2026-03-29T10:00:05Z</time></trkpt><trkpt lat="45.50936326106993" lon="11.479992442989012"><ele>39.0</ele><time>2026-03-29T10:00:07Z</time></trkpt><trkpt lat="45.50939819714065" lon="11.479909271939567"><ele>39.0</ele><time>2026-03-29T10:00:07.999Z</time></trkpt><trkpt lat="45.50944430384116" lon="11.479743008534763"><ele>39.0</ele><time>2026-03-29T10:00:09.999Z</time></trkpt><trkpt lat="45.509466134128736" lon="11.479652366141734"><ele>39.0</ele><time>2026-03-29T10:00:10.999Z</time></trkpt><trkpt lat="45.50948276657766" lon="11.479560750880042"><ele>38.666666666666664</ele><time>2026-03-29T10:00:11.999Z</time></trkpt><trkpt lat="45.50948935212635" lon="11.479466324613776"><ele>38.333333333333336</ele><time>2026-03-29T10:00:12.999Z</time></trkpt><trkpt lat="45.50951572181096" lon="11.47937220000753"><ele>38.0</ele><time>2026-03-29T10:00:13.999Z</time></trkpt><trkpt lat="45.50953877658288" lon="11.47928312772237"><ele>37.66666666666667</ele><time>2026-03-29T10:00:14.999Z</time></trkpt><trkpt lat="45.50954936296377" lon="11.479127483006597"><ele>37.333333333333336</ele><time>2026-03-29T10:00:16.999Z</time></trkpt><trkpt lat="45.50956072247844" lon="11.47898506949181"><ele>37.0</ele><time>2026-03-29T10:00:18.999Z</time></trkpt><trkpt lat="45.50957259958211" lon="11.478822851717077"><ele>37.0</ele><time>2026-03-29T10:00:20.999Z</time></trkpt><trkpt lat="45.50956802767338" lon="11.478732478323334"><ele>37.0</ele><time>2026-03-29T10:00:21.999Z</time></trkpt><trkpt lat="45.50956460237598" lon="11.47864247573091"><ele>37.0</ele><time>2026-03-29T10:00:22.999Z</time></trkpt><trkpt lat="45.50954790089961" lon="11.47846095969816"><ele>37.0</ele><time>2026-03-29T10:00:24.999Z</time></trkpt><trkpt lat="45.50953489833611" lon="11.478366666391347"><ele>37.0</ele><time>2026-03-29T10:00:25.999Z</time></trkpt><trkpt lat="45.50951829739867" lon="11.478272182554507"><ele>37.0</ele><time>2026-03-29T10:00:26.999Z</time></trkpt><trkpt lat="45.509498587954184" lon="11.478174001050022"><ele>37.0</ele><time>2026-03-29T10:00:27.999Z</time></trkpt><trkpt lat="45.50947375388406" lon="11.478083652599464"><ele>37.0</ele><time>2026-03-29T10:00:28.999Z</time></trkpt><trkpt lat="45.50944603185031" lon="11.477993089801492"><ele>37.0</ele><time>2026-03-29T10:00:29.999Z</time></trkpt><trkpt lat="45.50940698719501" lon="11.477917852472986"><ele>37.0</ele><time>2026-03-29T10:00:30.999Z</time></trkpt><trkpt lat="45.50937726033476" lon="11.477836538937579"><ele>37.0</ele><time>2026-03-29T10:00:31.999Z</time></trkpt><trkpt lat="45.50935116984353" lon="11.477738748265608"><ele>37.0</ele><time>2026-03-29T10:00:32.999Z</time></trkpt><trkpt lat="45.50932198882023" lon="11.477651828062276"><ele>37.0</ele><time>2026-03-29T10:00:33.999Z</time></trkpt><trkpt lat="45.509261360121464" lon="11.477507134638067"><ele>37.0</ele><time>2026-03-29T10:00:35.999Z</time></trkpt><trkpt lat="45.50924348862321" lon="11.477415577758343"><ele>37.0</ele><time>2026-03-29T10:00:36.999Z</time></trkpt><trkpt lat="45.50919094458309" lon="11.477284419099233"><ele>37.0</ele><time>2026-03-29T10:00:38.999Z</time></trkpt><trkpt lat="45.509127856650764" lon="11.477145883395242"><ele>37.0</ele><time>2026-03-29T10:00:40.999Z</time></trkpt><trkpt lat="45.50906333233012" lon="11.476990178335543"><ele>37.0</ele><time>2026-03-29T10:00:42.999Z</time></trkpt><trkpt lat="45.509038206138605" lon="11.476906979057704"><ele>37.2</ele><time>2026-03-29T10:00:43.999Z</time></trkpt><trkpt lat="45.509006001524284" lon="11.476816929781084"><ele>37.400000000000006</ele><time>2026-03-29T10:00:44.998Z</time></trkpt><trkpt lat="45.50894206201282" lon="11.476653973329716"><ele>37.599999999999994</ele><time>2026-03-29T10:00:46.998Z</time></trkpt><trkpt lat="45.50891267964235" lon="11.476563810682086"><ele>37.8</ele><time>2026-03-29T10:00:47.998Z</time></trkpt><trkpt lat="45.50884813586434" lon="11.476405700523262"><ele>38.0</ele><time>2026-03-29T10:00:49.998Z</time></trkpt><trkpt lat="45.50881762422072" lon="11.4763143171049"><ele>38.0</ele><time>2026-03-29T10:00:50.998Z</time></trkpt><trkpt lat="45.508795614069655" lon="11.476222075984559"><ele>38.0</ele><time>2026-03-29T10:00:51.998Z</time></trkpt><trkpt lat="45.50875137754468" lon="11.4761474552621"><ele>38.0</ele><time>2026-03-29T10:00:52.998Z</time></trkpt><trkpt lat="45.508724775630085" lon="11.476065057696323"><ele>38.0</ele><time>2026-03-29T10:00:53.998Z</time></trkpt><trkpt lat="45.50869252142498" lon="11.475965093621392"><ele>38.0</ele><time>2026-03-29T10:00:54.998Z</time></trkpt><trkpt lat="45.508660749112806" lon="11.475877900550245"><ele>38.0</ele><time>2026-03-29T10:00:55.998Z</time></trkpt><trkpt lat="45.50860759460236" lon="11.475719839672255"><ele>38.0</ele><time>2026-03-29T10:00:57.998Z</time></trkpt><trkpt lat="45.50855836663567" lon="11.475574791762321"><ele>38.0</ele><time>2026-03-29T10:00:59.998Z</time></trkpt><trkpt lat="45.508506793547944" lon="11.475435427655523"><ele>38.0</ele><time>2026-03-29T10:01:01.998Z</time></trkpt><trkpt lat="45.5084757899776" lon="11.475349779038462"><ele>38.0</ele><time>2026-03-29T10:01:02.998Z</time></trkpt><trkpt lat="45.50844436967894" lon="11.475264172284183"><ele>38.0</ele><time>2026-03-29T10:01:03.998Z</time></trkpt><trkpt lat="45.50841489526665" lon="11.475162675501286"><ele>38.0</ele><time>2026-03-29T10:01:04.998Z</time></trkpt><trkpt lat="45.508387551165335" lon="11.475071171227716"><ele>38.0</ele><time>2026-03-29T10:01:05.998Z</time></trkpt><trkpt lat="45.508326223199326" lon="11.474914105983826"><ele>38.0</ele><time>2026-03-29T10:01:07.998Z</time></trkpt><trkpt lat="45.50829575963294" lon="11.474827152815571"><ele>38.0</ele><time>2026-03-29T10:01:08.998Z</time></trkpt><trkpt lat="45.50823807792667" lon="11.47468629341424"><ele>38.0</ele><time>2026-03-29T10:01:10.998Z</time></trkpt><trkpt lat="45.50817921925759" lon="11.474553338577245"><ele>38.0</ele><time>2026-03-29T10:01:12.998Z</time></trkpt><trkpt lat="45.508136946285866" lon="11.474403802858303"><ele>38.0</ele><time>2026-03-29T10:01:14.998Z</time></trkpt><trkpt lat="45.50808158317667" lon="11.474248143138267"><ele>38.0</ele><time>2026-03-29T10:01:16.998Z</time></trkpt><trkpt lat="45.50804844277964" lon="11.474170112973875"><ele>38.0</ele><time>2026-03-29T10:01:17.998Z</time></trkpt><trkpt lat="45.50801338890038" lon="11.474080681684855"><ele>38.0</ele><time>2026-03-29T10:01:18.998Z</time></trkpt><trkpt lat="45.50798410001664" lon="11.473996227741148"><ele>38.0</ele><time>2026-03-29T10:01:19.998Z</time></trkpt><trkpt lat="45.507950155636394" lon="11.47391378377085"><ele>38.0</ele><time>2026-03-29T10:01:20.998Z</time></trkpt><trkpt lat="45.507913330111805" lon="11.473834014679158"><ele>38.33333333333333</ele><time>2026-03-29T10:01:21.998Z</time></trkpt><trkpt lat="45.50788291106544" lon="11.473749179403644"><ele>38.666666666666664</ele><time>2026-03-29T10:01:22.997Z</time></trkpt><trkpt lat="45.5078486018971" lon="11.473665289653336"><ele>39.0</ele><time>2026-03-29T10:01:23.997Z</time></trkpt><trkpt lat="45.507819427358356" lon="11.47358399395644"><ele>39.333333333333336</ele><time>2026-03-29T10:01:24.997Z</time></trkpt><trkpt lat="45.50779091967381" lon="11.473503755535463"><ele>39.66666666666667</ele><time>2026-03-29T10:01:25.997Z</time></trkpt><trkpt lat="45.507733763540756" lon="11.473368538021527"><ele>40.0</ele><time>2026-03-29T10:01:27.997Z</time></trkpt><trkpt lat="45.507712319473214" lon="11.47320422074178"><ele>40.0</ele><time>2026-03-29T10:01:29.997Z</time></trkpt><trkpt lat="45.50776329481009" lon="11.473048430963114"><ele>40.0</ele><time>2026-03-29T10:01:31.997Z</time></trkpt><trkpt lat="45.5078161173451" lon="11.47296602052247"><ele>40.0</ele><time>2026-03-29T10:01:32.997Z</time></trkpt><trkpt lat="45.50788074214167" lon="11.472900713048281"><ele>40.0</ele><time>2026-03-29T10:01:33.997Z</time></trkpt><trkpt lat="45.50792985563698" lon="11.47283511921593"><ele>40.0</ele><time>2026-03-29T10:01:34.997Z</time></trkpt><trkpt lat="45.5079867831552" lon="11.472761947291229"><ele>40.0</ele><time>2026-03-29T10:01:36.025Z</time></trkpt><trkpt lat="45.50804062443715" lon="11.472699840690192"><ele>40.16666666666667</ele><time>2026-03-29T10:01:37.019Z</time></trkpt><trkpt lat="45.508090358553744" lon="11.472633872434292"><ele>40.333333333333336</ele><time>2026-03-29T10:01:37.997Z</time></trkpt><trkpt lat="45.508165716099434" lon="11.472557619153761"><ele>40.5</ele><time>2026-03-29T10:01:38.997Z</time></trkpt><trkpt lat="45.5082225823949" lon="11.472487939711247"><ele>40.666666666666664</ele><time>2026-03-29T10:01:40.997Z</time></trkpt><trkpt lat="45.508304183342545" lon="11.472388214733506"><ele>40.83333333333333</ele><time>2026-03-29T10:01:42.997Z</time></trkpt><trkpt lat="45.508226565859104" lon="11.472294163689876"><ele>41.0</ele><time>2026-03-29T10:01:45Z</time></trkpt><trkpt lat="45.50811465292651" lon="11.472223943036518"><ele>41.0</ele><time>2026-03-29T10:01:47Z</time></trkpt><trkpt lat="45.50807729704868" lon="11.472151355587327"><ele>41.0</ele><time>2026-03-29T10:01:48Z</time></trkpt><trkpt lat="45.50803424534027" lon="11.47201146064977"><ele>41.0</ele><time>2026-03-29T10:01:50Z</time></trkpt><trkpt lat="45.50797798769026" lon="11.471890579989392"><ele>41.0</ele><time>2026-03-29T10:01:52Z</time></trkpt><trkpt lat="45.507916286729966" lon="11.471755399391862"><ele>41.0</ele><time>2026-03-29T10:01:54Z</time></trkpt><trkpt lat="45.5078764372911" lon="11.471598005790213"><ele>41.166666666666664</ele><time>2026-03-29T10:01:56Z</time></trkpt><trkpt lat="45.50784487696336" lon="11.471516112793628"><ele>41.33333333333333</ele><time>2026-03-29T10:01:57Z</time></trkpt><trkpt lat="45.50781215970833" lon="11.47143577093845"><ele>41.5</ele><time>2026-03-29T10:01:58Z</time></trkpt><trkpt lat="45.507773564268795" lon="11.471356912133311"><ele>41.666666666666664</ele><time>2026-03-29T10:01:59Z</time></trkpt><trkpt lat="45.50772347507" lon="11.471283791334098"><ele>41.833333333333336</ele><time>2026-03-29T10:02:00Z</time></trkpt><trkpt lat="45.507595306672705" lon="11.471232459751699"><ele>42.0</ele><time>2026-03-29T10:02:02Z</time></trkpt><trkpt lat="45.5075444265143" lon="11.471104881076545"><ele>42.2</ele><time>2026-03-29T10:02:04Z</time></trkpt><trkpt lat="45.50750905272847" lon="11.470978466554044"><ele>42.400000000000006</ele><time>2026-03-29T10:02:06Z</time></trkpt><trkpt lat="45.507496295328906" lon="11.470831330543227"><ele>42.599999999999994</ele><time>2026-03-29T10:02:08Z</time></trkpt><trkpt lat="45.50748113808757" lon="11.470685934315194"><ele>42.8</ele><time>2026-03-29T10:02:10Z</time></trkpt><trkpt lat="45.50744248980035" lon="11.470568994624115"><ele>43.0</ele><time>2026-03-29T10:02:12Z</time></trkpt><trkpt lat="45.507396392706426" lon="11.470440455954149"><ele>43.0</ele><time>2026-03-29T10:02:14Z</time></trkpt><trkpt lat="45.50732769434261" lon="11.470349734264428"><ele>43.0</ele><time>2026-03-29T10:02:15.999Z</time></trkpt><trkpt lat="45.50730231865835" lon="11.470255729498254"><ele>43.0</ele><time>2026-03-29T10:02:18.999Z</time></trkpt><trkpt lat="45.50739145541622" lon="11.470201686957513"><ele>43.0</ele><time>2026-03-29T10:02:21.999Z</time></trkpt><trkpt lat="45.507480184838386" lon="11.470123715421574"><ele>43.0</ele><time>2026-03-29T10:02:23.999Z</time></trkpt><trkpt lat="45.50755409907946" lon="11.470003573514001"><ele>43.0</ele><time>2026-03-29T10:02:25.999Z</time></trkpt><trkpt lat="45.507631777107164" lon="11.469907851320219"><ele>43.0</ele><time>2026-03-29T10:02:27.999Z</time></trkpt><trkpt lat="45.507707020069255" lon="11.469796397148551"><ele>43.0</ele><time>2026-03-29T10:02:29.999Z</time></trkpt><trkpt lat="45.50777717234759" lon="11.469702832048856"><ele>43.0</ele><time>2026-03-29T10:02:31.999Z</time></trkpt><trkpt lat="45.50783871729277" lon="11.469641332921247"><ele>43.0</ele><time>2026-03-29T10:02:33.999Z</time></trkpt><trkpt lat="45.50782427296369" lon="11.469553873272922"><ele>43.0</ele><time>2026-03-29T10:02:43.999Z</time></trkpt><trkpt lat="45.50774814900753" lon="11.469418918842704"><ele>42.8</ele><time>2026-03-29T10:02:45.999Z</time></trkpt><trkpt lat="45.50769733908588" lon="11.469358166178441"><ele>42.599999999999994</ele><time>2026-03-29T10:02:46.999Z</time></trkpt><trkpt lat="45.50759614694468" lon="11.469248179720006"><ele>42.400000000000006</ele><time>2026-03-29T10:02:48.999Z</time></trkpt><trkpt lat="45.50752049204669" lon="11.469128597307837"><ele>42.2</ele><time>2026-03-29T10:02:50.999Z</time></trkpt><trkpt lat="45.50747473161111" lon="11.468974524162993"><ele>42.0</ele><time>2026-03-29T10:02:52.998Z</time></trkpt><trkpt lat="45.507445602685486" lon="11.468888694756828"><ele>42.0</ele><time>2026-03-29T10:02:53.998Z</time></trkpt><trkpt lat="45.50741954029655" lon="11.468795700282865"><ele>42.0</ele><time>2026-03-29T10:02:54.998Z</time></trkpt><trkpt lat="45.507390931046054" lon="11.468715573233968"><ele>42.0</ele><time>2026-03-29T10:02:55.998Z</time></trkpt><trkpt lat="45.507358289447104" lon="11.468635264355273"><ele>42.0</ele><time>2026-03-29T10:02:56.998Z</time></trkpt><trkpt lat="45.507326059196316" lon="11.468555903438132"><ele>42.0</ele><time>2026-03-29T10:02:57.998Z</time></trkpt><trkpt lat="45.507273017735905" lon="11.46840181707814"><ele>42.0</ele><time>2026-03-29T10:02:59.998Z</time></trkpt><trkpt lat="45.50724062808089" lon="11.468266663191764"><ele>42.0</ele><time>2026-03-29T10:03:01.998Z</time></trkpt><trkpt lat="45.50731856723703" lon="11.46817816401897"><ele>42.0</ele><time>2026-03-29T10:03:03.998Z</time></trkpt><trkpt lat="45.50742898983082" lon="11.46812702281551"><ele>42.0</ele><time>2026-03-29T10:03:05.998Z</time></trkpt><trkpt lat="45.50751283835678" lon="11.468056018188667"><ele>42.0</ele><time>2026-03-29T10:03:07.998Z</time></trkpt><trkpt lat="45.507514340400895" lon="11.467960221610742"><ele>42.0</ele><time>2026-03-29T10:03:09.998Z</time></trkpt><trkpt lat="45.5074916176376" lon="11.467853933200958"><ele>42.0</ele><time>2026-03-29T10:03:11.998Z</time></trkpt><trkpt lat="45.507475354664244" lon="11.467736981864482"><ele>42.0</ele><time>2026-03-29T10:03:14.998Z</time></trkpt><trkpt lat="45.507467082907176" lon="11.46762982753186"><ele>42.0</ele><time>2026-03-29T10:03:17.998Z</time></trkpt><trkpt lat="45.50745817798899" lon="11.467505184613769"><ele>42.0</ele><time>2026-03-29T10:03:20.998Z</time></trkpt><trkpt lat="45.50743220699183" lon="11.46738368437007"><ele>42.0</ele><time>2026-03-29T10:03:22.998Z</time></trkpt><trkpt lat="45.50741611773983" lon="11.467240148823405"><ele>42.0</ele><time>2026-03-29T10:03:24.998Z</time></trkpt><trkpt lat="45.507419388166795" lon="11.467077863521968"><ele>42.0</ele><time>2026-03-29T10:03:26.998Z</time></trkpt><trkpt lat="45.507507023109056" lon="11.466990526712006"><ele>42.0</ele><time>2026-03-29T10:03:28.998Z</time></trkpt><trkpt lat="45.507628457908964" lon="11.46696966238401"><ele>42.0</ele><time>2026-03-29T10:03:30.997Z</time></trkpt><trkpt lat="45.507715152149174" lon="11.466994240212841"><ele>42.0</ele><time>2026-03-29T10:03:32.997Z</time></trkpt><trkpt lat="45.507733297761206" lon="11.46713552443845"><ele>42.0</ele><time>2026-03-29T10:03:34.997Z</time></trkpt><trkpt lat="45.507738795006304" lon="11.467298122711282"><ele>42.0</ele><time>2026-03-29T10:03:36.997Z</time></trkpt><trkpt lat="45.50773981114395" lon="11.467391747534442"><ele>42.0</ele><time>2026-03-29T10:03:37.997Z</time></trkpt><trkpt lat="45.507772442823956" lon="11.467539881579283"><ele>42.0</ele><time>2026-03-29T10:03:39.997Z</time></trkpt><trkpt lat="45.50777315944291" lon="11.46763505858974"><ele>42.0</ele><time>2026-03-29T10:03:41.997Z</time></trkpt><trkpt lat="45.50777004110541" lon="11.467749349593248"><ele>42.0</ele><time>2026-03-29T10:03:45.021Z</time></trkpt><trkpt lat="45.507462348978216" lon="11.468284893743535"><ele>43.0</ele><time>2026-03-29T10:04:28.776Z</time></trkpt><trkpt lat="45.507564577061274" lon="11.468370769344624"><ele>43.0</ele><time>2026-03-29T10:04:34.945Z</time></trkpt></trkseg></trk></gpx>